GFSCGP_prec_precacc_009.txt.gz
Total_Precipitation_Accumulation
0.00 0.00 0.00 0.00 0.00 0.00 0.00 0.00 0.00 0.00 0.00 0.00 0.00 0.00 0.00 0.00 0.00 0.00 0.00 0.00 0.00 0.00 0.03 0.05 0.07 0.09 0.05 0.02 0.11 0.29 0.41 0.41 0.21 0.07 0.04 0.04 0.04 0.04 0.04 0.01 0.00 0.00 0.00 0.00
0.00 0.00 0.00 0.00 0.00 0.00 0.00 0.00 0.00 0.00 0.00 0.00 0.00 0.00 0.00 0.00 0.00 0.00 0.00 0.00 0.00 0.00 0.00 0.02 0.03 0.03 0.03 0.09 0.20 0.21 0.16 0.06 0.01 0.01 0.01 0.03 0.05 0.02 0.00 0.00 0.00 0.00 0.00 0.00
0.00 0.00 0.00 0.00 0.00 0.00 0.00 0.00 0.00 0.00 0.00 0.00 0.00 0.00 0.00 0.00 0.00 0.00 0.00 0.00 0.00 0.00 0.02 0.03 0.03 0.02 0.01 0.01 0.03 0.01 0.00 0.00 0.00 0.01 0.02 0.01 0.00 0.00 0.00 0.00 0.00 0.00 0.00 0.00
0.00 0.00 0.00 0.00 0.00 0.00 0.00 0.00 0.00 0.00 0.00 0.00 0.00 0.00 0.00 0.00 0.00 0.00 0.00 0.00 0.00 0.00 0.00 0.00 0.00 0.00 0.00 0.00 0.00 0.00 0.00 0.00 0.00 0.00 0.00 0.00 0.00 0.00 0.00 0.00 0.00 0.00 0.00 0.00
0.00 0.00 0.00 0.00 0.00 0.00 0.00 0.00 0.00 0.00 0.00 0.00 0.00 0.00 0.00 0.00 0.00 0.00 0.00 0.00 0.00 0.00 0.00 0.00 0.00 0.00 0.00 0.00 0.00 0.00 0.00 0.00 0.00 0.00 0.00 0.00 0.00 0.00 0.00 0.00 0.00 0.00 0.00 0.00
0.00 0.00 0.00 0.00 0.00 0.00 0.00 0.00 0.00 0.00 0.00 0.00 0.00 0.00 0.00 0.00 0.00 0.00 0.00 0.00 0.00 0.00 0.00 0.00 0.00 0.00 0.00 0.00 0.00 0.00 0.00 0.00 0.00 0.00 0.00 0.00 0.00 0.00 0.00 0.00 0.00 0.00 0.00 0.00
0.00 0.00 0.00 0.00 0.00 0.00 0.00 0.00 0.00 0.00 0.00 0.00 0.00 0.00 0.00 0.00 0.00 0.00 0.00 0.00 0.00 0.00 0.00 0.00 0.00 0.00 0.00 0.00 0.00 0.00 0.00 0.00 0.00 0.00 0.00 0.00 0.00 0.00 0.00 0.00 0.00 0.00 0.00 0.00
0.00 0.00 0.00 0.00 0.00 0.00 0.00 0.00 0.00 0.00 0.00 0.00 0.00 0.00 0.00 0.00 0.00 0.00 0.00 0.00 0.00 0.00 0.00 0.00 0.00 0.00 0.00 0.00 0.00 0.00 0.00 0.00 0.00 0.00 0.00 0.00 0.00 0.00 0.00 0.00 0.00 0.00 0.00 0.00
0.00 0.00 0.00 0.00 0.00 0.00 0.00 0.00 0.00 0.00 0.00 0.00 0.00 0.00 0.00 0.00 0.00 0.00 0.00 0.00 0.00 0.00 0.00 0.00 0.00 0.00 0.00 0.00 0.00 0.00 0.00 0.00 0.00 0.00 0.00 0.00 0.00 0.00 0.00 0.00 0.00 0.00 0.00 0.00
0.00 0.00 0.00 0.00 0.00 0.00 0.00 0.00 0.00 0.00 0.00 0.00 0.00 0.00 0.00 0.00 0.00 0.00 0.00 0.00 0.00 0.00 0.00 0.00 0.00 0.00 0.00 0.00 0.00 0.00 0.00 0.00 0.00 0.00 0.00 0.00 0.00 0.00 0.00 0.00 0.00 0.00 0.00 0.00
0.00 0.00 0.00 0.00 0.00 0.00 0.00 0.00 0.00 0.00 0.00 0.00 0.00 0.00 0.00 0.00 0.00 0.00 0.00 0.00 0.00 0.00 0.00 0.00 0.00 0.00 0.00 0.00 0.00 0.00 0.00 0.00 0.00 0.00 0.00 0.00 0.00 0.00 0.00 0.00 0.00 0.00 0.00 0.00
0.00 0.00 0.00 0.00 0.00 0.00 0.00 0.00 0.00 0.00 0.00 0.00 0.00 0.00 0.00 0.00 0.00 0.00 0.00 0.00 0.00 0.00 0.00 0.00 0.00 0.00 0.00 0.00 0.00 0.00 0.00 0.00 0.00 0.00 0.00 0.00 0.00 0.00 0.00 0.00 0.00 0.00 0.00 0.00
0.00 0.00 0.00 0.00 0.00 0.00 0.00 0.00 0.00 0.00 0.00 0.00 0.00 0.00 0.00 0.00 0.00 0.00 0.00 0.00 0.00 0.00 0.00 0.00 0.00 0.00 0.00 0.00 0.00 0.00 0.00 0.00 0.00 0.00 0.00 0.00 0.00 0.00 0.00 0.00 0.00 0.00 0.00 0.00
0.00 0.00 0.00 0.00 0.00 0.00 0.00 0.00 0.00 0.00 0.00 0.00 0.00 0.00 0.00 0.00 0.00 0.00 0.00 0.00 0.00 0.00 0.00 0.00 0.00 0.00 0.00 0.00 0.00 0.00 0.00 0.00 0.00 0.00 0.00 0.00 0.00 0.00 0.00 0.00 0.00 0.00 0.00 0.00
0.00 0.00 0.00 0.00 0.00 0.00 0.00 0.00 0.00 0.00 0.00 0.00 0.00 0.00 0.00 0.00 0.00 0.00 0.00 0.00 0.00 0.00 0.00 0.00 0.00 0.00 0.00 0.00 0.00 0.00 0.00 0.00 0.00 0.00 0.00 0.00 0.00 0.00 0.00 0.00 0.00 0.00 0.00 0.00
0.00 0.00 0.00 0.00 0.00 0.00 0.00 0.00 0.00 0.00 0.00 0.00 0.00 0.00 0.00 0.00 0.00 0.00 0.00 0.00 0.00 0.00 0.00 0.00 0.00 0.00 0.00 0.00 0.00 0.00 0.00 0.00 0.00 0.00 0.00 0.00 0.00 0.00 0.00 0.00 0.00 0.00 0.00 0.00
0.00 0.00 0.00 0.00 0.00 0.00 0.00 0.00 0.00 0.00 0.00 0.00 0.00 0.00 0.00 0.00 0.00 0.00 0.00 0.00 0.00 0.00 0.00 0.00 0.00 0.00 0.00 0.00 0.00 0.00 0.00 0.00 0.00 0.00 0.00 0.00 0.00 0.00 0.00 0.00 0.00 0.00 0.00 0.00
0.00 0.00 0.00 0.00 0.00 0.00 0.00 0.00 0.00 0.00 0.00 0.00 0.00 0.00 0.00 0.00 0.00 0.00 0.00 0.00 0.00 0.00 0.00 0.00 0.00 0.00 0.00 0.00 0.00 0.00 0.00 0.00 0.00 0.00 0.00 0.00 0.00 0.00 0.00 0.00 0.00 0.01 0.00 0.00
0.00 0.00 0.00 0.00 0.00 0.00 0.00 0.00 0.00 0.00 0.00 0.00 0.00 0.00 0.00 0.00 0.00 0.00 0.00 0.00 0.00 0.00 0.00 0.00 0.00 0.00 0.00 0.00 0.00 0.00 0.00 0.00 0.00 0.00 0.00 0.00 0.00 0.00 0.00 0.00 0.00 0.00 0.00 0.00
0.00 0.00 0.00 0.00 0.00 0.00 0.00 0.00 0.00 0.00 0.00 0.00 0.00 0.00 0.00 0.00 0.00 0.00 0.00 0.00 0.00 0.00 0.00 0.00 0.00 0.00 0.00 0.00 0.00 0.00 0.00 0.00 0.00 0.00 0.00 0.00 0.00 0.00 0.00 0.00 0.00 0.00 0.00 0.00
0.00 0.00 0.00 0.00 0.00 0.00 0.00 0.00 0.00 0.00 0.00 0.00 0.00 0.00 0.00 0.00 0.00 0.00 0.00 0.00 0.00 0.00 0.00 0.00 0.00 0.00 0.00 0.00 0.00 0.00 0.00 0.00 0.00 0.00 0.00 0.00 0.00 0.00 0.00 0.00 0.00 0.00 0.00 0.00
0.00 0.00 0.00 0.00 0.00 0.00 0.00 0.00 0.00 0.00 0.00 0.00 0.00 0.00 0.00 0.00 0.00 0.00 0.00 0.00 0.00 0.00 0.00 0.00 0.00 0.00 0.00 0.00 0.00 0.00 0.00 0.00 0.00 0.00 0.00 0.00 0.00 0.00 0.00 0.00 0.00 0.00 0.00 0.00
0.00 0.00 0.00 0.00 0.00 0.00 0.00 0.00 0.00 0.00 0.00 0.00 0.00 0.00 0.00 0.00 0.00 0.00 0.00 0.00 0.00 0.00 0.00 0.00 0.00 0.00 0.00 0.00 0.00 0.00 0.00 0.00 0.00 0.00 0.00 0.00 0.00 0.00 0.00 0.00 0.00 0.00 0.00 0.00
0.00 0.00 0.00 0.00 0.00 0.00 0.00 0.00 0.00 0.00 0.00 0.00 0.00 0.00 0.00 0.00 0.00 0.00 0.00 0.00 0.00 0.00 0.00 0.00 0.00 0.00 0.00 0.00 0.00 0.00 0.00 0.00 0.00 0.00 0.00 0.00 0.00 0.00 0.00 0.00 0.00 0.00 0.00 0.00
0.00 0.00 0.00 0.00 0.00 0.00 0.00 0.00 0.00 0.00 0.00 0.00 0.00 0.00 0.00 0.00 0.00 0.00 0.00 0.00 0.00 0.02 0.02 0.00 0.00 0.00 0.00 0.00 0.00 0.00 0.00 0.00 0.00 0.00 0.00 0.00 0.00 0.00 0.00 0.00 0.00 0.00 0.00 0.00
0.00 0.00 0.00 0.00 0.00 0.00 0.00 0.00 0.00 0.00 0.00 0.00 0.00 0.00 0.00 0.00 0.00 0.00 0.00 0.01 0.04 0.02 0.00 0.00 0.00 0.00 0.00 0.00 0.00 0.00 0.00 0.00 0.00 0.00 0.00 0.01 0.02 0.02 0.01 0.00 0.00 0.00 0.00 0.00

GFSCGP_prec_precacc_015.txt.gz
Total_Precipitation_Accumulation
0.00 0.00 0.00 0.00 0.00 0.00 0.00 0.00 0.00 0.00 0.00 0.00 0.00 0.00 0.00 0.00 0.00 0.00 0.00 0.00 0.00 0.00 0.03 0.05 0.07 0.09 0.05 0.02 0.11 0.31 0.42 0.42 0.22 0.07 0.04 0.04 0.04 0.04 0.04 0.01 0.00 0.00 0.00 0.00
0.00 0.00 0.00 0.00 0.00 0.00 0.00 0.00 0.00 0.00 0.00 0.00 0.00 0.00 0.00 0.00 0.00 0.00 0.00 0.00 0.00 0.00 0.01 0.02 0.03 0.03 0.04 0.09 0.20 0.23 0.16 0.07 0.01 0.01 0.01 0.03 0.05 0.02 0.00 0.00 0.00 0.00 0.00 0.00
0.00 0.00 0.00 0.00 0.00 0.00 0.00 0.00 0.00 0.00 0.00 0.00 0.00 0.00 0.00 0.00 0.00 0.00 0.00 0.00 0.00 0.00 0.02 0.03 0.03 0.03 0.01 0.01 0.03 0.01 0.00 0.00 0.00 0.01 0.02 0.01 0.00 0.00 0.00 0.00 0.00 0.00 0.00 0.00
0.00 0.00 0.00 0.00 0.00 0.00 0.00 0.00 0.00 0.00 0.00 0.00 0.00 0.00 0.00 0.00 0.00 0.00 0.00 0.00 0.00 0.00 0.00 0.00 0.00 0.00 0.00 0.00 0.00 0.00 0.00 0.00 0.00 0.00 0.00 0.00 0.00 0.00 0.00 0.00 0.00 0.00 0.00 0.00
0.00 0.00 0.00 0.00 0.00 0.00 0.00 0.00 0.00 0.00 0.00 0.00 0.00 0.00 0.01 0.00 0.00 0.00 0.00 0.00 0.00 0.00 0.00 0.00 0.00 0.00 0.00 0.00 0.00 0.00 0.00 0.00 0.00 0.00 0.00 0.00 0.00 0.00 0.00 0.00 0.00 0.00 0.00 0.00
0.00 0.00 0.00 0.00 0.00 0.00 0.00 0.00 0.00 0.00 0.00 0.00 0.00 0.00 0.00 0.00 0.00 0.00 0.00 0.00 0.00 0.00 0.00 0.00 0.00 0.00 0.00 0.00 0.00 0.00 0.00 0.00 0.00 0.00 0.00 0.00 0.00 0.00 0.00 0.00 0.00 0.00 0.00 0.00
0.00 0.00 0.00 0.00 0.00 0.00 0.00 0.00 0.00 0.00 0.00 0.00 0.00 0.00 0.00 0.00 0.00 0.00 0.00 0.00 0.00 0.00 0.00 0.00 0.00 0.00 0.00 0.00 0.00 0.00 0.00 0.00 0.00 0.00 0.00 0.00 0.00 0.00 0.00 0.00 0.00 0.00 0.00 0.00
0.00 0.00 0.00 0.00 0.00 0.00 0.00 0.00 0.00 0.00 0.00 0.00 0.00 0.00 0.00 0.00 0.00 0.00 0.00 0.00 0.00 0.00 0.00 0.00 0.00 0.00 0.00 0.00 0.00 0.00 0.00 0.00 0.00 0.00 0.00 0.00 0.00 0.00 0.00 0.00 0.00 0.00 0.00 0.00
0.00 0.00 0.00 0.00 0.00 0.00 0.00 0.00 0.00 0.00 0.00 0.00 0.00 0.00 0.00 0.00 0.00 0.00 0.00 0.00 0.00 0.00 0.00 0.00 0.00 0.00 0.00 0.00 0.00 0.00 0.00 0.00 0.00 0.00 0.00 0.00 0.00 0.00 0.00 0.00 0.00 0.00 0.00 0.00
0.00 0.00 0.00 0.00 0.00 0.00 0.00 0.00 0.00 0.00 0.00 0.00 0.00 0.00 0.00 0.00 0.00 0.00 0.00 0.00 0.00 0.00 0.00 0.00 0.00 0.00 0.00 0.00 0.00 0.00 0.00 0.00 0.00 0.00 0.00 0.00 0.00 0.00 0.00 0.00 0.00 0.00 0.00 0.00
0.00 0.00 0.00 0.00 0.00 0.00 0.00 0.00 0.00 0.00 0.00 0.00 0.00 0.00 0.00 0.00 0.00 0.00 0.00 0.00 0.00 0.00 0.00 0.00 0.00 0.00 0.00 0.00 0.00 0.00 0.00 0.00 0.00 0.00 0.00 0.00 0.00 0.00 0.00 0.00 0.00 0.00 0.00 0.00
0.00 0.00 0.00 0.00 0.00 0.00 0.00 0.00 0.00 0.00 0.00 0.00 0.00 0.00 0.00 0.00 0.00 0.00 0.00 0.00 0.00 0.00 0.00 0.00 0.00 0.00 0.00 0.00 0.00 0.00 0.00 0.00 0.00 0.00 0.00 0.00 0.00 0.00 0.00 0.00 0.00 0.00 0.00 0.00
0.00 0.00 0.00 0.00 0.00 0.00 0.00 0.00 0.00 0.00 0.00 0.00 0.00 0.00 0.00 0.00 0.00 0.00 0.00 0.00 0.00 0.00 0.00 0.00 0.00 0.00 0.00 0.00 0.00 0.00 0.00 0.00 0.00 0.00 0.00 0.00 0.00 0.00 0.00 0.00 0.00 0.00 0.00 0.00
0.00 0.00 0.00 0.00 0.00 0.00 0.00 0.00 0.00 0.00 0.00 0.00 0.00 0.00 0.00 0.00 0.00 0.00 0.00 0.00 0.00 0.00 0.00 0.00 0.00 0.00 0.00 0.00 0.00 0.00 0.00 0.00 0.00 0.00 0.00 0.00 0.00 0.00 0.00 0.00 0.00 0.00 0.00 0.00
0.00 0.00 0.00 0.00 0.00 0.00 0.00 0.00 0.00 0.00 0.00 0.00 0.00 0.00 0.00 0.00 0.00 0.00 0.00 0.00 0.00 0.00 0.00 0.00 0.00 0.00 0.00 0.00 0.00 0.00 0.00 0.00 0.00 0.00 0.00 0.00 0.00 0.00 0.00 0.00 0.00 0.00 0.00 0.00
0.00 0.00 0.00 0.00 0.00 0.00 0.00 0.00 0.00 0.00 0.00 0.00 0.00 0.00 0.00 0.00 0.00 0.00 0.00 0.00 0.00 0.00 0.00 0.00 0.00 0.00 0.00 0.00 0.00 0.00 0.00 0.00 0.00 0.00 0.00 0.00 0.00 0.00 0.00 0.00 0.00 0.00 0.00 0.00
0.00 0.00 0.00 0.00 0.00 0.00 0.00 0.00 0.00 0.00 0.00 0.00 0.00 0.00 0.00 0.00 0.00 0.00 0.00 0.00 0.00 0.00 0.00 0.00 0.00 0.00 0.00 0.00 0.00 0.00 0.00 0.00 0.00 0.00 0.00 0.00 0.00 0.00 0.00 0.00 0.00 0.00 0.00 0.00
0.00 0.00 0.00 0.00 0.00 0.00 0.00 0.00 0.00 0.00 0.00 0.00 0.00 0.00 0.00 0.00 0.00 0.00 0.00 0.00 0.00 0.00 0.00 0.00 0.00 0.00 0.00 0.00 0.00 0.00 0.00 0.00 0.00 0.00 0.00 0.00 0.00 0.00 0.00 0.00 0.00 0.01 0.00 0.00
0.00 0.00 0.00 0.00 0.00 0.00 0.00 0.00 0.00 0.00 0.00 0.00 0.00 0.00 0.00 0.00 0.00 0.00 0.00 0.00 0.00 0.00 0.00 0.00 0.00 0.00 0.00 0.00 0.00 0.00 0.00 0.00 0.00 0.00 0.00 0.00 0.00 0.00 0.00 0.00 0.00 0.00 0.00 0.00
0.00 0.00 0.00 0.00 0.00 0.00 0.00 0.00 0.00 0.00 0.00 0.00 0.00 0.00 0.00 0.00 0.00 0.00 0.00 0.00 0.00 0.00 0.00 0.00 0.00 0.00 0.00 0.00 0.00 0.00 0.00 0.00 0.00 0.00 0.00 0.00 0.00 0.00 0.00 0.00 0.00 0.00 0.00 0.00
0.00 0.00 0.00 0.00 0.00 0.00 0.00 0.00 0.00 0.00 0.00 0.00 0.00 0.00 0.00 0.00 0.00 0.00 0.00 0.00 0.00 0.00 0.00 0.00 0.00 0.00 0.00 0.00 0.00 0.00 0.00 0.00 0.00 0.00 0.00 0.00 0.00 0.00 0.00 0.00 0.00 0.00 0.00 0.00
0.00 0.00 0.00 0.00 0.00 0.00 0.00 0.00 0.00 0.00 0.00 0.00 0.00 0.00 0.00 0.00 0.00 0.00 0.00 0.00 0.00 0.00 0.00 0.00 0.00 0.00 0.00 0.00 0.00 0.00 0.01 0.00 0.00 0.00 0.00 0.00 0.00 0.00 0.00 0.00 0.00 0.00 0.00 0.00
0.00 0.00 0.00 0.00 0.00 0.00 0.00 0.00 0.00 0.00 0.00 0.00 0.00 0.00 0.00 0.00 0.00 0.00 0.00 0.00 0.00 0.00 0.00 0.00 0.00 0.00 0.01 0.01 0.01 0.01 0.00 0.00 0.00 0.00 0.00 0.00 0.00 0.00 0.00 0.00 0.00 0.00 0.00 0.00
0.00 0.00 0.00 0.00 0.00 0.00 0.00 0.00 0.00 0.00 0.00 0.00 0.00 0.00 0.00 0.00 0.00 0.00 0.00 0.00 0.00 0.00 0.00 0.00 0.01 0.02 0.02 0.02 0.01 0.00 0.00 0.00 0.00 0.00 0.00 0.00 0.00 0.00 0.00 0.00 0.00 0.00 0.00 0.00
0.00 0.00 0.00 0.00 0.00 0.00 0.00 0.00 0.00 0.00 0.00 0.00 0.00 0.00 0.00 0.00 0.00 0.00 0.00 0.00 0.00 0.02 0.03 0.03 0.03 0.03 0.02 0.01 0.00 0.00 0.00 0.00 0.00 0.00 0.00 0.00 0.00 0.00 0.00 0.00 0.00 0.00 0.00 0.00
0.00 0.00 0.00 0.00 0.00 0.00 0.00 0.00 0.00 0.00 0.00 0.00 0.00 0.00 0.00 0.00 0.00 0.00 0.00 0.01 0.04 0.05 0.05 0.05 0.03 0.02 0.01 0.01 0.00 0.00 0.00 0.00 0.00 0.00 0.00 0.01 0.02 0.02 0.01 0.00 0.00 0.00 0.00 0.00

GFSCGP_prec_precacc_018.txt.gz
Total_Precipitation_Accumulation
0.00 0.00 0.00 0.00 0.00 0.00 0.00 0.00 0.00 0.00 0.00 0.00 0.00 0.00 0.00 0.00 0.00 0.00 0.00 0.00 0.00 0.00 0.03 0.05 0.07 0.09 0.05 0.02 0.12 0.31 0.45 0.56 0.26 0.07 0.04 0.04 0.04 0.04 0.04 0.01 0.00 0.00 0.00 0.00
0.00 0.00 0.00 0.00 0.00 0.00 0.00 0.00 0.00 0.00 0.00 0.00 0.00 0.00 0.00 0.00 0.00 0.00 0.00 0.00 0.00 0.00 0.01 0.02 0.03 0.03 0.04 0.09 0.21 0.28 0.18 0.12 0.01 0.01 0.01 0.03 0.05 0.02 0.00 0.00 0.00 0.00 0.00 0.00
0.00 0.00 0.00 0.00 0.00 0.00 0.00 0.00 0.00 0.00 0.00 0.00 0.00 0.00 0.00 0.00 0.00 0.00 0.00 0.00 0.00 0.00 0.02 0.03 0.03 0.03 0.01 0.02 0.05 0.04 0.00 0.00 0.00 0.01 0.02 0.01 0.00 0.00 0.00 0.00 0.00 0.00 0.00 0.00
0.00 0.00 0.00 0.00 0.00 0.00 0.00 0.00 0.00 0.00 0.00 0.00 0.00 0.00 0.00 0.00 0.00 0.00 0.00 0.00 0.00 0.00 0.00 0.00 0.00 0.00 0.01 0.01 0.00 0.00 0.00 0.00 0.00 0.00 0.00 0.00 0.00 0.00 0.00 0.00 0.00 0.00 0.00 0.00
0.01 0.00 0.00 0.00 0.00 0.00 0.00 0.00 0.00 0.00 0.00 0.04 0.02 0.00 0.03 0.05 0.00 0.00 0.00 0.00 0.00 0.00 0.00 0.00 0.00 0.00 0.00 0.00 0.00 0.00 0.00 0.00 0.00 0.00 0.00 0.00 0.00 0.00 0.00 0.00 0.00 0.00 0.00 0.00
0.01 0.00 0.00 0.00 0.00 0.00 0.00 0.00 0.00 0.00 0.00 0.01 0.01 0.01 0.00 0.00 0.00 0.01 0.00 0.00 0.00 0.00 0.00 0.00 0.00 0.00 0.00 0.00 0.00 0.00 0.00 0.00 0.00 0.00 0.00 0.00 0.00 0.00 0.00 0.00 0.00 0.00 0.00 0.00
0.00 0.00 0.00 0.00 0.00 0.00 0.00 0.00 0.00 0.03 0.00 0.00 0.00 0.00 0.01 0.00 0.03 0.07 0.05 0.00 0.00 0.00 0.00 0.00 0.00 0.00 0.00 0.00 0.00 0.00 0.00 0.00 0.00 0.00 0.00 0.00 0.00 0.00 0.00 0.00 0.00 0.00 0.00 0.00
0.00 0.00 0.00 0.00 0.00 0.00 0.00 0.00 0.00 0.05 0.04 0.00 0.00 0.00 0.00 0.00 0.00 0.00 0.00 0.00 0.00 0.00 0.00 0.00 0.00 0.00 0.00 0.00 0.00 0.00 0.00 0.00 0.00 0.00 0.00 0.00 0.00 0.00 0.00 0.00 0.00 0.00 0.00 0.00
0.03 0.01 0.00 0.00 0.00 0.00 0.00 0.00 0.00 0.00 0.02 0.00 0.00 0.00 0.00 0.00 0.00 0.00 0.00 0.00 0.00 0.00 0.00 0.00 0.00 0.00 0.00 0.00 0.00 0.00 0.00 0.00 0.00 0.00 0.00 0.00 0.00 0.00 0.00 0.00 0.00 0.00 0.00 0.00
0.03 0.03 0.00 0.00 0.00 0.00 0.00 0.00 0.00 0.00 0.00 0.00 0.00 0.00 0.00 0.00 0.00 0.00 0.00 0.00 0.00 0.00 0.00 0.00 0.00 0.00 0.00 0.00 0.00 0.00 0.00 0.00 0.00 0.00 0.00 0.00 0.00 0.00 0.00 0.00 0.00 0.00 0.00 0.00
0.00 0.00 0.00 0.00 0.00 0.00 0.00 0.00 0.00 0.00 0.00 0.00 0.00 0.00 0.00 0.00 0.00 0.00 0.00 0.00 0.00 0.00 0.00 0.00 0.00 0.00 0.00 0.00 0.00 0.00 0.00 0.00 0.00 0.00 0.00 0.00 0.00 0.00 0.00 0.00 0.00 0.00 0.00 0.00
0.00 0.00 0.00 0.00 0.00 0.00 0.00 0.00 0.00 0.00 0.00 0.00 0.00 0.00 0.00 0.00 0.00 0.00 0.00 0.00 0.00 0.00 0.00 0.00 0.00 0.00 0.00 0.00 0.00 0.00 0.00 0.00 0.00 0.00 0.00 0.00 0.00 0.00 0.00 0.00 0.00 0.00 0.00 0.00
0.00 0.00 0.00 0.00 0.00 0.00 0.00 0.00 0.00 0.00 0.00 0.00 0.00 0.00 0.00 0.00 0.00 0.00 0.00 0.00 0.00 0.00 0.00 0.00 0.00 0.00 0.00 0.00 0.00 0.00 0.00 0.00 0.00 0.00 0.00 0.00 0.00 0.00 0.00 0.00 0.00 0.00 0.00 0.00
0.00 0.00 0.00 0.00 0.00 0.00 0.00 0.00 0.00 0.00 0.00 0.00 0.00 0.00 0.00 0.00 0.00 0.00 0.00 0.00 0.00 0.00 0.00 0.00 0.00 0.00 0.00 0.00 0.00 0.00 0.00 0.00 0.00 0.00 0.00 0.00 0.00 0.00 0.00 0.00 0.00 0.00 0.00 0.00
0.00 0.00 0.00 0.00 0.00 0.00 0.00 0.00 0.00 0.00 0.00 0.00 0.00 0.00 0.00 0.00 0.00 0.00 0.00 0.00 0.00 0.00 0.00 0.00 0.00 0.00 0.00 0.00 0.00 0.00 0.00 0.00 0.00 0.00 0.00 0.00 0.00 0.00 0.00 0.00 0.00 0.00 0.00 0.00
0.00 0.00 0.00 0.00 0.00 0.00 0.00 0.00 0.00 0.00 0.00 0.00 0.00 0.00 0.00 0.00 0.00 0.00 0.00 0.00 0.00 0.00 0.00 0.00 0.00 0.00 0.00 0.00 0.00 0.00 0.00 0.00 0.00 0.00 0.00 0.00 0.00 0.00 0.00 0.00 0.00 0.00 0.00 0.00
0.00 0.00 0.00 0.00 0.00 0.00 0.00 0.00 0.00 0.00 0.00 0.00 0.00 0.00 0.00 0.00 0.00 0.00 0.00 0.00 0.00 0.00 0.00 0.00 0.00 0.00 0.00 0.00 0.00 0.00 0.00 0.00 0.00 0.00 0.00 0.00 0.00 0.00 0.00 0.00 0.00 0.00 0.00 0.00
0.00 0.00 0.00 0.00 0.00 0.00 0.00 0.00 0.00 0.00 0.00 0.00 0.00 0.00 0.00 0.00 0.00 0.00 0.00 0.00 0.00 0.00 0.00 0.00 0.00 0.00 0.00 0.00 0.00 0.00 0.00 0.00 0.00 0.00 0.00 0.00 0.00 0.00 0.00 0.00 0.00 0.01 0.00 0.00
0.00 0.00 0.00 0.00 0.00 0.00 0.00 0.00 0.00 0.00 0.00 0.00 0.00 0.00 0.00 0.00 0.00 0.00 0.00 0.00 0.00 0.00 0.00 0.00 0.00 0.00 0.00 0.00 0.00 0.00 0.00 0.00 0.00 0.00 0.00 0.00 0.00 0.00 0.00 0.00 0.00 0.00 0.00 0.00
0.00 0.00 0.00 0.00 0.00 0.00 0.00 0.00 0.00 0.00 0.00 0.00 0.00 0.00 0.00 0.00 0.00 0.00 0.00 0.00 0.00 0.00 0.00 0.00 0.00 0.00 0.00 0.00 0.00 0.00 0.00 0.00 0.00 0.00 0.00 0.00 0.00 0.00 0.00 0.00 0.00 0.00 0.00 0.00
0.00 0.00 0.00 0.00 0.00 0.00 0.00 0.00 0.00 0.00 0.00 0.00 0.00 0.00 0.00 0.00 0.00 0.00 0.00 0.00 0.00 0.00 0.00 0.00 0.00 0.00 0.00 0.00 0.00 0.00 0.00 0.00 0.00 0.01 0.01 0.00 0.00 0.00 0.00 0.00 0.00 0.00 0.00 0.00
0.00 0.00 0.00 0.00 0.00 0.00 0.00 0.00 0.00 0.00 0.00 0.00 0.00 0.00 0.00 0.00 0.00 0.00 0.00 0.00 0.00 0.00 0.00 0.00 0.00 0.00 0.00 0.00 0.00 0.01 0.01 0.01 0.01 0.01 0.00 0.00 0.00 0.00 0.00 0.00 0.00 0.00 0.00 0.00
0.00 0.00 0.00 0.00 0.00 0.00 0.00 0.00 0.00 0.00 0.00 0.00 0.00 0.00 0.00 0.00 0.00 0.00 0.00 0.00 0.00 0.00 0.00 0.00 0.00 0.00 0.01 0.01 0.01 0.02 0.02 0.01 0.00 0.00 0.00 0.00 0.00 0.00 0.00 0.00 0.00 0.00 0.00 0.00
0.00 0.00 0.00 0.00 0.00 0.00 0.00 0.00 0.00 0.00 0.00 0.00 0.00 0.00 0.00 0.00 0.00 0.00 0.00 0.00 0.00 0.00 0.00 0.00 0.01 0.02 0.02 0.02 0.02 0.01 0.00 0.01 0.01 0.00 0.00 0.00 0.00 0.00 0.00 0.00 0.00 0.00 0.00 0.00
0.00 0.00 0.00 0.00 0.00 0.00 0.00 0.00 0.00 0.00 0.00 0.00 0.00 0.00 0.00 0.00 0.00 0.00 0.00 0.00 0.00 0.02 0.03 0.03 0.03 0.03 0.03 0.01 0.01 0.01 0.01 0.00 0.00 0.00 0.00 0.00 0.00 0.00 0.00 0.00 0.00 0.00 0.00 0.00
0.00 0.00 0.00 0.00 0.00 0.00 0.00 0.00 0.00 0.00 0.00 0.00 0.00 0.00 0.00 0.00 0.00 0.00 0.00 0.01 0.04 0.05 0.05 0.05 0.03 0.02 0.01 0.01 0.01 0.00 0.00 0.00 0.00 0.00 0.00 0.01 0.02 0.02 0.01 0.00 0.00 0.00 0.00 0.00

GFSCGP_prec_precacc_024.txt.gz
Total_Precipitation_Accumulation
0.00 0.00 0.00 0.00 0.00 0.00 0.00 0.00 0.00 0.00 0.00 0.00 0.00 0.00 0.00 0.00 0.00 0.02 0.02 0.07 0.02 0.00 0.03 0.05 0.07 0.09 0.07 0.08 0.18 0.39 0.47 0.59 0.29 0.08 0.04 0.04 0.04 0.04 0.04 0.01 0.00 0.00 0.00 0.00
0.00 0.00 0.00 0.00 0.00 0.00 0.00 0.00 0.00 0.00 0.00 0.00 0.00 0.00 0.00 0.00 0.00 0.01 0.01 0.11 0.03 0.00 0.01 0.02 0.03 0.03 0.04 0.10 0.35 0.43 0.23 0.12 0.01 0.01 0.01 0.03 0.05 0.02 0.00 0.00 0.00 0.00 0.00 0.00
0.00 0.00 0.00 0.00 0.00 0.00 0.00 0.00 0.00 0.00 0.00 0.00 0.00 0.00 0.00 0.00 0.00 0.00 0.00 0.00 0.00 0.00 0.02 0.03 0.03 0.03 0.01 0.02 0.17 0.16 0.04 0.02 0.00 0.01 0.02 0.01 0.00 0.00 0.00 0.00 0.00 0.00 0.00 0.00
0.00 0.00 0.00 0.00 0.00 0.00 0.00 0.00 0.00 0.00 0.00 0.00 0.00 0.00 0.00 0.00 0.00 0.00 0.00 0.00 0.00 0.00 0.00 0.00 0.00 0.00 0.01 0.06 0.22 0.07 0.05 0.02 0.01 0.01 0.00 0.00 0.00 0.00 0.00 0.00 0.00 0.00 0.00 0.00
0.01 0.00 0.00 0.00 0.00 0.00 0.00 0.00 0.00 0.00 0.00 0.04 0.02 0.00 0.03 0.05 0.00 0.00 0.00 0.00 0.00 0.00 0.00 0.00 0.00 0.00 0.02 0.04 0.13 0.07 0.02 0.02 0.02 0.01 0.00 0.00 0.00 0.00 0.00 0.00 0.00 0.00 0.00 0.00
0.01 0.00 0.00 0.00 0.00 0.00 0.00 0.00 0.00 0.00 0.00 0.01 0.01 0.01 0.00 0.00 0.00 0.01 0.00 0.00 0.00 0.00 0.00 0.00 0.00 0.01 0.02 0.08 0.09 0.01 0.00 0.00 0.00 0.00 0.00 0.00 0.00 0.00 0.00 0.00 0.00 0.00 0.00 0.00
0.00 0.00 0.00 0.00 0.00 0.00 0.00 0.00 0.00 0.03 0.00 0.00 0.00 0.01 0.01 0.01 0.04 0.08 0.10 0.00 0.00 0.00 0.00 0.00 0.02 0.04 0.04 0.05 0.03 0.00 0.00 0.00 0.00 0.00 0.00 0.00 0.00 0.00 0.00 0.00 0.00 0.00 0.00 0.00
0.01 0.00 0.00 0.00 0.00 0.00 0.00 0.00 0.00 0.06 0.06 0.01 0.03 0.01 0.00 0.00 0.00 0.00 0.00 0.00 0.00 0.00 0.00 0.00 0.01 0.02 0.04 0.05 0.01 0.00 0.00 0.00 0.00 0.00 0.00 0.00 0.00 0.00 0.00 0.00 0.00 0.00 0.00 0.00
0.03 0.01 0.02 0.00 0.00 0.00 0.00 0.00 0.00 0.01 0.04 0.01 0.01 0.00 0.00 0.00 0.00 0.00 0.00 0.00 0.00 0.00 0.00 0.00 0.00 0.01 0.02 0.02 0.01 0.00 0.00 0.00 0.00 0.00 0.00 0.00 0.00 0.00 0.00 0.00 0.00 0.00 0.00 0.00
0.04 0.08 0.02 0.01 0.00 0.00 0.00 0.00 0.00 0.00 0.00 0.00 0.00 0.00 0.00 0.00 0.00 0.00 0.00 0.00 0.00 0.00 0.00 0.00 0.00 0.00 0.00 0.00 0.00 0.00 0.00 0.00 0.00 0.00 0.00 0.00 0.00 0.00 0.00 0.00 0.00 0.00 0.00 0.00
0.00 0.03 0.04 0.00 0.00 0.00 0.00 0.00 0.00 0.00 0.00 0.00 0.00 0.00 0.00 0.00 0.00 0.00 0.00 0.00 0.00 0.00 0.00 0.00 0.00 0.00 0.00 0.00 0.00 0.00 0.00 0.00 0.00 0.00 0.00 0.00 0.00 0.00 0.00 0.00 0.00 0.00 0.00 0.00
0.00 0.00 0.00 0.00 0.00 0.00 0.00 0.01 0.04 0.00 0.00 0.00 0.00 0.00 0.00 0.00 0.00 0.00 0.00 0.00 0.00 0.00 0.00 0.00 0.00 0.00 0.00 0.00 0.00 0.00 0.00 0.00 0.00 0.00 0.00 0.00 0.00 0.00 0.00 0.00 0.00 0.00 0.00 0.00
0.00 0.00 0.00 0.00 0.00 0.01 0.00 0.00 0.00 0.00 0.00 0.00 0.00 0.00 0.00 0.00 0.00 0.00 0.00 0.00 0.00 0.00 0.00 0.00 0.00 0.00 0.00 0.00 0.00 0.00 0.00 0.00 0.00 0.00 0.00 0.00 0.00 0.00 0.00 0.00 0.00 0.00 0.00 0.00
0.00 0.00 0.00 0.00 0.00 0.00 0.00 0.00 0.00 0.00 0.00 0.00 0.00 0.00 0.00 0.00 0.00 0.00 0.00 0.00 0.00 0.00 0.00 0.00 0.00 0.00 0.00 0.00 0.00 0.00 0.00 0.00 0.00 0.00 0.00 0.00 0.00 0.00 0.00 0.00 0.00 0.00 0.00 0.00
0.00 0.00 0.00 0.00 0.00 0.00 0.00 0.00 0.00 0.00 0.00 0.00 0.00 0.00 0.00 0.00 0.00 0.00 0.00 0.00 0.00 0.00 0.00 0.00 0.00 0.00 0.00 0.00 0.00 0.00 0.00 0.00 0.00 0.00 0.00 0.00 0.00 0.00 0.00 0.00 0.00 0.00 0.00 0.00
0.00 0.00 0.00 0.00 0.00 0.00 0.00 0.00 0.00 0.00 0.00 0.00 0.00 0.00 0.00 0.00 0.00 0.00 0.00 0.00 0.00 0.00 0.00 0.00 0.00 0.00 0.00 0.00 0.01 0.01 0.00 0.00 0.00 0.00 0.00 0.00 0.00 0.00 0.00 0.00 0.00 0.00 0.00 0.00
0.00 0.00 0.00 0.00 0.00 0.00 0.00 0.00 0.00 0.00 0.00 0.00 0.00 0.00 0.00 0.00 0.00 0.00 0.00 0.00 0.00 0.00 0.00 0.00 0.00 0.00 0.00 0.00 0.00 0.00 0.00 0.00 0.00 0.00 0.00 0.00 0.00 0.00 0.00 0.00 0.00 0.00 0.00 0.00
0.02 0.00 0.00 0.00 0.00 0.00 0.00 0.00 0.00 0.00 0.00 0.00 0.00 0.00 0.00 0.00 0.00 0.00 0.00 0.00 0.00 0.00 0.00 0.00 0.00 0.00 0.00 0.00 0.00 0.00 0.00 0.00 0.00 0.00 0.00 0.00 0.00 0.00 0.00 0.00 0.00 0.01 0.01 0.00
0.05 0.02 0.00 0.00 0.00 0.00 0.00 0.00 0.00 0.00 0.00 0.00 0.00 0.00 0.00 0.00 0.00 0.00 0.00 0.00 0.00 0.00 0.00 0.00 0.00 0.00 0.00 0.00 0.00 0.00 0.00 0.00 0.00 0.00 0.00 0.00 0.00 0.00 0.00 0.01 0.01 0.01 0.00 0.00
0.01 0.01 0.00 0.00 0.00 0.00 0.00 0.00 0.00 0.00 0.00 0.00 0.00 0.00 0.00 0.00 0.00 0.00 0.00 0.00 0.00 0.00 0.00 0.00 0.00 0.00 0.00 0.00 0.00 0.00 0.00 0.00 0.00 0.00 0.00 0.00 0.01 0.02 0.05 0.05 0.01 0.00 0.00 0.00
0.00 0.00 0.00 0.00 0.00 0.00 0.00 0.00 0.00 0.00 0.00 0.00 0.00 0.00 0.00 0.00 0.00 0.00 0.00 0.00 0.00 0.00 0.00 0.00 0.00 0.00 0.00 0.00 0.00 0.00 0.00 0.00 0.00 0.01 0.04 0.07 0.09 0.10 0.05 0.01 0.00 0.00 0.00 0.00
0.00 0.00 0.00 0.00 0.00 0.00 0.00 0.00 0.00 0.00 0.00 0.00 0.00 0.00 0.00 0.00 0.00 0.00 0.00 0.00 0.00 0.00 0.00 0.00 0.00 0.00 0.00 0.00 0.00 0.01 0.01 0.02 0.05 0.07 0.09 0.10 0.06 0.01 0.00 0.00 0.00 0.00 0.00 0.00
0.00 0.00 0.00 0.00 0.00 0.00 0.00 0.00 0.00 0.00 0.00 0.00 0.00 0.00 0.00 0.00 0.00 0.00 0.00 0.00 0.00 0.00 0.00 0.00 0.00 0.00 0.01 0.01 0.01 0.02 0.02 0.03 0.03 0.05 0.03 0.01 0.00 0.00 0.00 0.00 0.00 0.00 0.00 0.00
0.00 0.00 0.00 0.00 0.00 0.00 0.00 0.00 0.00 0.00 0.00 0.00 0.00 0.00 0.00 0.00 0.00 0.00 0.00 0.00 0.00 0.00 0.00 0.00 0.01 0.02 0.02 0.02 0.02 0.01 0.00 0.01 0.01 0.00 0.00 0.00 0.00 0.00 0.00 0.00 0.00 0.00 0.00 0.00
0.00 0.00 0.00 0.00 0.00 0.00 0.00 0.00 0.00 0.00 0.00 0.00 0.00 0.00 0.00 0.00 0.00 0.00 0.00 0.00 0.00 0.02 0.03 0.03 0.03 0.03 0.03 0.01 0.01 0.01 0.01 0.00 0.00 0.00 0.00 0.00 0.00 0.00 0.00 0.00 0.00 0.00 0.00 0.00
0.00 0.00 0.00 0.00 0.00 0.00 0.00 0.00 0.00 0.00 0.00 0.00 0.00 0.00 0.00 0.00 0.00 0.00 0.00 0.01 0.04 0.05 0.05 0.05 0.03 0.02 0.01 0.01 0.01 0.00 0.00 0.00 0.00 0.00 0.00 0.01 0.02 0.02 0.01 0.00 0.00 0.00 0.00 0.00

GFSCGP_prec_precacc_030.txt.gz
Total_Precipitation_Accumulation
0.00 0.00 0.00 0.00 0.00 0.00 0.00 0.00 0.00 0.00 0.00 0.00 0.00 0.00 0.00 0.00 0.00 0.03 0.05 0.07 0.02 0.00 0.03 0.05 0.07 0.09 0.07 0.08 0.18 0.39 0.47 0.59 0.29 0.08 0.04 0.05 0.06 0.05 0.04 0.01 0.00 0.00 0.00 0.00
0.00 0.00 0.00 0.00 0.00 0.00 0.00 0.00 0.00 0.00 0.00 0.00 0.00 0.00 0.00 0.00 0.00 0.01 0.01 0.11 0.03 0.00 0.01 0.02 0.04 0.03 0.04 0.11 0.36 0.43 0.23 0.13 0.02 0.01 0.01 0.03 0.05 0.03 0.00 0.00 0.00 0.00 0.00 0.00
0.00 0.00 0.00 0.00 0.00 0.00 0.00 0.00 0.00 0.00 0.00 0.00 0.00 0.00 0.00 0.00 0.00 0.01 0.00 0.00 0.00 0.00 0.02 0.03 0.03 0.03 0.01 0.02 0.18 0.18 0.06 0.05 0.02 0.02 0.02 0.03 0.03 0.01 0.00 0.00 0.00 0.00 0.00 0.00
0.00 0.00 0.00 0.00 0.00 0.00 0.00 0.00 0.00 0.00 0.00 0.00 0.00 0.00 0.00 0.00 0.00 0.00 0.00 0.00 0.00 0.00 0.00 0.00 0.00 0.00 0.01 0.06 0.25 0.11 0.10 0.10 0.06 0.04 0.04 0.04 0.10 0.06 0.02 0.00 0.00 0.00 0.00 0.00
0.01 0.00 0.00 0.00 0.00 0.00 0.00 0.00 0.00 0.00 0.00 0.04 0.02 0.00 0.03 0.05 0.00 0.00 0.00 0.00 0.00 0.00 0.00 0.00 0.00 0.00 0.02 0.07 0.20 0.15 0.12 0.16 0.09 0.10 0.16 0.11 0.15 0.11 0.03 0.00 0.00 0.00 0.00 0.00
0.01 0.00 0.00 0.00 0.00 0.00 0.00 0.00 0.00 0.00 0.00 0.01 0.01 0.01 0.00 0.00 0.00 0.01 0.00 0.00 0.00 0.00 0.00 0.00 0.00 0.01 0.03 0.11 0.17 0.29 0.28 0.16 0.10 0.13 0.18 0.13 0.11 0.08 0.02 0.01 0.00 0.00 0.00 0.00
0.00 0.00 0.00 0.00 0.00 0.00 0.00 0.00 0.00 0.03 0.00 0.00 0.00 0.01 0.01 0.01 0.04 0.08 0.10 0.00 0.00 0.00 0.00 0.00 0.02 0.04 0.04 0.08 0.13 0.18 0.24 0.17 0.10 0.09 0.10 0.06 0.03 0.02 0.01 0.00 0.00 0.00 0.00 0.00
0.01 0.00 0.00 0.00 0.00 0.00 0.00 0.00 0.00 0.06 0.06 0.01 0.03 0.01 0.00 0.00 0.00 0.00 0.00 0.00 0.00 0.00 0.00 0.00 0.01 0.02 0.05 0.11 0.08 0.06 0.19 0.18 0.08 0.08 0.04 0.01 0.01 0.01 0.00 0.00 0.00 0.00 0.00 0.00
0.03 0.01 0.02 0.00 0.00 0.00 0.00 0.00 0.00 0.01 0.04 0.01 0.01 0.00 0.00 0.00 0.00 0.00 0.00 0.00 0.00 0.00 0.00 0.00 0.00 0.01 0.04 0.07 0.04 0.09 0.08 0.06 0.02 0.01 0.00 0.00 0.01 0.02 0.03 0.03 0.00 0.00 0.00 0.00
0.04 0.08 0.02 0.01 0.00 0.00 0.00 0.00 0.00 0.00 0.00 0.00 0.00 0.00 0.00 0.00 0.00 0.00 0.00 0.00 0.00 0.00 0.00 0.00 0.00 0.00 0.01 0.01 0.01 0.04 0.02 0.00 0.00 0.00 0.00 0.01 0.03 0.03 0.02 0.01 0.01 0.01 0.00 0.00
0.00 0.03 0.04 0.00 0.00 0.00 0.00 0.00 0.00 0.00 0.00 0.00 0.00 0.00 0.00 0.00 0.00 0.00 0.00 0.00 0.00 0.00 0.00 0.00 0.00 0.00 0.00 0.00 0.00 0.00 0.00 0.00 0.00 0.00 0.00 0.02 0.03 0.02 0.02 0.01 0.01 0.00 0.00 0.00
0.00 0.00 0.00 0.00 0.00 0.00 0.00 0.01 0.04 0.00 0.00 0.00 0.00 0.00 0.00 0.00 0.00 0.00 0.00 0.00 0.00 0.00 0.00 0.00 0.00 0.00 0.00 0.00 0.00 0.01 0.01 0.00 0.00 0.02 0.03 0.03 0.02 0.01 0.00 0.00 0.00 0.00 0.00 0.00
0.00 0.00 0.00 0.00 0.00 0.01 0.00 0.00 0.00 0.00 0.00 0.00 0.00 0.00 0.00 0.00 0.00 0.00 0.00 0.00 0.00 0.00 0.00 0.00 0.00 0.00 0.00 0.00 0.02 0.06 0.04 0.03 0.04 0.03 0.03 0.01 0.00 0.00 0.00 0.00 0.00 0.00 0.00 0.00
0.00 0.00 0.00 0.00 0.00 0.00 0.00 0.00 0.00 0.00 0.00 0.00 0.00 0.00 0.00 0.00 0.00 0.00 0.00 0.00 0.00 0.00 0.00 0.00 0.00 0.00 0.00 0.04 0.09 0.06 0.04 0.03 0.05 0.02 0.01 0.00 0.00 0.00 0.00 0.00 0.00 0.00 0.00 0.00
0.00 0.00 0.00 0.00 0.00 0.00 0.00 0.00 0.00 0.00 0.00 0.00 0.00 0.00 0.00 0.00 0.00 0.00 0.00 0.00 0.00 0.00 0.00 0.00 0.00 0.00 0.01 0.05 0.04 0.03 0.02 0.02 0.01 0.01 0.00 0.00 0.00 0.00 0.00 0.00 0.00 0.00 0.00 0.00
0.00 0.00 0.00 0.00 0.00 0.00 0.00 0.00 0.00 0.00 0.00 0.00 0.00 0.00 0.00 0.00 0.00 0.00 0.00 0.00 0.00 0.00 0.00 0.00 0.00 0.01 0.01 0.01 0.02 0.02 0.01 0.01 0.01 0.00 0.00 0.00 0.00 0.00 0.00 0.00 0.00 0.00 0.00 0.00
0.00 0.00 0.00 0.00 0.00 0.00 0.00 0.00 0.00 0.00 0.00 0.00 0.00 0.00 0.00 0.00 0.00 0.00 0.00 0.00 0.00 0.00 0.00 0.00 0.00 0.00 0.00 0.00 0.00 0.00 0.00 0.00 0.00 0.00 0.00 0.00 0.01 0.00 0.00 0.00 0.00 0.00 0.00 0.00
0.02 0.00 0.00 0.00 0.00 0.00 0.00 0.00 0.00 0.00 0.00 0.00 0.00 0.00 0.00 0.00 0.00 0.00 0.00 0.00 0.00 0.00 0.00 0.00 0.00 0.00 0.00 0.00 0.00 0.00 0.00 0.00 0.00 0.00 0.00 0.00 0.01 0.00 0.00 0.00 0.00 0.02 0.03 0.05
0.05 0.03 0.00 0.00 0.00 0.00 0.00 0.00 0.00 0.00 0.00 0.00 0.00 0.00 0.00 0.00 0.00 0.00 0.00 0.00 0.00 0.00 0.00 0.00 0.00 0.00 0.00 0.00 0.00 0.00 0.00 0.00 0.00 0.00 0.00 0.00 0.00 0.00 0.01 0.02 0.06 0.10 0.11 0.08
0.01 0.03 0.02 0.00 0.00 0.00 0.00 0.00 0.00 0.00 0.00 0.00 0.00 0.00 0.00 0.00 0.00 0.00 0.00 0.00 0.00 0.00 0.00 0.00 0.00 0.00 0.00 0.00 0.00 0.00 0.00 0.00 0.00 0.00 0.00 0.00 0.01 0.05 0.10 0.16 0.17 0.13 0.06 0.01
0.01 0.01 0.00 0.00 0.00 0.00 0.00 0.00 0.00 0.00 0.00 0.00 0.00 0.00 0.00 0.00 0.00 0.00 0.00 0.00 0.00 0.00 0.00 0.00 0.00 0.00 0.00 0.00 0.00 0.00 0.00 0.00 0.00 0.02 0.06 0.11 0.16 0.22 0.18 0.11 0.05 0.03 0.01 0.00
0.00 0.00 0.00 0.00 0.00 0.00 0.00 0.00 0.00 0.00 0.00 0.00 0.00 0.00 0.00 0.00 0.00 0.00 0.00 0.00 0.00 0.00 0.00 0.00 0.00 0.00 0.00 0.00 0.00 0.01 0.01 0.02 0.05 0.09 0.13 0.16 0.15 0.08 0.04 0.01 0.00 0.00 0.00 0.00
0.00 0.00 0.00 0.00 0.00 0.00 0.00 0.00 0.00 0.00 0.00 0.00 0.00 0.00 0.00 0.00 0.00 0.00 0.00 0.00 0.00 0.00 0.00 0.00 0.00 0.00 0.01 0.01 0.01 0.02 0.02 0.03 0.04 0.06 0.04 0.01 0.00 0.00 0.00 0.00 0.00 0.00 0.00 0.00
0.00 0.00 0.00 0.00 0.00 0.00 0.00 0.00 0.00 0.00 0.00 0.00 0.00 0.00 0.00 0.00 0.00 0.00 0.00 0.00 0.00 0.00 0.00 0.00 0.01 0.02 0.02 0.02 0.02 0.01 0.00 0.01 0.01 0.00 0.00 0.00 0.00 0.00 0.00 0.00 0.00 0.00 0.00 0.00
0.00 0.00 0.00 0.00 0.00 0.00 0.00 0.00 0.00 0.00 0.00 0.00 0.00 0.00 0.00 0.00 0.00 0.00 0.00 0.00 0.00 0.02 0.03 0.03 0.03 0.03 0.03 0.01 0.01 0.01 0.01 0.00 0.00 0.00 0.00 0.00 0.00 0.00 0.00 0.00 0.00 0.00 0.00 0.00
0.00 0.00 0.00 0.00 0.00 0.00 0.00 0.00 0.00 0.00 0.00 0.00 0.00 0.00 0.00 0.00 0.00 0.00 0.00 0.01 0.04 0.05 0.05 0.05 0.03 0.02 0.01 0.01 0.01 0.00 0.00 0.00 0.00 0.00 0.00 0.01 0.02 0.02 0.01 0.00 0.00 0.00 0.00 0.00

GFSCGP_prec_precacc_033.txt.gz
Total_Precipitation_Accumulation
0.00 0.00 0.00 0.00 0.00 0.00 0.00 0.00 0.00 0.00 0.00 0.00 0.00 0.00 0.00 0.00 0.00 0.03 0.05 0.07 0.02 0.00 0.03 0.05 0.07 0.09 0.07 0.08 0.18 0.39 0.47 0.59 0.29 0.08 0.04 0.05 0.10 0.11 0.06 0.01 0.00 0.00 0.00 0.00
0.00 0.00 0.00 0.00 0.00 0.00 0.00 0.00 0.00 0.00 0.00 0.00 0.00 0.00 0.00 0.00 0.00 0.01 0.01 0.11 0.03 0.00 0.01 0.02 0.04 0.03 0.04 0.11 0.36 0.43 0.23 0.13 0.02 0.01 0.01 0.03 0.07 0.06 0.01 0.00 0.00 0.00 0.00 0.00
0.00 0.00 0.00 0.00 0.00 0.00 0.00 0.00 0.00 0.00 0.00 0.00 0.00 0.00 0.00 0.00 0.00 0.01 0.00 0.00 0.00 0.00 0.02 0.03 0.03 0.03 0.01 0.02 0.18 0.18 0.06 0.05 0.02 0.02 0.02 0.03 0.08 0.08 0.02 0.00 0.00 0.00 0.00 0.00
0.00 0.00 0.00 0.00 0.00 0.00 0.00 0.00 0.00 0.00 0.00 0.00 0.00 0.00 0.00 0.00 0.00 0.00 0.00 0.00 0.00 0.00 0.00 0.00 0.00 0.00 0.01 0.06 0.25 0.11 0.10 0.10 0.09 0.08 0.06 0.06 0.13 0.08 0.05 0.02 0.01 0.00 0.00 0.00
0.01 0.00 0.00 0.00 0.00 0.00 0.00 0.00 0.00 0.00 0.00 0.04 0.02 0.00 0.03 0.05 0.00 0.00 0.00 0.00 0.00 0.00 0.00 0.00 0.00 0.00 0.02 0.07 0.20 0.15 0.12 0.20 0.14 0.21 0.23 0.17 0.19 0.16 0.08 0.02 0.01 0.00 0.00 0.00
0.01 0.00 0.00 0.00 0.00 0.00 0.00 0.00 0.00 0.00 0.00 0.01 0.01 0.01 0.00 0.00 0.00 0.01 0.00 0.00 0.00 0.00 0.00 0.00 0.00 0.01 0.03 0.11 0.17 0.29 0.31 0.20 0.15 0.21 0.20 0.15 0.13 0.10 0.04 0.03 0.01 0.01 0.01 0.00
0.00 0.00 0.00 0.00 0.00 0.00 0.00 0.00 0.00 0.03 0.00 0.00 0.00 0.01 0.01 0.01 0.04 0.08 0.10 0.00 0.00 0.00 0.00 0.00 0.02 0.04 0.04 0.08 0.13 0.18 0.32 0.35 0.20 0.18 0.14 0.09 0.06 0.04 0.02 0.01 0.04 0.03 0.01 0.00
0.01 0.00 0.00 0.00 0.00 0.00 0.00 0.00 0.00 0.06 0.06 0.01 0.03 0.01 0.00 0.00 0.00 0.00 0.00 0.00 0.00 0.00 0.00 0.00 0.01 0.02 0.05 0.11 0.08 0.06 0.29 0.37 0.35 0.19 0.11 0.07 0.03 0.02 0.01 0.02 0.05 0.03 0.00 0.00
0.03 0.01 0.02 0.00 0.00 0.00 0.00 0.00 0.00 0.01 0.04 0.01 0.01 0.00 0.00 0.00 0.00 0.00 0.00 0.00 0.00 0.00 0.00 0.00 0.00 0.01 0.04 0.07 0.05 0.09 0.09 0.19 0.16 0.05 0.03 0.02 0.02 0.04 0.06 0.07 0.04 0.01 0.00 0.00
0.04 0.08 0.02 0.01 0.00 0.00 0.00 0.00 0.00 0.00 0.00 0.00 0.00 0.00 0.00 0.00 0.00 0.00 0.00 0.00 0.00 0.00 0.00 0.00 0.00 0.00 0.01 0.01 0.01 0.06 0.04 0.02 0.02 0.02 0.01 0.02 0.04 0.05 0.05 0.06 0.06 0.03 0.01 0.00
0.00 0.03 0.04 0.00 0.00 0.00 0.00 0.00 0.00 0.00 0.00 0.00 0.00 0.00 0.00 0.00 0.00 0.00 0.00 0.00 0.00 0.00 0.00 0.00 0.00 0.00 0.00 0.00 0.00 0.00 0.00 0.01 0.01 0.01 0.02 0.04 0.07 0.08 0.10 0.08 0.07 0.03 0.01 0.00
0.00 0.00 0.00 0.00 0.00 0.00 0.00 0.01 0.04 0.00 0.00 0.00 0.00 0.00 0.00 0.00 0.00 0.00 0.00 0.00 0.00 0.00 0.00 0.00 0.00 0.00 0.00 0.00 0.00 0.01 0.03 0.02 0.04 0.05 0.06 0.08 0.08 0.10 0.08 0.06 0.03 0.01 0.00 0.00
0.00 0.00 0.00 0.00 0.00 0.01 0.00 0.00 0.00 0.00 0.00 0.00 0.00 0.00 0.00 0.00 0.00 0.00 0.00 0.00 0.00 0.00 0.00 0.00 0.00 0.00 0.00 0.00 0.02 0.09 0.08 0.11 0.10 0.10 0.09 0.07 0.06 0.06 0.04 0.02 0.01 0.00 0.00 0.00
0.00 0.00 0.00 0.00 0.00 0.00 0.00 0.00 0.00 0.00 0.00 0.00 0.00 0.00 0.00 0.00 0.00 0.00 0.00 0.00 0.00 0.00 0.00 0.00 0.00 0.00 0.00 0.04 0.11 0.08 0.08 0.09 0.13 0.08 0.05 0.04 0.03 0.02 0.01 0.00 0.00 0.00 0.00 0.00
0.00 0.00 0.00 0.00 0.00 0.00 0.00 0.00 0.00 0.00 0.00 0.00 0.00 0.00 0.00 0.00 0.00 0.00 0.00 0.00 0.00 0.00 0.00 0.00 0.00 0.00 0.01 0.05 0.05 0.03 0.04 0.03 0.05 0.02 0.02 0.01 0.01 0.00 0.00 0.00 0.00 0.00 0.00 0.00
0.00 0.00 0.00 0.00 0.00 0.00 0.00 0.00 0.00 0.00 0.00 0.00 0.00 0.00 0.00 0.00 0.00 0.00 0.00 0.00 0.00 0.00 0.00 0.00 0.00 0.01 0.01 0.01 0.02 0.02 0.01 0.01 0.01 0.01 0.00 0.01 0.01 0.00 0.00 0.00 0.00 0.00 0.00 0.00
0.00 0.00 0.00 0.00 0.01 0.01 0.00 0.00 0.00 0.00 0.00 0.00 0.00 0.00 0.00 0.00 0.00 0.00 0.00 0.00 0.00 0.00 0.00 0.00 0.00 0.00 0.00 0.00 0.00 0.00 0.00 0.00 0.00 0.00 0.00 0.00 0.01 0.01 0.00 0.00 0.00 0.00 0.00 0.00
0.02 0.00 0.00 0.00 0.00 0.00 0.00 0.00 0.00 0.00 0.00 0.00 0.00 0.00 0.00 0.00 0.00 0.00 0.00 0.00 0.00 0.00 0.00 0.00 0.00 0.00 0.00 0.00 0.00 0.00 0.00 0.00 0.00 0.00 0.00 0.00 0.01 0.00 0.00 0.00 0.01 0.02 0.05 0.09
0.05 0.03 0.00 0.00 0.00 0.00 0.00 0.00 0.00 0.00 0.00 0.00 0.00 0.00 0.00 0.00 0.00 0.00 0.00 0.00 0.00 0.00 0.00 0.00 0.00 0.00 0.00 0.00 0.00 0.00 0.00 0.00 0.00 0.00 0.00 0.00 0.00 0.00 0.01 0.03 0.07 0.13 0.17 0.17
0.01 0.03 0.02 0.00 0.00 0.00 0.00 0.00 0.00 0.00 0.00 0.00 0.00 0.00 0.00 0.00 0.00 0.00 0.00 0.00 0.00 0.00 0.00 0.00 0.00 0.00 0.00 0.00 0.00 0.00 0.00 0.00 0.00 0.00 0.00 0.00 0.01 0.05 0.11 0.17 0.19 0.15 0.08 0.03
0.01 0.01 0.00 0.00 0.00 0.00 0.00 0.00 0.00 0.00 0.00 0.00 0.00 0.00 0.00 0.00 0.00 0.00 0.00 0.00 0.00 0.00 0.00 0.00 0.00 0.00 0.00 0.00 0.00 0.00 0.00 0.00 0.00 0.02 0.06 0.11 0.16 0.22 0.19 0.12 0.06 0.04 0.02 0.01
0.00 0.00 0.00 0.00 0.00 0.00 0.00 0.00 0.00 0.00 0.00 0.00 0.00 0.00 0.00 0.00 0.00 0.00 0.00 0.00 0.00 0.00 0.00 0.00 0.00 0.00 0.00 0.00 0.00 0.01 0.01 0.02 0.05 0.09 0.13 0.16 0.16 0.09 0.04 0.01 0.00 0.00 0.00 0.00
0.00 0.00 0.00 0.00 0.00 0.00 0.00 0.00 0.00 0.00 0.00 0.00 0.00 0.00 0.00 0.00 0.00 0.00 0.00 0.00 0.00 0.00 0.00 0.00 0.00 0.00 0.01 0.01 0.01 0.02 0.02 0.03 0.04 0.06 0.04 0.01 0.00 0.00 0.00 0.00 0.00 0.00 0.00 0.00
0.00 0.00 0.00 0.00 0.00 0.00 0.00 0.00 0.00 0.00 0.00 0.00 0.00 0.00 0.00 0.00 0.00 0.00 0.00 0.00 0.00 0.00 0.00 0.00 0.01 0.02 0.02 0.02 0.02 0.01 0.00 0.01 0.01 0.00 0.00 0.00 0.00 0.00 0.00 0.00 0.00 0.00 0.00 0.00
0.00 0.00 0.00 0.00 0.00 0.00 0.00 0.00 0.00 0.00 0.00 0.00 0.00 0.00 0.00 0.00 0.00 0.00 0.00 0.00 0.00 0.02 0.03 0.03 0.03 0.03 0.03 0.01 0.01 0.01 0.01 0.00 0.00 0.00 0.00 0.00 0.00 0.00 0.00 0.00 0.00 0.00 0.00 0.00
0.00 0.00 0.00 0.00 0.00 0.00 0.00 0.00 0.00 0.00 0.00 0.00 0.00 0.00 0.00 0.00 0.00 0.00 0.00 0.01 0.04 0.05 0.05 0.05 0.03 0.02 0.01 0.01 0.01 0.00 0.00 0.00 0.00 0.00 0.00 0.01 0.02 0.02 0.01 0.00 0.00 0.00 0.00 0.00

GFSCGP_prec_precacc_036.txt.gz
Total_Precipitation_Accumulation
0.00 0.00 0.00 0.00 0.00 0.00 0.00 0.00 0.00 0.00 0.00 0.00 0.00 0.00 0.00 0.00 0.00 0.03 0.05 0.07 0.02 0.00 0.03 0.05 0.07 0.09 0.07 0.08 0.18 0.39 0.47 0.60 0.31 0.09 0.04 0.05 0.10 0.11 0.07 0.02 0.00 0.00 0.00 0.00
0.00 0.00 0.00 0.00 0.00 0.00 0.00 0.00 0.00 0.00 0.00 0.00 0.00 0.00 0.00 0.00 0.00 0.01 0.01 0.11 0.03 0.00 0.01 0.02 0.04 0.03 0.04 0.11 0.36 0.43 0.23 0.14 0.03 0.02 0.01 0.03 0.07 0.07 0.03 0.00 0.00 0.00 0.00 0.00
0.00 0.00 0.00 0.00 0.00 0.00 0.00 0.00 0.00 0.00 0.00 0.00 0.00 0.00 0.00 0.00 0.00 0.01 0.00 0.00 0.00 0.00 0.02 0.03 0.03 0.03 0.01 0.02 0.18 0.18 0.06 0.05 0.03 0.02 0.02 0.03 0.09 0.12 0.05 0.01 0.00 0.00 0.00 0.00
0.00 0.00 0.00 0.00 0.00 0.00 0.00 0.00 0.00 0.00 0.00 0.00 0.00 0.00 0.00 0.00 0.00 0.00 0.00 0.00 0.00 0.00 0.00 0.00 0.00 0.00 0.01 0.06 0.25 0.11 0.10 0.10 0.09 0.08 0.06 0.06 0.13 0.13 0.12 0.08 0.03 0.02 0.01 0.00
0.01 0.00 0.00 0.00 0.00 0.00 0.00 0.00 0.00 0.00 0.00 0.04 0.02 0.00 0.03 0.05 0.00 0.00 0.00 0.00 0.00 0.00 0.00 0.00 0.00 0.00 0.02 0.07 0.20 0.15 0.12 0.20 0.14 0.22 0.25 0.18 0.21 0.20 0.11 0.04 0.03 0.03 0.03 0.01
0.01 0.00 0.00 0.00 0.00 0.00 0.00 0.00 0.00 0.00 0.00 0.01 0.01 0.01 0.00 0.00 0.00 0.01 0.00 0.00 0.00 0.00 0.00 0.00 0.00 0.01 0.03 0.11 0.17 0.29 0.31 0.21 0.19 0.32 0.36 0.20 0.17 0.14 0.10 0.06 0.03 0.02 0.02 0.02
0.00 0.00 0.00 0.00 0.00 0.00 0.00 0.00 0.00 0.03 0.00 0.00 0.00 0.01 0.01 0.01 0.04 0.08 0.10 0.00 0.00 0.00 0.00 0.00 0.02 0.04 0.04 0.08 0.13 0.18 0.32 0.41 0.26 0.23 0.19 0.12 0.11 0.12 0.09 0.06 0.07 0.06 0.05 0.04
0.01 0.00 0.00 0.00 0.00 0.00 0.00 0.00 0.00 0.06 0.06 0.01 0.03 0.01 0.00 0.00 0.00 0.00 0.00 0.00 0.00 0.00 0.00 0.00 0.01 0.02 0.05 0.11 0.08 0.06 0.29 0.41 0.47 0.29 0.13 0.09 0.06 0.04 0.03 0.03 0.06 0.04 0.03 0.01
0.03 0.01 0.02 0.00 0.00 0.00 0.00 0.00 0.00 0.01 0.04 0.01 0.01 0.00 0.00 0.00 0.00 0.00 0.00 0.00 0.00 0.00 0.00 0.00 0.00 0.01 0.04 0.07 0.05 0.09 0.09 0.25 0.37 0.21 0.07 0.03 0.02 0.04 0.06 0.08 0.05 0.04 0.03 0.01
0.04 0.08 0.02 0.01 0.00 0.00 0.00 0.00 0.00 0.00 0.00 0.00 0.00 0.00 0.00 0.00 0.00 0.00 0.00 0.00 0.00 0.00 0.00 0.00 0.00 0.00 0.01 0.01 0.01 0.06 0.04 0.02 0.09 0.15 0.10 0.03 0.04 0.06 0.07 0.08 0.10 0.08 0.04 0.01
0.00 0.03 0.04 0.00 0.00 0.00 0.00 0.00 0.00 0.00 0.00 0.00 0.00 0.00 0.00 0.00 0.00 0.00 0.00 0.00 0.00 0.00 0.00 0.00 0.00 0.00 0.00 0.00 0.00 0.00 0.00 0.01 0.01 0.01 0.02 0.05 0.09 0.11 0.13 0.13 0.14 0.10 0.04 0.01
0.00 0.00 0.00 0.00 0.00 0.00 0.00 0.01 0.04 0.00 0.00 0.00 0.00 0.00 0.00 0.00 0.00 0.00 0.00 0.00 0.00 0.00 0.00 0.00 0.00 0.00 0.00 0.00 0.00 0.01 0.03 0.03 0.04 0.05 0.08 0.12 0.14 0.16 0.12 0.10 0.08 0.06 0.03 0.02
0.00 0.00 0.00 0.00 0.00 0.01 0.00 0.00 0.00 0.00 0.00 0.00 0.00 0.00 0.00 0.00 0.00 0.00 0.00 0.00 0.00 0.00 0.00 0.00 0.00 0.00 0.00 0.00 0.02 0.09 0.08 0.12 0.13 0.15 0.14 0.12 0.09 0.08 0.08 0.08 0.05 0.03 0.02 0.01
0.00 0.00 0.00 0.00 0.00 0.00 0.00 0.00 0.00 0.00 0.00 0.00 0.00 0.00 0.00 0.00 0.00 0.00 0.00 0.00 0.00 0.00 0.00 0.00 0.00 0.00 0.00 0.04 0.11 0.08 0.10 0.12 0.18 0.13 0.09 0.06 0.05 0.04 0.04 0.03 0.02 0.02 0.01 0.01
0.00 0.00 0.00 0.00 0.00 0.00 0.00 0.00 0.00 0.00 0.00 0.00 0.00 0.00 0.00 0.00 0.00 0.00 0.00 0.00 0.00 0.00 0.00 0.00 0.00 0.00 0.01 0.05 0.05 0.04 0.06 0.06 0.09 0.06 0.05 0.05 0.04 0.03 0.02 0.01 0.01 0.00 0.00 0.00
0.00 0.00 0.00 0.00 0.00 0.00 0.00 0.00 0.00 0.00 0.00 0.00 0.00 0.00 0.00 0.00 0.00 0.00 0.00 0.00 0.00 0.00 0.00 0.00 0.00 0.01 0.01 0.01 0.02 0.03 0.03 0.02 0.01 0.01 0.00 0.01 0.01 0.01 0.00 0.00 0.00 0.00 0.00 0.00
0.00 0.00 0.00 0.00 0.01 0.01 0.00 0.00 0.00 0.00 0.00 0.00 0.00 0.00 0.00 0.00 0.00 0.00 0.00 0.00 0.00 0.00 0.00 0.00 0.00 0.00 0.00 0.00 0.00 0.00 0.00 0.00 0.00 0.00 0.00 0.00 0.01 0.01 0.00 0.00 0.00 0.00 0.00 0.01
0.02 0.00 0.00 0.00 0.00 0.00 0.00 0.00 0.00 0.00 0.00 0.00 0.00 0.00 0.00 0.00 0.00 0.00 0.00 0.00 0.00 0.00 0.00 0.00 0.00 0.00 0.00 0.00 0.00 0.00 0.00 0.00 0.00 0.00 0.00 0.00 0.01 0.00 0.00 0.00 0.01 0.02 0.06 0.10
0.05 0.03 0.00 0.00 0.00 0.00 0.00 0.00 0.00 0.00 0.00 0.00 0.00 0.00 0.00 0.00 0.00 0.00 0.00 0.00 0.00 0.00 0.00 0.00 0.00 0.00 0.00 0.00 0.00 0.00 0.00 0.00 0.00 0.00 0.00 0.00 0.00 0.00 0.01 0.03 0.07 0.13 0.17 0.18
0.01 0.03 0.02 0.00 0.00 0.00 0.00 0.00 0.00 0.00 0.00 0.00 0.00 0.00 0.00 0.00 0.00 0.00 0.00 0.00 0.00 0.00 0.00 0.00 0.00 0.00 0.00 0.00 0.00 0.00 0.00 0.00 0.00 0.00 0.00 0.00 0.01 0.05 0.11 0.17 0.19 0.15 0.08 0.03
0.01 0.01 0.00 0.00 0.00 0.00 0.00 0.00 0.00 0.00 0.00 0.00 0.00 0.00 0.00 0.00 0.00 0.00 0.00 0.00 0.00 0.00 0.00 0.00 0.00 0.00 0.00 0.00 0.00 0.00 0.00 0.00 0.00 0.02 0.06 0.11 0.16 0.22 0.19 0.12 0.06 0.04 0.02 0.01
0.00 0.00 0.00 0.00 0.00 0.00 0.00 0.00 0.00 0.00 0.00 0.00 0.00 0.00 0.00 0.00 0.00 0.00 0.00 0.00 0.00 0.00 0.00 0.00 0.00 0.00 0.00 0.00 0.00 0.01 0.01 0.02 0.05 0.09 0.13 0.16 0.16 0.09 0.04 0.01 0.00 0.00 0.00 0.00
0.00 0.00 0.00 0.00 0.00 0.00 0.00 0.00 0.00 0.00 0.00 0.00 0.00 0.00 0.00 0.00 0.00 0.00 0.00 0.00 0.00 0.00 0.00 0.00 0.00 0.00 0.01 0.01 0.01 0.02 0.02 0.03 0.04 0.06 0.04 0.01 0.00 0.00 0.00 0.00 0.00 0.00 0.00 0.00
0.00 0.00 0.00 0.00 0.00 0.00 0.00 0.00 0.00 0.00 0.00 0.00 0.00 0.00 0.00 0.00 0.00 0.00 0.00 0.00 0.00 0.00 0.00 0.00 0.01 0.02 0.02 0.02 0.02 0.01 0.00 0.01 0.01 0.00 0.00 0.00 0.00 0.00 0.00 0.00 0.00 0.00 0.00 0.00
0.00 0.01 0.00 0.00 0.00 0.00 0.00 0.00 0.00 0.00 0.00 0.00 0.00 0.00 0.00 0.00 0.00 0.00 0.00 0.00 0.00 0.02 0.03 0.03 0.03 0.03 0.03 0.01 0.01 0.01 0.01 0.00 0.00 0.00 0.00 0.00 0.00 0.00 0.00 0.00 0.00 0.00 0.00 0.00
0.00 0.00 0.00 0.00 0.00 0.00 0.00 0.00 0.00 0.00 0.00 0.00 0.00 0.00 0.00 0.00 0.00 0.00 0.00 0.01 0.04 0.05 0.05 0.05 0.03 0.02 0.01 0.01 0.01 0.00 0.00 0.00 0.00 0.00 0.00 0.01 0.02 0.02 0.01 0.00 0.00 0.00 0.00 0.00

GFSCGP_prec_precacc_039.txt.gz
Total_Precipitation_Accumulation
0.00 0.00 0.00 0.00 0.00 0.00 0.00 0.00 0.00 0.00 0.00 0.00 0.00 0.00 0.00 0.00 0.00 0.03 0.05 0.07 0.02 0.00 0.03 0.05 0.07 0.09 0.07 0.08 0.18 0.39 0.47 0.61 0.36 0.11 0.04 0.05 0.10 0.13 0.11 0.10 0.08 0.02 0.00 0.00
0.00 0.00 0.00 0.00 0.00 0.00 0.00 0.00 0.00 0.00 0.00 0.00 0.00 0.00 0.00 0.00 0.00 0.01 0.01 0.11 0.03 0.00 0.01 0.02 0.04 0.03 0.04 0.11 0.36 0.43 0.23 0.14 0.07 0.02 0.01 0.03 0.07 0.07 0.04 0.04 0.04 0.01 0.00 0.00
0.00 0.00 0.00 0.00 0.00 0.00 0.00 0.00 0.00 0.00 0.00 0.00 0.00 0.00 0.00 0.00 0.00 0.01 0.00 0.00 0.00 0.00 0.02 0.03 0.03 0.03 0.01 0.02 0.18 0.18 0.06 0.05 0.07 0.02 0.02 0.03 0.09 0.13 0.07 0.03 0.01 0.01 0.00 0.00
0.00 0.00 0.00 0.00 0.00 0.00 0.00 0.00 0.00 0.00 0.00 0.00 0.00 0.00 0.00 0.00 0.00 0.00 0.00 0.00 0.00 0.00 0.00 0.00 0.00 0.00 0.01 0.06 0.25 0.11 0.10 0.10 0.10 0.09 0.06 0.06 0.13 0.14 0.13 0.09 0.04 0.03 0.03 0.01
0.01 0.00 0.00 0.00 0.00 0.00 0.00 0.00 0.00 0.00 0.00 0.04 0.02 0.00 0.03 0.05 0.00 0.00 0.00 0.00 0.00 0.00 0.00 0.00 0.00 0.00 0.02 0.07 0.20 0.15 0.12 0.20 0.14 0.24 0.25 0.18 0.21 0.20 0.16 0.05 0.03 0.04 0.05 0.04
0.01 0.00 0.00 0.00 0.00 0.00 0.00 0.00 0.00 0.00 0.00 0.01 0.01 0.01 0.00 0.00 0.00 0.01 0.00 0.00 0.00 0.00 0.00 0.00 0.00 0.01 0.03 0.11 0.17 0.29 0.31 0.21 0.19 0.34 0.38 0.21 0.18 0.17 0.20 0.11 0.05 0.05 0.03 0.04
0.00 0.00 0.00 0.00 0.00 0.00 0.00 0.00 0.00 0.04 0.00 0.00 0.00 0.01 0.01 0.01 0.04 0.08 0.10 0.00 0.00 0.00 0.00 0.00 0.02 0.04 0.04 0.08 0.13 0.18 0.32 0.41 0.27 0.25 0.22 0.19 0.15 0.14 0.12 0.11 0.13 0.11 0.08 0.06
0.01 0.00 0.00 0.00 0.00 0.00 0.00 0.00 0.01 0.08 0.06 0.01 0.03 0.01 0.00 0.00 0.00 0.00 0.00 0.00 0.00 0.00 0.00 0.00 0.01 0.02 0.05 0.11 0.08 0.06 0.29 0.41 0.48 0.33 0.15 0.10 0.07 0.05 0.06 0.13 0.14 0.08 0.05 0.03
0.03 0.01 0.02 0.00 0.00 0.00 0.00 0.00 0.00 0.01 0.04 0.01 0.01 0.00 0.00 0.00 0.00 0.00 0.00 0.00 0.00 0.00 0.00 0.00 0.00 0.01 0.04 0.07 0.05 0.09 0.09 0.25 0.37 0.24 0.11 0.06 0.02 0.04 0.06 0.08 0.06 0.06 0.04 0.02
0.04 0.08 0.02 0.01 0.00 0.00 0.00 0.00 0.00 0.00 0.01 0.01 0.00 0.00 0.00 0.00 0.00 0.00 0.00 0.00 0.00 0.00 0.00 0.00 0.00 0.00 0.01 0.01 0.01 0.06 0.04 0.02 0.11 0.22 0.23 0.07 0.04 0.06 0.07 0.09 0.14 0.11 0.07 0.04
0.00 0.03 0.04 0.00 0.00 0.00 0.00 0.00 0.00 0.00 0.00 0.00 0.00 0.00 0.00 0.00 0.00 0.00 0.00 0.00 0.00 0.00 0.00 0.00 0.00 0.00 0.00 0.00 0.00 0.00 0.00 0.01 0.01 0.02 0.10 0.07 0.09 0.12 0.14 0.14 0.15 0.11 0.05 0.03
0.00 0.00 0.00 0.00 0.00 0.00 0.00 0.01 0.04 0.00 0.00 0.00 0.00 0.00 0.00 0.00 0.00 0.00 0.00 0.00 0.00 0.00 0.00 0.00 0.00 0.00 0.00 0.00 0.00 0.01 0.03 0.03 0.04 0.06 0.09 0.12 0.14 0.17 0.14 0.11 0.09 0.07 0.04 0.02
0.00 0.00 0.00 0.00 0.00 0.01 0.00 0.00 0.00 0.00 0.00 0.00 0.01 0.00 0.00 0.00 0.00 0.00 0.00 0.00 0.00 0.00 0.00 0.00 0.00 0.00 0.00 0.00 0.02 0.09 0.08 0.12 0.13 0.15 0.15 0.12 0.10 0.10 0.09 0.10 0.06 0.04 0.03 0.02
0.00 0.00 0.00 0.00 0.00 0.00 0.00 0.00 0.00 0.00 0.00 0.00 0.00 0.00 0.00 0.00 0.00 0.00 0.00 0.00 0.00 0.00 0.00 0.00 0.00 0.00 0.00 0.04 0.11 0.08 0.10 0.12 0.18 0.13 0.10 0.08 0.10 0.09 0.07 0.04 0.04 0.04 0.04 0.03
0.00 0.00 0.00 0.00 0.00 0.00 0.00 0.00 0.00 0.00 0.00 0.00 0.00 0.00 0.00 0.00 0.00 0.00 0.00 0.00 0.00 0.00 0.00 0.00 0.00 0.00 0.01 0.05 0.05 0.04 0.06 0.07 0.12 0.09 0.10 0.08 0.10 0.05 0.05 0.03 0.02 0.01 0.00 0.00
0.00 0.00 0.00 0.00 0.00 0.00 0.00 0.00 0.00 0.00 0.00 0.00 0.00 0.00 0.00 0.00 0.00 0.00 0.00 0.00 0.00 0.00 0.00 0.00 0.00 0.01 0.01 0.01 0.02 0.03 0.05 0.05 0.05 0.03 0.01 0.01 0.02 0.01 0.00 0.00 0.00 0.00 0.00 0.00
0.00 0.00 0.00 0.00 0.01 0.01 0.00 0.00 0.00 0.00 0.00 0.00 0.00 0.00 0.00 0.00 0.00 0.00 0.00 0.00 0.00 0.00 0.00 0.00 0.00 0.00 0.00 0.00 0.00 0.00 0.01 0.01 0.00 0.00 0.00 0.00 0.01 0.01 0.00 0.00 0.00 0.00 0.00 0.01
0.02 0.00 0.00 0.00 0.00 0.00 0.00 0.00 0.00 0.00 0.00 0.00 0.00 0.00 0.00 0.00 0.00 0.00 0.00 0.00 0.00 0.00 0.00 0.00 0.00 0.00 0.00 0.00 0.00 0.00 0.00 0.00 0.00 0.00 0.00 0.00 0.01 0.00 0.00 0.00 0.01 0.02 0.06 0.10
0.05 0.03 0.01 0.00 0.00 0.00 0.00 0.00 0.00 0.00 0.00 0.00 0.00 0.00 0.00 0.00 0.00 0.00 0.00 0.00 0.00 0.00 0.00 0.00 0.00 0.00 0.00 0.00 0.00 0.00 0.00 0.00 0.00 0.00 0.00 0.00 0.00 0.00 0.01 0.03 0.07 0.13 0.17 0.18
0.02 0.04 0.04 0.01 0.00 0.00 0.00 0.00 0.00 0.00 0.00 0.00 0.00 0.00 0.00 0.00 0.00 0.00 0.00 0.00 0.00 0.00 0.00 0.00 0.00 0.00 0.00 0.00 0.00 0.00 0.00 0.00 0.00 0.00 0.00 0.00 0.01 0.05 0.11 0.17 0.19 0.15 0.08 0.03
0.03 0.01 0.01 0.02 0.01 0.00 0.00 0.00 0.00 0.00 0.00 0.00 0.00 0.00 0.00 0.00 0.00 0.00 0.00 0.00 0.00 0.00 0.00 0.00 0.00 0.00 0.00 0.00 0.00 0.00 0.00 0.00 0.00 0.02 0.06 0.11 0.16 0.22 0.19 0.12 0.06 0.04 0.02 0.01
0.04 0.02 0.02 0.02 0.01 0.00 0.00 0.00 0.00 0.00 0.00 0.00 0.00 0.00 0.00 0.00 0.00 0.00 0.00 0.00 0.00 0.00 0.00 0.00 0.00 0.00 0.00 0.00 0.00 0.01 0.01 0.02 0.05 0.09 0.13 0.16 0.16 0.09 0.04 0.01 0.00 0.00 0.00 0.00
0.01 0.04 0.04 0.01 0.00 0.00 0.00 0.00 0.00 0.00 0.00 0.00 0.00 0.00 0.00 0.00 0.00 0.00 0.00 0.00 0.00 0.00 0.00 0.00 0.00 0.00 0.01 0.01 0.01 0.02 0.02 0.03 0.04 0.06 0.04 0.01 0.00 0.00 0.00 0.00 0.00 0.00 0.00 0.00
0.00 0.00 0.00 0.00 0.00 0.00 0.00 0.00 0.00 0.00 0.00 0.00 0.00 0.00 0.00 0.00 0.00 0.00 0.00 0.00 0.00 0.00 0.00 0.00 0.01 0.02 0.02 0.02 0.02 0.01 0.00 0.01 0.01 0.00 0.00 0.00 0.00 0.00 0.00 0.00 0.00 0.00 0.00 0.00
0.00 0.01 0.00 0.00 0.00 0.00 0.00 0.00 0.00 0.00 0.00 0.00 0.00 0.00 0.00 0.00 0.00 0.00 0.00 0.00 0.00 0.02 0.03 0.03 0.03 0.03 0.03 0.01 0.01 0.01 0.01 0.00 0.00 0.00 0.00 0.00 0.00 0.00 0.00 0.00 0.00 0.00 0.00 0.00
0.00 0.00 0.00 0.00 0.00 0.00 0.00 0.01 0.00 0.00 0.00 0.00 0.00 0.00 0.00 0.00 0.00 0.00 0.00 0.01 0.04 0.05 0.05 0.05 0.03 0.02 0.01 0.01 0.01 0.00 0.00 0.00 0.00 0.00 0.00 0.01 0.02 0.02 0.01 0.00 0.00 0.00 0.00 0.00

GFSCGP_prec_precacc_042.txt.gz
Total_Precipitation_Accumulation
0.00 0.00 0.00 0.00 0.00 0.00 0.00 0.00 0.00 0.00 0.00 0.00 0.00 0.00 0.01 0.00 0.00 0.03 0.05 0.07 0.02 0.00 0.03 0.05 0.07 0.09 0.07 0.08 0.18 0.39 0.47 0.62 0.37 0.13 0.05 0.05 0.10 0.13 0.11 0.14 0.15 0.11 0.02 0.00
0.00 0.00 0.00 0.00 0.00 0.00 0.00 0.00 0.00 0.00 0.00 0.00 0.00 0.00 0.00 0.00 0.00 0.01 0.01 0.11 0.03 0.00 0.01 0.02 0.04 0.03 0.04 0.11 0.36 0.43 0.23 0.15 0.07 0.02 0.01 0.03 0.07 0.07 0.04 0.05 0.06 0.04 0.06 0.02
0.00 0.00 0.00 0.00 0.00 0.00 0.00 0.00 0.00 0.00 0.00 0.00 0.00 0.00 0.00 0.00 0.00 0.01 0.00 0.00 0.00 0.00 0.02 0.03 0.03 0.03 0.01 0.02 0.18 0.18 0.06 0.05 0.08 0.02 0.02 0.03 0.09 0.13 0.07 0.04 0.10 0.06 0.07 0.04
0.00 0.00 0.00 0.00 0.00 0.00 0.00 0.00 0.00 0.00 0.00 0.00 0.00 0.00 0.00 0.00 0.00 0.00 0.00 0.00 0.00 0.00 0.00 0.00 0.00 0.00 0.01 0.06 0.25 0.11 0.10 0.10 0.11 0.09 0.06 0.06 0.13 0.14 0.13 0.10 0.05 0.06 0.03 0.03
0.01 0.00 0.00 0.00 0.00 0.00 0.00 0.00 0.00 0.00 0.00 0.04 0.02 0.00 0.03 0.05 0.00 0.00 0.00 0.00 0.00 0.00 0.00 0.00 0.00 0.00 0.02 0.07 0.20 0.15 0.12 0.20 0.14 0.25 0.27 0.19 0.21 0.20 0.19 0.09 0.04 0.04 0.05 0.06
0.01 0.00 0.00 0.00 0.00 0.00 0.00 0.00 0.00 0.00 0.00 0.01 0.01 0.01 0.01 0.01 0.00 0.01 0.00 0.00 0.00 0.00 0.00 0.00 0.00 0.01 0.03 0.11 0.17 0.29 0.31 0.21 0.19 0.34 0.40 0.23 0.21 0.17 0.27 0.25 0.10 0.08 0.05 0.04
0.00 0.00 0.00 0.00 0.00 0.00 0.00 0.00 0.00 0.05 0.00 0.00 0.00 0.01 0.01 0.01 0.04 0.08 0.10 0.00 0.00 0.00 0.00 0.00 0.02 0.04 0.04 0.08 0.13 0.18 0.32 0.41 0.27 0.25 0.23 0.21 0.17 0.18 0.15 0.16 0.20 0.18 0.11 0.10
0.01 0.00 0.00 0.00 0.00 0.00 0.00 0.00 0.01 0.15 0.09 0.03 0.04 0.01 0.00 0.00 0.00 0.00 0.00 0.00 0.00 0.00 0.00 0.00 0.01 0.02 0.05 0.11 0.08 0.06 0.29 0.41 0.48 0.33 0.16 0.14 0.08 0.06 0.07 0.13 0.18 0.12 0.09 0.08
0.03 0.01 0.02 0.00 0.00 0.00 0.00 0.00 0.00 0.03 0.09 0.04 0.03 0.00 0.00 0.00 0.00 0.00 0.00 0.00 0.00 0.00 0.00 0.00 0.00 0.01 0.04 0.07 0.05 0.09 0.09 0.25 0.37 0.24 0.12 0.06 0.03 0.04 0.06 0.08 0.07 0.06 0.05 0.05
0.04 0.08 0.02 0.01 0.00 0.00 0.00 0.00 0.00 0.00 0.03 0.03 0.00 0.00 0.01 0.01 0.00 0.00 0.00 0.00 0.00 0.00 0.00 0.00 0.00 0.00 0.01 0.01 0.01 0.06 0.04 0.03 0.12 0.23 0.23 0.07 0.05 0.07 0.08 0.09 0.14 0.11 0.08 0.06
0.00 0.03 0.04 0.00 0.00 0.00 0.00 0.00 0.00 0.00 0.00 0.01 0.02 0.00 0.00 0.00 0.00 0.00 0.00 0.00 0.00 0.00 0.00 0.00 0.00 0.00 0.00 0.00 0.00 0.00 0.00 0.10 0.06 0.05 0.10 0.09 0.10 0.12 0.14 0.14 0.15 0.11 0.06 0.03
0.00 0.00 0.00 0.00 0.00 0.00 0.00 0.01 0.04 0.01 0.00 0.00 0.01 0.00 0.00 0.00 0.00 0.00 0.00 0.00 0.00 0.00 0.00 0.00 0.00 0.00 0.00 0.00 0.00 0.01 0.03 0.11 0.09 0.07 0.12 0.22 0.19 0.18 0.14 0.13 0.10 0.07 0.04 0.02
0.00 0.00 0.00 0.00 0.00 0.01 0.00 0.00 0.00 0.00 0.00 0.00 0.03 0.00 0.00 0.00 0.00 0.00 0.00 0.00 0.00 0.00 0.00 0.00 0.00 0.00 0.00 0.00 0.02 0.09 0.08 0.14 0.23 0.25 0.27 0.27 0.13 0.13 0.14 0.15 0.08 0.04 0.03 0.03
0.00 0.00 0.00 0.00 0.00 0.00 0.00 0.00 0.00 0.00 0.00 0.00 0.00 0.00 0.00 0.00 0.00 0.00 0.00 0.00 0.00 0.00 0.00 0.00 0.00 0.00 0.00 0.04 0.11 0.08 0.10 0.12 0.23 0.27 0.35 0.13 0.21 0.16 0.09 0.07 0.06 0.05 0.05 0.03
0.00 0.00 0.00 0.00 0.00 0.00 0.00 0.00 0.00 0.00 0.00 0.00 0.00 0.00 0.00 0.00 0.00 0.00 0.00 0.00 0.00 0.00 0.00 0.00 0.00 0.00 0.01 0.05 0.05 0.04 0.06 0.09 0.16 0.20 0.17 0.11 0.19 0.15 0.09 0.05 0.04 0.02 0.01 0.01
0.00 0.00 0.00 0.00 0.00 0.00 0.00 0.00 0.00 0.00 0.00 0.00 0.00 0.00 0.00 0.00 0.00 0.00 0.00 0.00 0.00 0.00 0.00 0.00 0.00 0.01 0.01 0.01 0.02 0.03 0.05 0.08 0.07 0.06 0.02 0.04 0.05 0.03 0.04 0.01 0.01 0.00 0.00 0.00
0.00 0.00 0.00 0.00 0.01 0.01 0.00 0.00 0.00 0.00 0.00 0.00 0.00 0.00 0.00 0.00 0.00 0.00 0.00 0.00 0.00 0.00 0.00 0.00 0.00 0.00 0.00 0.00 0.00 0.00 0.02 0.01 0.01 0.01 0.01 0.01 0.02 0.01 0.01 0.00 0.00 0.00 0.00 0.01
0.02 0.00 0.00 0.00 0.00 0.00 0.00 0.00 0.00 0.00 0.00 0.00 0.00 0.00 0.00 0.00 0.00 0.00 0.00 0.00 0.00 0.00 0.00 0.00 0.00 0.00 0.00 0.00 0.00 0.00 0.00 0.00 0.00 0.01 0.00 0.00 0.01 0.00 0.00 0.00 0.01 0.02 0.06 0.10
0.05 0.04 0.04 0.02 0.00 0.00 0.00 0.00 0.00 0.00 0.00 0.00 0.00 0.00 0.00 0.00 0.00 0.00 0.00 0.00 0.00 0.00 0.00 0.00 0.00 0.00 0.00 0.00 0.00 0.00 0.00 0.00 0.00 0.00 0.00 0.00 0.00 0.00 0.01 0.03 0.07 0.13 0.17 0.18
0.02 0.04 0.08 0.04 0.01 0.00 0.00 0.00 0.00 0.00 0.00 0.00 0.00 0.00 0.00 0.00 0.00 0.00 0.00 0.00 0.00 0.00 0.00 0.00 0.00 0.00 0.00 0.00 0.00 0.00 0.00 0.00 0.00 0.00 0.00 0.00 0.01 0.05 0.11 0.17 0.19 0.15 0.08 0.03
0.06 0.03 0.03 0.06 0.04 0.00 0.00 0.00 0.00 0.00 0.00 0.00 0.00 0.00 0.00 0.00 0.00 0.00 0.00 0.00 0.00 0.00 0.00 0.00 0.00 0.00 0.00 0.00 0.00 0.00 0.00 0.00 0.00 0.02 0.06 0.11 0.16 0.22 0.19 0.12 0.06 0.04 0.02 0.01
0.10 0.13 0.06 0.04 0.04 0.00 0.00 0.00 0.00 0.00 0.00 0.00 0.00 0.00 0.00 0.00 0.00 0.00 0.00 0.00 0.00 0.00 0.00 0.00 0.00 0.00 0.00 0.00 0.00 0.01 0.01 0.02 0.05 0.09 0.13 0.16 0.16 0.09 0.04 0.01 0.00 0.00 0.00 0.00
0.02 0.09 0.10 0.05 0.01 0.00 0.00 0.00 0.00 0.00 0.00 0.00 0.00 0.00 0.00 0.00 0.00 0.00 0.00 0.00 0.00 0.00 0.00 0.00 0.00 0.00 0.01 0.01 0.01 0.02 0.02 0.03 0.04 0.06 0.04 0.01 0.00 0.00 0.00 0.00 0.00 0.00 0.00 0.00
0.00 0.00 0.02 0.04 0.02 0.02 0.01 0.00 0.00 0.00 0.00 0.00 0.00 0.00 0.00 0.00 0.00 0.00 0.00 0.00 0.00 0.00 0.00 0.00 0.01 0.02 0.02 0.02 0.02 0.01 0.00 0.01 0.01 0.00 0.00 0.00 0.00 0.00 0.00 0.00 0.00 0.00 0.00 0.00
0.00 0.01 0.00 0.00 0.00 0.00 0.01 0.01 0.01 0.00 0.00 0.00 0.00 0.00 0.00 0.00 0.00 0.00 0.00 0.00 0.00 0.02 0.03 0.03 0.03 0.03 0.03 0.01 0.01 0.01 0.01 0.00 0.00 0.00 0.00 0.00 0.00 0.00 0.00 0.00 0.00 0.00 0.00 0.00
0.00 0.00 0.00 0.00 0.00 0.00 0.00 0.01 0.00 0.00 0.00 0.00 0.00 0.00 0.00 0.00 0.00 0.00 0.00 0.01 0.04 0.05 0.05 0.05 0.03 0.02 0.01 0.01 0.01 0.00 0.00 0.00 0.00 0.00 0.00 0.01 0.02 0.02 0.01 0.00 0.00 0.00 0.00 0.00

GFSCGP_prec_precacc_045.txt.gz
Total_Precipitation_Accumulation
0.00 0.00 0.00 0.00 0.00 0.00 0.00 0.00 0.00 0.00 0.01 0.00 0.00 0.01 0.01 0.00 0.00 0.03 0.05 0.07 0.02 0.00 0.03 0.05 0.07 0.09 0.07 0.08 0.18 0.39 0.47 0.62 0.37 0.13 0.05 0.05 0.10 0.13 0.11 0.14 0.20 0.18 0.06 0.07
0.00 0.00 0.00 0.00 0.00 0.00 0.00 0.00 0.00 0.00 0.00 0.00 0.00 0.00 0.00 0.00 0.00 0.01 0.01 0.11 0.03 0.00 0.01 0.02 0.04 0.03 0.04 0.11 0.36 0.43 0.23 0.15 0.07 0.02 0.01 0.04 0.07 0.07 0.04 0.06 0.10 0.09 0.09 0.08
0.00 0.00 0.00 0.00 0.00 0.00 0.00 0.00 0.00 0.00 0.00 0.00 0.00 0.00 0.00 0.01 0.01 0.01 0.00 0.00 0.00 0.00 0.02 0.03 0.03 0.03 0.01 0.02 0.18 0.18 0.06 0.05 0.08 0.02 0.02 0.03 0.09 0.13 0.07 0.04 0.10 0.07 0.08 0.06
0.00 0.00 0.00 0.00 0.00 0.00 0.00 0.00 0.00 0.00 0.00 0.00 0.00 0.00 0.00 0.00 0.01 0.00 0.00 0.00 0.00 0.00 0.00 0.00 0.00 0.00 0.01 0.06 0.25 0.11 0.10 0.10 0.11 0.09 0.06 0.06 0.13 0.14 0.13 0.10 0.05 0.07 0.04 0.06
0.01 0.00 0.00 0.00 0.00 0.00 0.00 0.00 0.00 0.00 0.00 0.04 0.02 0.00 0.03 0.05 0.01 0.00 0.00 0.00 0.00 0.00 0.00 0.00 0.00 0.00 0.02 0.07 0.20 0.15 0.12 0.20 0.14 0.25 0.27 0.21 0.21 0.20 0.19 0.10 0.07 0.07 0.06 0.08
0.01 0.00 0.00 0.00 0.00 0.00 0.00 0.00 0.00 0.00 0.00 0.01 0.01 0.01 0.01 0.01 0.01 0.01 0.00 0.00 0.00 0.00 0.00 0.00 0.00 0.01 0.03 0.11 0.17 0.29 0.31 0.21 0.19 0.34 0.41 0.26 0.21 0.17 0.27 0.26 0.13 0.15 0.12 0.13
0.00 0.00 0.00 0.00 0.00 0.00 0.00 0.00 0.00 0.05 0.00 0.00 0.00 0.01 0.01 0.01 0.04 0.08 0.10 0.00 0.00 0.00 0.00 0.00 0.02 0.04 0.04 0.08 0.13 0.18 0.32 0.41 0.27 0.25 0.23 0.21 0.18 0.21 0.16 0.16 0.20 0.23 0.19 0.17
0.01 0.00 0.00 0.00 0.00 0.00 0.00 0.00 0.01 0.15 0.09 0.03 0.06 0.01 0.01 0.00 0.00 0.00 0.00 0.00 0.00 0.00 0.00 0.00 0.01 0.02 0.05 0.11 0.08 0.06 0.29 0.41 0.48 0.33 0.16 0.14 0.08 0.06 0.07 0.13 0.18 0.13 0.11 0.09
0.03 0.01 0.02 0.00 0.00 0.00 0.00 0.00 0.00 0.03 0.09 0.05 0.06 0.01 0.00 0.00 0.00 0.00 0.00 0.00 0.00 0.00 0.00 0.00 0.00 0.01 0.04 0.07 0.05 0.09 0.09 0.27 0.37 0.24 0.12 0.06 0.03 0.04 0.06 0.08 0.07 0.06 0.05 0.05
0.04 0.08 0.02 0.01 0.00 0.00 0.00 0.00 0.00 0.00 0.03 0.05 0.00 0.01 0.01 0.01 0.00 0.00 0.00 0.00 0.00 0.00 0.00 0.00 0.01 0.06 0.02 0.02 0.02 0.09 0.07 0.08 0.15 0.24 0.23 0.07 0.07 0.07 0.08 0.09 0.14 0.11 0.08 0.07
0.00 0.03 0.04 0.00 0.00 0.00 0.00 0.00 0.00 0.00 0.00 0.01 0.02 0.00 0.00 0.00 0.00 0.00 0.00 0.00 0.00 0.00 0.00 0.00 0.01 0.04 0.05 0.10 0.07 0.04 0.11 0.33 0.24 0.19 0.11 0.10 0.13 0.14 0.20 0.14 0.16 0.12 0.06 0.03
0.00 0.00 0.00 0.00 0.00 0.00 0.00 0.01 0.04 0.01 0.00 0.00 0.02 0.00 0.00 0.00 0.00 0.00 0.00 0.00 0.00 0.00 0.00 0.00 0.00 0.00 0.01 0.02 0.01 0.01 0.04 0.15 0.22 0.20 0.15 0.32 0.54 0.43 0.41 0.20 0.11 0.08 0.04 0.02
0.00 0.00 0.00 0.00 0.00 0.01 0.00 0.00 0.00 0.00 0.00 0.00 0.03 0.00 0.00 0.00 0.00 0.00 0.00 0.00 0.00 0.00 0.00 0.00 0.00 0.00 0.00 0.00 0.02 0.09 0.09 0.20 0.40 0.35 0.45 0.61 0.42 0.44 0.36 0.24 0.12 0.07 0.04 0.03
0.00 0.00 0.00 0.00 0.00 0.00 0.00 0.00 0.00 0.00 0.00 0.00 0.00 0.00 0.00 0.00 0.00 0.00 0.00 0.00 0.00 0.00 0.00 0.00 0.00 0.00 0.00 0.04 0.11 0.09 0.16 0.19 0.40 0.40 0.52 0.23 0.33 0.22 0.15 0.08 0.07 0.08 0.06 0.04
0.00 0.00 0.00 0.00 0.00 0.00 0.00 0.00 0.00 0.00 0.00 0.00 0.00 0.00 0.00 0.00 0.00 0.00 0.00 0.00 0.00 0.00 0.00 0.00 0.00 0.00 0.01 0.05 0.05 0.04 0.06 0.10 0.19 0.22 0.18 0.13 0.27 0.17 0.09 0.05 0.04 0.03 0.02 0.02
0.00 0.00 0.00 0.00 0.00 0.00 0.00 0.00 0.00 0.00 0.00 0.00 0.00 0.00 0.00 0.00 0.00 0.00 0.00 0.00 0.00 0.00 0.00 0.00 0.00 0.01 0.01 0.01 0.02 0.03 0.06 0.10 0.11 0.07 0.02 0.05 0.06 0.05 0.06 0.03 0.03 0.01 0.01 0.00
0.00 0.00 0.00 0.00 0.01 0.01 0.00 0.00 0.00 0.00 0.00 0.00 0.00 0.00 0.00 0.00 0.00 0.00 0.00 0.00 0.00 0.00 0.00 0.00 0.00 0.00 0.00 0.00 0.00 0.01 0.06 0.05 0.02 0.02 0.03 0.02 0.03 0.04 0.03 0.01 0.00 0.00 0.00 0.01
0.06 0.00 0.00 0.00 0.01 0.01 0.00 0.00 0.00 0.00 0.00 0.00 0.00 0.00 0.00 0.00 0.00 0.00 0.00 0.00 0.00 0.00 0.00 0.00 0.00 0.00 0.00 0.00 0.00 0.01 0.02 0.01 0.00 0.01 0.02 0.02 0.03 0.02 0.01 0.00 0.01 0.02 0.06 0.10
0.21 0.11 0.06 0.03 0.01 0.00 0.00 0.00 0.00 0.00 0.00 0.00 0.00 0.00 0.00 0.00 0.00 0.00 0.00 0.00 0.00 0.00 0.00 0.00 0.00 0.00 0.00 0.00 0.00 0.01 0.01 0.00 0.00 0.00 0.01 0.01 0.01 0.00 0.01 0.03 0.07 0.13 0.17 0.18
0.23 0.26 0.14 0.05 0.02 0.00 0.00 0.00 0.00 0.00 0.00 0.00 0.00 0.00 0.00 0.00 0.00 0.00 0.00 0.00 0.00 0.00 0.00 0.00 0.00 0.00 0.00 0.00 0.00 0.00 0.00 0.00 0.00 0.00 0.00 0.00 0.01 0.05 0.11 0.17 0.19 0.15 0.08 0.03
0.11 0.23 0.10 0.07 0.05 0.00 0.00 0.00 0.00 0.00 0.00 0.00 0.00 0.00 0.00 0.00 0.00 0.00 0.00 0.00 0.00 0.00 0.00 0.00 0.00 0.00 0.00 0.00 0.00 0.00 0.00 0.00 0.00 0.02 0.06 0.11 0.16 0.22 0.19 0.12 0.06 0.04 0.02 0.01
0.10 0.18 0.15 0.08 0.06 0.01 0.00 0.00 0.00 0.00 0.00 0.00 0.00 0.00 0.00 0.00 0.00 0.00 0.00 0.00 0.00 0.00 0.00 0.00 0.00 0.00 0.00 0.00 0.00 0.01 0.01 0.02 0.05 0.09 0.13 0.16 0.16 0.09 0.04 0.01 0.00 0.00 0.00 0.00
0.03 0.09 0.11 0.11 0.03 0.02 0.02 0.00 0.00 0.00 0.00 0.00 0.00 0.00 0.00 0.00 0.00 0.00 0.00 0.00 0.00 0.00 0.00 0.00 0.00 0.00 0.01 0.01 0.01 0.02 0.02 0.03 0.04 0.06 0.04 0.01 0.00 0.00 0.00 0.00 0.00 0.00 0.00 0.00
0.00 0.00 0.02 0.04 0.02 0.02 0.04 0.07 0.01 0.01 0.00 0.00 0.01 0.01 0.01 0.01 0.00 0.00 0.00 0.00 0.00 0.00 0.00 0.00 0.01 0.02 0.02 0.02 0.02 0.01 0.00 0.01 0.01 0.00 0.00 0.00 0.00 0.00 0.00 0.00 0.00 0.00 0.00 0.00
0.00 0.01 0.00 0.00 0.00 0.00 0.02 0.08 0.08 0.03 0.01 0.02 0.02 0.02 0.01 0.01 0.00 0.00 0.00 0.00 0.00 0.02 0.03 0.03 0.03 0.03 0.03 0.01 0.01 0.01 0.01 0.00 0.00 0.00 0.00 0.00 0.00 0.00 0.00 0.00 0.00 0.00 0.00 0.00
0.00 0.00 0.00 0.00 0.00 0.00 0.00 0.01 0.00 0.01 0.01 0.01 0.01 0.00 0.00 0.00 0.00 0.00 0.00 0.01 0.04 0.05 0.05 0.05 0.03 0.02 0.01 0.01 0.01 0.00 0.00 0.00 0.00 0.00 0.00 0.01 0.02 0.02 0.01 0.00 0.00 0.00 0.00 0.00

GFSCGP_prec_precacc_048.txt.gz
Total_Precipitation_Accumulation
0.00 0.00 0.00 0.00 0.00 0.00 0.00 0.00 0.00 0.00 0.01 0.00 0.00 0.01 0.01 0.00 0.00 0.03 0.05 0.07 0.02 0.00 0.03 0.05 0.07 0.09 0.07 0.08 0.18 0.39 0.47 0.62 0.37 0.13 0.05 0.05 0.10 0.13 0.11 0.14 0.20 0.18 0.06 0.07
0.00 0.00 0.00 0.00 0.00 0.00 0.00 0.00 0.00 0.00 0.00 0.00 0.00 0.00 0.00 0.00 0.00 0.01 0.01 0.11 0.03 0.00 0.01 0.02 0.04 0.03 0.04 0.11 0.36 0.43 0.23 0.15 0.07 0.02 0.01 0.04 0.07 0.07 0.04 0.06 0.10 0.09 0.09 0.08
0.00 0.00 0.00 0.00 0.00 0.00 0.00 0.00 0.00 0.00 0.00 0.00 0.00 0.00 0.00 0.01 0.01 0.02 0.00 0.00 0.00 0.00 0.02 0.03 0.03 0.03 0.01 0.02 0.18 0.18 0.06 0.05 0.08 0.02 0.02 0.03 0.09 0.13 0.07 0.04 0.10 0.07 0.08 0.06
0.00 0.00 0.00 0.00 0.00 0.00 0.00 0.00 0.00 0.00 0.00 0.00 0.00 0.00 0.00 0.00 0.01 0.00 0.00 0.00 0.00 0.00 0.00 0.00 0.00 0.00 0.01 0.06 0.25 0.11 0.10 0.10 0.11 0.09 0.06 0.06 0.13 0.14 0.13 0.10 0.05 0.07 0.04 0.07
0.01 0.00 0.00 0.00 0.00 0.00 0.00 0.00 0.00 0.00 0.00 0.04 0.02 0.00 0.03 0.05 0.02 0.00 0.00 0.00 0.00 0.00 0.00 0.00 0.00 0.00 0.02 0.07 0.20 0.15 0.12 0.20 0.14 0.25 0.27 0.21 0.21 0.20 0.19 0.10 0.07 0.07 0.06 0.09
0.01 0.00 0.00 0.00 0.00 0.00 0.00 0.00 0.00 0.00 0.00 0.01 0.01 0.01 0.01 0.01 0.01 0.01 0.00 0.00 0.00 0.00 0.00 0.00 0.00 0.01 0.03 0.11 0.17 0.29 0.31 0.21 0.19 0.34 0.41 0.26 0.21 0.17 0.27 0.26 0.13 0.15 0.12 0.16
0.00 0.00 0.00 0.00 0.00 0.00 0.00 0.00 0.00 0.05 0.00 0.00 0.00 0.01 0.01 0.01 0.04 0.08 0.10 0.00 0.00 0.00 0.00 0.00 0.02 0.04 0.04 0.08 0.13 0.18 0.32 0.41 0.27 0.25 0.23 0.21 0.18 0.21 0.16 0.16 0.20 0.23 0.19 0.22
0.01 0.00 0.00 0.00 0.00 0.00 0.00 0.00 0.01 0.15 0.09 0.03 0.06 0.01 0.01 0.00 0.00 0.00 0.00 0.00 0.00 0.00 0.00 0.00 0.01 0.02 0.05 0.11 0.08 0.06 0.29 0.41 0.48 0.33 0.16 0.14 0.08 0.06 0.07 0.14 0.19 0.13 0.12 0.10
0.03 0.01 0.02 0.00 0.00 0.00 0.00 0.00 0.00 0.03 0.09 0.05 0.06 0.01 0.00 0.00 0.00 0.00 0.00 0.00 0.00 0.00 0.00 0.00 0.00 0.01 0.04 0.07 0.05 0.09 0.10 0.27 0.37 0.24 0.12 0.06 0.03 0.04 0.07 0.09 0.08 0.07 0.06 0.09
0.04 0.08 0.02 0.01 0.00 0.00 0.00 0.00 0.00 0.00 0.03 0.05 0.00 0.01 0.01 0.01 0.00 0.00 0.00 0.00 0.00 0.00 0.00 0.00 0.01 0.06 0.02 0.03 0.02 0.11 0.10 0.10 0.22 0.27 0.23 0.07 0.07 0.09 0.11 0.11 0.17 0.15 0.10 0.08
0.00 0.03 0.04 0.00 0.00 0.00 0.00 0.00 0.00 0.00 0.00 0.01 0.02 0.00 0.00 0.00 0.00 0.00 0.00 0.00 0.00 0.00 0.00 0.00 0.01 0.04 0.05 0.10 0.07 0.05 0.12 0.35 0.31 0.27 0.14 0.10 0.13 0.26 0.35 0.22 0.25 0.24 0.15 0.10
0.00 0.00 0.00 0.00 0.00 0.00 0.00 0.01 0.04 0.01 0.00 0.00 0.02 0.00 0.00 0.00 0.00 0.00 0.00 0.00 0.00 0.00 0.00 0.00 0.00 0.00 0.02 0.02 0.01 0.01 0.05 0.16 0.24 0.24 0.16 0.33 0.58 0.54 0.67 0.60 0.54 0.37 0.16 0.11
0.00 0.00 0.00 0.00 0.00 0.01 0.00 0.00 0.00 0.00 0.00 0.00 0.03 0.00 0.00 0.00 0.00 0.00 0.00 0.00 0.00 0.00 0.00 0.00 0.00 0.00 0.00 0.00 0.02 0.09 0.09 0.21 0.44 0.44 0.48 0.66 0.55 0.60 0.56 0.56 0.39 0.21 0.07 0.08
0.00 0.00 0.00 0.00 0.00 0.00 0.00 0.00 0.00 0.00 0.00 0.00 0.00 0.00 0.00 0.00 0.00 0.00 0.00 0.00 0.00 0.00 0.00 0.00 0.00 0.00 0.00 0.04 0.11 0.09 0.17 0.22 0.44 0.45 0.58 0.36 0.45 0.37 0.32 0.22 0.14 0.10 0.08 0.10
0.02 0.00 0.00 0.00 0.00 0.00 0.00 0.00 0.00 0.00 0.00 0.00 0.00 0.00 0.00 0.00 0.00 0.00 0.00 0.00 0.00 0.00 0.00 0.00 0.00 0.00 0.01 0.05 0.05 0.04 0.06 0.11 0.22 0.27 0.22 0.19 0.35 0.32 0.19 0.07 0.07 0.06 0.04 0.05
0.04 0.01 0.00 0.00 0.00 0.00 0.00 0.00 0.00 0.00 0.00 0.00 0.00 0.00 0.00 0.00 0.00 0.00 0.00 0.00 0.00 0.00 0.00 0.00 0.00 0.01 0.01 0.01 0.02 0.03 0.06 0.12 0.15 0.12 0.06 0.11 0.14 0.18 0.12 0.05 0.03 0.03 0.03 0.03
0.04 0.05 0.00 0.00 0.01 0.01 0.00 0.00 0.00 0.00 0.00 0.00 0.00 0.00 0.00 0.00 0.00 0.00 0.00 0.00 0.00 0.00 0.00 0.00 0.00 0.00 0.00 0.00 0.00 0.01 0.06 0.05 0.05 0.07 0.10 0.09 0.10 0.10 0.06 0.02 0.01 0.02 0.04 0.03
0.15 0.07 0.05 0.01 0.01 0.02 0.00 0.00 0.00 0.00 0.00 0.00 0.00 0.00 0.00 0.00 0.00 0.00 0.00 0.00 0.00 0.00 0.00 0.00 0.00 0.00 0.00 0.00 0.00 0.01 0.02 0.02 0.03 0.04 0.05 0.06 0.07 0.06 0.04 0.04 0.03 0.05 0.09 0.12
0.25 0.28 0.23 0.09 0.02 0.00 0.00 0.00 0.00 0.00 0.00 0.00 0.00 0.00 0.00 0.00 0.00 0.00 0.00 0.00 0.00 0.00 0.00 0.00 0.00 0.00 0.00 0.00 0.00 0.01 0.02 0.01 0.01 0.03 0.04 0.06 0.06 0.06 0.05 0.07 0.11 0.15 0.18 0.18
0.23 0.30 0.35 0.21 0.11 0.04 0.00 0.00 0.00 0.00 0.00 0.00 0.00 0.00 0.00 0.00 0.00 0.00 0.00 0.00 0.00 0.00 0.00 0.00 0.00 0.00 0.00 0.00 0.00 0.00 0.01 0.00 0.00 0.00 0.01 0.03 0.04 0.06 0.11 0.18 0.19 0.15 0.08 0.03
0.12 0.25 0.24 0.22 0.19 0.05 0.00 0.00 0.00 0.00 0.00 0.00 0.00 0.00 0.00 0.00 0.00 0.00 0.00 0.00 0.00 0.00 0.00 0.00 0.00 0.00 0.00 0.00 0.00 0.00 0.00 0.00 0.00 0.02 0.06 0.11 0.16 0.22 0.19 0.12 0.06 0.04 0.02 0.01
0.11 0.18 0.18 0.13 0.17 0.09 0.02 0.00 0.00 0.00 0.00 0.00 0.00 0.00 0.00 0.00 0.00 0.00 0.00 0.00 0.00 0.00 0.00 0.00 0.00 0.00 0.00 0.00 0.00 0.01 0.01 0.02 0.05 0.09 0.13 0.16 0.16 0.09 0.04 0.01 0.00 0.00 0.00 0.00
0.04 0.10 0.11 0.12 0.05 0.02 0.03 0.01 0.00 0.00 0.00 0.00 0.00 0.00 0.00 0.00 0.00 0.00 0.00 0.00 0.00 0.00 0.00 0.00 0.00 0.00 0.01 0.01 0.01 0.02 0.02 0.03 0.04 0.06 0.04 0.01 0.00 0.00 0.00 0.00 0.00 0.00 0.00 0.00
0.00 0.00 0.02 0.04 0.02 0.02 0.04 0.07 0.02 0.01 0.00 0.01 0.01 0.01 0.01 0.01 0.01 0.01 0.00 0.00 0.00 0.00 0.00 0.00 0.01 0.02 0.02 0.02 0.02 0.01 0.00 0.01 0.01 0.00 0.00 0.00 0.00 0.00 0.00 0.00 0.00 0.00 0.00 0.00
0.01 0.02 0.01 0.00 0.00 0.00 0.02 0.08 0.08 0.03 0.01 0.02 0.02 0.02 0.02 0.02 0.01 0.00 0.00 0.00 0.00 0.02 0.03 0.03 0.03 0.03 0.03 0.01 0.01 0.01 0.01 0.00 0.00 0.00 0.00 0.00 0.00 0.00 0.00 0.00 0.00 0.00 0.00 0.00
0.02 0.06 0.07 0.02 0.02 0.00 0.00 0.01 0.00 0.01 0.01 0.01 0.01 0.00 0.00 0.00 0.00 0.00 0.00 0.01 0.04 0.05 0.05 0.05 0.03 0.02 0.01 0.01 0.01 0.00 0.00 0.00 0.00 0.00 0.00 0.01 0.02 0.02 0.01 0.00 0.00 0.00 0.00 0.00

GFSCGP_prec_precacc_054.txt.gz
Total_Precipitation_Accumulation
0.00 0.00 0.00 0.00 0.00 0.00 0.00 0.00 0.00 0.00 0.01 0.00 0.00 0.01 0.01 0.00 0.00 0.03 0.05 0.07 0.02 0.00 0.03 0.05 0.07 0.09 0.07 0.08 0.18 0.41 0.72 1.01 0.51 0.28 0.11 0.20 0.22 0.16 0.12 0.14 0.20 0.18 0.06 0.09
0.00 0.00 0.00 0.00 0.00 0.00 0.00 0.00 0.00 0.00 0.00 0.00 0.00 0.00 0.00 0.00 0.00 0.01 0.01 0.11 0.03 0.00 0.01 0.02 0.04 0.03 0.04 0.11 0.36 0.43 0.27 0.25 0.13 0.10 0.05 0.06 0.12 0.12 0.09 0.07 0.10 0.09 0.10 0.08
0.00 0.00 0.00 0.00 0.00 0.00 0.00 0.00 0.00 0.00 0.00 0.00 0.00 0.00 0.00 0.01 0.01 0.02 0.00 0.00 0.00 0.00 0.02 0.03 0.03 0.03 0.01 0.02 0.18 0.18 0.06 0.06 0.09 0.03 0.04 0.08 0.15 0.16 0.11 0.05 0.10 0.07 0.08 0.06
0.00 0.00 0.00 0.00 0.00 0.00 0.00 0.00 0.00 0.00 0.00 0.00 0.00 0.00 0.00 0.00 0.01 0.00 0.00 0.00 0.00 0.00 0.00 0.00 0.00 0.00 0.01 0.06 0.25 0.11 0.10 0.10 0.11 0.09 0.06 0.08 0.19 0.17 0.14 0.10 0.05 0.07 0.04 0.07
0.01 0.00 0.00 0.00 0.00 0.00 0.00 0.00 0.00 0.00 0.00 0.04 0.02 0.00 0.03 0.05 0.02 0.00 0.00 0.00 0.00 0.00 0.00 0.00 0.00 0.00 0.02 0.07 0.20 0.15 0.12 0.20 0.14 0.25 0.27 0.21 0.21 0.21 0.19 0.10 0.07 0.07 0.06 0.09
0.01 0.00 0.00 0.00 0.00 0.00 0.00 0.00 0.00 0.00 0.00 0.01 0.01 0.01 0.01 0.01 0.01 0.01 0.00 0.00 0.00 0.00 0.00 0.00 0.00 0.01 0.03 0.11 0.17 0.29 0.31 0.21 0.19 0.34 0.41 0.26 0.21 0.17 0.27 0.26 0.13 0.15 0.12 0.16
0.00 0.00 0.00 0.00 0.00 0.00 0.00 0.00 0.00 0.05 0.00 0.00 0.00 0.01 0.01 0.01 0.04 0.08 0.10 0.00 0.00 0.00 0.00 0.00 0.02 0.04 0.04 0.08 0.13 0.18 0.32 0.41 0.27 0.25 0.23 0.21 0.18 0.21 0.16 0.16 0.20 0.23 0.19 0.22
0.01 0.00 0.00 0.00 0.00 0.00 0.00 0.00 0.01 0.15 0.09 0.03 0.06 0.01 0.01 0.00 0.00 0.00 0.00 0.00 0.00 0.00 0.00 0.00 0.01 0.02 0.05 0.11 0.08 0.06 0.29 0.41 0.48 0.33 0.16 0.14 0.08 0.06 0.07 0.14 0.19 0.13 0.12 0.10
0.03 0.01 0.02 0.00 0.00 0.00 0.00 0.00 0.00 0.03 0.09 0.05 0.06 0.01 0.00 0.00 0.00 0.00 0.00 0.00 0.00 0.00 0.00 0.00 0.00 0.01 0.04 0.07 0.05 0.09 0.10 0.27 0.37 0.24 0.12 0.06 0.03 0.04 0.07 0.09 0.08 0.07 0.06 0.09
0.04 0.08 0.02 0.01 0.00 0.00 0.00 0.00 0.00 0.00 0.03 0.05 0.00 0.01 0.01 0.01 0.00 0.00 0.00 0.00 0.00 0.00 0.00 0.00 0.01 0.06 0.02 0.04 0.05 0.16 0.12 0.11 0.24 0.27 0.23 0.07 0.07 0.09 0.11 0.11 0.17 0.17 0.17 0.16
0.00 0.03 0.04 0.00 0.00 0.00 0.00 0.00 0.00 0.00 0.00 0.01 0.02 0.00 0.00 0.00 0.00 0.00 0.00 0.00 0.00 0.00 0.00 0.00 0.01 0.04 0.05 0.12 0.11 0.08 0.18 0.46 0.35 0.30 0.16 0.11 0.13 0.26 0.35 0.25 0.30 0.28 0.28 0.27
0.00 0.00 0.00 0.00 0.00 0.00 0.00 0.01 0.04 0.01 0.00 0.00 0.02 0.00 0.00 0.00 0.00 0.00 0.00 0.00 0.00 0.00 0.00 0.00 0.00 0.00 0.02 0.02 0.02 0.02 0.09 0.18 0.25 0.31 0.28 0.44 0.61 0.54 0.68 0.64 0.62 0.58 0.37 0.29
0.00 0.00 0.00 0.00 0.00 0.01 0.00 0.00 0.00 0.00 0.00 0.00 0.03 0.00 0.00 0.00 0.00 0.00 0.00 0.00 0.00 0.00 0.00 0.00 0.00 0.00 0.00 0.00 0.02 0.09 0.10 0.22 0.45 0.48 0.52 0.78 0.66 0.68 0.60 0.59 0.48 0.36 0.24 0.22
0.00 0.00 0.00 0.00 0.00 0.00 0.00 0.00 0.00 0.00 0.00 0.00 0.00 0.00 0.00 0.00 0.00 0.00 0.00 0.00 0.00 0.00 0.00 0.00 0.00 0.00 0.00 0.04 0.11 0.09 0.17 0.22 0.44 0.45 0.59 0.38 0.48 0.45 0.42 0.29 0.23 0.18 0.11 0.12
0.02 0.01 0.00 0.00 0.00 0.00 0.00 0.00 0.00 0.00 0.00 0.00 0.00 0.00 0.00 0.00 0.00 0.00 0.00 0.00 0.00 0.00 0.00 0.00 0.00 0.00 0.01 0.05 0.05 0.04 0.06 0.11 0.22 0.27 0.22 0.20 0.39 0.35 0.27 0.18 0.19 0.16 0.12 0.17
0.04 0.03 0.00 0.00 0.00 0.00 0.00 0.00 0.00 0.00 0.00 0.00 0.00 0.00 0.00 0.00 0.00 0.00 0.00 0.00 0.00 0.00 0.00 0.00 0.00 0.01 0.01 0.01 0.02 0.03 0.06 0.12 0.15 0.12 0.06 0.12 0.17 0.22 0.16 0.11 0.11 0.15 0.18 0.19
0.04 0.07 0.04 0.02 0.01 0.01 0.00 0.00 0.00 0.00 0.00 0.00 0.00 0.00 0.00 0.00 0.00 0.00 0.00 0.00 0.00 0.00 0.00 0.00 0.00 0.00 0.00 0.00 0.00 0.01 0.06 0.05 0.05 0.07 0.10 0.10 0.13 0.16 0.11 0.11 0.11 0.12 0.19 0.21
0.16 0.08 0.09 0.08 0.04 0.06 0.01 0.00 0.00 0.00 0.00 0.00 0.00 0.00 0.00 0.00 0.00 0.00 0.00 0.00 0.00 0.00 0.00 0.00 0.00 0.00 0.00 0.00 0.00 0.01 0.02 0.02 0.03 0.04 0.05 0.06 0.09 0.11 0.12 0.12 0.13 0.18 0.28 0.25
0.26 0.28 0.24 0.13 0.09 0.05 0.00 0.00 0.00 0.00 0.00 0.00 0.00 0.00 0.00 0.00 0.00 0.00 0.00 0.00 0.00 0.00 0.00 0.00 0.00 0.00 0.00 0.00 0.00 0.01 0.02 0.01 0.02 0.03 0.05 0.07 0.08 0.10 0.10 0.14 0.18 0.22 0.28 0.28
0.23 0.31 0.36 0.22 0.15 0.08 0.00 0.00 0.00 0.00 0.01 0.00 0.00 0.00 0.00 0.00 0.00 0.00 0.00 0.00 0.00 0.00 0.00 0.00 0.00 0.00 0.00 0.00 0.00 0.00 0.01 0.01 0.01 0.03 0.04 0.07 0.06 0.12 0.17 0.26 0.28 0.20 0.12 0.08
0.13 0.26 0.26 0.24 0.21 0.05 0.00 0.00 0.00 0.02 0.01 0.00 0.00 0.00 0.00 0.00 0.00 0.00 0.00 0.00 0.00 0.00 0.00 0.00 0.00 0.00 0.00 0.00 0.00 0.00 0.00 0.01 0.01 0.03 0.09 0.15 0.18 0.24 0.21 0.14 0.09 0.06 0.05 0.05
0.12 0.19 0.18 0.14 0.18 0.09 0.05 0.08 0.07 0.02 0.00 0.00 0.00 0.00 0.00 0.00 0.00 0.00 0.00 0.00 0.00 0.00 0.00 0.00 0.00 0.00 0.00 0.00 0.00 0.01 0.01 0.03 0.07 0.12 0.16 0.17 0.16 0.09 0.04 0.02 0.03 0.03 0.03 0.02
0.04 0.10 0.13 0.14 0.05 0.02 0.04 0.05 0.03 0.02 0.02 0.01 0.01 0.00 0.00 0.00 0.00 0.00 0.00 0.00 0.00 0.00 0.00 0.00 0.00 0.00 0.01 0.01 0.01 0.02 0.03 0.05 0.07 0.07 0.04 0.02 0.00 0.00 0.01 0.02 0.03 0.04 0.04 0.03
0.00 0.00 0.03 0.05 0.02 0.02 0.04 0.07 0.02 0.01 0.01 0.01 0.01 0.01 0.01 0.02 0.01 0.01 0.01 0.00 0.00 0.00 0.00 0.00 0.01 0.02 0.02 0.02 0.02 0.02 0.04 0.04 0.02 0.01 0.00 0.00 0.00 0.00 0.00 0.01 0.02 0.01 0.00 0.00
0.01 0.03 0.02 0.01 0.00 0.00 0.02 0.08 0.09 0.04 0.01 0.02 0.02 0.02 0.03 0.03 0.02 0.01 0.01 0.01 0.01 0.03 0.04 0.03 0.03 0.03 0.03 0.01 0.02 0.03 0.03 0.01 0.00 0.00 0.00 0.00 0.00 0.00 0.00 0.00 0.00 0.00 0.00 0.00
0.02 0.07 0.08 0.04 0.06 0.02 0.02 0.03 0.02 0.05 0.03 0.02 0.02 0.01 0.00 0.00 0.00 0.00 0.00 0.01 0.05 0.06 0.05 0.05 0.04 0.02 0.01 0.01 0.01 0.00 0.00 0.00 0.00 0.00 0.00 0.01 0.02 0.02 0.01 0.00 0.00 0.00 0.00 0.00

GFSCGP_prec_precacc_057.txt.gz
Total_Precipitation_Accumulation
0.00 0.00 0.00 0.00 0.00 0.00 0.00 0.00 0.00 0.00 0.01 0.00 0.00 0.01 0.01 0.00 0.00 0.03 0.05 0.07 0.02 0.00 0.03 0.05 0.07 0.09 0.07 0.08 0.18 0.41 0.78 1.11 0.61 0.33 0.20 0.27 0.31 0.19 0.13 0.14 0.21 0.18 0.06 0.09
0.00 0.00 0.00 0.00 0.00 0.00 0.00 0.00 0.00 0.00 0.00 0.00 0.00 0.00 0.00 0.00 0.00 0.01 0.01 0.11 0.03 0.00 0.01 0.02 0.04 0.03 0.04 0.11 0.36 0.43 0.32 0.33 0.23 0.24 0.17 0.13 0.20 0.23 0.10 0.08 0.11 0.09 0.10 0.08
0.00 0.00 0.00 0.00 0.00 0.00 0.00 0.00 0.00 0.00 0.00 0.00 0.00 0.00 0.00 0.01 0.01 0.02 0.00 0.00 0.00 0.00 0.02 0.03 0.03 0.03 0.01 0.02 0.18 0.18 0.06 0.07 0.10 0.10 0.16 0.15 0.21 0.22 0.15 0.07 0.10 0.08 0.09 0.07
0.00 0.00 0.00 0.00 0.00 0.00 0.00 0.00 0.00 0.00 0.00 0.00 0.00 0.00 0.00 0.00 0.01 0.00 0.00 0.00 0.00 0.00 0.00 0.00 0.00 0.00 0.01 0.06 0.25 0.11 0.10 0.10 0.11 0.09 0.08 0.12 0.24 0.18 0.15 0.12 0.05 0.07 0.04 0.07
0.01 0.00 0.00 0.00 0.00 0.00 0.00 0.00 0.00 0.00 0.00 0.04 0.02 0.00 0.03 0.05 0.02 0.00 0.00 0.00 0.00 0.00 0.00 0.00 0.00 0.00 0.02 0.07 0.20 0.15 0.12 0.20 0.14 0.25 0.27 0.21 0.23 0.24 0.20 0.10 0.08 0.07 0.06 0.09
0.01 0.00 0.00 0.00 0.00 0.00 0.00 0.00 0.00 0.00 0.00 0.01 0.01 0.01 0.01 0.01 0.01 0.01 0.00 0.00 0.00 0.00 0.00 0.00 0.00 0.01 0.03 0.11 0.17 0.29 0.31 0.21 0.19 0.34 0.41 0.26 0.22 0.18 0.28 0.26 0.14 0.15 0.12 0.16
0.00 0.00 0.00 0.00 0.00 0.00 0.00 0.00 0.00 0.05 0.00 0.00 0.00 0.01 0.01 0.01 0.04 0.08 0.10 0.00 0.00 0.00 0.00 0.00 0.02 0.04 0.04 0.08 0.13 0.18 0.32 0.41 0.27 0.25 0.23 0.21 0.18 0.21 0.16 0.16 0.20 0.23 0.19 0.22
0.01 0.01 0.00 0.00 0.00 0.00 0.00 0.00 0.01 0.15 0.09 0.03 0.06 0.01 0.01 0.00 0.00 0.00 0.00 0.00 0.00 0.00 0.00 0.00 0.01 0.02 0.05 0.11 0.08 0.06 0.29 0.41 0.48 0.33 0.16 0.14 0.08 0.06 0.07 0.14 0.19 0.13 0.12 0.10
0.03 0.01 0.02 0.00 0.00 0.00 0.00 0.00 0.00 0.03 0.09 0.05 0.06 0.01 0.00 0.00 0.00 0.00 0.00 0.00 0.00 0.00 0.00 0.00 0.00 0.01 0.04 0.07 0.05 0.09 0.10 0.27 0.37 0.24 0.12 0.06 0.03 0.04 0.07 0.09 0.08 0.07 0.06 0.09
0.04 0.08 0.02 0.01 0.00 0.00 0.00 0.00 0.00 0.00 0.03 0.05 0.00 0.01 0.01 0.01 0.00 0.00 0.00 0.00 0.00 0.00 0.00 0.00 0.01 0.06 0.02 0.04 0.05 0.16 0.12 0.11 0.24 0.27 0.23 0.07 0.07 0.09 0.11 0.11 0.17 0.17 0.17 0.16
0.00 0.03 0.04 0.00 0.00 0.00 0.00 0.00 0.00 0.00 0.00 0.01 0.02 0.00 0.00 0.00 0.00 0.00 0.00 0.00 0.00 0.00 0.00 0.00 0.01 0.04 0.05 0.12 0.11 0.08 0.20 0.47 0.36 0.30 0.16 0.11 0.13 0.26 0.35 0.25 0.30 0.28 0.28 0.27
0.00 0.00 0.00 0.00 0.00 0.00 0.00 0.01 0.04 0.01 0.00 0.00 0.02 0.00 0.00 0.00 0.00 0.00 0.00 0.00 0.00 0.00 0.00 0.00 0.00 0.00 0.02 0.02 0.02 0.02 0.09 0.18 0.26 0.31 0.28 0.44 0.61 0.54 0.68 0.64 0.62 0.58 0.37 0.29
0.00 0.00 0.00 0.00 0.00 0.01 0.00 0.00 0.00 0.00 0.00 0.00 0.03 0.00 0.00 0.00 0.00 0.00 0.00 0.00 0.00 0.00 0.00 0.00 0.00 0.00 0.00 0.00 0.02 0.09 0.10 0.22 0.46 0.49 0.52 0.78 0.67 0.69 0.60 0.59 0.48 0.36 0.24 0.22
0.00 0.00 0.00 0.00 0.00 0.00 0.00 0.00 0.00 0.00 0.00 0.00 0.00 0.00 0.00 0.00 0.00 0.00 0.00 0.00 0.00 0.00 0.00 0.00 0.00 0.00 0.00 0.04 0.11 0.09 0.17 0.22 0.44 0.45 0.59 0.38 0.48 0.45 0.42 0.31 0.25 0.18 0.11 0.12
0.02 0.01 0.00 0.00 0.00 0.00 0.00 0.00 0.00 0.00 0.00 0.00 0.00 0.00 0.00 0.00 0.00 0.00 0.00 0.00 0.00 0.00 0.00 0.00 0.00 0.00 0.01 0.05 0.05 0.04 0.06 0.11 0.22 0.27 0.22 0.20 0.39 0.35 0.27 0.18 0.20 0.18 0.13 0.18
0.04 0.03 0.00 0.00 0.00 0.00 0.00 0.00 0.00 0.00 0.00 0.00 0.00 0.00 0.00 0.00 0.00 0.00 0.00 0.00 0.00 0.00 0.00 0.00 0.00 0.01 0.01 0.01 0.02 0.03 0.06 0.12 0.15 0.12 0.06 0.12 0.17 0.22 0.16 0.11 0.11 0.15 0.19 0.22
0.04 0.07 0.04 0.02 0.01 0.01 0.00 0.00 0.00 0.00 0.00 0.00 0.00 0.00 0.00 0.00 0.00 0.00 0.00 0.00 0.00 0.00 0.00 0.00 0.00 0.00 0.00 0.00 0.00 0.01 0.06 0.05 0.05 0.07 0.10 0.10 0.13 0.16 0.11 0.11 0.11 0.12 0.19 0.23
0.16 0.08 0.09 0.08 0.04 0.06 0.01 0.00 0.00 0.00 0.00 0.00 0.00 0.00 0.00 0.00 0.00 0.00 0.00 0.00 0.00 0.00 0.00 0.00 0.00 0.00 0.00 0.00 0.00 0.01 0.02 0.02 0.03 0.04 0.05 0.06 0.09 0.11 0.12 0.12 0.13 0.18 0.28 0.26
0.26 0.28 0.25 0.14 0.09 0.05 0.00 0.00 0.00 0.00 0.00 0.00 0.00 0.00 0.00 0.00 0.00 0.00 0.00 0.00 0.00 0.00 0.00 0.00 0.00 0.00 0.00 0.00 0.00 0.01 0.02 0.01 0.02 0.03 0.05 0.07 0.08 0.10 0.10 0.14 0.18 0.22 0.30 0.31
0.23 0.31 0.37 0.23 0.16 0.08 0.00 0.00 0.00 0.00 0.01 0.00 0.00 0.00 0.00 0.00 0.00 0.00 0.00 0.00 0.00 0.00 0.00 0.00 0.00 0.00 0.00 0.00 0.00 0.00 0.01 0.01 0.01 0.03 0.04 0.07 0.09 0.13 0.18 0.28 0.29 0.22 0.15 0.11
0.13 0.27 0.27 0.25 0.23 0.05 0.00 0.00 0.00 0.02 0.01 0.00 0.00 0.00 0.00 0.00 0.00 0.00 0.00 0.00 0.00 0.00 0.00 0.00 0.00 0.00 0.00 0.00 0.00 0.00 0.00 0.01 0.01 0.03 0.09 0.16 0.24 0.28 0.25 0.17 0.10 0.08 0.06 0.06
0.12 0.19 0.19 0.15 0.18 0.09 0.05 0.08 0.07 0.02 0.00 0.00 0.00 0.00 0.00 0.00 0.00 0.00 0.00 0.00 0.00 0.00 0.00 0.00 0.00 0.00 0.00 0.00 0.00 0.01 0.01 0.03 0.07 0.13 0.19 0.20 0.21 0.14 0.07 0.04 0.04 0.04 0.03 0.03
0.04 0.10 0.13 0.14 0.05 0.02 0.04 0.05 0.03 0.02 0.02 0.01 0.01 0.00 0.00 0.00 0.00 0.00 0.00 0.00 0.00 0.00 0.00 0.00 0.00 0.00 0.01 0.01 0.01 0.02 0.03 0.05 0.08 0.08 0.06 0.05 0.02 0.03 0.03 0.03 0.03 0.04 0.06 0.06
0.00 0.00 0.03 0.05 0.02 0.02 0.04 0.07 0.02 0.01 0.01 0.01 0.01 0.01 0.01 0.02 0.01 0.01 0.01 0.00 0.00 0.00 0.00 0.00 0.01 0.02 0.02 0.02 0.02 0.02 0.04 0.05 0.04 0.03 0.02 0.01 0.00 0.00 0.00 0.01 0.03 0.03 0.04 0.06
0.01 0.03 0.02 0.01 0.00 0.00 0.02 0.08 0.09 0.04 0.01 0.02 0.02 0.03 0.03 0.03 0.02 0.02 0.02 0.02 0.01 0.03 0.04 0.03 0.04 0.03 0.05 0.02 0.02 0.03 0.03 0.02 0.01 0.00 0.00 0.00 0.00 0.00 0.00 0.00 0.02 0.02 0.03 0.04
0.02 0.07 0.08 0.04 0.06 0.02 0.02 0.03 0.02 0.05 0.03 0.02 0.02 0.02 0.01 0.01 0.01 0.01 0.01 0.03 0.07 0.07 0.06 0.05 0.04 0.02 0.03 0.03 0.02 0.01 0.00 0.00 0.00 0.00 0.00 0.01 0.02 0.02 0.01 0.00 0.00 0.01 0.01 0.01

GFSCGP_prec_precacc_060.txt.gz
Total_Precipitation_Accumulation
0.00 0.00 0.00 0.00 0.00 0.00 0.00 0.00 0.00 0.00 0.01 0.00 0.00 0.01 0.01 0.00 0.00 0.03 0.05 0.07 0.02 0.00 0.03 0.05 0.07 0.09 0.07 0.08 0.18 0.42 0.81 1.14 0.62 0.35 0.20 0.28 0.32 0.19 0.15 0.16 0.23 0.19 0.06 0.09
0.00 0.00 0.00 0.00 0.00 0.00 0.00 0.00 0.00 0.00 0.00 0.00 0.00 0.00 0.00 0.00 0.00 0.01 0.01 0.11 0.03 0.00 0.01 0.02 0.04 0.03 0.04 0.11 0.36 0.44 0.38 0.41 0.31 0.27 0.18 0.14 0.21 0.24 0.12 0.09 0.11 0.09 0.10 0.08
0.00 0.00 0.00 0.00 0.00 0.00 0.00 0.00 0.00 0.00 0.00 0.00 0.00 0.00 0.00 0.01 0.01 0.02 0.00 0.00 0.00 0.00 0.02 0.03 0.03 0.03 0.01 0.02 0.18 0.18 0.07 0.11 0.14 0.12 0.21 0.19 0.25 0.27 0.24 0.10 0.11 0.08 0.09 0.07
0.00 0.00 0.00 0.00 0.00 0.00 0.00 0.00 0.00 0.00 0.00 0.00 0.00 0.00 0.00 0.00 0.01 0.00 0.00 0.00 0.00 0.00 0.00 0.00 0.00 0.00 0.01 0.06 0.25 0.11 0.10 0.11 0.11 0.10 0.13 0.17 0.26 0.20 0.16 0.13 0.06 0.07 0.04 0.07
0.01 0.00 0.00 0.00 0.00 0.00 0.00 0.00 0.00 0.00 0.00 0.04 0.02 0.00 0.03 0.05 0.02 0.00 0.00 0.00 0.00 0.00 0.00 0.00 0.00 0.00 0.02 0.07 0.20 0.16 0.12 0.20 0.15 0.25 0.28 0.22 0.24 0.25 0.21 0.11 0.08 0.07 0.06 0.09
0.01 0.00 0.00 0.00 0.00 0.00 0.00 0.00 0.00 0.00 0.00 0.01 0.01 0.01 0.01 0.01 0.01 0.01 0.00 0.00 0.00 0.00 0.00 0.00 0.00 0.01 0.03 0.11 0.17 0.29 0.31 0.21 0.19 0.34 0.41 0.26 0.22 0.18 0.29 0.27 0.15 0.16 0.12 0.16
0.00 0.00 0.00 0.00 0.00 0.00 0.00 0.00 0.00 0.05 0.00 0.00 0.00 0.01 0.01 0.01 0.04 0.08 0.10 0.00 0.00 0.00 0.00 0.00 0.02 0.04 0.04 0.08 0.13 0.18 0.32 0.42 0.27 0.25 0.23 0.21 0.18 0.21 0.16 0.16 0.20 0.23 0.19 0.22
0.01 0.02 0.00 0.00 0.00 0.00 0.00 0.00 0.01 0.15 0.09 0.03 0.06 0.01 0.01 0.00 0.00 0.00 0.00 0.00 0.00 0.00 0.00 0.00 0.01 0.02 0.05 0.11 0.08 0.06 0.29 0.41 0.48 0.33 0.16 0.14 0.08 0.06 0.07 0.14 0.19 0.13 0.12 0.10
0.03 0.01 0.02 0.00 0.00 0.00 0.00 0.00 0.00 0.03 0.09 0.05 0.06 0.01 0.00 0.00 0.00 0.00 0.00 0.00 0.00 0.00 0.00 0.00 0.00 0.01 0.04 0.07 0.05 0.09 0.10 0.27 0.37 0.24 0.12 0.06 0.03 0.04 0.07 0.09 0.08 0.07 0.06 0.09
0.04 0.08 0.02 0.01 0.00 0.00 0.00 0.00 0.00 0.00 0.03 0.05 0.00 0.01 0.01 0.01 0.00 0.00 0.00 0.00 0.00 0.00 0.00 0.00 0.01 0.06 0.02 0.04 0.05 0.16 0.12 0.11 0.24 0.27 0.23 0.07 0.07 0.09 0.11 0.11 0.17 0.17 0.17 0.16
0.00 0.03 0.04 0.00 0.00 0.00 0.00 0.00 0.00 0.00 0.00 0.01 0.02 0.00 0.00 0.00 0.00 0.00 0.00 0.00 0.00 0.00 0.00 0.00 0.01 0.04 0.05 0.12 0.11 0.08 0.20 0.47 0.36 0.30 0.16 0.11 0.13 0.26 0.35 0.25 0.30 0.28 0.28 0.27
0.00 0.00 0.00 0.00 0.00 0.00 0.00 0.01 0.04 0.01 0.00 0.00 0.02 0.00 0.00 0.00 0.00 0.00 0.00 0.00 0.00 0.00 0.00 0.00 0.00 0.00 0.02 0.02 0.02 0.02 0.09 0.18 0.26 0.31 0.28 0.44 0.61 0.54 0.68 0.64 0.62 0.58 0.37 0.29
0.00 0.00 0.00 0.00 0.00 0.01 0.00 0.00 0.00 0.00 0.00 0.00 0.03 0.00 0.00 0.00 0.00 0.00 0.00 0.00 0.00 0.00 0.00 0.00 0.00 0.00 0.00 0.00 0.02 0.09 0.10 0.22 0.46 0.49 0.53 0.78 0.67 0.69 0.60 0.59 0.48 0.36 0.24 0.22
0.01 0.01 0.00 0.00 0.00 0.00 0.00 0.00 0.00 0.00 0.00 0.00 0.00 0.00 0.00 0.00 0.00 0.00 0.00 0.00 0.00 0.00 0.00 0.00 0.00 0.00 0.00 0.04 0.11 0.09 0.17 0.22 0.44 0.45 0.59 0.38 0.48 0.45 0.42 0.31 0.25 0.18 0.11 0.12
0.03 0.01 0.00 0.00 0.00 0.00 0.00 0.00 0.00 0.00 0.00 0.00 0.00 0.00 0.00 0.00 0.00 0.00 0.00 0.00 0.00 0.00 0.00 0.00 0.00 0.00 0.01 0.05 0.05 0.04 0.06 0.11 0.22 0.27 0.22 0.20 0.39 0.36 0.27 0.18 0.20 0.18 0.13 0.18
0.04 0.03 0.00 0.00 0.00 0.00 0.00 0.00 0.00 0.00 0.00 0.00 0.00 0.00 0.00 0.00 0.00 0.00 0.00 0.00 0.00 0.00 0.00 0.00 0.00 0.01 0.01 0.01 0.02 0.03 0.06 0.12 0.15 0.12 0.06 0.12 0.17 0.22 0.16 0.11 0.11 0.15 0.19 0.22
0.04 0.07 0.04 0.02 0.01 0.01 0.00 0.00 0.00 0.00 0.00 0.00 0.00 0.00 0.00 0.00 0.00 0.00 0.00 0.00 0.00 0.00 0.00 0.00 0.00 0.00 0.00 0.00 0.00 0.01 0.06 0.05 0.05 0.07 0.10 0.10 0.13 0.16 0.11 0.11 0.11 0.12 0.19 0.23
0.16 0.08 0.09 0.08 0.04 0.06 0.01 0.00 0.00 0.00 0.00 0.00 0.00 0.00 0.00 0.00 0.00 0.00 0.00 0.00 0.00 0.00 0.00 0.00 0.00 0.00 0.00 0.00 0.00 0.01 0.02 0.02 0.03 0.04 0.05 0.06 0.09 0.11 0.12 0.12 0.13 0.18 0.28 0.26
0.26 0.28 0.26 0.14 0.09 0.05 0.00 0.00 0.00 0.00 0.00 0.00 0.00 0.00 0.00 0.00 0.00 0.00 0.00 0.00 0.00 0.00 0.00 0.00 0.00 0.00 0.00 0.00 0.00 0.01 0.02 0.01 0.02 0.03 0.05 0.07 0.08 0.10 0.10 0.14 0.18 0.23 0.31 0.31
0.23 0.31 0.38 0.24 0.16 0.08 0.00 0.00 0.00 0.00 0.01 0.00 0.00 0.00 0.00 0.00 0.00 0.00 0.00 0.00 0.00 0.00 0.00 0.00 0.00 0.00 0.00 0.00 0.00 0.00 0.01 0.01 0.01 0.03 0.04 0.07 0.09 0.13 0.18 0.28 0.29 0.23 0.16 0.12
0.13 0.27 0.28 0.26 0.24 0.05 0.00 0.00 0.00 0.02 0.01 0.00 0.00 0.00 0.00 0.00 0.00 0.00 0.00 0.00 0.00 0.00 0.00 0.00 0.00 0.00 0.00 0.00 0.00 0.00 0.00 0.01 0.01 0.03 0.09 0.16 0.24 0.28 0.25 0.17 0.10 0.09 0.08 0.06
0.12 0.19 0.19 0.16 0.19 0.09 0.05 0.08 0.07 0.02 0.00 0.00 0.00 0.00 0.00 0.00 0.00 0.00 0.00 0.00 0.00 0.00 0.00 0.00 0.00 0.00 0.00 0.00 0.00 0.01 0.01 0.03 0.07 0.13 0.19 0.20 0.21 0.15 0.08 0.05 0.07 0.06 0.05 0.04
0.05 0.10 0.14 0.14 0.05 0.02 0.04 0.06 0.03 0.02 0.02 0.01 0.01 0.00 0.00 0.00 0.00 0.00 0.00 0.00 0.00 0.00 0.00 0.00 0.00 0.00 0.01 0.01 0.01 0.02 0.03 0.05 0.08 0.09 0.07 0.08 0.04 0.07 0.07 0.06 0.05 0.05 0.06 0.07
0.00 0.00 0.03 0.05 0.02 0.02 0.04 0.07 0.02 0.01 0.01 0.01 0.01 0.01 0.01 0.02 0.01 0.01 0.01 0.00 0.00 0.00 0.00 0.00 0.01 0.03 0.05 0.03 0.03 0.03 0.06 0.07 0.06 0.06 0.05 0.04 0.03 0.03 0.01 0.02 0.03 0.03 0.04 0.07
0.01 0.03 0.02 0.01 0.00 0.00 0.02 0.08 0.09 0.04 0.01 0.02 0.02 0.03 0.03 0.03 0.02 0.02 0.02 0.02 0.02 0.03 0.04 0.03 0.04 0.04 0.06 0.03 0.03 0.05 0.04 0.03 0.02 0.02 0.02 0.01 0.00 0.00 0.00 0.01 0.03 0.04 0.06 0.08
0.02 0.07 0.08 0.04 0.06 0.02 0.02 0.03 0.02 0.05 0.03 0.02 0.02 0.02 0.01 0.01 0.01 0.02 0.03 0.04 0.08 0.09 0.06 0.06 0.05 0.05 0.06 0.05 0.06 0.04 0.01 0.01 0.01 0.01 0.01 0.02 0.03 0.03 0.02 0.01 0.02 0.04 0.05 0.06

GFSCGP_prec_precacc_063.txt.gz
Total_Precipitation_Accumulation
0.00 0.00 0.00 0.00 0.00 0.00 0.00 0.00 0.00 0.00 0.01 0.00 0.00 0.01 0.01 0.00 0.00 0.03 0.05 0.07 0.02 0.00 0.03 0.05 0.07 0.09 0.07 0.08 0.19 0.43 0.81 1.14 0.63 0.36 0.21 0.29 0.33 0.27 0.20 0.23 0.29 0.21 0.06 0.09
0.00 0.00 0.00 0.00 0.00 0.00 0.00 0.00 0.00 0.00 0.00 0.00 0.00 0.00 0.00 0.00 0.00 0.01 0.01 0.11 0.03 0.00 0.01 0.02 0.04 0.03 0.04 0.11 0.36 0.44 0.38 0.42 0.39 0.30 0.19 0.14 0.22 0.27 0.14 0.13 0.15 0.11 0.11 0.08
0.01 0.00 0.00 0.00 0.00 0.00 0.00 0.00 0.00 0.00 0.00 0.00 0.00 0.00 0.00 0.01 0.01 0.02 0.00 0.00 0.00 0.00 0.02 0.03 0.03 0.03 0.01 0.02 0.18 0.19 0.07 0.12 0.19 0.25 0.24 0.21 0.29 0.29 0.30 0.16 0.15 0.09 0.11 0.08
0.00 0.00 0.00 0.00 0.00 0.00 0.00 0.00 0.00 0.00 0.00 0.00 0.00 0.00 0.00 0.00 0.01 0.00 0.00 0.00 0.00 0.00 0.00 0.00 0.00 0.00 0.01 0.06 0.25 0.11 0.11 0.11 0.12 0.11 0.14 0.17 0.27 0.20 0.16 0.14 0.08 0.08 0.06 0.11
0.01 0.00 0.00 0.00 0.00 0.00 0.00 0.00 0.00 0.00 0.00 0.04 0.02 0.00 0.03 0.05 0.02 0.00 0.00 0.00 0.00 0.00 0.00 0.00 0.00 0.00 0.02 0.07 0.20 0.16 0.13 0.21 0.15 0.26 0.28 0.22 0.24 0.25 0.22 0.12 0.09 0.08 0.07 0.11
0.01 0.00 0.00 0.00 0.00 0.00 0.00 0.00 0.00 0.00 0.00 0.01 0.01 0.01 0.01 0.01 0.01 0.01 0.00 0.00 0.00 0.00 0.00 0.00 0.00 0.01 0.03 0.11 0.17 0.29 0.31 0.21 0.20 0.35 0.41 0.26 0.22 0.20 0.30 0.27 0.15 0.16 0.12 0.16
0.00 0.00 0.00 0.00 0.00 0.00 0.00 0.00 0.00 0.05 0.00 0.00 0.00 0.01 0.01 0.01 0.04 0.08 0.10 0.00 0.00 0.00 0.00 0.00 0.02 0.04 0.04 0.08 0.13 0.18 0.32 0.42 0.28 0.26 0.23 0.21 0.18 0.21 0.16 0.16 0.21 0.24 0.19 0.22
0.02 0.02 0.00 0.00 0.00 0.00 0.00 0.00 0.01 0.15 0.09 0.03 0.06 0.01 0.01 0.00 0.00 0.00 0.00 0.00 0.00 0.00 0.00 0.00 0.01 0.02 0.05 0.11 0.08 0.06 0.29 0.41 0.48 0.34 0.16 0.14 0.08 0.06 0.07 0.14 0.19 0.13 0.12 0.10
0.03 0.01 0.02 0.00 0.00 0.00 0.00 0.00 0.00 0.03 0.09 0.05 0.06 0.01 0.00 0.00 0.00 0.00 0.00 0.00 0.00 0.00 0.00 0.00 0.00 0.01 0.04 0.07 0.05 0.09 0.10 0.27 0.37 0.24 0.12 0.06 0.03 0.04 0.07 0.09 0.08 0.07 0.06 0.09
0.04 0.08 0.02 0.01 0.00 0.00 0.00 0.00 0.00 0.00 0.03 0.05 0.00 0.01 0.01 0.01 0.00 0.00 0.00 0.00 0.00 0.00 0.00 0.00 0.01 0.06 0.02 0.04 0.05 0.16 0.12 0.11 0.24 0.27 0.24 0.08 0.08 0.10 0.11 0.11 0.17 0.17 0.17 0.16
0.00 0.03 0.04 0.00 0.00 0.00 0.00 0.00 0.00 0.00 0.00 0.01 0.02 0.00 0.00 0.00 0.00 0.00 0.00 0.00 0.00 0.00 0.00 0.00 0.01 0.04 0.05 0.12 0.11 0.08 0.20 0.47 0.36 0.30 0.16 0.11 0.13 0.26 0.35 0.25 0.30 0.28 0.28 0.27
0.00 0.00 0.00 0.00 0.00 0.00 0.00 0.01 0.04 0.01 0.00 0.00 0.02 0.00 0.00 0.00 0.00 0.00 0.00 0.00 0.00 0.00 0.00 0.00 0.00 0.00 0.02 0.02 0.02 0.02 0.09 0.18 0.26 0.31 0.28 0.44 0.61 0.54 0.68 0.64 0.62 0.58 0.37 0.29
0.01 0.00 0.00 0.01 0.01 0.01 0.00 0.00 0.00 0.00 0.00 0.00 0.04 0.00 0.00 0.00 0.00 0.00 0.00 0.00 0.00 0.00 0.00 0.00 0.00 0.00 0.00 0.00 0.02 0.09 0.10 0.22 0.46 0.49 0.53 0.78 0.67 0.69 0.60 0.59 0.48 0.36 0.24 0.22
0.01 0.02 0.00 0.00 0.00 0.00 0.00 0.00 0.00 0.00 0.00 0.00 0.00 0.00 0.00 0.00 0.00 0.00 0.00 0.00 0.00 0.00 0.00 0.00 0.00 0.00 0.00 0.04 0.11 0.09 0.17 0.22 0.44 0.45 0.59 0.38 0.48 0.45 0.42 0.31 0.25 0.18 0.11 0.12
0.03 0.04 0.02 0.01 0.00 0.00 0.00 0.00 0.00 0.00 0.00 0.00 0.00 0.00 0.00 0.00 0.00 0.00 0.00 0.00 0.00 0.00 0.00 0.00 0.00 0.00 0.01 0.05 0.05 0.04 0.06 0.11 0.22 0.27 0.22 0.20 0.39 0.36 0.27 0.18 0.20 0.18 0.13 0.18
0.04 0.06 0.04 0.00 0.00 0.00 0.00 0.00 0.00 0.00 0.00 0.00 0.00 0.00 0.00 0.00 0.00 0.00 0.00 0.00 0.00 0.00 0.00 0.00 0.00 0.01 0.01 0.01 0.02 0.03 0.06 0.12 0.15 0.12 0.06 0.12 0.17 0.22 0.16 0.11 0.11 0.15 0.19 0.22
0.04 0.07 0.06 0.05 0.01 0.01 0.00 0.00 0.00 0.00 0.00 0.00 0.00 0.00 0.00 0.00 0.00 0.00 0.00 0.00 0.00 0.00 0.00 0.00 0.00 0.00 0.00 0.00 0.00 0.01 0.06 0.05 0.05 0.07 0.10 0.10 0.13 0.16 0.11 0.11 0.11 0.12 0.19 0.23
0.16 0.08 0.10 0.08 0.04 0.06 0.01 0.00 0.00 0.00 0.00 0.00 0.00 0.00 0.00 0.00 0.00 0.00 0.00 0.00 0.00 0.00 0.00 0.00 0.00 0.00 0.00 0.00 0.00 0.01 0.02 0.02 0.03 0.04 0.05 0.06 0.09 0.11 0.12 0.12 0.13 0.18 0.28 0.26
0.26 0.29 0.27 0.14 0.09 0.05 0.00 0.00 0.00 0.00 0.00 0.00 0.00 0.00 0.00 0.00 0.00 0.00 0.00 0.00 0.00 0.00 0.00 0.00 0.00 0.00 0.00 0.00 0.00 0.01 0.02 0.01 0.02 0.03 0.05 0.07 0.08 0.10 0.10 0.14 0.18 0.23 0.31 0.31
0.23 0.31 0.39 0.25 0.16 0.08 0.00 0.00 0.00 0.00 0.01 0.00 0.00 0.00 0.00 0.00 0.00 0.00 0.00 0.00 0.00 0.00 0.00 0.00 0.00 0.00 0.00 0.00 0.00 0.00 0.01 0.01 0.01 0.03 0.04 0.07 0.09 0.13 0.18 0.28 0.29 0.23 0.16 0.12
0.13 0.27 0.28 0.27 0.24 0.06 0.00 0.00 0.00 0.02 0.02 0.00 0.00 0.00 0.00 0.00 0.00 0.00 0.00 0.00 0.00 0.00 0.00 0.00 0.00 0.00 0.00 0.00 0.00 0.00 0.00 0.01 0.01 0.03 0.09 0.16 0.24 0.28 0.25 0.17 0.10 0.09 0.08 0.08
0.12 0.20 0.20 0.16 0.21 0.10 0.05 0.09 0.09 0.03 0.00 0.00 0.00 0.00 0.00 0.00 0.00 0.00 0.00 0.00 0.00 0.00 0.00 0.00 0.00 0.00 0.00 0.00 0.00 0.01 0.01 0.03 0.07 0.13 0.19 0.20 0.21 0.15 0.08 0.05 0.07 0.06 0.06 0.07
0.07 0.10 0.14 0.15 0.06 0.05 0.06 0.08 0.04 0.02 0.02 0.01 0.01 0.00 0.00 0.00 0.00 0.00 0.00 0.00 0.00 0.00 0.00 0.00 0.00 0.00 0.01 0.01 0.02 0.03 0.03 0.06 0.08 0.09 0.07 0.08 0.04 0.07 0.08 0.09 0.10 0.10 0.10 0.12
0.02 0.01 0.08 0.09 0.02 0.04 0.08 0.08 0.02 0.01 0.01 0.01 0.01 0.01 0.01 0.02 0.01 0.01 0.01 0.00 0.00 0.00 0.00 0.00 0.01 0.03 0.05 0.04 0.04 0.06 0.09 0.10 0.11 0.11 0.09 0.07 0.08 0.09 0.07 0.07 0.08 0.07 0.08 0.10
0.03 0.04 0.03 0.02 0.01 0.02 0.02 0.08 0.09 0.04 0.01 0.02 0.02 0.03 0.03 0.03 0.02 0.02 0.02 0.02 0.02 0.03 0.04 0.03 0.04 0.04 0.07 0.05 0.07 0.10 0.09 0.06 0.06 0.06 0.06 0.06 0.06 0.05 0.06 0.05 0.07 0.08 0.09 0.11
0.03 0.09 0.10 0.07 0.09 0.04 0.04 0.03 0.02 0.05 0.03 0.02 0.02 0.02 0.01 0.01 0.01 0.02 0.03 0.04 0.08 0.10 0.08 0.06 0.05 0.05 0.07 0.12 0.17 0.24 0.24 0.14 0.06 0.05 0.04 0.05 0.06 0.04 0.04 0.03 0.05 0.09 0.10 0.11

GFSCGP_prec_precacc_069.txt.gz
Total_Precipitation_Accumulation
0.00 0.00 0.00 0.00 0.00 0.00 0.00 0.00 0.00 0.00 0.01 0.00 0.00 0.01 0.01 0.00 0.00 0.03 0.05 0.07 0.02 0.00 0.03 0.05 0.07 0.09 0.07 0.08 0.19 0.43 0.82 1.15 0.63 0.36 0.21 0.29 0.34 0.32 0.28 0.29 0.35 0.26 0.08 0.10
0.02 0.01 0.00 0.00 0.00 0.00 0.00 0.00 0.00 0.00 0.00 0.00 0.00 0.00 0.00 0.00 0.00 0.01 0.01 0.11 0.03 0.00 0.01 0.02 0.04 0.03 0.04 0.11 0.36 0.45 0.40 0.43 0.39 0.30 0.19 0.14 0.23 0.30 0.18 0.17 0.19 0.15 0.12 0.08
0.02 0.01 0.00 0.01 0.00 0.00 0.00 0.00 0.00 0.00 0.00 0.00 0.00 0.00 0.00 0.01 0.01 0.02 0.00 0.00 0.00 0.00 0.02 0.03 0.03 0.03 0.01 0.02 0.18 0.19 0.08 0.12 0.20 0.29 0.26 0.24 0.30 0.33 0.33 0.19 0.17 0.11 0.12 0.09
0.07 0.00 0.02 0.00 0.00 0.00 0.00 0.00 0.00 0.00 0.00 0.00 0.00 0.00 0.00 0.00 0.01 0.00 0.00 0.00 0.00 0.00 0.00 0.00 0.00 0.00 0.01 0.06 0.25 0.12 0.11 0.12 0.12 0.13 0.15 0.18 0.27 0.21 0.17 0.14 0.09 0.08 0.06 0.13
0.09 0.03 0.04 0.01 0.00 0.00 0.00 0.00 0.00 0.00 0.00 0.04 0.02 0.00 0.03 0.05 0.02 0.00 0.00 0.00 0.00 0.00 0.00 0.00 0.00 0.00 0.02 0.07 0.20 0.16 0.13 0.22 0.15 0.26 0.28 0.22 0.24 0.26 0.22 0.12 0.09 0.08 0.07 0.11
0.01 0.02 0.06 0.03 0.00 0.00 0.00 0.01 0.00 0.00 0.00 0.01 0.01 0.01 0.01 0.01 0.01 0.01 0.00 0.00 0.00 0.00 0.00 0.00 0.00 0.01 0.03 0.11 0.17 0.29 0.31 0.22 0.21 0.35 0.41 0.26 0.22 0.20 0.30 0.28 0.15 0.16 0.12 0.17
0.00 0.01 0.01 0.00 0.00 0.00 0.00 0.03 0.05 0.07 0.00 0.00 0.00 0.01 0.01 0.01 0.04 0.08 0.10 0.00 0.00 0.00 0.00 0.00 0.02 0.04 0.04 0.08 0.13 0.18 0.32 0.42 0.28 0.26 0.24 0.21 0.18 0.21 0.16 0.16 0.21 0.24 0.19 0.22
0.02 0.03 0.00 0.00 0.00 0.00 0.00 0.01 0.05 0.18 0.10 0.03 0.06 0.01 0.01 0.00 0.00 0.00 0.00 0.00 0.00 0.00 0.00 0.00 0.01 0.02 0.05 0.11 0.08 0.06 0.29 0.41 0.48 0.34 0.16 0.14 0.08 0.06 0.07 0.14 0.19 0.13 0.12 0.10
0.04 0.02 0.02 0.00 0.00 0.02 0.03 0.02 0.00 0.09 0.11 0.06 0.06 0.01 0.00 0.00 0.00 0.00 0.00 0.00 0.00 0.00 0.00 0.00 0.00 0.01 0.04 0.07 0.05 0.09 0.10 0.27 0.37 0.24 0.12 0.07 0.03 0.04 0.07 0.09 0.08 0.07 0.06 0.09
0.04 0.08 0.02 0.01 0.00 0.00 0.01 0.02 0.14 0.19 0.08 0.05 0.00 0.01 0.01 0.01 0.00 0.00 0.00 0.00 0.00 0.00 0.00 0.00 0.01 0.06 0.02 0.04 0.05 0.16 0.12 0.11 0.24 0.27 0.24 0.08 0.08 0.10 0.11 0.11 0.17 0.17 0.17 0.16
0.00 0.03 0.04 0.00 0.00 0.00 0.00 0.03 0.11 0.06 0.01 0.01 0.03 0.01 0.01 0.00 0.00 0.00 0.00 0.00 0.00 0.00 0.00 0.00 0.01 0.04 0.05 0.12 0.11 0.08 0.20 0.47 0.36 0.30 0.16 0.11 0.13 0.27 0.35 0.25 0.30 0.28 0.28 0.27
0.01 0.00 0.00 0.00 0.00 0.01 0.00 0.01 0.06 0.12 0.06 0.00 0.02 0.01 0.00 0.00 0.00 0.00 0.00 0.00 0.00 0.00 0.00 0.00 0.00 0.00 0.02 0.02 0.02 0.02 0.09 0.18 0.26 0.31 0.28 0.44 0.61 0.55 0.68 0.64 0.62 0.58 0.37 0.29
0.01 0.00 0.00 0.02 0.05 0.01 0.00 0.00 0.02 0.04 0.16 0.11 0.07 0.00 0.00 0.00 0.00 0.00 0.00 0.00 0.00 0.00 0.00 0.00 0.00 0.01 0.00 0.00 0.02 0.09 0.10 0.22 0.46 0.49 0.53 0.78 0.67 0.69 0.60 0.59 0.48 0.36 0.24 0.22
0.01 0.03 0.00 0.01 0.03 0.04 0.02 0.01 0.02 0.06 0.20 0.09 0.05 0.01 0.05 0.01 0.01 0.00 0.00 0.00 0.00 0.00 0.00 0.00 0.01 0.04 0.07 0.09 0.14 0.11 0.17 0.22 0.45 0.45 0.59 0.38 0.48 0.45 0.42 0.31 0.25 0.18 0.11 0.12
0.04 0.06 0.04 0.02 0.00 0.01 0.01 0.01 0.00 0.06 0.08 0.10 0.02 0.01 0.06 0.04 0.00 0.00 0.00 0.00 0.00 0.00 0.00 0.00 0.00 0.01 0.05 0.15 0.14 0.11 0.10 0.13 0.24 0.27 0.22 0.20 0.39 0.36 0.27 0.18 0.20 0.18 0.13 0.18
0.04 0.07 0.07 0.02 0.00 0.00 0.00 0.00 0.00 0.01 0.03 0.04 0.02 0.02 0.06 0.02 0.01 0.02 0.00 0.00 0.00 0.00 0.00 0.00 0.00 0.01 0.01 0.02 0.05 0.07 0.12 0.19 0.20 0.18 0.09 0.12 0.17 0.22 0.16 0.11 0.11 0.15 0.19 0.22
0.05 0.07 0.10 0.13 0.03 0.01 0.00 0.00 0.00 0.01 0.04 0.03 0.04 0.04 0.03 0.03 0.05 0.01 0.00 0.00 0.00 0.00 0.00 0.00 0.00 0.00 0.00 0.00 0.00 0.01 0.06 0.06 0.07 0.10 0.15 0.15 0.17 0.16 0.11 0.11 0.11 0.12 0.19 0.23
0.16 0.09 0.14 0.14 0.09 0.10 0.01 0.00 0.00 0.00 0.01 0.03 0.02 0.02 0.01 0.06 0.05 0.00 0.00 0.00 0.00 0.00 0.00 0.00 0.00 0.00 0.00 0.00 0.00 0.01 0.02 0.02 0.03 0.05 0.06 0.07 0.14 0.15 0.14 0.13 0.13 0.18 0.28 0.26
0.26 0.29 0.31 0.19 0.15 0.08 0.01 0.00 0.00 0.01 0.05 0.04 0.06 0.02 0.01 0.01 0.01 0.01 0.00 0.00 0.00 0.00 0.00 0.00 0.00 0.00 0.00 0.00 0.00 0.01 0.02 0.01 0.02 0.03 0.05 0.07 0.09 0.13 0.17 0.17 0.19 0.23 0.31 0.31
0.23 0.31 0.41 0.28 0.24 0.11 0.01 0.00 0.00 0.01 0.10 0.03 0.02 0.02 0.02 0.01 0.01 0.02 0.00 0.00 0.00 0.00 0.00 0.00 0.00 0.00 0.00 0.00 0.00 0.00 0.01 0.01 0.01 0.03 0.04 0.07 0.09 0.13 0.21 0.32 0.32 0.28 0.19 0.15
0.14 0.29 0.29 0.28 0.28 0.07 0.00 0.00 0.00 0.05 0.11 0.01 0.00 0.00 0.00 0.00 0.00 0.00 0.00 0.00 0.00 0.00 0.00 0.00 0.00 0.00 0.00 0.00 0.00 0.00 0.00 0.01 0.01 0.03 0.09 0.16 0.24 0.28 0.25 0.20 0.15 0.14 0.16 0.14
0.15 0.22 0.22 0.17 0.22 0.11 0.05 0.09 0.11 0.07 0.01 0.00 0.00 0.00 0.00 0.00 0.00 0.00 0.00 0.00 0.00 0.00 0.00 0.00 0.00 0.00 0.00 0.00 0.00 0.01 0.01 0.03 0.07 0.13 0.19 0.20 0.21 0.15 0.10 0.09 0.13 0.12 0.10 0.10
0.19 0.11 0.15 0.15 0.06 0.10 0.09 0.10 0.06 0.04 0.02 0.01 0.01 0.00 0.00 0.00 0.00 0.00 0.00 0.00 0.00 0.00 0.00 0.00 0.00 0.00 0.01 0.01 0.02 0.03 0.04 0.06 0.09 0.10 0.07 0.08 0.04 0.07 0.09 0.12 0.15 0.14 0.15 0.16
0.13 0.03 0.12 0.14 0.04 0.18 0.30 0.11 0.02 0.01 0.01 0.01 0.01 0.01 0.01 0.02 0.01 0.01 0.01 0.00 0.00 0.00 0.00 0.00 0.01 0.03 0.05 0.04 0.04 0.06 0.10 0.12 0.13 0.14 0.14 0.11 0.11 0.13 0.08 0.09 0.11 0.12 0.16 0.23
0.45 0.14 0.12 0.15 0.32 0.35 0.21 0.10 0.09 0.04 0.01 0.02 0.02 0.03 0.03 0.03 0.02 0.02 0.02 0.02 0.02 0.03 0.04 0.03 0.04 0.04 0.07 0.05 0.07 0.10 0.10 0.09 0.10 0.11 0.12 0.15 0.17 0.16 0.19 0.22 0.27 0.26 0.35 0.40
0.42 0.34 0.24 0.29 0.64 0.70 0.37 0.10 0.03 0.05 0.03 0.02 0.02 0.02 0.01 0.01 0.01 0.02 0.03 0.04 0.08 0.10 0.08 0.06 0.05 0.05 0.08 0.12 0.18 0.24 0.27 0.28 0.31 0.34 0.34 0.34 0.35 0.39 0.44 0.47 0.54 0.64 0.66 0.66

GFSCGP_prec_precacc_072.txt.gz
Total_Precipitation_Accumulation
0.00 0.00 0.00 0.00 0.00 0.00 0.00 0.00 0.00 0.00 0.01 0.00 0.00 0.01 0.01 0.00 0.00 0.03 0.05 0.07 0.02 0.00 0.03 0.05 0.07 0.09 0.07 0.08 0.19 0.43 0.82 1.15 0.63 0.36 0.22 0.30 0.34 0.32 0.29 0.30 0.40 0.30 0.10 0.10
0.02 0.01 0.00 0.00 0.00 0.00 0.00 0.00 0.00 0.00 0.00 0.00 0.00 0.00 0.00 0.00 0.00 0.01 0.01 0.11 0.03 0.00 0.01 0.02 0.04 0.03 0.04 0.11 0.36 0.45 0.40 0.43 0.40 0.30 0.19 0.14 0.23 0.31 0.18 0.18 0.24 0.23 0.16 0.09
0.02 0.01 0.00 0.01 0.00 0.00 0.00 0.00 0.00 0.00 0.00 0.00 0.00 0.00 0.00 0.01 0.01 0.02 0.00 0.00 0.00 0.00 0.02 0.03 0.03 0.03 0.01 0.02 0.18 0.19 0.08 0.12 0.21 0.29 0.26 0.24 0.30 0.34 0.35 0.22 0.24 0.23 0.17 0.11
0.07 0.00 0.02 0.00 0.00 0.00 0.00 0.00 0.00 0.00 0.00 0.00 0.00 0.00 0.00 0.00 0.01 0.00 0.00 0.00 0.00 0.00 0.00 0.00 0.00 0.00 0.01 0.06 0.25 0.12 0.11 0.12 0.12 0.14 0.15 0.18 0.27 0.22 0.17 0.15 0.11 0.12 0.11 0.16
0.09 0.03 0.04 0.02 0.00 0.00 0.01 0.00 0.00 0.00 0.00 0.04 0.02 0.00 0.03 0.05 0.02 0.00 0.00 0.00 0.00 0.00 0.00 0.00 0.00 0.00 0.02 0.07 0.20 0.16 0.13 0.22 0.15 0.26 0.28 0.22 0.25 0.26 0.22 0.12 0.10 0.10 0.11 0.14
0.01 0.02 0.06 0.03 0.00 0.00 0.00 0.01 0.00 0.00 0.00 0.01 0.01 0.01 0.01 0.01 0.01 0.01 0.00 0.00 0.00 0.00 0.00 0.00 0.00 0.01 0.03 0.11 0.17 0.29 0.31 0.22 0.21 0.35 0.41 0.26 0.22 0.20 0.30 0.28 0.15 0.16 0.13 0.18
0.00 0.01 0.01 0.00 0.00 0.00 0.00 0.05 0.06 0.07 0.00 0.00 0.00 0.01 0.01 0.01 0.04 0.08 0.10 0.00 0.00 0.00 0.00 0.00 0.02 0.04 0.04 0.08 0.13 0.18 0.32 0.42 0.28 0.26 0.24 0.21 0.18 0.21 0.16 0.16 0.21 0.24 0.19 0.22
0.02 0.03 0.00 0.00 0.00 0.00 0.00 0.02 0.06 0.20 0.11 0.03 0.06 0.01 0.01 0.00 0.00 0.00 0.00 0.00 0.00 0.00 0.00 0.00 0.01 0.02 0.05 0.11 0.08 0.06 0.29 0.41 0.48 0.34 0.16 0.14 0.08 0.06 0.07 0.14 0.19 0.13 0.12 0.10
0.04 0.02 0.02 0.00 0.00 0.02 0.04 0.04 0.01 0.14 0.14 0.07 0.06 0.01 0.00 0.00 0.00 0.00 0.00 0.00 0.00 0.00 0.00 0.00 0.00 0.01 0.04 0.07 0.05 0.09 0.10 0.27 0.37 0.24 0.12 0.07 0.03 0.04 0.07 0.09 0.08 0.07 0.06 0.09
0.04 0.08 0.02 0.01 0.00 0.00 0.01 0.04 0.18 0.30 0.15 0.08 0.01 0.02 0.02 0.01 0.00 0.00 0.00 0.00 0.00 0.00 0.00 0.00 0.01 0.06 0.02 0.04 0.05 0.16 0.12 0.11 0.24 0.27 0.24 0.08 0.08 0.10 0.11 0.11 0.17 0.17 0.17 0.16
0.00 0.03 0.04 0.01 0.01 0.00 0.01 0.14 0.16 0.10 0.02 0.05 0.04 0.06 0.02 0.01 0.00 0.00 0.00 0.00 0.00 0.00 0.00 0.00 0.01 0.04 0.05 0.12 0.11 0.08 0.20 0.47 0.36 0.30 0.16 0.11 0.13 0.27 0.35 0.25 0.30 0.28 0.28 0.27
0.01 0.00 0.00 0.00 0.00 0.01 0.00 0.03 0.14 0.18 0.10 0.02 0.04 0.14 0.07 0.02 0.00 0.00 0.00 0.00 0.00 0.00 0.00 0.00 0.00 0.00 0.02 0.02 0.02 0.02 0.09 0.18 0.26 0.31 0.28 0.44 0.61 0.55 0.69 0.64 0.62 0.58 0.37 0.29
0.01 0.00 0.00 0.02 0.05 0.02 0.01 0.00 0.04 0.07 0.20 0.14 0.12 0.11 0.16 0.07 0.00 0.00 0.00 0.00 0.00 0.00 0.00 0.00 0.00 0.01 0.00 0.00 0.03 0.10 0.11 0.22 0.46 0.49 0.53 0.78 0.67 0.69 0.60 0.59 0.48 0.36 0.24 0.22
0.01 0.03 0.01 0.01 0.04 0.06 0.04 0.02 0.03 0.11 0.27 0.11 0.07 0.04 0.23 0.15 0.05 0.00 0.00 0.00 0.00 0.00 0.00 0.02 0.04 0.10 0.15 0.18 0.18 0.12 0.18 0.23 0.45 0.46 0.59 0.38 0.49 0.45 0.42 0.31 0.25 0.18 0.11 0.12
0.04 0.06 0.04 0.02 0.00 0.01 0.03 0.04 0.04 0.13 0.11 0.13 0.03 0.04 0.11 0.18 0.23 0.09 0.01 0.00 0.00 0.00 0.00 0.01 0.03 0.04 0.11 0.25 0.23 0.16 0.15 0.16 0.26 0.28 0.23 0.23 0.41 0.38 0.28 0.19 0.20 0.18 0.13 0.18
0.04 0.07 0.07 0.02 0.00 0.00 0.00 0.02 0.03 0.05 0.05 0.07 0.05 0.07 0.10 0.12 0.15 0.16 0.03 0.00 0.00 0.00 0.00 0.00 0.00 0.01 0.01 0.02 0.07 0.10 0.14 0.22 0.22 0.20 0.11 0.14 0.19 0.25 0.18 0.13 0.12 0.16 0.19 0.22
0.05 0.07 0.10 0.13 0.03 0.01 0.00 0.00 0.01 0.03 0.07 0.07 0.11 0.09 0.09 0.15 0.16 0.05 0.02 0.00 0.00 0.00 0.00 0.00 0.00 0.00 0.00 0.00 0.00 0.01 0.06 0.06 0.07 0.11 0.16 0.16 0.18 0.18 0.12 0.13 0.12 0.13 0.21 0.24
0.16 0.09 0.14 0.14 0.09 0.10 0.01 0.00 0.00 0.01 0.06 0.12 0.09 0.09 0.06 0.16 0.21 0.01 0.00 0.00 0.00 0.00 0.00 0.00 0.00 0.00 0.00 0.00 0.00 0.01 0.02 0.02 0.03 0.05 0.06 0.08 0.15 0.16 0.14 0.13 0.13 0.19 0.30 0.28
0.26 0.29 0.31 0.19 0.16 0.08 0.01 0.00 0.00 0.03 0.10 0.10 0.11 0.18 0.15 0.06 0.10 0.02 0.00 0.00 0.00 0.00 0.00 0.00 0.00 0.00 0.00 0.00 0.00 0.01 0.02 0.01 0.02 0.03 0.05 0.07 0.09 0.13 0.19 0.18 0.19 0.23 0.31 0.34
0.23 0.31 0.41 0.28 0.24 0.12 0.01 0.00 0.00 0.03 0.16 0.10 0.03 0.05 0.08 0.04 0.02 0.03 0.00 0.00 0.00 0.00 0.00 0.00 0.00 0.00 0.00 0.00 0.00 0.00 0.01 0.01 0.01 0.03 0.04 0.07 0.09 0.13 0.21 0.32 0.34 0.30 0.22 0.19
0.15 0.29 0.29 0.28 0.28 0.07 0.00 0.00 0.00 0.07 0.17 0.04 0.01 0.02 0.00 0.00 0.00 0.00 0.00 0.00 0.00 0.00 0.00 0.00 0.00 0.00 0.00 0.00 0.00 0.00 0.00 0.01 0.01 0.03 0.09 0.16 0.24 0.28 0.25 0.20 0.15 0.15 0.19 0.19
0.16 0.23 0.22 0.18 0.23 0.11 0.05 0.09 0.12 0.10 0.04 0.03 0.01 0.03 0.03 0.00 0.00 0.00 0.00 0.00 0.00 0.00 0.00 0.00 0.00 0.00 0.00 0.00 0.00 0.01 0.01 0.03 0.07 0.13 0.19 0.20 0.21 0.15 0.10 0.09 0.13 0.12 0.11 0.12
0.35 0.18 0.16 0.15 0.06 0.11 0.11 0.11 0.07 0.06 0.07 0.09 0.02 0.01 0.01 0.01 0.01 0.00 0.00 0.00 0.00 0.00 0.00 0.00 0.00 0.00 0.01 0.01 0.02 0.03 0.04 0.06 0.09 0.10 0.07 0.08 0.04 0.07 0.09 0.12 0.15 0.15 0.16 0.19
0.16 0.08 0.17 0.15 0.06 0.22 0.35 0.15 0.03 0.02 0.02 0.04 0.02 0.01 0.02 0.02 0.01 0.01 0.01 0.00 0.00 0.00 0.00 0.00 0.01 0.03 0.05 0.04 0.04 0.07 0.10 0.12 0.13 0.14 0.14 0.11 0.11 0.13 0.09 0.09 0.11 0.12 0.17 0.27
0.48 0.26 0.17 0.19 0.45 0.36 0.23 0.14 0.11 0.06 0.02 0.02 0.02 0.03 0.03 0.03 0.02 0.02 0.02 0.02 0.02 0.03 0.04 0.03 0.04 0.04 0.07 0.05 0.08 0.10 0.10 0.09 0.10 0.11 0.12 0.15 0.17 0.16 0.19 0.23 0.28 0.27 0.39 0.44
0.70 0.66 0.36 0.35 1.09 0.84 0.42 0.17 0.07 0.05 0.03 0.02 0.02 0.02 0.01 0.01 0.01 0.02 0.03 0.04 0.08 0.10 0.08 0.06 0.05 0.05 0.08 0.12 0.18 0.25 0.27 0.28 0.31 0.34 0.34 0.35 0.35 0.39 0.44 0.47 0.54 0.66 0.70 0.72

GFSCGP_prec_precacc_075.txt.gz
Total_Precipitation_Accumulation
0.00 0.00 0.00 0.00 0.00 0.00 0.00 0.00 0.00 0.00 0.01 0.00 0.00 0.01 0.01 0.00 0.00 0.03 0.05 0.07 0.02 0.00 0.03 0.05 0.07 0.09 0.07 0.08 0.19 0.43 0.82 1.15 0.63 0.36 0.22 0.30 0.35 0.33 0.30 0.35 0.57 0.67 0.43 0.19
0.02 0.01 0.00 0.00 0.00 0.00 0.00 0.00 0.00 0.00 0.00 0.00 0.00 0.00 0.00 0.00 0.00 0.01 0.01 0.11 0.03 0.00 0.01 0.02 0.04 0.03 0.04 0.11 0.36 0.45 0.40 0.43 0.40 0.30 0.19 0.14 0.23 0.31 0.19 0.18 0.28 0.34 0.28 0.21
0.02 0.01 0.00 0.01 0.00 0.00 0.00 0.00 0.00 0.00 0.00 0.00 0.00 0.00 0.00 0.01 0.01 0.02 0.00 0.00 0.00 0.00 0.02 0.03 0.03 0.03 0.01 0.02 0.18 0.19 0.08 0.12 0.21 0.29 0.26 0.24 0.30 0.34 0.36 0.22 0.27 0.28 0.20 0.15
0.07 0.00 0.02 0.00 0.00 0.00 0.00 0.00 0.00 0.00 0.00 0.00 0.00 0.00 0.00 0.00 0.01 0.00 0.00 0.00 0.00 0.00 0.00 0.00 0.00 0.00 0.01 0.06 0.25 0.12 0.11 0.12 0.12 0.14 0.15 0.18 0.27 0.22 0.17 0.15 0.12 0.29 0.18 0.21
0.09 0.03 0.04 0.02 0.00 0.00 0.01 0.00 0.00 0.00 0.00 0.04 0.02 0.00 0.03 0.05 0.02 0.00 0.00 0.00 0.00 0.00 0.00 0.00 0.00 0.00 0.02 0.07 0.20 0.16 0.13 0.22 0.15 0.26 0.28 0.22 0.25 0.26 0.22 0.12 0.10 0.19 0.30 0.21
0.01 0.02 0.06 0.03 0.00 0.00 0.00 0.02 0.00 0.00 0.00 0.02 0.01 0.01 0.01 0.01 0.01 0.01 0.00 0.00 0.00 0.00 0.00 0.00 0.00 0.01 0.03 0.11 0.17 0.29 0.31 0.22 0.21 0.35 0.41 0.26 0.22 0.20 0.31 0.28 0.15 0.17 0.22 0.29
0.00 0.01 0.01 0.00 0.00 0.00 0.01 0.06 0.08 0.10 0.03 0.01 0.00 0.01 0.01 0.01 0.04 0.08 0.10 0.00 0.00 0.00 0.00 0.00 0.02 0.04 0.04 0.08 0.13 0.18 0.32 0.42 0.28 0.26 0.24 0.21 0.18 0.21 0.16 0.16 0.21 0.24 0.19 0.23
0.02 0.03 0.00 0.00 0.00 0.01 0.00 0.03 0.10 0.22 0.11 0.03 0.06 0.01 0.01 0.00 0.00 0.00 0.00 0.00 0.00 0.00 0.00 0.00 0.01 0.02 0.05 0.11 0.08 0.06 0.29 0.41 0.48 0.34 0.16 0.14 0.08 0.06 0.07 0.14 0.19 0.13 0.12 0.10
0.04 0.02 0.02 0.00 0.00 0.02 0.06 0.05 0.03 0.21 0.15 0.07 0.06 0.01 0.00 0.00 0.00 0.00 0.00 0.00 0.00 0.00 0.00 0.00 0.00 0.01 0.04 0.07 0.05 0.09 0.10 0.27 0.37 0.24 0.12 0.07 0.03 0.04 0.07 0.09 0.08 0.07 0.07 0.09
0.04 0.08 0.02 0.01 0.00 0.00 0.02 0.04 0.19 0.33 0.18 0.10 0.01 0.03 0.02 0.01 0.00 0.00 0.00 0.00 0.00 0.00 0.00 0.00 0.01 0.06 0.02 0.04 0.05 0.16 0.12 0.11 0.24 0.27 0.24 0.08 0.08 0.10 0.11 0.11 0.17 0.17 0.17 0.16
0.00 0.03 0.04 0.01 0.01 0.00 0.02 0.15 0.18 0.11 0.03 0.07 0.07 0.10 0.02 0.01 0.01 0.00 0.00 0.00 0.00 0.00 0.00 0.00 0.01 0.04 0.05 0.12 0.11 0.08 0.20 0.47 0.36 0.30 0.16 0.11 0.13 0.27 0.35 0.25 0.30 0.28 0.28 0.27
0.01 0.00 0.00 0.00 0.00 0.01 0.00 0.03 0.16 0.28 0.14 0.02 0.08 0.18 0.08 0.05 0.03 0.00 0.00 0.00 0.00 0.00 0.00 0.00 0.00 0.00 0.02 0.02 0.02 0.02 0.09 0.18 0.26 0.31 0.28 0.44 0.61 0.55 0.69 0.64 0.62 0.58 0.37 0.29
0.01 0.00 0.00 0.02 0.05 0.02 0.01 0.01 0.05 0.10 0.29 0.19 0.17 0.14 0.29 0.14 0.05 0.01 0.00 0.01 0.00 0.00 0.00 0.00 0.00 0.01 0.00 0.02 0.05 0.11 0.11 0.22 0.46 0.49 0.53 0.78 0.67 0.69 0.60 0.59 0.48 0.36 0.24 0.22
0.01 0.03 0.01 0.01 0.04 0.07 0.04 0.02 0.05 0.16 0.37 0.14 0.08 0.05 0.50 0.46 0.23 0.06 0.00 0.00 0.02 0.01 0.01 0.02 0.05 0.11 0.17 0.23 0.25 0.17 0.22 0.27 0.47 0.46 0.60 0.38 0.49 0.45 0.42 0.31 0.25 0.18 0.11 0.12
0.04 0.06 0.04 0.02 0.00 0.01 0.03 0.04 0.06 0.18 0.14 0.15 0.04 0.04 0.17 0.44 0.55 0.31 0.07 0.00 0.00 0.01 0.02 0.05 0.07 0.10 0.18 0.32 0.31 0.25 0.20 0.19 0.28 0.30 0.26 0.24 0.42 0.39 0.29 0.19 0.20 0.18 0.13 0.18
0.04 0.07 0.07 0.02 0.00 0.00 0.00 0.02 0.04 0.06 0.07 0.09 0.06 0.07 0.14 0.31 0.36 0.52 0.21 0.05 0.01 0.00 0.00 0.00 0.01 0.02 0.02 0.04 0.11 0.11 0.14 0.22 0.23 0.20 0.11 0.15 0.20 0.25 0.20 0.14 0.12 0.16 0.20 0.24
0.05 0.07 0.10 0.13 0.03 0.01 0.00 0.00 0.01 0.04 0.08 0.08 0.12 0.11 0.12 0.26 0.34 0.26 0.32 0.16 0.03 0.01 0.00 0.00 0.00 0.00 0.00 0.00 0.00 0.01 0.06 0.06 0.07 0.11 0.16 0.16 0.18 0.18 0.12 0.14 0.14 0.15 0.23 0.26
0.16 0.09 0.14 0.14 0.09 0.10 0.01 0.00 0.00 0.01 0.06 0.12 0.10 0.12 0.21 0.20 0.29 0.11 0.15 0.22 0.14 0.03 0.00 0.00 0.00 0.00 0.00 0.00 0.00 0.01 0.02 0.02 0.03 0.05 0.06 0.08 0.15 0.16 0.14 0.13 0.14 0.19 0.31 0.29
0.26 0.29 0.31 0.19 0.16 0.08 0.01 0.00 0.01 0.04 0.11 0.12 0.12 0.28 0.31 0.11 0.13 0.10 0.10 0.08 0.06 0.05 0.02 0.00 0.00 0.00 0.00 0.00 0.00 0.01 0.02 0.01 0.02 0.03 0.05 0.07 0.09 0.13 0.19 0.18 0.19 0.23 0.32 0.35
0.23 0.31 0.41 0.28 0.24 0.12 0.01 0.00 0.00 0.03 0.17 0.13 0.07 0.15 0.17 0.14 0.10 0.17 0.17 0.05 0.00 0.00 0.00 0.00 0.00 0.00 0.00 0.00 0.00 0.00 0.01 0.01 0.01 0.03 0.04 0.07 0.09 0.13 0.21 0.32 0.34 0.30 0.22 0.19
0.15 0.29 0.29 0.28 0.28 0.07 0.00 0.00 0.00 0.10 0.19 0.05 0.08 0.05 0.06 0.04 0.08 0.13 0.11 0.02 0.00 0.00 0.00 0.00 0.00 0.00 0.00 0.00 0.00 0.00 0.00 0.01 0.01 0.03 0.09 0.16 0.24 0.28 0.25 0.20 0.15 0.15 0.19 0.19
0.16 0.23 0.22 0.18 0.24 0.11 0.05 0.09 0.12 0.12 0.06 0.07 0.09 0.06 0.05 0.11 0.07 0.02 0.00 0.00 0.00 0.00 0.00 0.00 0.00 0.00 0.00 0.00 0.00 0.01 0.01 0.03 0.07 0.13 0.19 0.20 0.21 0.15 0.10 0.09 0.13 0.12 0.11 0.12
0.36 0.19 0.18 0.15 0.06 0.12 0.12 0.12 0.07 0.06 0.09 0.21 0.20 0.32 0.12 0.10 0.10 0.07 0.00 0.00 0.00 0.00 0.00 0.00 0.00 0.00 0.01 0.01 0.02 0.03 0.04 0.06 0.09 0.10 0.07 0.08 0.04 0.07 0.09 0.12 0.15 0.15 0.16 0.19
0.17 0.09 0.22 0.19 0.07 0.22 0.35 0.16 0.04 0.02 0.03 0.12 0.39 0.28 0.24 0.11 0.04 0.02 0.01 0.00 0.00 0.00 0.00 0.00 0.01 0.03 0.05 0.04 0.04 0.07 0.10 0.12 0.13 0.14 0.14 0.11 0.11 0.13 0.09 0.09 0.11 0.12 0.17 0.27
0.49 0.26 0.18 0.24 0.49 0.37 0.23 0.15 0.17 0.13 0.03 0.03 0.03 0.03 0.03 0.03 0.02 0.02 0.02 0.02 0.02 0.03 0.04 0.03 0.04 0.05 0.08 0.06 0.08 0.11 0.10 0.09 0.10 0.11 0.12 0.15 0.17 0.17 0.19 0.24 0.29 0.28 0.41 0.45
0.75 0.74 0.41 0.46 1.17 0.91 0.43 0.18 0.26 0.28 0.13 0.04 0.03 0.02 0.01 0.01 0.01 0.02 0.03 0.04 0.09 0.10 0.08 0.07 0.05 0.05 0.09 0.13 0.19 0.25 0.27 0.28 0.31 0.34 0.34 0.35 0.35 0.39 0.44 0.47 0.55 0.66 0.71 0.72

GFSCGP_prec_precacc_078.txt.gz
Total_Precipitation_Accumulation
0.00 0.00 0.00 0.00 0.00 0.00 0.00 0.00 0.00 0.00 0.01 0.00 0.00 0.01 0.01 0.00 0.00 0.03 0.05 0.07 0.02 0.00 0.03 0.05 0.07 0.09 0.07 0.08 0.19 0.43 0.82 1.15 0.63 0.36 0.22 0.31 0.35 0.34 0.31 0.39 0.67 0.91 0.69 0.47
0.02 0.01 0.00 0.00 0.00 0.00 0.00 0.00 0.00 0.00 0.00 0.00 0.00 0.00 0.00 0.00 0.00 0.01 0.01 0.11 0.03 0.00 0.01 0.02 0.04 0.03 0.04 0.11 0.36 0.45 0.40 0.43 0.40 0.30 0.19 0.14 0.23 0.32 0.21 0.21 0.34 0.65 0.76 0.60
0.02 0.01 0.00 0.01 0.00 0.00 0.00 0.00 0.00 0.00 0.00 0.00 0.00 0.00 0.00 0.01 0.01 0.02 0.00 0.00 0.00 0.00 0.02 0.03 0.03 0.03 0.01 0.02 0.18 0.19 0.08 0.12 0.21 0.29 0.26 0.24 0.30 0.35 0.39 0.26 0.28 0.37 0.47 0.44
0.07 0.00 0.02 0.00 0.00 0.00 0.00 0.00 0.00 0.00 0.00 0.00 0.00 0.00 0.00 0.00 0.01 0.00 0.00 0.00 0.00 0.00 0.00 0.00 0.00 0.00 0.01 0.06 0.25 0.12 0.11 0.12 0.12 0.14 0.15 0.18 0.27 0.23 0.19 0.17 0.14 0.30 0.23 0.30
0.09 0.03 0.04 0.02 0.00 0.00 0.01 0.00 0.00 0.00 0.00 0.04 0.02 0.00 0.03 0.05 0.02 0.00 0.00 0.00 0.00 0.00 0.00 0.00 0.00 0.00 0.02 0.07 0.20 0.16 0.13 0.22 0.15 0.26 0.28 0.22 0.25 0.26 0.22 0.13 0.13 0.21 0.33 0.25
0.01 0.02 0.06 0.03 0.00 0.00 0.00 0.02 0.00 0.00 0.01 0.04 0.01 0.01 0.01 0.01 0.01 0.01 0.00 0.00 0.00 0.00 0.00 0.00 0.00 0.01 0.03 0.11 0.17 0.29 0.31 0.22 0.21 0.35 0.41 0.26 0.22 0.20 0.31 0.28 0.16 0.18 0.27 0.40
0.00 0.01 0.01 0.00 0.00 0.00 0.01 0.07 0.08 0.12 0.06 0.02 0.00 0.01 0.01 0.01 0.04 0.08 0.10 0.00 0.00 0.00 0.00 0.00 0.02 0.04 0.04 0.08 0.13 0.18 0.32 0.42 0.28 0.27 0.24 0.21 0.18 0.21 0.16 0.16 0.21 0.24 0.22 0.33
0.02 0.03 0.00 0.00 0.00 0.01 0.01 0.04 0.11 0.24 0.12 0.03 0.06 0.01 0.01 0.00 0.00 0.00 0.00 0.00 0.00 0.00 0.00 0.00 0.01 0.02 0.05 0.11 0.08 0.06 0.30 0.41 0.49 0.35 0.16 0.14 0.08 0.06 0.07 0.14 0.19 0.13 0.13 0.13
0.04 0.02 0.02 0.00 0.00 0.02 0.07 0.07 0.04 0.26 0.18 0.08 0.06 0.01 0.00 0.00 0.00 0.00 0.00 0.00 0.00 0.00 0.00 0.00 0.00 0.01 0.04 0.07 0.05 0.09 0.10 0.27 0.37 0.24 0.12 0.07 0.03 0.04 0.07 0.09 0.08 0.07 0.07 0.10
0.04 0.08 0.02 0.01 0.00 0.00 0.03 0.05 0.22 0.38 0.22 0.11 0.01 0.03 0.02 0.01 0.00 0.00 0.00 0.00 0.00 0.00 0.00 0.00 0.01 0.06 0.02 0.04 0.05 0.16 0.12 0.11 0.24 0.27 0.24 0.08 0.08 0.10 0.11 0.11 0.17 0.17 0.17 0.16
0.00 0.03 0.04 0.01 0.01 0.00 0.02 0.16 0.19 0.14 0.04 0.08 0.07 0.11 0.02 0.02 0.02 0.00 0.00 0.00 0.00 0.00 0.00 0.00 0.01 0.04 0.05 0.12 0.11 0.10 0.21 0.47 0.36 0.31 0.16 0.11 0.14 0.27 0.35 0.25 0.30 0.28 0.28 0.27
0.01 0.00 0.00 0.00 0.00 0.01 0.01 0.03 0.17 0.34 0.17 0.04 0.09 0.20 0.12 0.07 0.03 0.00 0.00 0.00 0.00 0.00 0.00 0.00 0.00 0.00 0.02 0.02 0.03 0.05 0.11 0.18 0.26 0.32 0.29 0.45 0.61 0.55 0.69 0.64 0.62 0.58 0.37 0.29
0.01 0.00 0.00 0.02 0.06 0.03 0.03 0.02 0.06 0.12 0.34 0.23 0.21 0.15 0.36 0.23 0.06 0.01 0.00 0.01 0.00 0.00 0.00 0.00 0.00 0.01 0.00 0.02 0.06 0.13 0.13 0.23 0.46 0.49 0.53 0.78 0.67 0.69 0.60 0.59 0.48 0.36 0.24 0.22
0.01 0.03 0.01 0.01 0.04 0.08 0.05 0.03 0.07 0.27 0.48 0.17 0.09 0.06 0.57 0.65 0.36 0.09 0.04 0.04 0.04 0.02 0.01 0.02 0.05 0.11 0.18 0.25 0.28 0.21 0.28 0.32 0.49 0.47 0.60 0.38 0.49 0.45 0.42 0.31 0.25 0.18 0.11 0.12
0.04 0.06 0.04 0.02 0.00 0.01 0.03 0.04 0.06 0.22 0.22 0.24 0.05 0.05 0.20 0.51 0.68 0.51 0.17 0.03 0.03 0.03 0.04 0.07 0.09 0.12 0.22 0.37 0.36 0.31 0.28 0.25 0.31 0.31 0.26 0.25 0.43 0.40 0.29 0.20 0.20 0.18 0.13 0.18
0.04 0.07 0.07 0.02 0.00 0.00 0.00 0.02 0.04 0.06 0.07 0.09 0.06 0.07 0.15 0.38 0.42 0.66 0.46 0.14 0.02 0.01 0.00 0.00 0.02 0.04 0.06 0.08 0.13 0.13 0.15 0.23 0.23 0.20 0.11 0.15 0.20 0.26 0.20 0.14 0.13 0.16 0.21 0.25
0.06 0.07 0.10 0.13 0.03 0.01 0.00 0.00 0.01 0.04 0.08 0.08 0.12 0.11 0.13 0.29 0.39 0.36 0.50 0.35 0.14 0.03 0.00 0.00 0.00 0.00 0.00 0.00 0.00 0.03 0.09 0.08 0.07 0.11 0.16 0.16 0.18 0.18 0.12 0.14 0.14 0.16 0.24 0.27
0.16 0.09 0.14 0.14 0.09 0.10 0.01 0.00 0.00 0.01 0.06 0.12 0.10 0.13 0.24 0.22 0.33 0.19 0.28 0.38 0.27 0.14 0.04 0.00 0.00 0.01 0.00 0.00 0.00 0.01 0.03 0.03 0.03 0.05 0.06 0.08 0.15 0.16 0.14 0.13 0.14 0.19 0.31 0.29
0.26 0.29 0.31 0.19 0.16 0.08 0.01 0.00 0.01 0.04 0.12 0.12 0.13 0.29 0.31 0.12 0.16 0.19 0.20 0.20 0.23 0.20 0.14 0.07 0.01 0.00 0.00 0.00 0.00 0.01 0.02 0.01 0.02 0.03 0.05 0.07 0.09 0.13 0.19 0.18 0.19 0.23 0.32 0.35
0.23 0.31 0.41 0.28 0.24 0.12 0.01 0.00 0.00 0.03 0.17 0.13 0.09 0.16 0.20 0.20 0.27 0.35 0.31 0.16 0.09 0.07 0.06 0.07 0.06 0.02 0.00 0.00 0.00 0.00 0.01 0.01 0.01 0.03 0.04 0.07 0.09 0.13 0.21 0.32 0.34 0.30 0.22 0.19
0.15 0.29 0.29 0.28 0.29 0.07 0.00 0.00 0.00 0.10 0.19 0.05 0.09 0.10 0.22 0.30 0.35 0.46 0.31 0.11 0.02 0.00 0.00 0.00 0.00 0.00 0.00 0.00 0.00 0.00 0.00 0.01 0.01 0.03 0.09 0.16 0.24 0.28 0.25 0.20 0.15 0.15 0.19 0.19
0.16 0.23 0.22 0.18 0.24 0.11 0.05 0.10 0.12 0.12 0.07 0.07 0.13 0.16 0.13 0.22 0.28 0.32 0.09 0.04 0.00 0.00 0.00 0.00 0.00 0.00 0.00 0.00 0.00 0.01 0.01 0.03 0.07 0.13 0.19 0.20 0.21 0.15 0.10 0.09 0.13 0.12 0.11 0.12
0.37 0.19 0.18 0.15 0.06 0.12 0.12 0.12 0.07 0.06 0.09 0.22 0.30 0.62 0.38 0.33 0.44 0.40 0.13 0.02 0.00 0.00 0.00 0.00 0.00 0.00 0.01 0.01 0.02 0.03 0.04 0.06 0.09 0.10 0.07 0.08 0.04 0.07 0.09 0.12 0.15 0.15 0.16 0.19
0.20 0.11 0.23 0.20 0.07 0.22 0.35 0.16 0.04 0.02 0.04 0.14 0.48 0.76 1.00 0.65 0.38 0.18 0.05 0.01 0.00 0.00 0.00 0.00 0.01 0.03 0.05 0.04 0.04 0.07 0.10 0.12 0.13 0.14 0.14 0.11 0.11 0.13 0.09 0.09 0.11 0.12 0.18 0.27
0.52 0.27 0.18 0.24 0.51 0.37 0.24 0.16 0.17 0.17 0.09 0.07 0.07 0.12 0.13 0.10 0.04 0.03 0.02 0.02 0.02 0.04 0.04 0.04 0.04 0.05 0.09 0.06 0.08 0.11 0.10 0.09 0.10 0.11 0.12 0.16 0.17 0.17 0.19 0.25 0.30 0.29 0.42 0.45
0.77 0.76 0.42 0.48 1.23 0.96 0.47 0.20 0.27 0.39 0.37 0.18 0.07 0.06 0.04 0.01 0.01 0.02 0.04 0.05 0.09 0.10 0.09 0.07 0.05 0.05 0.09 0.13 0.19 0.25 0.27 0.28 0.31 0.34 0.34 0.35 0.35 0.40 0.44 0.47 0.55 0.67 0.72 0.73

GFSCGP_prec_precacc_081.txt.gz
Total_Precipitation_Accumulation
0.00 0.00 0.00 0.00 0.00 0.00 0.00 0.00 0.00 0.00 0.01 0.00 0.00 0.01 0.01 0.00 0.00 0.03 0.05 0.07 0.02 0.00 0.03 0.05 0.07 0.09 0.07 0.08 0.19 0.43 0.82 1.15 0.63 0.36 0.22 0.31 0.36 0.35 0.31 0.39 0.67 0.93 0.73 0.53
0.02 0.01 0.00 0.00 0.00 0.00 0.00 0.00 0.00 0.00 0.00 0.00 0.00 0.00 0.00 0.00 0.00 0.01 0.01 0.11 0.03 0.00 0.01 0.02 0.04 0.03 0.04 0.11 0.36 0.45 0.40 0.43 0.40 0.30 0.19 0.15 0.23 0.32 0.21 0.22 0.35 0.67 0.86 0.79
0.02 0.01 0.00 0.01 0.00 0.00 0.00 0.00 0.00 0.00 0.00 0.00 0.00 0.00 0.00 0.01 0.01 0.02 0.00 0.00 0.00 0.00 0.02 0.03 0.03 0.03 0.01 0.02 0.18 0.19 0.08 0.13 0.21 0.29 0.26 0.25 0.31 0.35 0.40 0.27 0.28 0.41 0.69 0.86
0.07 0.00 0.02 0.00 0.00 0.00 0.00 0.00 0.00 0.00 0.00 0.00 0.00 0.00 0.00 0.00 0.01 0.00 0.00 0.00 0.00 0.00 0.00 0.00 0.00 0.00 0.01 0.06 0.25 0.12 0.11 0.13 0.12 0.14 0.15 0.18 0.28 0.23 0.20 0.20 0.15 0.31 0.32 0.56
0.09 0.03 0.04 0.02 0.00 0.00 0.01 0.00 0.00 0.00 0.00 0.05 0.02 0.00 0.03 0.05 0.02 0.00 0.00 0.00 0.00 0.00 0.00 0.00 0.00 0.00 0.02 0.07 0.20 0.16 0.13 0.22 0.16 0.26 0.28 0.22 0.25 0.26 0.23 0.16 0.16 0.23 0.35 0.28
0.01 0.02 0.06 0.03 0.00 0.00 0.00 0.02 0.00 0.00 0.01 0.05 0.01 0.01 0.01 0.01 0.01 0.01 0.00 0.00 0.00 0.00 0.00 0.00 0.00 0.01 0.03 0.11 0.17 0.29 0.31 0.22 0.21 0.35 0.41 0.26 0.22 0.20 0.31 0.29 0.18 0.22 0.33 0.43
0.00 0.01 0.01 0.00 0.00 0.00 0.01 0.08 0.09 0.12 0.07 0.03 0.00 0.01 0.01 0.01 0.04 0.08 0.10 0.00 0.00 0.00 0.00 0.00 0.02 0.04 0.04 0.08 0.13 0.18 0.32 0.42 0.29 0.27 0.24 0.21 0.18 0.21 0.16 0.16 0.21 0.25 0.24 0.40
0.02 0.03 0.00 0.00 0.00 0.01 0.01 0.04 0.11 0.25 0.13 0.03 0.06 0.01 0.01 0.00 0.00 0.00 0.00 0.00 0.00 0.00 0.00 0.00 0.01 0.02 0.05 0.11 0.08 0.06 0.30 0.41 0.49 0.35 0.17 0.14 0.08 0.06 0.07 0.14 0.19 0.13 0.13 0.14
0.04 0.02 0.02 0.00 0.00 0.02 0.07 0.08 0.05 0.28 0.19 0.10 0.06 0.01 0.00 0.00 0.00 0.00 0.00 0.00 0.00 0.00 0.00 0.00 0.00 0.01 0.04 0.07 0.05 0.09 0.10 0.27 0.37 0.24 0.13 0.07 0.03 0.04 0.07 0.09 0.08 0.07 0.07 0.11
0.04 0.08 0.02 0.01 0.00 0.00 0.03 0.07 0.24 0.40 0.24 0.12 0.01 0.03 0.02 0.01 0.00 0.00 0.00 0.00 0.00 0.00 0.00 0.00 0.01 0.06 0.02 0.04 0.05 0.16 0.13 0.11 0.24 0.28 0.24 0.08 0.08 0.10 0.11 0.11 0.17 0.17 0.17 0.16
0.00 0.03 0.04 0.01 0.01 0.00 0.03 0.18 0.20 0.17 0.06 0.08 0.07 0.12 0.05 0.02 0.03 0.01 0.00 0.00 0.00 0.00 0.00 0.00 0.01 0.04 0.05 0.12 0.11 0.10 0.23 0.48 0.36 0.31 0.16 0.11 0.14 0.27 0.35 0.25 0.30 0.28 0.28 0.27
0.01 0.00 0.00 0.00 0.00 0.01 0.02 0.05 0.17 0.35 0.21 0.08 0.10 0.21 0.15 0.09 0.06 0.03 0.00 0.00 0.01 0.01 0.01 0.01 0.00 0.01 0.02 0.03 0.04 0.06 0.13 0.20 0.26 0.32 0.29 0.45 0.62 0.55 0.69 0.64 0.62 0.58 0.37 0.29
0.01 0.01 0.01 0.03 0.07 0.04 0.05 0.04 0.07 0.13 0.37 0.25 0.23 0.16 0.41 0.30 0.19 0.05 0.02 0.02 0.02 0.02 0.01 0.01 0.02 0.03 0.03 0.05 0.08 0.14 0.15 0.23 0.46 0.49 0.53 0.78 0.67 0.69 0.60 0.59 0.48 0.36 0.24 0.22
0.04 0.04 0.01 0.02 0.05 0.08 0.05 0.03 0.07 0.33 0.60 0.26 0.10 0.06 0.58 0.68 0.44 0.14 0.07 0.05 0.06 0.05 0.04 0.04 0.06 0.13 0.21 0.29 0.31 0.26 0.33 0.36 0.50 0.47 0.60 0.39 0.49 0.45 0.42 0.31 0.25 0.18 0.11 0.12
0.08 0.10 0.05 0.02 0.00 0.01 0.03 0.04 0.06 0.22 0.22 0.25 0.05 0.05 0.20 0.52 0.71 0.56 0.25 0.11 0.09 0.08 0.08 0.09 0.11 0.15 0.24 0.40 0.41 0.35 0.32 0.30 0.33 0.32 0.27 0.26 0.44 0.41 0.29 0.20 0.20 0.18 0.13 0.18
0.09 0.12 0.08 0.02 0.00 0.00 0.00 0.02 0.04 0.06 0.07 0.09 0.06 0.07 0.15 0.38 0.43 0.67 0.51 0.27 0.14 0.11 0.06 0.03 0.04 0.06 0.07 0.10 0.16 0.16 0.18 0.25 0.24 0.21 0.12 0.16 0.20 0.26 0.20 0.14 0.13 0.18 0.22 0.26
0.07 0.08 0.11 0.13 0.03 0.01 0.00 0.00 0.01 0.04 0.08 0.08 0.12 0.11 0.13 0.30 0.41 0.37 0.52 0.44 0.32 0.13 0.07 0.05 0.03 0.03 0.01 0.01 0.02 0.04 0.10 0.08 0.08 0.12 0.18 0.17 0.18 0.18 0.13 0.14 0.15 0.17 0.25 0.28
0.18 0.10 0.14 0.14 0.09 0.10 0.01 0.00 0.00 0.01 0.06 0.12 0.10 0.13 0.25 0.23 0.38 0.23 0.31 0.45 0.45 0.30 0.07 0.02 0.02 0.02 0.03 0.00 0.00 0.02 0.06 0.11 0.15 0.12 0.08 0.08 0.15 0.16 0.14 0.13 0.14 0.19 0.31 0.30
0.26 0.30 0.31 0.19 0.16 0.08 0.01 0.00 0.01 0.04 0.12 0.14 0.16 0.30 0.31 0.14 0.22 0.25 0.23 0.24 0.32 0.34 0.31 0.14 0.02 0.00 0.00 0.00 0.00 0.01 0.02 0.02 0.06 0.07 0.07 0.07 0.09 0.13 0.19 0.18 0.19 0.23 0.32 0.35
0.23 0.31 0.41 0.28 0.24 0.12 0.01 0.00 0.00 0.03 0.17 0.14 0.11 0.17 0.21 0.25 0.37 0.48 0.43 0.24 0.19 0.18 0.21 0.23 0.18 0.04 0.01 0.00 0.00 0.00 0.01 0.01 0.01 0.03 0.04 0.07 0.09 0.13 0.21 0.32 0.34 0.30 0.22 0.19
0.15 0.29 0.29 0.28 0.29 0.07 0.00 0.00 0.00 0.10 0.19 0.05 0.09 0.10 0.23 0.41 0.52 0.74 0.58 0.35 0.14 0.06 0.03 0.02 0.03 0.07 0.06 0.02 0.00 0.00 0.00 0.01 0.01 0.03 0.09 0.16 0.24 0.28 0.25 0.20 0.15 0.15 0.19 0.19
0.16 0.23 0.22 0.18 0.24 0.11 0.05 0.10 0.12 0.12 0.07 0.07 0.13 0.18 0.21 0.50 0.63 0.68 0.41 0.18 0.01 0.00 0.00 0.00 0.00 0.00 0.01 0.02 0.02 0.02 0.02 0.03 0.07 0.13 0.19 0.20 0.21 0.15 0.10 0.09 0.13 0.12 0.11 0.12
0.38 0.20 0.19 0.15 0.06 0.12 0.12 0.12 0.07 0.06 0.10 0.22 0.31 0.69 0.62 0.67 0.87 0.84 0.46 0.17 0.03 0.00 0.00 0.00 0.00 0.00 0.01 0.01 0.02 0.03 0.04 0.06 0.09 0.10 0.07 0.08 0.04 0.07 0.09 0.12 0.15 0.15 0.16 0.19
0.21 0.12 0.24 0.21 0.07 0.22 0.35 0.16 0.05 0.03 0.05 0.15 0.51 0.86 1.28 1.09 0.89 0.55 0.21 0.05 0.01 0.00 0.00 0.00 0.01 0.03 0.06 0.05 0.05 0.07 0.10 0.12 0.13 0.14 0.14 0.11 0.11 0.13 0.09 0.09 0.11 0.12 0.18 0.27
0.52 0.27 0.19 0.25 0.51 0.38 0.24 0.17 0.20 0.19 0.11 0.11 0.17 0.27 0.32 0.27 0.16 0.11 0.04 0.02 0.02 0.04 0.04 0.04 0.05 0.05 0.09 0.06 0.08 0.11 0.10 0.09 0.10 0.11 0.12 0.16 0.17 0.17 0.20 0.26 0.31 0.29 0.43 0.46
0.80 0.78 0.44 0.50 1.25 1.01 0.52 0.27 0.33 0.43 0.41 0.27 0.19 0.18 0.18 0.10 0.07 0.05 0.04 0.05 0.09 0.11 0.09 0.07 0.05 0.06 0.10 0.14 0.19 0.25 0.27 0.28 0.31 0.34 0.34 0.35 0.35 0.40 0.44 0.48 0.56 0.68 0.72 0.73

GFSCGP_prec_precacc_084.txt.gz
Total_Precipitation_Accumulation
0.00 0.00 0.00 0.00 0.00 0.00 0.00 0.00 0.00 0.00 0.01 0.00 0.00 0.01 0.01 0.00 0.00 0.03 0.05 0.07 0.02 0.00 0.03 0.05 0.07 0.09 0.07 0.08 0.19 0.43 0.82 1.15 0.63 0.36 0.22 0.31 0.36 0.35 0.32 0.40 0.68 0.93 0.73 0.55
0.02 0.01 0.00 0.00 0.00 0.00 0.00 0.00 0.00 0.00 0.00 0.00 0.00 0.00 0.00 0.00 0.00 0.01 0.01 0.11 0.03 0.00 0.01 0.02 0.04 0.03 0.04 0.11 0.36 0.45 0.40 0.44 0.40 0.30 0.19 0.15 0.24 0.33 0.21 0.23 0.36 0.69 0.87 0.81
0.02 0.01 0.00 0.01 0.00 0.00 0.00 0.00 0.00 0.00 0.00 0.00 0.00 0.00 0.00 0.01 0.01 0.02 0.00 0.00 0.00 0.00 0.02 0.03 0.03 0.03 0.01 0.02 0.18 0.19 0.09 0.13 0.21 0.29 0.27 0.25 0.31 0.36 0.41 0.28 0.29 0.42 0.70 0.96
0.07 0.00 0.02 0.00 0.00 0.00 0.00 0.00 0.00 0.00 0.00 0.00 0.00 0.00 0.00 0.00 0.01 0.00 0.00 0.00 0.00 0.00 0.00 0.00 0.00 0.00 0.01 0.06 0.25 0.12 0.11 0.13 0.12 0.14 0.15 0.18 0.28 0.23 0.20 0.20 0.15 0.31 0.32 0.66
0.09 0.03 0.04 0.02 0.00 0.00 0.01 0.00 0.00 0.00 0.00 0.05 0.02 0.00 0.03 0.05 0.02 0.00 0.00 0.00 0.00 0.00 0.00 0.00 0.00 0.00 0.02 0.07 0.20 0.16 0.13 0.22 0.16 0.26 0.28 0.22 0.25 0.26 0.24 0.16 0.17 0.23 0.36 0.31
0.01 0.02 0.06 0.03 0.00 0.00 0.00 0.02 0.00 0.00 0.01 0.05 0.01 0.01 0.01 0.01 0.01 0.01 0.00 0.00 0.00 0.00 0.00 0.00 0.00 0.01 0.03 0.11 0.17 0.29 0.31 0.22 0.21 0.35 0.41 0.26 0.22 0.20 0.31 0.30 0.18 0.23 0.34 0.43
0.00 0.01 0.01 0.00 0.00 0.00 0.01 0.08 0.09 0.12 0.07 0.03 0.00 0.01 0.01 0.01 0.04 0.08 0.10 0.00 0.00 0.00 0.00 0.00 0.02 0.04 0.04 0.08 0.13 0.19 0.32 0.42 0.29 0.27 0.24 0.21 0.18 0.22 0.16 0.17 0.21 0.26 0.27 0.44
0.02 0.03 0.00 0.00 0.00 0.01 0.01 0.04 0.11 0.25 0.14 0.03 0.06 0.01 0.01 0.00 0.00 0.00 0.00 0.00 0.00 0.00 0.00 0.00 0.01 0.02 0.05 0.11 0.08 0.07 0.30 0.41 0.49 0.35 0.17 0.14 0.08 0.06 0.07 0.14 0.19 0.13 0.14 0.14
0.04 0.02 0.02 0.00 0.00 0.02 0.07 0.08 0.05 0.28 0.19 0.10 0.06 0.01 0.00 0.00 0.00 0.00 0.00 0.00 0.00 0.00 0.00 0.00 0.00 0.01 0.04 0.07 0.06 0.10 0.10 0.27 0.37 0.24 0.13 0.07 0.04 0.05 0.07 0.09 0.08 0.07 0.08 0.11
0.04 0.08 0.02 0.01 0.01 0.01 0.04 0.07 0.26 0.41 0.25 0.13 0.01 0.03 0.03 0.01 0.00 0.00 0.00 0.00 0.00 0.00 0.00 0.00 0.01 0.06 0.02 0.04 0.05 0.16 0.13 0.12 0.25 0.28 0.24 0.08 0.08 0.10 0.12 0.11 0.17 0.17 0.17 0.17
0.00 0.03 0.07 0.04 0.02 0.01 0.04 0.20 0.21 0.19 0.07 0.10 0.08 0.13 0.07 0.03 0.04 0.01 0.00 0.00 0.01 0.00 0.00 0.00 0.01 0.04 0.06 0.12 0.12 0.10 0.23 0.49 0.37 0.31 0.16 0.12 0.14 0.27 0.35 0.25 0.30 0.28 0.28 0.28
0.01 0.02 0.01 0.02 0.03 0.01 0.03 0.06 0.19 0.37 0.23 0.11 0.13 0.23 0.20 0.14 0.10 0.03 0.00 0.00 0.02 0.02 0.02 0.02 0.01 0.01 0.03 0.03 0.04 0.07 0.14 0.22 0.29 0.32 0.29 0.45 0.62 0.55 0.69 0.64 0.63 0.59 0.38 0.29
0.09 0.04 0.03 0.06 0.11 0.06 0.08 0.06 0.09 0.15 0.39 0.27 0.25 0.18 0.47 0.32 0.19 0.06 0.02 0.02 0.03 0.04 0.04 0.03 0.03 0.05 0.05 0.06 0.09 0.16 0.16 0.26 0.47 0.50 0.53 0.78 0.67 0.69 0.60 0.59 0.48 0.36 0.24 0.22
0.16 0.07 0.03 0.04 0.07 0.09 0.05 0.03 0.08 0.33 0.62 0.28 0.12 0.06 0.58 0.68 0.44 0.15 0.08 0.06 0.06 0.07 0.07 0.06 0.08 0.15 0.23 0.31 0.34 0.30 0.36 0.38 0.52 0.48 0.60 0.39 0.49 0.46 0.43 0.31 0.26 0.19 0.11 0.12
0.19 0.16 0.07 0.02 0.00 0.01 0.03 0.04 0.06 0.22 0.22 0.25 0.05 0.05 0.20 0.52 0.71 0.56 0.25 0.12 0.10 0.11 0.14 0.14 0.15 0.18 0.28 0.43 0.45 0.41 0.38 0.34 0.36 0.33 0.27 0.26 0.44 0.41 0.30 0.20 0.21 0.19 0.13 0.18
0.21 0.23 0.19 0.05 0.00 0.00 0.00 0.02 0.04 0.06 0.07 0.09 0.06 0.07 0.15 0.38 0.43 0.67 0.52 0.31 0.17 0.14 0.13 0.10 0.07 0.11 0.11 0.14 0.21 0.22 0.22 0.27 0.26 0.22 0.12 0.16 0.20 0.26 0.20 0.15 0.14 0.18 0.22 0.26
0.19 0.12 0.13 0.15 0.03 0.01 0.00 0.00 0.01 0.04 0.08 0.08 0.12 0.11 0.13 0.30 0.43 0.39 0.53 0.47 0.45 0.22 0.15 0.15 0.08 0.09 0.05 0.05 0.05 0.07 0.12 0.11 0.10 0.13 0.18 0.17 0.19 0.18 0.13 0.15 0.16 0.18 0.26 0.29
0.24 0.13 0.15 0.14 0.09 0.10 0.01 0.00 0.00 0.01 0.06 0.13 0.11 0.15 0.26 0.24 0.39 0.29 0.36 0.53 0.62 0.67 0.22 0.14 0.13 0.11 0.10 0.07 0.04 0.06 0.09 0.13 0.17 0.14 0.09 0.09 0.16 0.16 0.14 0.13 0.14 0.20 0.32 0.31
0.27 0.32 0.32 0.19 0.16 0.08 0.01 0.00 0.01 0.04 0.12 0.15 0.16 0.31 0.31 0.15 0.25 0.32 0.31 0.35 0.42 0.70 0.78 0.34 0.10 0.06 0.06 0.06 0.07 0.11 0.13 0.12 0.12 0.20 0.23 0.20 0.14 0.16 0.19 0.18 0.19 0.23 0.32 0.35
0.23 0.32 0.41 0.28 0.24 0.12 0.01 0.00 0.00 0.03 0.17 0.14 0.11 0.17 0.21 0.26 0.43 0.63 0.57 0.32 0.26 0.33 0.41 0.67 0.40 0.09 0.03 0.02 0.01 0.04 0.04 0.05 0.14 0.18 0.15 0.19 0.24 0.21 0.22 0.32 0.34 0.30 0.22 0.19
0.15 0.29 0.30 0.28 0.29 0.07 0.00 0.00 0.00 0.11 0.19 0.05 0.09 0.10 0.24 0.42 0.57 0.94 0.79 0.56 0.34 0.25 0.13 0.14 0.30 0.30 0.16 0.04 0.01 0.01 0.01 0.01 0.02 0.07 0.13 0.17 0.25 0.28 0.26 0.20 0.15 0.15 0.19 0.19
0.18 0.24 0.23 0.18 0.24 0.11 0.05 0.10 0.12 0.12 0.07 0.07 0.13 0.18 0.21 0.55 0.77 0.92 0.71 0.44 0.16 0.05 0.01 0.00 0.00 0.01 0.04 0.06 0.05 0.04 0.03 0.03 0.08 0.13 0.19 0.20 0.21 0.15 0.10 0.09 0.13 0.12 0.11 0.12
0.40 0.21 0.21 0.16 0.07 0.12 0.12 0.12 0.07 0.06 0.10 0.23 0.31 0.69 0.65 0.83 1.10 1.07 0.70 0.33 0.12 0.04 0.01 0.00 0.00 0.01 0.01 0.02 0.02 0.05 0.07 0.08 0.10 0.11 0.08 0.08 0.04 0.07 0.09 0.12 0.15 0.15 0.16 0.19
0.22 0.12 0.28 0.23 0.09 0.23 0.36 0.16 0.05 0.03 0.06 0.16 0.53 0.90 1.37 1.23 1.12 0.81 0.43 0.18 0.08 0.02 0.00 0.01 0.01 0.03 0.06 0.05 0.05 0.07 0.10 0.12 0.13 0.15 0.14 0.12 0.12 0.13 0.09 0.09 0.11 0.12 0.18 0.27
0.53 0.27 0.19 0.25 0.52 0.39 0.25 0.17 0.20 0.20 0.13 0.13 0.24 0.40 0.45 0.41 0.31 0.21 0.10 0.04 0.03 0.04 0.04 0.04 0.05 0.05 0.09 0.07 0.09 0.11 0.10 0.09 0.10 0.11 0.12 0.16 0.17 0.17 0.20 0.26 0.31 0.30 0.44 0.46
0.82 0.80 0.44 0.50 1.26 1.02 0.53 0.27 0.33 0.44 0.44 0.31 0.25 0.28 0.29 0.20 0.16 0.11 0.10 0.09 0.12 0.11 0.09 0.07 0.06 0.06 0.10 0.14 0.20 0.26 0.27 0.28 0.31 0.34 0.34 0.35 0.35 0.40 0.44 0.48 0.57 0.68 0.73 0.73

GFSCGP_prec_precacc_087.txt.gz
Total_Precipitation_Accumulation
0.00 0.00 0.00 0.00 0.00 0.00 0.00 0.00 0.00 0.00 0.01 0.00 0.00 0.01 0.01 0.00 0.00 0.03 0.05 0.07 0.02 0.00 0.03 0.05 0.07 0.09 0.07 0.08 0.19 0.43 0.82 1.15 0.63 0.36 0.22 0.31 0.36 0.36 0.33 0.40 0.68 0.94 0.73 0.55
0.02 0.01 0.00 0.00 0.00 0.00 0.00 0.00 0.00 0.00 0.00 0.00 0.00 0.00 0.00 0.00 0.00 0.01 0.01 0.11 0.03 0.00 0.01 0.02 0.04 0.03 0.04 0.11 0.36 0.45 0.40 0.44 0.40 0.30 0.19 0.15 0.24 0.33 0.21 0.23 0.36 0.70 0.88 0.82
0.02 0.01 0.00 0.01 0.00 0.00 0.00 0.00 0.00 0.00 0.00 0.00 0.00 0.00 0.00 0.01 0.01 0.02 0.00 0.00 0.00 0.00 0.02 0.03 0.03 0.03 0.01 0.02 0.18 0.19 0.09 0.13 0.21 0.29 0.27 0.25 0.31 0.36 0.41 0.29 0.31 0.44 0.75 1.01
0.07 0.00 0.02 0.00 0.00 0.00 0.00 0.00 0.00 0.00 0.00 0.00 0.00 0.00 0.00 0.00 0.01 0.00 0.00 0.00 0.00 0.00 0.00 0.00 0.00 0.00 0.01 0.06 0.25 0.12 0.11 0.13 0.12 0.14 0.15 0.18 0.28 0.23 0.20 0.21 0.16 0.32 0.33 0.67
0.09 0.03 0.04 0.02 0.00 0.00 0.01 0.00 0.00 0.00 0.00 0.05 0.02 0.00 0.03 0.05 0.02 0.00 0.00 0.00 0.00 0.00 0.00 0.00 0.00 0.00 0.02 0.07 0.20 0.16 0.13 0.22 0.16 0.26 0.28 0.22 0.25 0.26 0.24 0.17 0.18 0.24 0.36 0.31
0.01 0.02 0.06 0.03 0.00 0.00 0.00 0.02 0.00 0.00 0.01 0.05 0.01 0.01 0.01 0.01 0.01 0.01 0.00 0.00 0.00 0.00 0.00 0.00 0.00 0.01 0.03 0.11 0.17 0.29 0.31 0.22 0.21 0.35 0.41 0.26 0.22 0.20 0.32 0.31 0.19 0.23 0.34 0.44
0.00 0.01 0.01 0.00 0.00 0.00 0.01 0.08 0.09 0.13 0.08 0.03 0.00 0.01 0.01 0.01 0.04 0.08 0.10 0.00 0.00 0.00 0.00 0.00 0.02 0.04 0.04 0.08 0.13 0.19 0.32 0.42 0.29 0.27 0.24 0.21 0.18 0.22 0.16 0.18 0.22 0.26 0.27 0.44
0.02 0.03 0.00 0.00 0.00 0.01 0.01 0.04 0.11 0.25 0.15 0.04 0.07 0.01 0.01 0.00 0.00 0.00 0.00 0.00 0.00 0.00 0.00 0.00 0.01 0.02 0.05 0.11 0.08 0.07 0.30 0.41 0.49 0.35 0.17 0.14 0.08 0.06 0.07 0.15 0.19 0.14 0.14 0.15
0.06 0.04 0.02 0.00 0.00 0.02 0.08 0.08 0.05 0.30 0.20 0.11 0.07 0.01 0.01 0.00 0.00 0.00 0.00 0.00 0.00 0.00 0.00 0.00 0.00 0.01 0.04 0.07 0.06 0.10 0.10 0.27 0.37 0.24 0.13 0.07 0.04 0.05 0.07 0.10 0.09 0.08 0.09 0.12
0.04 0.11 0.03 0.01 0.03 0.01 0.06 0.10 0.29 0.44 0.27 0.14 0.01 0.03 0.08 0.03 0.00 0.00 0.00 0.00 0.00 0.00 0.00 0.00 0.01 0.06 0.02 0.04 0.05 0.16 0.13 0.12 0.25 0.28 0.24 0.09 0.08 0.10 0.12 0.11 0.17 0.18 0.18 0.18
0.01 0.08 0.10 0.09 0.05 0.04 0.06 0.23 0.24 0.23 0.09 0.13 0.09 0.18 0.14 0.03 0.04 0.01 0.00 0.00 0.01 0.00 0.00 0.00 0.02 0.05 0.06 0.12 0.12 0.11 0.23 0.49 0.37 0.32 0.17 0.12 0.14 0.27 0.35 0.25 0.30 0.29 0.29 0.28
0.08 0.10 0.04 0.06 0.03 0.01 0.09 0.11 0.25 0.43 0.28 0.13 0.15 0.30 0.26 0.15 0.10 0.03 0.00 0.00 0.02 0.02 0.02 0.03 0.03 0.04 0.04 0.04 0.05 0.07 0.14 0.22 0.29 0.34 0.30 0.45 0.62 0.55 0.69 0.64 0.63 0.59 0.38 0.30
0.16 0.10 0.10 0.10 0.14 0.08 0.10 0.13 0.16 0.21 0.43 0.30 0.29 0.26 0.51 0.32 0.19 0.06 0.02 0.02 0.03 0.04 0.04 0.05 0.07 0.09 0.09 0.09 0.10 0.17 0.17 0.27 0.49 0.52 0.54 0.78 0.67 0.69 0.60 0.59 0.49 0.37 0.25 0.23
0.33 0.13 0.06 0.08 0.12 0.13 0.07 0.06 0.11 0.40 0.67 0.33 0.15 0.07 0.58 0.68 0.44 0.15 0.08 0.06 0.06 0.07 0.08 0.07 0.12 0.19 0.27 0.34 0.38 0.33 0.39 0.42 0.56 0.50 0.61 0.39 0.50 0.46 0.43 0.31 0.26 0.19 0.11 0.13
0.42 0.30 0.11 0.06 0.02 0.04 0.07 0.08 0.09 0.24 0.24 0.26 0.05 0.05 0.20 0.52 0.71 0.56 0.25 0.12 0.10 0.11 0.14 0.15 0.16 0.22 0.32 0.47 0.47 0.45 0.45 0.41 0.38 0.35 0.28 0.26 0.44 0.41 0.30 0.20 0.22 0.20 0.14 0.18
0.44 0.55 0.33 0.08 0.01 0.00 0.00 0.02 0.04 0.06 0.07 0.09 0.06 0.08 0.16 0.39 0.44 0.67 0.52 0.31 0.18 0.14 0.13 0.12 0.09 0.14 0.15 0.18 0.25 0.27 0.29 0.33 0.30 0.24 0.13 0.16 0.20 0.26 0.20 0.15 0.14 0.19 0.22 0.26
0.33 0.44 0.29 0.18 0.03 0.01 0.00 0.00 0.01 0.04 0.09 0.08 0.13 0.14 0.14 0.32 0.44 0.39 0.53 0.48 0.47 0.27 0.17 0.18 0.12 0.13 0.09 0.09 0.10 0.14 0.19 0.17 0.13 0.14 0.18 0.17 0.19 0.18 0.13 0.15 0.16 0.19 0.27 0.29
0.32 0.33 0.27 0.15 0.10 0.11 0.01 0.00 0.00 0.01 0.07 0.13 0.11 0.16 0.27 0.24 0.39 0.30 0.40 0.57 0.73 0.87 0.31 0.20 0.20 0.17 0.17 0.15 0.12 0.16 0.19 0.20 0.20 0.16 0.12 0.11 0.17 0.17 0.14 0.13 0.15 0.21 0.34 0.32
0.30 0.39 0.39 0.20 0.17 0.09 0.01 0.00 0.01 0.04 0.13 0.15 0.16 0.31 0.31 0.15 0.26 0.35 0.38 0.44 0.62 0.89 1.00 0.54 0.29 0.18 0.19 0.15 0.27 0.25 0.33 0.29 0.23 0.28 0.28 0.25 0.20 0.21 0.25 0.21 0.21 0.24 0.33 0.36
0.24 0.34 0.46 0.29 0.25 0.12 0.03 0.00 0.00 0.03 0.19 0.15 0.11 0.17 0.21 0.26 0.43 0.63 0.63 0.40 0.37 0.48 0.62 0.97 0.72 0.30 0.25 0.17 0.15 0.23 0.22 0.32 0.35 0.36 0.30 0.30 0.36 0.35 0.35 0.43 0.40 0.33 0.24 0.20
0.15 0.30 0.32 0.30 0.29 0.08 0.00 0.00 0.00 0.12 0.21 0.06 0.09 0.10 0.24 0.43 0.58 0.96 0.85 0.67 0.49 0.43 0.33 0.32 0.68 0.81 0.41 0.22 0.14 0.08 0.08 0.14 0.24 0.25 0.30 0.31 0.35 0.43 0.46 0.35 0.23 0.19 0.21 0.20
0.20 0.27 0.24 0.20 0.25 0.12 0.05 0.10 0.13 0.14 0.08 0.07 0.13 0.18 0.22 0.56 0.80 0.97 0.81 0.54 0.29 0.16 0.10 0.07 0.10 0.27 0.47 0.43 0.27 0.13 0.07 0.10 0.15 0.21 0.23 0.26 0.27 0.20 0.15 0.12 0.16 0.14 0.12 0.12
0.44 0.24 0.26 0.21 0.10 0.13 0.12 0.12 0.07 0.06 0.10 0.23 0.31 0.69 0.65 0.84 1.13 1.13 0.79 0.44 0.21 0.13 0.06 0.02 0.01 0.02 0.04 0.10 0.19 0.23 0.16 0.11 0.13 0.12 0.08 0.09 0.05 0.08 0.10 0.12 0.16 0.15 0.16 0.19
0.25 0.12 0.29 0.28 0.12 0.23 0.36 0.16 0.05 0.03 0.06 0.16 0.53 0.91 1.37 1.26 1.17 0.89 0.51 0.25 0.15 0.08 0.04 0.03 0.03 0.04 0.07 0.05 0.05 0.09 0.13 0.16 0.17 0.18 0.16 0.12 0.12 0.13 0.09 0.09 0.11 0.13 0.18 0.27
0.54 0.27 0.19 0.28 0.54 0.39 0.25 0.17 0.20 0.21 0.13 0.14 0.25 0.43 0.49 0.46 0.37 0.30 0.16 0.07 0.04 0.04 0.05 0.04 0.05 0.05 0.10 0.07 0.09 0.11 0.10 0.09 0.10 0.11 0.12 0.16 0.17 0.17 0.20 0.26 0.31 0.30 0.44 0.46
0.83 0.81 0.45 0.53 1.27 1.02 0.53 0.27 0.34 0.45 0.45 0.31 0.26 0.32 0.34 0.25 0.23 0.19 0.18 0.16 0.18 0.15 0.11 0.07 0.06 0.06 0.10 0.14 0.20 0.26 0.27 0.28 0.31 0.34 0.34 0.35 0.35 0.40 0.44 0.48 0.57 0.69 0.73 0.73

GFSCGP_prec_precacc_090.txt.gz
Total_Precipitation_Accumulation
0.00 0.00 0.00 0.00 0.00 0.00 0.00 0.00 0.00 0.00 0.01 0.00 0.00 0.01 0.01 0.00 0.00 0.03 0.05 0.07 0.02 0.00 0.03 0.05 0.07 0.09 0.07 0.08 0.19 0.43 0.82 1.15 0.63 0.37 0.23 0.31 0.36 0.36 0.33 0.40 0.68 0.94 0.74 0.56
0.02 0.01 0.00 0.00 0.00 0.00 0.00 0.00 0.00 0.00 0.00 0.00 0.00 0.00 0.00 0.00 0.00 0.01 0.01 0.11 0.03 0.00 0.01 0.02 0.04 0.03 0.04 0.11 0.36 0.45 0.40 0.44 0.40 0.30 0.19 0.15 0.24 0.33 0.21 0.23 0.37 0.70 0.89 0.82
0.02 0.01 0.00 0.01 0.00 0.00 0.00 0.00 0.00 0.00 0.00 0.00 0.00 0.00 0.00 0.01 0.01 0.02 0.00 0.00 0.00 0.00 0.02 0.03 0.03 0.03 0.01 0.02 0.18 0.19 0.09 0.13 0.21 0.29 0.27 0.25 0.31 0.36 0.41 0.29 0.31 0.45 0.76 1.02
0.07 0.00 0.02 0.00 0.00 0.00 0.00 0.00 0.00 0.00 0.00 0.00 0.00 0.00 0.00 0.00 0.01 0.00 0.00 0.00 0.00 0.00 0.00 0.00 0.00 0.00 0.01 0.06 0.25 0.12 0.11 0.13 0.12 0.14 0.15 0.18 0.28 0.23 0.20 0.21 0.16 0.33 0.34 0.69
0.09 0.03 0.04 0.02 0.00 0.00 0.01 0.00 0.00 0.00 0.00 0.05 0.02 0.00 0.03 0.05 0.02 0.00 0.00 0.00 0.00 0.00 0.00 0.00 0.00 0.00 0.02 0.07 0.20 0.16 0.13 0.22 0.16 0.26 0.28 0.22 0.25 0.26 0.24 0.17 0.18 0.25 0.36 0.31
0.01 0.02 0.06 0.03 0.00 0.00 0.00 0.02 0.00 0.00 0.01 0.05 0.01 0.01 0.01 0.01 0.02 0.02 0.00 0.00 0.00 0.00 0.00 0.00 0.00 0.01 0.03 0.11 0.17 0.29 0.31 0.22 0.21 0.35 0.41 0.26 0.22 0.20 0.32 0.31 0.20 0.24 0.34 0.44
0.00 0.01 0.01 0.00 0.00 0.00 0.01 0.08 0.09 0.14 0.09 0.03 0.00 0.01 0.01 0.02 0.05 0.08 0.10 0.00 0.00 0.00 0.00 0.00 0.02 0.04 0.04 0.08 0.13 0.19 0.32 0.42 0.29 0.27 0.24 0.21 0.18 0.22 0.16 0.18 0.22 0.26 0.27 0.44
0.02 0.03 0.00 0.00 0.00 0.01 0.01 0.04 0.12 0.26 0.15 0.06 0.11 0.04 0.02 0.00 0.01 0.00 0.00 0.00 0.00 0.00 0.00 0.00 0.01 0.02 0.05 0.11 0.08 0.07 0.30 0.41 0.49 0.35 0.17 0.14 0.08 0.06 0.07 0.15 0.20 0.14 0.14 0.15
0.08 0.05 0.02 0.00 0.00 0.02 0.08 0.09 0.05 0.31 0.20 0.11 0.11 0.04 0.10 0.05 0.00 0.00 0.00 0.00 0.00 0.00 0.00 0.00 0.00 0.02 0.05 0.07 0.07 0.13 0.14 0.27 0.38 0.24 0.13 0.07 0.04 0.05 0.07 0.10 0.09 0.08 0.09 0.12
0.05 0.13 0.03 0.02 0.03 0.01 0.06 0.10 0.31 0.46 0.28 0.15 0.01 0.03 0.15 0.26 0.03 0.00 0.00 0.00 0.00 0.00 0.00 0.00 0.01 0.10 0.06 0.05 0.10 0.25 0.20 0.13 0.26 0.28 0.25 0.09 0.08 0.11 0.12 0.12 0.18 0.18 0.18 0.19
0.02 0.10 0.11 0.12 0.12 0.05 0.06 0.25 0.28 0.27 0.10 0.16 0.11 0.27 0.42 0.16 0.12 0.02 0.00 0.00 0.01 0.00 0.00 0.01 0.02 0.09 0.09 0.15 0.13 0.11 0.31 0.52 0.38 0.33 0.19 0.14 0.15 0.28 0.35 0.25 0.31 0.29 0.30 0.29
0.10 0.12 0.05 0.07 0.06 0.04 0.11 0.12 0.27 0.48 0.30 0.15 0.16 0.38 0.64 0.28 0.12 0.03 0.00 0.00 0.02 0.02 0.02 0.03 0.04 0.04 0.06 0.07 0.07 0.08 0.16 0.23 0.31 0.38 0.35 0.48 0.63 0.56 0.69 0.64 0.63 0.59 0.39 0.30
0.17 0.16 0.13 0.11 0.16 0.13 0.13 0.15 0.18 0.25 0.50 0.37 0.35 0.32 0.57 0.33 0.19 0.06 0.02 0.02 0.03 0.04 0.04 0.05 0.08 0.11 0.10 0.11 0.14 0.21 0.21 0.31 0.53 0.58 0.61 0.84 0.68 0.70 0.60 0.59 0.49 0.37 0.25 0.23
0.33 0.14 0.08 0.10 0.16 0.19 0.18 0.09 0.14 0.46 0.82 0.39 0.19 0.10 0.67 0.71 0.45 0.16 0.08 0.06 0.06 0.07 0.08 0.07 0.12 0.22 0.29 0.36 0.43 0.40 0.46 0.46 0.58 0.57 0.67 0.42 0.50 0.47 0.43 0.31 0.27 0.20 0.12 0.13
0.45 0.32 0.11 0.06 0.05 0.12 0.13 0.13 0.13 0.29 0.28 0.32 0.08 0.06 0.24 0.56 0.76 0.58 0.25 0.12 0.10 0.11 0.14 0.15 0.17 0.24 0.35 0.50 0.50 0.50 0.51 0.46 0.41 0.40 0.31 0.28 0.45 0.42 0.31 0.21 0.22 0.20 0.14 0.18
0.45 0.57 0.34 0.11 0.02 0.07 0.13 0.05 0.08 0.11 0.10 0.10 0.06 0.13 0.19 0.40 0.45 0.67 0.52 0.31 0.18 0.15 0.14 0.12 0.09 0.16 0.19 0.22 0.30 0.32 0.32 0.37 0.34 0.28 0.16 0.16 0.21 0.28 0.21 0.16 0.15 0.20 0.23 0.27
0.34 0.46 0.38 0.44 0.06 0.05 0.06 0.01 0.01 0.04 0.10 0.10 0.14 0.16 0.15 0.32 0.44 0.39 0.54 0.48 0.47 0.27 0.18 0.19 0.12 0.14 0.13 0.13 0.15 0.19 0.24 0.22 0.21 0.19 0.20 0.18 0.19 0.19 0.14 0.16 0.17 0.20 0.27 0.30
0.33 0.37 0.44 0.34 0.26 0.16 0.02 0.00 0.00 0.03 0.08 0.13 0.11 0.16 0.27 0.24 0.39 0.31 0.40 0.58 0.74 0.91 0.36 0.24 0.23 0.19 0.21 0.21 0.18 0.22 0.26 0.29 0.31 0.25 0.15 0.12 0.19 0.18 0.15 0.15 0.16 0.22 0.34 0.33
0.30 0.47 0.67 0.37 0.26 0.11 0.01 0.00 0.01 0.05 0.15 0.15 0.16 0.31 0.31 0.15 0.26 0.35 0.39 0.45 0.65 0.97 1.06 0.62 0.35 0.25 0.25 0.23 0.35 0.34 0.44 0.41 0.39 0.42 0.40 0.30 0.22 0.25 0.29 0.24 0.23 0.26 0.35 0.38
0.24 0.37 0.63 0.41 0.27 0.15 0.13 0.00 0.00 0.03 0.21 0.15 0.11 0.17 0.21 0.26 0.43 0.64 0.64 0.42 0.41 0.54 0.69 1.06 0.82 0.43 0.36 0.32 0.27 0.46 0.42 0.58 0.59 0.61 0.52 0.48 0.48 0.44 0.43 0.53 0.52 0.41 0.29 0.25
0.16 0.32 0.36 0.34 0.30 0.14 0.05 0.00 0.00 0.14 0.26 0.06 0.09 0.10 0.24 0.43 0.59 0.99 0.88 0.70 0.54 0.48 0.38 0.38 0.77 0.96 0.64 0.48 0.34 0.31 0.46 0.42 0.64 0.62 0.66 0.60 0.56 0.61 0.59 0.48 0.36 0.32 0.31 0.28
0.24 0.29 0.27 0.23 0.28 0.15 0.05 0.10 0.14 0.16 0.08 0.07 0.13 0.18 0.22 0.57 0.82 1.01 0.84 0.57 0.33 0.21 0.14 0.11 0.15 0.35 0.64 0.65 0.54 0.35 0.25 0.34 0.39 0.61 0.64 0.55 0.52 0.43 0.36 0.31 0.32 0.27 0.24 0.23
0.52 0.29 0.37 0.26 0.15 0.14 0.12 0.12 0.07 0.07 0.11 0.23 0.31 0.70 0.66 0.84 1.15 1.15 0.81 0.48 0.26 0.16 0.09 0.04 0.02 0.04 0.11 0.21 0.34 0.48 0.43 0.27 0.28 0.26 0.27 0.38 0.32 0.32 0.33 0.31 0.30 0.24 0.21 0.23
0.30 0.13 0.33 0.32 0.14 0.23 0.36 0.16 0.05 0.04 0.07 0.17 0.54 0.91 1.38 1.27 1.18 0.92 0.54 0.28 0.17 0.12 0.08 0.05 0.05 0.07 0.10 0.10 0.12 0.19 0.30 0.37 0.36 0.33 0.28 0.23 0.21 0.23 0.19 0.20 0.23 0.24 0.25 0.31
0.55 0.28 0.20 0.30 0.55 0.40 0.25 0.18 0.20 0.21 0.13 0.14 0.26 0.45 0.51 0.48 0.40 0.33 0.20 0.11 0.09 0.08 0.07 0.06 0.06 0.06 0.10 0.07 0.09 0.12 0.11 0.11 0.14 0.16 0.18 0.21 0.23 0.23 0.25 0.30 0.34 0.32 0.47 0.49
0.84 0.81 0.46 0.58 1.28 1.03 0.54 0.27 0.34 0.45 0.45 0.32 0.27 0.35 0.38 0.27 0.27 0.23 0.23 0.23 0.24 0.21 0.16 0.12 0.09 0.07 0.11 0.14 0.20 0.26 0.28 0.28 0.31 0.34 0.34 0.35 0.35 0.40 0.44 0.48 0.57 0.69 0.73 0.74

GFSCGP_prec_precacc_093.txt.gz
Total_Precipitation_Accumulation
0.00 0.00 0.00 0.00 0.00 0.00 0.00 0.00 0.00 0.00 0.01 0.00 0.00 0.01 0.01 0.00 0.00 0.03 0.05 0.07 0.02 0.00 0.03 0.05 0.07 0.09 0.07 0.08 0.19 0.43 0.83 1.15 0.63 0.37 0.23 0.31 0.36 0.36 0.33 0.40 0.68 0.94 0.74 0.56
0.02 0.01 0.00 0.00 0.00 0.00 0.00 0.00 0.00 0.00 0.00 0.00 0.00 0.00 0.00 0.00 0.00 0.01 0.01 0.11 0.03 0.00 0.01 0.02 0.04 0.03 0.04 0.11 0.36 0.45 0.40 0.44 0.40 0.30 0.19 0.15 0.24 0.33 0.21 0.23 0.37 0.70 0.89 0.82
0.02 0.01 0.00 0.01 0.00 0.00 0.00 0.00 0.00 0.00 0.00 0.00 0.00 0.00 0.00 0.01 0.01 0.02 0.00 0.00 0.00 0.00 0.02 0.03 0.03 0.03 0.01 0.02 0.18 0.19 0.09 0.13 0.21 0.29 0.27 0.25 0.31 0.36 0.41 0.29 0.31 0.45 0.76 1.02
0.07 0.00 0.02 0.00 0.00 0.00 0.00 0.00 0.00 0.00 0.00 0.00 0.00 0.00 0.00 0.00 0.01 0.00 0.00 0.00 0.00 0.00 0.00 0.00 0.00 0.00 0.01 0.06 0.25 0.12 0.11 0.13 0.12 0.14 0.15 0.18 0.28 0.23 0.20 0.21 0.16 0.33 0.34 0.69
0.09 0.03 0.04 0.02 0.00 0.00 0.01 0.00 0.00 0.00 0.00 0.05 0.02 0.00 0.03 0.05 0.02 0.00 0.01 0.00 0.00 0.00 0.00 0.00 0.00 0.00 0.02 0.07 0.20 0.16 0.13 0.22 0.16 0.26 0.28 0.22 0.25 0.26 0.24 0.17 0.18 0.25 0.37 0.32
0.01 0.02 0.06 0.03 0.00 0.00 0.00 0.02 0.00 0.00 0.01 0.05 0.01 0.01 0.01 0.01 0.02 0.03 0.05 0.03 0.01 0.00 0.00 0.00 0.00 0.01 0.03 0.11 0.17 0.29 0.31 0.22 0.21 0.36 0.41 0.26 0.22 0.20 0.32 0.31 0.20 0.24 0.34 0.44
0.00 0.01 0.01 0.00 0.00 0.00 0.01 0.08 0.10 0.14 0.09 0.03 0.00 0.01 0.01 0.02 0.07 0.14 0.16 0.02 0.02 0.00 0.00 0.00 0.02 0.04 0.04 0.08 0.13 0.20 0.33 0.42 0.29 0.28 0.24 0.22 0.18 0.22 0.16 0.18 0.22 0.26 0.27 0.45
0.02 0.03 0.00 0.00 0.00 0.01 0.01 0.05 0.13 0.26 0.16 0.06 0.13 0.06 0.03 0.07 0.09 0.05 0.01 0.01 0.00 0.00 0.00 0.00 0.01 0.02 0.05 0.11 0.08 0.08 0.35 0.49 0.53 0.43 0.19 0.15 0.09 0.07 0.07 0.15 0.20 0.14 0.14 0.15
0.08 0.05 0.02 0.01 0.01 0.02 0.08 0.10 0.07 0.35 0.21 0.11 0.11 0.04 0.11 0.35 0.33 0.25 0.01 0.00 0.00 0.00 0.00 0.00 0.00 0.02 0.05 0.09 0.16 0.20 0.23 0.32 0.54 0.33 0.14 0.09 0.05 0.05 0.07 0.10 0.09 0.08 0.09 0.12
0.05 0.13 0.03 0.02 0.04 0.01 0.06 0.11 0.36 0.52 0.32 0.15 0.01 0.03 0.17 0.34 0.41 0.23 0.01 0.00 0.00 0.00 0.00 0.00 0.01 0.11 0.08 0.13 0.34 0.62 0.57 0.39 0.44 0.38 0.29 0.12 0.12 0.13 0.12 0.12 0.18 0.18 0.18 0.19
0.02 0.11 0.11 0.12 0.13 0.07 0.09 0.26 0.30 0.31 0.12 0.17 0.13 0.32 0.53 0.47 0.52 0.18 0.01 0.00 0.01 0.00 0.00 0.01 0.02 0.10 0.10 0.20 0.21 0.25 0.50 0.70 0.57 0.43 0.20 0.18 0.18 0.30 0.36 0.26 0.31 0.29 0.30 0.29
0.10 0.12 0.05 0.07 0.06 0.06 0.16 0.22 0.32 0.51 0.32 0.16 0.17 0.41 0.83 0.63 0.26 0.32 0.02 0.00 0.02 0.02 0.02 0.03 0.04 0.05 0.07 0.09 0.11 0.13 0.20 0.27 0.39 0.43 0.39 0.55 0.66 0.58 0.70 0.65 0.64 0.60 0.39 0.30
0.17 0.16 0.13 0.11 0.16 0.14 0.20 0.28 0.31 0.32 0.54 0.40 0.39 0.47 0.78 0.40 0.35 0.11 0.02 0.02 0.03 0.04 0.04 0.05 0.08 0.13 0.13 0.12 0.16 0.23 0.24 0.32 0.55 0.62 0.65 0.93 0.77 0.76 0.62 0.60 0.50 0.38 0.26 0.24
0.34 0.14 0.08 0.10 0.16 0.20 0.20 0.14 0.23 0.60 0.93 0.51 0.25 0.23 0.86 0.84 0.71 0.27 0.08 0.06 0.06 0.07 0.08 0.07 0.13 0.24 0.32 0.38 0.47 0.46 0.53 0.53 0.67 0.62 0.76 0.50 0.57 0.51 0.45 0.32 0.28 0.20 0.12 0.14
0.45 0.32 0.11 0.06 0.05 0.12 0.13 0.19 0.25 0.41 0.35 0.42 0.32 0.26 0.32 0.57 0.77 0.58 0.25 0.12 0.10 0.11 0.14 0.15 0.17 0.26 0.38 0.54 0.53 0.55 0.59 0.53 0.48 0.49 0.40 0.36 0.49 0.44 0.32 0.22 0.24 0.21 0.14 0.18
0.48 0.59 0.34 0.11 0.02 0.07 0.13 0.09 0.18 0.27 0.25 0.20 0.12 0.27 0.24 0.40 0.45 0.67 0.52 0.31 0.18 0.15 0.14 0.12 0.09 0.18 0.22 0.25 0.34 0.34 0.40 0.47 0.40 0.31 0.23 0.26 0.26 0.30 0.23 0.17 0.17 0.22 0.24 0.27
0.35 0.46 0.39 0.44 0.06 0.06 0.12 0.09 0.06 0.10 0.24 0.19 0.19 0.19 0.15 0.32 0.44 0.39 0.54 0.48 0.47 0.27 0.18 0.20 0.13 0.17 0.16 0.16 0.19 0.24 0.28 0.28 0.28 0.25 0.26 0.23 0.23 0.23 0.16 0.17 0.20 0.22 0.29 0.31
0.33 0.38 0.47 0.35 0.27 0.23 0.10 0.02 0.04 0.08 0.11 0.13 0.11 0.16 0.27 0.24 0.40 0.31 0.40 0.58 0.74 0.91 0.37 0.25 0.26 0.25 0.29 0.26 0.23 0.26 0.31 0.34 0.34 0.30 0.22 0.19 0.24 0.21 0.18 0.17 0.19 0.26 0.37 0.35
0.30 0.48 0.71 0.44 0.38 0.27 0.13 0.03 0.02 0.06 0.16 0.15 0.16 0.31 0.31 0.15 0.26 0.35 0.39 0.45 0.66 0.99 1.08 0.63 0.38 0.32 0.35 0.30 0.41 0.37 0.48 0.46 0.47 0.47 0.49 0.44 0.31 0.30 0.32 0.27 0.26 0.30 0.39 0.40
0.24 0.38 0.74 0.64 0.51 0.35 0.28 0.01 0.00 0.03 0.23 0.16 0.11 0.17 0.21 0.26 0.43 0.65 0.66 0.44 0.43 0.56 0.72 1.09 0.86 0.49 0.43 0.41 0.35 0.55 0.49 0.65 0.67 0.71 0.66 0.64 0.67 0.57 0.50 0.58 0.55 0.45 0.32 0.29
0.16 0.37 0.46 0.48 0.51 0.25 0.06 0.00 0.00 0.14 0.28 0.06 0.09 0.10 0.24 0.44 0.60 1.02 0.91 0.72 0.57 0.51 0.41 0.41 0.82 1.01 0.70 0.55 0.41 0.39 0.59 0.54 0.81 0.83 0.91 0.93 0.87 0.89 0.81 0.62 0.46 0.40 0.39 0.35
0.26 0.32 0.32 0.27 0.35 0.22 0.06 0.10 0.14 0.18 0.09 0.07 0.13 0.18 0.22 0.57 0.83 1.02 0.87 0.60 0.35 0.24 0.17 0.14 0.18 0.38 0.69 0.70 0.61 0.46 0.38 0.50 0.52 0.74 0.85 0.85 0.92 0.82 0.72 0.63 0.59 0.51 0.44 0.42
0.90 0.36 0.44 0.35 0.23 0.18 0.12 0.12 0.07 0.07 0.11 0.23 0.31 0.70 0.66 0.85 1.15 1.16 0.83 0.51 0.28 0.19 0.12 0.06 0.04 0.07 0.15 0.25 0.39 0.55 0.56 0.44 0.47 0.44 0.45 0.57 0.54 0.60 0.63 0.62 0.58 0.49 0.44 0.43
0.40 0.16 0.42 0.41 0.18 0.23 0.36 0.16 0.05 0.04 0.07 0.17 0.54 0.91 1.38 1.27 1.19 0.93 0.55 0.31 0.19 0.13 0.10 0.06 0.06 0.09 0.14 0.15 0.18 0.25 0.37 0.45 0.47 0.46 0.43 0.38 0.40 0.46 0.43 0.46 0.54 0.56 0.58 0.58
0.56 0.28 0.22 0.33 0.59 0.42 0.25 0.18 0.21 0.21 0.13 0.14 0.26 0.46 0.51 0.48 0.41 0.34 0.22 0.14 0.11 0.10 0.09 0.07 0.08 0.09 0.12 0.09 0.11 0.16 0.15 0.14 0.17 0.20 0.24 0.29 0.31 0.31 0.34 0.41 0.46 0.46 0.64 0.67
0.85 0.83 0.47 0.60 1.30 1.05 0.56 0.28 0.34 0.45 0.46 0.32 0.27 0.35 0.39 0.28 0.29 0.25 0.26 0.25 0.26 0.23 0.19 0.15 0.12 0.10 0.13 0.16 0.22 0.27 0.28 0.28 0.31 0.35 0.35 0.36 0.35 0.40 0.45 0.49 0.58 0.69 0.74 0.74

GFSCGP_prec_precacc_096.txt.gz
Total_Precipitation_Accumulation
0.00 0.00 0.00 0.00 0.00 0.00 0.00 0.00 0.00 0.00 0.01 0.00 0.00 0.01 0.01 0.00 0.00 0.03 0.05 0.07 0.02 0.00 0.03 0.05 0.07 0.09 0.07 0.08 0.19 0.43 0.83 1.16 0.65 0.37 0.24 0.33 0.36 0.36 0.33 0.40 0.68 0.94 0.74 0.56
0.02 0.01 0.00 0.00 0.00 0.00 0.00 0.00 0.00 0.00 0.00 0.00 0.00 0.00 0.00 0.00 0.00 0.01 0.01 0.11 0.03 0.00 0.01 0.02 0.04 0.03 0.04 0.11 0.36 0.45 0.40 0.44 0.41 0.31 0.22 0.19 0.25 0.34 0.22 0.23 0.37 0.70 0.89 0.82
0.02 0.01 0.00 0.01 0.00 0.00 0.00 0.00 0.00 0.00 0.00 0.00 0.00 0.00 0.00 0.01 0.01 0.02 0.00 0.00 0.00 0.00 0.02 0.03 0.03 0.03 0.01 0.02 0.18 0.19 0.09 0.13 0.23 0.32 0.31 0.30 0.36 0.38 0.41 0.29 0.31 0.45 0.76 1.02
0.07 0.00 0.02 0.00 0.00 0.00 0.00 0.00 0.00 0.00 0.00 0.00 0.00 0.00 0.00 0.00 0.01 0.00 0.00 0.00 0.00 0.00 0.00 0.00 0.00 0.00 0.01 0.06 0.25 0.12 0.11 0.13 0.12 0.14 0.15 0.18 0.28 0.23 0.20 0.21 0.16 0.33 0.34 0.70
0.09 0.03 0.04 0.02 0.00 0.00 0.01 0.00 0.00 0.00 0.00 0.05 0.02 0.00 0.03 0.05 0.02 0.00 0.01 0.01 0.01 0.01 0.00 0.00 0.00 0.00 0.02 0.07 0.20 0.16 0.13 0.22 0.16 0.27 0.29 0.23 0.25 0.26 0.24 0.17 0.18 0.25 0.37 0.33
0.01 0.02 0.06 0.03 0.00 0.00 0.00 0.02 0.00 0.00 0.01 0.05 0.01 0.01 0.01 0.01 0.02 0.04 0.09 0.09 0.06 0.05 0.02 0.01 0.00 0.01 0.03 0.11 0.20 0.31 0.31 0.22 0.21 0.36 0.42 0.26 0.22 0.20 0.32 0.31 0.20 0.24 0.34 0.44
0.00 0.01 0.01 0.00 0.00 0.00 0.01 0.08 0.10 0.14 0.09 0.03 0.00 0.01 0.01 0.02 0.08 0.17 0.21 0.06 0.05 0.03 0.04 0.04 0.03 0.04 0.04 0.08 0.14 0.28 0.41 0.47 0.31 0.32 0.27 0.23 0.19 0.22 0.16 0.18 0.22 0.26 0.27 0.45
0.02 0.03 0.00 0.00 0.00 0.01 0.01 0.05 0.13 0.27 0.16 0.06 0.13 0.06 0.03 0.09 0.13 0.12 0.05 0.04 0.02 0.02 0.02 0.00 0.02 0.03 0.05 0.11 0.08 0.10 0.40 0.58 0.68 0.56 0.30 0.21 0.15 0.07 0.07 0.15 0.20 0.14 0.14 0.15
0.08 0.05 0.02 0.01 0.01 0.02 0.08 0.10 0.07 0.38 0.25 0.15 0.11 0.04 0.11 0.35 0.34 0.51 0.52 0.22 0.06 0.00 0.01 0.00 0.00 0.02 0.05 0.10 0.17 0.28 0.35 0.43 0.61 0.43 0.24 0.17 0.08 0.06 0.07 0.10 0.09 0.08 0.09 0.12
0.05 0.13 0.03 0.02 0.04 0.01 0.06 0.12 0.37 0.55 0.37 0.19 0.01 0.04 0.20 0.35 0.47 0.58 0.45 0.16 0.02 0.00 0.00 0.00 0.01 0.11 0.09 0.16 0.39 0.74 0.79 0.71 0.74 0.59 0.44 0.24 0.16 0.14 0.12 0.12 0.18 0.18 0.18 0.19
0.02 0.11 0.11 0.12 0.13 0.07 0.10 0.29 0.32 0.33 0.14 0.19 0.13 0.35 0.67 0.52 0.78 0.57 0.09 0.01 0.01 0.00 0.00 0.01 0.02 0.10 0.10 0.22 0.25 0.35 0.67 1.07 1.26 1.09 0.55 0.31 0.24 0.32 0.39 0.27 0.31 0.30 0.30 0.29
0.10 0.12 0.05 0.07 0.06 0.06 0.16 0.24 0.41 0.72 0.40 0.18 0.20 0.43 0.84 0.66 0.35 0.61 0.07 0.01 0.02 0.02 0.02 0.03 0.04 0.05 0.07 0.09 0.13 0.19 0.25 0.35 0.57 0.72 0.64 0.70 0.72 0.62 0.75 0.73 0.70 0.61 0.39 0.30
0.17 0.16 0.13 0.11 0.17 0.15 0.20 0.30 0.41 0.54 0.66 0.43 0.41 0.50 0.86 0.65 0.58 0.54 0.13 0.02 0.03 0.04 0.04 0.05 0.08 0.13 0.13 0.12 0.16 0.24 0.26 0.38 0.61 0.73 0.76 1.01 0.81 0.80 0.73 0.69 0.53 0.39 0.26 0.24
0.34 0.14 0.08 0.10 0.16 0.21 0.20 0.14 0.24 0.73 1.08 0.55 0.28 0.36 1.07 1.16 0.94 0.42 0.09 0.06 0.06 0.07 0.08 0.07 0.13 0.24 0.33 0.38 0.47 0.46 0.54 0.56 0.72 0.71 0.85 0.57 0.61 0.54 0.51 0.36 0.29 0.21 0.14 0.15
0.45 0.32 0.11 0.06 0.05 0.12 0.13 0.19 0.25 0.44 0.43 0.57 0.41 0.51 0.63 0.66 0.79 0.58 0.25 0.12 0.10 0.11 0.14 0.15 0.17 0.26 0.39 0.55 0.54 0.57 0.61 0.63 0.62 0.58 0.48 0.46 0.54 0.47 0.36 0.24 0.25 0.22 0.15 0.19
0.48 0.59 0.35 0.11 0.02 0.07 0.13 0.09 0.18 0.29 0.36 0.37 0.24 0.42 0.34 0.41 0.46 0.67 0.52 0.31 0.18 0.15 0.14 0.12 0.09 0.18 0.22 0.27 0.36 0.37 0.47 0.64 0.59 0.52 0.37 0.37 0.32 0.35 0.26 0.19 0.18 0.22 0.24 0.28
0.35 0.46 0.39 0.45 0.06 0.06 0.12 0.09 0.06 0.17 0.52 0.44 0.52 0.31 0.16 0.32 0.44 0.40 0.54 0.48 0.47 0.28 0.18 0.20 0.13 0.17 0.18 0.19 0.22 0.27 0.34 0.43 0.47 0.37 0.43 0.36 0.30 0.29 0.22 0.23 0.24 0.24 0.29 0.32
0.33 0.38 0.48 0.36 0.28 0.26 0.18 0.03 0.10 0.22 0.29 0.27 0.22 0.20 0.27 0.24 0.40 0.31 0.40 0.58 0.74 0.91 0.37 0.25 0.26 0.25 0.34 0.33 0.27 0.32 0.35 0.42 0.48 0.52 0.36 0.30 0.32 0.27 0.30 0.35 0.32 0.32 0.40 0.37
0.30 0.48 0.72 0.46 0.41 0.37 0.44 0.33 0.30 0.27 0.23 0.16 0.16 0.31 0.31 0.15 0.26 0.36 0.40 0.46 0.67 0.99 1.08 0.64 0.38 0.33 0.40 0.42 0.49 0.47 0.55 0.57 0.56 0.56 0.66 0.59 0.44 0.42 0.46 0.44 0.37 0.33 0.41 0.43
0.24 0.38 0.77 0.67 0.62 0.68 0.46 0.08 0.03 0.07 0.24 0.16 0.11 0.17 0.21 0.27 0.44 0.66 0.68 0.45 0.45 0.57 0.73 1.09 0.86 0.50 0.46 0.52 0.49 0.65 0.67 0.76 0.84 0.88 0.77 0.72 0.75 0.76 0.70 0.71 0.64 0.50 0.35 0.32
0.16 0.40 0.51 0.56 0.67 0.50 0.12 0.00 0.00 0.14 0.29 0.06 0.09 0.10 0.24 0.44 0.61 1.03 0.93 0.74 0.59 0.52 0.42 0.42 0.82 1.02 0.73 0.61 0.54 0.53 0.73 0.73 0.95 0.96 1.10 1.09 0.99 0.99 0.98 0.89 0.70 0.54 0.49 0.42
0.29 0.37 0.48 0.49 0.58 0.34 0.07 0.10 0.15 0.19 0.09 0.07 0.13 0.18 0.22 0.58 0.84 1.04 0.88 0.61 0.36 0.24 0.18 0.14 0.18 0.39 0.71 0.74 0.66 0.53 0.45 0.64 0.70 0.87 0.92 0.94 1.04 0.97 0.92 0.84 0.84 0.78 0.67 0.59
1.20 0.60 0.49 0.41 0.29 0.25 0.12 0.14 0.09 0.07 0.11 0.24 0.31 0.70 0.66 0.85 1.16 1.17 0.84 0.51 0.29 0.19 0.12 0.06 0.04 0.07 0.17 0.29 0.43 0.57 0.62 0.50 0.54 0.53 0.53 0.65 0.61 0.70 0.78 0.83 0.83 0.73 0.66 0.63
0.52 0.23 0.47 0.44 0.25 0.24 0.37 0.16 0.06 0.05 0.08 0.18 0.54 0.92 1.38 1.28 1.20 0.94 0.56 0.31 0.20 0.14 0.10 0.06 0.06 0.10 0.15 0.17 0.22 0.30 0.42 0.49 0.50 0.48 0.46 0.43 0.47 0.54 0.52 0.56 0.67 0.72 0.77 0.79
0.57 0.29 0.23 0.35 0.61 0.43 0.26 0.19 0.22 0.22 0.14 0.16 0.27 0.47 0.52 0.49 0.42 0.35 0.22 0.14 0.12 0.11 0.10 0.08 0.09 0.09 0.14 0.10 0.14 0.19 0.18 0.17 0.19 0.21 0.24 0.30 0.32 0.34 0.39 0.47 0.55 0.56 0.76 0.79
0.86 0.84 0.48 0.61 1.31 1.06 0.57 0.29 0.36 0.47 0.47 0.33 0.28 0.36 0.39 0.28 0.30 0.25 0.26 0.26 0.27 0.24 0.20 0.15 0.13 0.11 0.15 0.17 0.23 0.27 0.28 0.28 0.31 0.35 0.35 0.36 0.36 0.40 0.45 0.49 0.59 0.71 0.77 0.78

GFSCGP_prec_precacc_102.txt.gz
Total_Precipitation_Accumulation
0.00 0.00 0.00 0.00 0.00 0.00 0.00 0.00 0.00 0.00 0.01 0.00 0.00 0.01 0.01 0.00 0.00 0.03 0.05 0.07 0.02 0.00 0.03 0.05 0.07 0.09 0.07 0.08 0.19 0.43 0.83 1.16 0.65 0.38 0.26 0.34 0.37 0.37 0.37 0.41 0.69 0.94 0.74 0.56
0.02 0.01 0.00 0.00 0.00 0.00 0.00 0.00 0.00 0.00 0.00 0.00 0.00 0.00 0.00 0.00 0.00 0.01 0.01 0.11 0.03 0.00 0.01 0.02 0.04 0.03 0.04 0.11 0.36 0.45 0.40 0.44 0.41 0.31 0.22 0.19 0.28 0.42 0.31 0.37 0.48 0.72 0.89 0.82
0.02 0.01 0.00 0.01 0.00 0.00 0.00 0.00 0.00 0.00 0.00 0.00 0.00 0.00 0.00 0.01 0.01 0.02 0.00 0.00 0.00 0.00 0.02 0.03 0.03 0.03 0.01 0.02 0.18 0.19 0.09 0.13 0.23 0.32 0.31 0.32 0.43 0.51 0.50 0.34 0.33 0.47 0.78 1.02
0.07 0.00 0.02 0.00 0.00 0.00 0.00 0.00 0.00 0.00 0.00 0.00 0.00 0.00 0.00 0.00 0.01 0.00 0.00 0.00 0.00 0.00 0.00 0.00 0.00 0.00 0.01 0.06 0.25 0.12 0.11 0.13 0.12 0.14 0.15 0.18 0.28 0.23 0.20 0.21 0.17 0.37 0.37 0.73
0.09 0.03 0.04 0.02 0.00 0.00 0.01 0.00 0.00 0.00 0.00 0.05 0.02 0.00 0.03 0.05 0.02 0.00 0.01 0.02 0.01 0.01 0.00 0.00 0.00 0.00 0.02 0.07 0.20 0.16 0.13 0.22 0.16 0.27 0.29 0.23 0.26 0.26 0.24 0.18 0.22 0.27 0.38 0.34
0.01 0.02 0.06 0.03 0.00 0.00 0.00 0.02 0.00 0.00 0.01 0.05 0.01 0.01 0.01 0.01 0.02 0.04 0.10 0.09 0.07 0.07 0.04 0.03 0.02 0.03 0.04 0.11 0.20 0.31 0.31 0.22 0.21 0.36 0.42 0.26 0.22 0.20 0.32 0.31 0.22 0.26 0.35 0.46
0.00 0.01 0.01 0.00 0.00 0.00 0.01 0.08 0.10 0.14 0.09 0.03 0.00 0.01 0.01 0.02 0.09 0.17 0.22 0.07 0.05 0.04 0.07 0.07 0.06 0.07 0.07 0.10 0.14 0.28 0.41 0.47 0.33 0.34 0.29 0.25 0.21 0.24 0.19 0.21 0.25 0.29 0.29 0.45
0.02 0.03 0.00 0.00 0.00 0.01 0.01 0.05 0.13 0.27 0.16 0.06 0.13 0.06 0.03 0.10 0.14 0.12 0.05 0.04 0.03 0.04 0.03 0.02 0.03 0.03 0.05 0.14 0.11 0.12 0.47 0.65 0.71 0.60 0.36 0.29 0.24 0.18 0.19 0.24 0.24 0.16 0.14 0.15
0.08 0.05 0.02 0.01 0.01 0.02 0.08 0.10 0.07 0.38 0.25 0.15 0.11 0.04 0.11 0.36 0.34 0.51 0.52 0.24 0.17 0.07 0.03 0.03 0.03 0.03 0.05 0.13 0.21 0.32 0.52 0.58 0.77 0.58 0.35 0.30 0.20 0.15 0.17 0.20 0.19 0.17 0.16 0.18
0.05 0.13 0.03 0.02 0.04 0.01 0.06 0.12 0.38 0.57 0.40 0.19 0.01 0.04 0.21 0.36 0.47 0.59 0.50 0.31 0.15 0.09 0.03 0.03 0.04 0.12 0.10 0.20 0.46 0.85 0.99 0.92 0.96 0.83 0.65 0.43 0.34 0.32 0.30 0.27 0.29 0.31 0.30 0.27
0.02 0.11 0.11 0.12 0.13 0.07 0.10 0.29 0.33 0.38 0.19 0.26 0.16 0.36 0.68 0.53 0.79 0.61 0.16 0.12 0.11 0.05 0.02 0.01 0.02 0.10 0.12 0.25 0.35 0.47 0.81 1.32 1.60 1.45 1.05 0.68 0.51 0.62 0.65 0.46 0.49 0.45 0.42 0.38
0.10 0.12 0.05 0.07 0.06 0.06 0.16 0.24 0.42 0.75 0.48 0.26 0.26 0.46 0.85 0.67 0.35 0.67 0.31 0.22 0.07 0.02 0.02 0.03 0.04 0.05 0.08 0.11 0.16 0.29 0.35 0.49 0.73 0.94 1.31 1.67 1.34 0.99 1.03 0.91 0.86 0.78 0.54 0.37
0.17 0.16 0.13 0.11 0.17 0.15 0.20 0.30 0.42 0.55 0.70 0.47 0.50 0.56 0.88 0.66 0.69 0.91 0.46 0.08 0.03 0.04 0.04 0.05 0.08 0.13 0.13 0.13 0.17 0.26 0.34 0.50 0.68 0.80 0.89 1.31 1.30 1.55 1.14 0.95 0.69 0.52 0.39 0.28
0.34 0.14 0.08 0.10 0.16 0.21 0.20 0.14 0.24 0.73 1.09 0.56 0.29 0.38 1.13 1.26 1.15 0.58 0.18 0.11 0.08 0.07 0.08 0.07 0.13 0.24 0.33 0.38 0.47 0.46 0.54 0.58 0.80 0.78 0.91 0.64 0.74 0.89 1.14 0.77 0.61 0.36 0.18 0.17
0.45 0.32 0.11 0.06 0.05 0.12 0.13 0.19 0.25 0.44 0.43 0.57 0.42 0.57 0.73 0.83 0.96 0.70 0.32 0.16 0.12 0.11 0.14 0.15 0.17 0.26 0.39 0.55 0.54 0.57 0.61 0.63 0.64 0.62 0.58 0.55 0.63 0.64 0.85 0.72 0.67 0.44 0.19 0.21
0.48 0.59 0.35 0.11 0.02 0.07 0.13 0.09 0.18 0.29 0.37 0.37 0.28 0.59 0.49 0.52 0.58 0.76 0.58 0.34 0.18 0.15 0.14 0.12 0.10 0.18 0.23 0.27 0.36 0.39 0.48 0.65 0.67 0.69 0.47 0.53 0.47 0.48 0.43 0.46 0.41 0.33 0.27 0.31
0.35 0.46 0.39 0.45 0.06 0.06 0.12 0.13 0.10 0.19 0.53 0.45 0.66 0.49 0.29 0.43 0.49 0.42 0.55 0.49 0.48 0.29 0.19 0.21 0.14 0.19 0.20 0.21 0.25 0.33 0.39 0.49 0.62 0.57 0.71 0.54 0.62 0.58 0.45 0.40 0.35 0.29 0.32 0.36
0.33 0.38 0.48 0.36 0.28 0.27 0.34 0.19 0.23 0.25 0.37 0.41 0.37 0.35 0.38 0.30 0.43 0.32 0.41 0.59 0.76 0.93 0.38 0.27 0.28 0.27 0.37 0.38 0.35 0.41 0.40 0.53 0.67 0.87 0.73 0.81 0.66 0.63 0.55 0.61 0.47 0.39 0.46 0.39
0.30 0.48 0.72 0.46 0.41 0.42 0.64 0.70 0.62 0.50 0.45 0.37 0.34 0.41 0.35 0.16 0.26 0.37 0.41 0.48 0.70 1.02 1.11 0.67 0.42 0.36 0.42 0.45 0.58 0.56 0.61 0.60 0.70 0.90 1.17 1.28 1.27 1.09 0.89 0.73 0.71 0.62 0.63 0.56
0.24 0.38 0.77 0.69 0.69 0.83 0.79 0.35 0.25 0.35 0.58 0.32 0.16 0.20 0.22 0.29 0.46 0.69 0.70 0.48 0.48 0.60 0.75 1.12 0.90 0.51 0.47 0.55 0.53 0.67 0.73 0.82 0.99 1.12 1.08 1.14 1.46 1.63 1.79 1.48 1.09 0.88 0.71 0.64
0.17 0.41 0.51 0.59 0.76 0.55 0.32 0.41 0.31 0.41 0.51 0.14 0.10 0.12 0.26 0.48 0.65 1.07 0.96 0.78 0.62 0.55 0.45 0.44 0.84 1.04 0.75 0.62 0.56 0.55 0.75 0.81 1.12 1.17 1.33 1.31 1.22 1.30 1.43 1.52 1.39 1.09 0.90 0.78
0.41 0.46 0.65 0.67 0.68 0.42 0.28 0.46 0.37 0.32 0.15 0.09 0.14 0.20 0.24 0.61 0.87 1.06 0.91 0.65 0.39 0.27 0.20 0.16 0.20 0.41 0.74 0.74 0.66 0.54 0.48 0.70 0.76 0.95 1.01 1.05 1.21 1.16 1.13 1.08 1.17 1.13 1.08 1.00
1.33 0.79 0.69 0.53 0.38 0.41 0.29 0.29 0.20 0.11 0.14 0.26 0.32 0.71 0.67 0.86 1.18 1.20 0.88 0.55 0.32 0.22 0.15 0.08 0.06 0.08 0.18 0.30 0.44 0.59 0.65 0.52 0.57 0.55 0.57 0.71 0.67 0.76 0.87 0.92 0.96 0.88 0.84 0.82
0.72 0.38 0.58 0.51 0.35 0.31 0.42 0.20 0.09 0.07 0.11 0.21 0.56 0.92 1.39 1.29 1.21 0.96 0.58 0.33 0.22 0.16 0.13 0.08 0.07 0.10 0.16 0.18 0.22 0.32 0.43 0.50 0.51 0.49 0.48 0.45 0.49 0.56 0.55 0.60 0.73 0.78 0.84 0.89
0.63 0.35 0.26 0.38 0.66 0.46 0.27 0.21 0.24 0.25 0.16 0.17 0.29 0.48 0.53 0.49 0.44 0.36 0.24 0.16 0.14 0.13 0.12 0.09 0.09 0.10 0.15 0.11 0.14 0.19 0.18 0.17 0.19 0.21 0.24 0.30 0.32 0.35 0.41 0.50 0.58 0.59 0.82 0.85
0.87 0.88 0.50 0.62 1.33 1.08 0.60 0.32 0.37 0.48 0.49 0.34 0.29 0.38 0.41 0.29 0.31 0.27 0.29 0.29 0.29 0.26 0.21 0.16 0.13 0.11 0.15 0.17 0.23 0.27 0.28 0.28 0.31 0.35 0.35 0.36 0.36 0.40 0.45 0.50 0.61 0.73 0.79 0.79

GFSCGP_prec_precacc_105.txt.gz
Total_Precipitation_Accumulation
0.00 0.00 0.00 0.00 0.00 0.00 0.00 0.00 0.00 0.00 0.01 0.00 0.00 0.01 0.01 0.00 0.00 0.03 0.05 0.07 0.02 0.00 0.03 0.05 0.07 0.09 0.07 0.08 0.19 0.43 0.83 1.16 0.65 0.38 0.27 0.35 0.37 0.37 0.37 0.42 0.69 0.95 0.74 0.56
0.02 0.01 0.00 0.00 0.00 0.00 0.00 0.00 0.00 0.00 0.00 0.00 0.00 0.00 0.00 0.00 0.00 0.01 0.01 0.11 0.03 0.00 0.01 0.02 0.04 0.03 0.04 0.11 0.36 0.45 0.40 0.44 0.41 0.31 0.22 0.19 0.28 0.42 0.32 0.38 0.50 0.74 0.91 0.82
0.02 0.01 0.00 0.01 0.00 0.00 0.00 0.00 0.00 0.00 0.00 0.00 0.00 0.00 0.00 0.01 0.01 0.02 0.00 0.00 0.00 0.00 0.02 0.03 0.03 0.03 0.01 0.02 0.18 0.19 0.09 0.13 0.23 0.32 0.31 0.32 0.43 0.52 0.51 0.34 0.34 0.47 0.80 1.04
0.07 0.00 0.02 0.00 0.00 0.00 0.00 0.00 0.00 0.00 0.00 0.00 0.00 0.00 0.00 0.00 0.01 0.00 0.00 0.00 0.00 0.00 0.00 0.00 0.00 0.00 0.01 0.06 0.25 0.12 0.11 0.13 0.12 0.14 0.16 0.19 0.28 0.23 0.20 0.21 0.17 0.38 0.37 0.74
0.09 0.03 0.04 0.02 0.00 0.00 0.01 0.00 0.00 0.00 0.00 0.05 0.02 0.00 0.03 0.05 0.02 0.00 0.01 0.02 0.01 0.01 0.00 0.00 0.00 0.00 0.02 0.07 0.20 0.16 0.13 0.22 0.16 0.27 0.30 0.23 0.26 0.26 0.24 0.18 0.22 0.27 0.39 0.35
0.01 0.02 0.06 0.03 0.00 0.00 0.00 0.02 0.00 0.00 0.01 0.05 0.01 0.01 0.01 0.01 0.02 0.04 0.10 0.09 0.07 0.07 0.04 0.03 0.02 0.03 0.04 0.11 0.20 0.31 0.31 0.22 0.21 0.36 0.42 0.27 0.22 0.20 0.32 0.31 0.22 0.26 0.35 0.48
0.00 0.01 0.01 0.00 0.00 0.00 0.01 0.08 0.10 0.14 0.09 0.03 0.00 0.01 0.01 0.02 0.09 0.17 0.22 0.07 0.05 0.04 0.07 0.07 0.06 0.07 0.07 0.10 0.14 0.28 0.41 0.47 0.33 0.34 0.29 0.25 0.22 0.25 0.19 0.21 0.25 0.29 0.30 0.47
0.03 0.03 0.00 0.00 0.00 0.01 0.01 0.05 0.13 0.27 0.16 0.06 0.13 0.06 0.03 0.10 0.14 0.12 0.05 0.04 0.03 0.04 0.03 0.02 0.03 0.03 0.05 0.14 0.11 0.12 0.47 0.65 0.71 0.60 0.36 0.30 0.25 0.19 0.19 0.24 0.24 0.16 0.14 0.15
0.09 0.05 0.02 0.01 0.01 0.02 0.08 0.10 0.07 0.38 0.25 0.15 0.11 0.04 0.11 0.36 0.34 0.51 0.52 0.24 0.17 0.07 0.03 0.03 0.03 0.04 0.07 0.14 0.21 0.32 0.52 0.58 0.78 0.62 0.37 0.32 0.22 0.18 0.18 0.22 0.20 0.18 0.18 0.21
0.05 0.13 0.03 0.02 0.04 0.01 0.06 0.12 0.38 0.57 0.40 0.19 0.01 0.04 0.21 0.36 0.47 0.59 0.50 0.31 0.15 0.09 0.03 0.03 0.04 0.12 0.12 0.21 0.47 0.85 0.99 0.93 0.98 0.89 0.74 0.48 0.39 0.39 0.36 0.31 0.31 0.34 0.35 0.34
0.02 0.11 0.11 0.12 0.13 0.07 0.10 0.29 0.33 0.38 0.19 0.26 0.16 0.36 0.68 0.53 0.79 0.61 0.16 0.12 0.11 0.05 0.02 0.01 0.02 0.10 0.13 0.26 0.37 0.49 0.83 1.35 1.66 1.51 1.20 0.81 0.59 0.74 0.77 0.57 0.58 0.56 0.50 0.46
0.10 0.12 0.05 0.07 0.06 0.06 0.16 0.24 0.42 0.75 0.48 0.26 0.26 0.46 0.85 0.67 0.35 0.67 0.31 0.22 0.07 0.02 0.02 0.03 0.04 0.06 0.08 0.11 0.17 0.30 0.38 0.51 0.78 1.02 1.48 1.91 1.58 1.16 1.12 0.98 0.93 0.85 0.60 0.43
0.17 0.16 0.13 0.11 0.17 0.15 0.20 0.30 0.42 0.55 0.70 0.47 0.50 0.56 0.89 0.66 0.69 0.91 0.46 0.09 0.05 0.05 0.05 0.05 0.08 0.13 0.13 0.13 0.18 0.27 0.36 0.54 0.70 0.84 0.99 1.52 1.57 1.77 1.28 1.07 0.80 0.62 0.48 0.35
0.34 0.14 0.08 0.10 0.16 0.21 0.20 0.14 0.24 0.73 1.09 0.56 0.29 0.38 1.13 1.26 1.15 0.58 0.18 0.12 0.12 0.11 0.09 0.07 0.13 0.24 0.33 0.38 0.48 0.47 0.55 0.60 0.84 0.82 0.96 0.72 0.83 0.96 1.21 0.85 0.69 0.48 0.31 0.26
0.45 0.32 0.11 0.06 0.05 0.12 0.13 0.19 0.25 0.44 0.43 0.57 0.42 0.57 0.73 0.83 0.96 0.70 0.33 0.18 0.14 0.13 0.14 0.15 0.17 0.27 0.39 0.55 0.55 0.57 0.62 0.63 0.66 0.67 0.63 0.57 0.67 0.67 0.87 0.80 0.83 0.72 0.49 0.52
0.48 0.59 0.35 0.11 0.02 0.07 0.13 0.09 0.18 0.29 0.37 0.37 0.28 0.59 0.49 0.52 0.58 0.77 0.60 0.37 0.23 0.18 0.15 0.12 0.10 0.19 0.23 0.28 0.37 0.40 0.51 0.66 0.67 0.69 0.51 0.59 0.51 0.51 0.44 0.67 0.77 1.07 0.76 0.78
0.35 0.46 0.39 0.45 0.06 0.06 0.12 0.13 0.10 0.19 0.53 0.46 0.67 0.49 0.29 0.44 0.51 0.45 0.58 0.51 0.49 0.29 0.20 0.22 0.15 0.20 0.22 0.24 0.29 0.36 0.44 0.51 0.63 0.58 0.74 0.56 0.67 0.68 0.50 0.49 0.69 0.82 0.88 0.72
0.33 0.38 0.48 0.36 0.28 0.27 0.34 0.19 0.24 0.29 0.39 0.43 0.39 0.36 0.40 0.34 0.48 0.37 0.45 0.61 0.78 0.93 0.39 0.27 0.28 0.28 0.39 0.40 0.37 0.45 0.46 0.56 0.68 0.88 0.74 0.82 0.71 0.75 0.81 0.91 0.68 0.56 0.65 0.56
0.30 0.48 0.72 0.46 0.41 0.42 0.64 0.71 0.67 0.56 0.49 0.40 0.39 0.47 0.41 0.24 0.32 0.41 0.43 0.49 0.72 1.04 1.12 0.68 0.44 0.39 0.44 0.46 0.60 0.57 0.62 0.61 0.71 0.93 1.21 1.34 1.33 1.19 1.03 1.10 1.35 0.95 0.83 0.71
0.24 0.38 0.77 0.69 0.69 0.83 0.80 0.35 0.28 0.44 0.65 0.40 0.26 0.31 0.34 0.38 0.50 0.70 0.72 0.50 0.51 0.62 0.77 1.13 0.93 0.53 0.48 0.56 0.53 0.67 0.73 0.82 1.00 1.15 1.15 1.25 1.59 1.80 2.09 1.79 1.56 1.61 1.16 0.76
0.20 0.43 0.52 0.59 0.76 0.55 0.32 0.42 0.38 0.49 0.64 0.28 0.20 0.21 0.34 0.51 0.65 1.08 0.98 0.81 0.65 0.58 0.47 0.46 0.87 1.05 0.78 0.63 0.56 0.55 0.75 0.83 1.15 1.19 1.35 1.32 1.25 1.41 1.65 1.87 1.83 1.58 1.39 1.07
0.43 0.48 0.67 0.68 0.70 0.43 0.31 0.49 0.44 0.44 0.29 0.18 0.19 0.25 0.27 0.62 0.89 1.08 0.94 0.68 0.42 0.29 0.22 0.18 0.21 0.43 0.75 0.75 0.66 0.54 0.50 0.73 0.78 0.95 1.02 1.05 1.22 1.18 1.16 1.14 1.32 1.43 1.42 1.25
1.35 0.85 0.72 0.56 0.41 0.47 0.38 0.40 0.32 0.18 0.19 0.30 0.35 0.74 0.68 0.88 1.20 1.22 0.90 0.57 0.34 0.24 0.17 0.09 0.07 0.09 0.18 0.30 0.44 0.59 0.65 0.53 0.57 0.55 0.57 0.71 0.67 0.76 0.87 0.92 0.97 0.91 0.89 0.91
0.75 0.42 0.60 0.55 0.39 0.35 0.49 0.28 0.15 0.09 0.14 0.24 0.59 0.95 1.41 1.31 1.24 0.98 0.60 0.36 0.24 0.18 0.14 0.09 0.07 0.10 0.16 0.18 0.22 0.32 0.43 0.50 0.51 0.49 0.48 0.45 0.49 0.56 0.55 0.60 0.73 0.78 0.84 0.89
0.65 0.37 0.28 0.41 0.70 0.48 0.29 0.24 0.26 0.27 0.19 0.20 0.32 0.51 0.55 0.51 0.46 0.38 0.26 0.18 0.16 0.15 0.12 0.09 0.09 0.10 0.15 0.11 0.14 0.19 0.18 0.17 0.19 0.21 0.24 0.30 0.32 0.35 0.41 0.50 0.59 0.60 0.83 0.85
0.88 0.90 0.51 0.63 1.35 1.08 0.60 0.34 0.38 0.49 0.51 0.37 0.31 0.39 0.43 0.30 0.32 0.27 0.30 0.30 0.30 0.26 0.21 0.16 0.13 0.11 0.15 0.17 0.23 0.27 0.28 0.28 0.31 0.35 0.35 0.36 0.36 0.40 0.45 0.50 0.61 0.73 0.79 0.79

GFSCGP_prec_precacc_111.txt.gz
Total_Precipitation_Accumulation
0.00 0.00 0.00 0.00 0.00 0.00 0.00 0.00 0.00 0.00 0.01 0.00 0.00 0.01 0.01 0.00 0.00 0.03 0.05 0.07 0.02 0.00 0.03 0.05 0.07 0.09 0.07 0.08 0.19 0.43 0.83 1.16 0.65 0.38 0.27 0.35 0.37 0.37 0.37 0.42 0.69 0.95 0.74 0.56
0.02 0.01 0.00 0.00 0.00 0.00 0.00 0.00 0.00 0.00 0.00 0.00 0.00 0.00 0.00 0.00 0.00 0.01 0.01 0.11 0.03 0.00 0.01 0.02 0.04 0.03 0.04 0.11 0.36 0.45 0.40 0.44 0.41 0.31 0.22 0.19 0.28 0.42 0.32 0.38 0.50 0.75 0.91 0.82
0.02 0.01 0.00 0.01 0.00 0.00 0.00 0.00 0.00 0.00 0.00 0.00 0.00 0.00 0.00 0.01 0.01 0.02 0.00 0.00 0.00 0.00 0.02 0.03 0.03 0.03 0.01 0.02 0.18 0.19 0.09 0.13 0.23 0.32 0.31 0.32 0.43 0.52 0.52 0.34 0.34 0.47 0.80 1.04
0.07 0.00 0.02 0.00 0.00 0.00 0.00 0.00 0.00 0.00 0.00 0.00 0.00 0.00 0.00 0.00 0.01 0.00 0.00 0.00 0.00 0.00 0.00 0.00 0.00 0.00 0.01 0.06 0.25 0.12 0.11 0.13 0.12 0.14 0.16 0.19 0.29 0.23 0.21 0.21 0.17 0.38 0.38 0.75
0.09 0.03 0.04 0.02 0.00 0.00 0.01 0.00 0.00 0.00 0.00 0.05 0.02 0.00 0.03 0.05 0.02 0.00 0.01 0.02 0.01 0.01 0.00 0.00 0.00 0.00 0.02 0.07 0.20 0.16 0.13 0.22 0.16 0.27 0.30 0.23 0.26 0.26 0.24 0.18 0.22 0.27 0.39 0.35
0.01 0.02 0.06 0.03 0.00 0.00 0.00 0.02 0.00 0.00 0.01 0.05 0.01 0.01 0.01 0.01 0.02 0.04 0.10 0.09 0.07 0.07 0.04 0.03 0.02 0.03 0.04 0.11 0.20 0.31 0.31 0.22 0.21 0.36 0.42 0.27 0.23 0.20 0.32 0.32 0.23 0.27 0.36 0.50
0.00 0.01 0.01 0.00 0.00 0.00 0.01 0.08 0.10 0.14 0.09 0.03 0.00 0.01 0.01 0.02 0.09 0.17 0.22 0.07 0.05 0.04 0.07 0.07 0.06 0.07 0.07 0.10 0.14 0.28 0.41 0.47 0.33 0.34 0.29 0.26 0.22 0.25 0.19 0.22 0.27 0.31 0.32 0.48
0.04 0.05 0.00 0.00 0.00 0.02 0.01 0.05 0.13 0.28 0.16 0.06 0.13 0.06 0.03 0.10 0.14 0.12 0.05 0.04 0.03 0.04 0.03 0.02 0.03 0.03 0.05 0.14 0.11 0.12 0.47 0.65 0.71 0.60 0.36 0.30 0.25 0.19 0.20 0.25 0.25 0.18 0.17 0.16
0.10 0.07 0.02 0.01 0.01 0.02 0.08 0.10 0.07 0.39 0.26 0.15 0.11 0.04 0.12 0.36 0.34 0.51 0.52 0.24 0.17 0.07 0.03 0.03 0.03 0.04 0.07 0.14 0.21 0.32 0.52 0.58 0.78 0.64 0.40 0.34 0.24 0.19 0.20 0.23 0.21 0.19 0.21 0.25
0.06 0.16 0.03 0.02 0.04 0.01 0.06 0.12 0.39 0.57 0.40 0.19 0.01 0.04 0.23 0.38 0.47 0.59 0.50 0.31 0.15 0.09 0.03 0.03 0.04 0.12 0.12 0.21 0.48 0.89 1.03 0.96 1.00 0.93 0.82 0.55 0.46 0.44 0.39 0.33 0.35 0.37 0.37 0.38
0.02 0.12 0.11 0.12 0.13 0.07 0.10 0.29 0.33 0.38 0.19 0.27 0.16 0.36 0.71 0.55 0.79 0.61 0.16 0.12 0.11 0.05 0.02 0.01 0.02 0.10 0.13 0.27 0.38 0.52 0.86 1.41 1.71 1.56 1.30 0.98 0.74 1.06 1.07 0.78 0.75 0.68 0.59 0.55
0.11 0.12 0.06 0.07 0.06 0.06 0.16 0.24 0.42 0.75 0.48 0.26 0.26 0.46 0.86 0.67 0.35 0.67 0.31 0.22 0.07 0.02 0.02 0.03 0.04 0.06 0.08 0.11 0.19 0.36 0.47 0.71 1.04 1.23 1.58 1.99 1.70 1.43 1.53 1.43 1.30 1.19 0.81 0.65
0.18 0.17 0.13 0.11 0.17 0.15 0.20 0.30 0.42 0.55 0.70 0.47 0.50 0.57 0.89 0.66 0.69 0.91 0.46 0.09 0.05 0.05 0.05 0.05 0.08 0.13 0.13 0.13 0.18 0.29 0.41 0.65 0.89 1.03 1.06 1.57 1.66 1.99 1.52 1.44 1.51 1.10 0.80 0.62
0.34 0.14 0.08 0.10 0.16 0.21 0.20 0.14 0.24 0.73 1.09 0.56 0.29 0.38 1.13 1.26 1.15 0.58 0.18 0.12 0.12 0.11 0.09 0.07 0.13 0.24 0.33 0.38 0.48 0.48 0.57 0.65 0.96 0.95 1.06 0.91 1.09 1.37 1.59 1.06 0.95 0.90 0.64 0.56
0.45 0.32 0.11 0.06 0.05 0.12 0.13 0.19 0.25 0.44 0.43 0.57 0.42 0.57 0.73 0.83 0.96 0.70 0.33 0.18 0.14 0.14 0.15 0.15 0.17 0.27 0.39 0.56 0.56 0.59 0.64 0.65 0.69 0.77 0.83 0.90 0.95 1.00 1.44 1.16 0.94 0.80 0.70 0.81
0.48 0.59 0.35 0.11 0.02 0.07 0.13 0.09 0.18 0.29 0.37 0.37 0.28 0.59 0.49 0.52 0.58 0.77 0.60 0.37 0.24 0.19 0.17 0.13 0.10 0.19 0.24 0.29 0.39 0.45 0.57 0.75 0.73 0.73 0.74 1.31 0.92 0.88 0.71 1.05 1.04 1.17 0.86 0.90
0.35 0.46 0.39 0.45 0.06 0.06 0.12 0.13 0.10 0.19 0.54 0.46 0.67 0.49 0.30 0.45 0.52 0.45 0.58 0.52 0.52 0.32 0.23 0.25 0.19 0.23 0.26 0.28 0.34 0.44 0.55 0.62 0.70 0.66 0.81 0.75 1.11 1.16 0.92 0.76 1.00 1.21 1.39 1.23
0.33 0.38 0.48 0.36 0.28 0.27 0.34 0.19 0.24 0.30 0.41 0.44 0.40 0.38 0.42 0.36 0.48 0.39 0.47 0.65 0.83 0.98 0.44 0.36 0.35 0.32 0.45 0.47 0.42 0.52 0.55 0.66 0.80 1.00 0.87 0.89 0.79 0.91 1.00 1.25 1.03 0.92 1.21 1.36
0.30 0.48 0.72 0.46 0.41 0.42 0.64 0.71 0.68 0.58 0.53 0.42 0.41 0.50 0.44 0.25 0.34 0.46 0.50 0.57 0.80 1.11 1.20 0.78 0.52 0.46 0.51 0.50 0.65 0.62 0.66 0.66 0.76 0.98 1.26 1.41 1.37 1.25 1.08 1.25 1.78 1.44 1.31 1.28
0.24 0.38 0.77 0.70 0.69 0.84 0.83 0.36 0.28 0.50 0.73 0.43 0.28 0.34 0.40 0.47 0.62 0.81 0.82 0.59 0.60 0.70 0.85 1.21 0.99 0.60 0.51 0.60 0.55 0.68 0.73 0.82 1.04 1.24 1.26 1.32 1.64 1.86 2.18 1.92 1.79 2.08 1.80 1.53
0.22 0.45 0.53 0.61 0.78 0.58 0.33 0.42 0.42 0.59 0.71 0.32 0.26 0.29 0.45 0.64 0.78 1.18 1.06 0.89 0.74 0.66 0.54 0.52 0.91 1.07 0.79 0.65 0.57 0.55 0.75 0.88 1.24 1.25 1.39 1.35 1.28 1.48 1.79 2.01 2.09 1.93 1.98 1.80
0.46 0.50 0.70 0.73 0.76 0.48 0.32 0.49 0.52 0.53 0.36 0.26 0.30 0.38 0.35 0.71 0.99 1.16 1.01 0.76 0.50 0.36 0.26 0.20 0.22 0.43 0.76 0.75 0.66 0.54 0.51 0.76 0.79 0.96 1.02 1.06 1.22 1.20 1.20 1.20 1.43 1.61 1.76 1.76
1.38 0.90 0.79 0.61 0.48 0.51 0.41 0.46 0.41 0.27 0.26 0.38 0.44 0.84 0.77 0.98 1.30 1.32 1.00 0.66 0.42 0.28 0.18 0.10 0.07 0.09 0.18 0.30 0.44 0.59 0.65 0.53 0.57 0.55 0.57 0.71 0.68 0.77 0.88 0.92 0.98 0.94 0.95 1.04
0.77 0.44 0.63 0.60 0.44 0.40 0.55 0.33 0.22 0.18 0.21 0.33 0.68 1.03 1.50 1.41 1.34 1.08 0.69 0.43 0.28 0.19 0.14 0.09 0.07 0.10 0.16 0.18 0.22 0.32 0.43 0.50 0.51 0.49 0.48 0.45 0.49 0.56 0.56 0.61 0.73 0.79 0.85 0.90
0.67 0.39 0.31 0.46 0.74 0.51 0.33 0.31 0.33 0.34 0.26 0.28 0.42 0.60 0.62 0.59 0.54 0.45 0.32 0.22 0.17 0.15 0.12 0.09 0.09 0.10 0.15 0.11 0.14 0.19 0.18 0.17 0.19 0.21 0.24 0.30 0.32 0.35 0.41 0.51 0.60 0.61 0.85 0.86
0.89 0.92 0.55 0.70 1.38 1.11 0.64 0.38 0.43 0.54 0.57 0.44 0.37 0.47 0.49 0.35 0.36 0.31 0.33 0.31 0.30 0.26 0.21 0.16 0.13 0.11 0.15 0.17 0.23 0.27 0.28 0.28 0.31 0.35 0.35 0.36 0.36 0.40 0.45 0.50 0.61 0.73 0.80 0.79

GFSCGP_prec_precacc_114.txt.gz
Total_Precipitation_Accumulation
0.00 0.00 0.00 0.00 0.00 0.00 0.00 0.00 0.00 0.00 0.01 0.00 0.00 0.01 0.01 0.00 0.00 0.03 0.05 0.07 0.02 0.00 0.03 0.05 0.07 0.09 0.07 0.08 0.19 0.43 0.83 1.16 0.65 0.38 0.27 0.35 0.37 0.37 0.37 0.42 0.69 0.95 0.74 0.56
0.02 0.01 0.00 0.00 0.00 0.00 0.00 0.00 0.00 0.00 0.00 0.00 0.00 0.00 0.00 0.00 0.00 0.01 0.01 0.11 0.03 0.00 0.01 0.02 0.04 0.03 0.04 0.11 0.36 0.45 0.40 0.44 0.41 0.31 0.22 0.19 0.28 0.42 0.32 0.38 0.50 0.75 0.91 0.83
0.02 0.01 0.00 0.01 0.00 0.00 0.00 0.00 0.00 0.00 0.00 0.00 0.00 0.00 0.00 0.01 0.01 0.02 0.00 0.00 0.00 0.00 0.02 0.03 0.03 0.03 0.01 0.02 0.18 0.19 0.09 0.13 0.23 0.32 0.31 0.32 0.43 0.52 0.52 0.34 0.34 0.47 0.81 1.07
0.07 0.00 0.02 0.00 0.00 0.00 0.00 0.00 0.00 0.00 0.00 0.00 0.00 0.00 0.00 0.00 0.01 0.00 0.00 0.00 0.00 0.00 0.00 0.00 0.00 0.00 0.01 0.06 0.25 0.12 0.11 0.13 0.12 0.14 0.16 0.19 0.29 0.23 0.21 0.21 0.17 0.38 0.38 0.76
0.09 0.03 0.04 0.02 0.00 0.00 0.01 0.00 0.00 0.00 0.00 0.05 0.02 0.00 0.03 0.05 0.02 0.00 0.01 0.02 0.01 0.01 0.00 0.00 0.00 0.00 0.02 0.07 0.20 0.16 0.13 0.22 0.16 0.27 0.30 0.23 0.26 0.26 0.24 0.18 0.22 0.27 0.39 0.35
0.01 0.02 0.06 0.03 0.00 0.00 0.00 0.02 0.00 0.00 0.01 0.06 0.01 0.01 0.01 0.01 0.02 0.04 0.10 0.09 0.07 0.07 0.04 0.03 0.02 0.03 0.04 0.11 0.20 0.31 0.31 0.22 0.21 0.36 0.42 0.27 0.23 0.20 0.32 0.32 0.23 0.27 0.36 0.50
0.00 0.01 0.01 0.00 0.00 0.00 0.01 0.09 0.12 0.17 0.09 0.03 0.00 0.01 0.02 0.03 0.09 0.18 0.22 0.07 0.05 0.04 0.07 0.07 0.06 0.07 0.07 0.10 0.14 0.28 0.41 0.47 0.33 0.34 0.29 0.26 0.22 0.25 0.19 0.22 0.27 0.31 0.32 0.52
0.05 0.06 0.00 0.00 0.00 0.02 0.01 0.05 0.16 0.32 0.18 0.08 0.14 0.08 0.07 0.11 0.16 0.16 0.06 0.04 0.03 0.04 0.03 0.02 0.03 0.03 0.05 0.14 0.11 0.12 0.47 0.65 0.71 0.60 0.36 0.30 0.25 0.19 0.20 0.25 0.25 0.18 0.17 0.17
0.10 0.07 0.02 0.01 0.01 0.02 0.08 0.10 0.07 0.42 0.27 0.16 0.12 0.08 0.20 0.37 0.35 0.51 0.52 0.24 0.17 0.07 0.03 0.03 0.03 0.04 0.07 0.14 0.21 0.32 0.52 0.58 0.78 0.64 0.40 0.34 0.24 0.19 0.20 0.23 0.21 0.19 0.21 0.26
0.06 0.18 0.04 0.02 0.04 0.01 0.06 0.12 0.40 0.61 0.44 0.20 0.01 0.04 0.31 0.47 0.48 0.59 0.50 0.31 0.15 0.09 0.03 0.03 0.04 0.12 0.12 0.21 0.48 0.89 1.03 0.96 1.00 0.93 0.82 0.55 0.46 0.44 0.39 0.34 0.35 0.37 0.37 0.40
0.02 0.13 0.13 0.12 0.13 0.07 0.10 0.29 0.33 0.39 0.21 0.28 0.17 0.39 0.75 0.60 0.81 0.62 0.16 0.12 0.11 0.05 0.02 0.01 0.02 0.10 0.13 0.27 0.38 0.52 0.86 1.41 1.71 1.56 1.30 0.98 0.74 1.07 1.08 0.80 0.77 0.71 0.61 0.58
0.11 0.13 0.06 0.07 0.06 0.06 0.16 0.24 0.42 0.76 0.48 0.26 0.26 0.46 0.90 0.70 0.36 0.67 0.31 0.22 0.07 0.02 0.02 0.03 0.04 0.06 0.08 0.11 0.19 0.36 0.47 0.71 1.04 1.24 1.61 2.02 1.71 1.44 1.54 1.44 1.32 1.26 0.88 0.76
0.18 0.20 0.17 0.13 0.17 0.15 0.20 0.30 0.42 0.55 0.70 0.47 0.50 0.57 0.90 0.66 0.69 0.91 0.46 0.09 0.05 0.05 0.05 0.05 0.08 0.13 0.13 0.13 0.18 0.29 0.41 0.65 0.89 1.08 1.17 1.66 1.71 2.01 1.54 1.46 1.54 1.30 1.02 0.82
0.34 0.14 0.10 0.12 0.17 0.21 0.20 0.14 0.24 0.73 1.09 0.56 0.29 0.38 1.14 1.27 1.15 0.58 0.18 0.12 0.12 0.11 0.09 0.07 0.13 0.24 0.33 0.38 0.48 0.48 0.58 0.66 0.96 0.98 1.13 0.96 1.15 1.47 1.72 1.20 1.10 1.12 1.10 0.97
0.45 0.32 0.11 0.06 0.05 0.12 0.13 0.19 0.25 0.44 0.43 0.57 0.42 0.57 0.73 0.83 0.96 0.70 0.33 0.18 0.14 0.14 0.15 0.15 0.17 0.27 0.39 0.56 0.56 0.59 0.67 0.68 0.71 0.78 0.84 0.93 1.08 1.19 1.61 1.32 1.22 1.12 1.06 1.31
0.48 0.59 0.35 0.11 0.02 0.07 0.13 0.09 0.18 0.29 0.37 0.37 0.28 0.59 0.49 0.52 0.58 0.77 0.60 0.37 0.24 0.19 0.17 0.13 0.10 0.19 0.25 0.31 0.41 0.47 0.62 0.80 0.78 0.78 0.78 1.34 0.94 0.94 0.89 1.23 1.19 1.35 0.97 0.98
0.35 0.46 0.39 0.45 0.06 0.06 0.12 0.13 0.10 0.19 0.54 0.46 0.67 0.49 0.30 0.45 0.53 0.45 0.58 0.52 0.52 0.32 0.24 0.26 0.21 0.27 0.30 0.34 0.38 0.48 0.62 0.68 0.76 0.74 0.89 0.84 1.15 1.21 1.05 0.85 1.09 1.35 1.55 1.32
0.33 0.38 0.48 0.36 0.28 0.27 0.34 0.19 0.24 0.30 0.41 0.44 0.40 0.38 0.42 0.36 0.49 0.39 0.47 0.66 0.83 0.99 0.45 0.38 0.41 0.38 0.51 0.53 0.47 0.59 0.63 0.72 0.86 1.07 0.95 0.99 0.85 0.97 1.05 1.34 1.19 1.09 1.43 1.53
0.30 0.48 0.72 0.46 0.41 0.42 0.64 0.71 0.68 0.58 0.53 0.42 0.41 0.50 0.44 0.25 0.34 0.47 0.50 0.57 0.81 1.13 1.24 0.85 0.60 0.54 0.58 0.57 0.72 0.71 0.73 0.71 0.78 1.02 1.32 1.47 1.45 1.30 1.10 1.28 1.82 1.56 1.46 1.47
0.24 0.38 0.77 0.70 0.70 0.85 0.85 0.36 0.28 0.50 0.74 0.43 0.28 0.35 0.40 0.47 0.66 0.84 0.83 0.60 0.63 0.76 0.93 1.28 1.05 0.65 0.56 0.64 0.59 0.70 0.74 0.83 1.07 1.30 1.34 1.39 1.70 1.89 2.23 1.97 1.84 2.16 1.88 1.66
0.23 0.46 0.53 0.62 0.80 0.61 0.34 0.42 0.42 0.60 0.73 0.32 0.26 0.30 0.47 0.65 0.80 1.20 1.10 0.94 0.80 0.74 0.62 0.57 0.92 1.07 0.80 0.65 0.57 0.55 0.75 0.89 1.25 1.26 1.40 1.37 1.31 1.52 1.85 2.05 2.13 1.97 2.04 1.88
0.47 0.52 0.71 0.74 0.79 0.53 0.32 0.50 0.53 0.56 0.37 0.26 0.32 0.42 0.36 0.72 1.01 1.19 1.05 0.81 0.57 0.42 0.29 0.21 0.22 0.43 0.76 0.75 0.66 0.54 0.51 0.76 0.79 0.96 1.02 1.06 1.22 1.20 1.20 1.20 1.45 1.63 1.78 1.79
1.39 0.92 0.89 0.64 0.52 0.52 0.41 0.46 0.41 0.28 0.28 0.40 0.48 0.88 0.78 0.99 1.33 1.36 1.05 0.72 0.48 0.31 0.19 0.10 0.07 0.09 0.18 0.30 0.44 0.59 0.65 0.53 0.57 0.55 0.58 0.71 0.68 0.77 0.88 0.92 0.99 0.94 0.95 1.04
0.77 0.44 0.63 0.61 0.45 0.40 0.55 0.33 0.23 0.18 0.22 0.35 0.71 1.06 1.53 1.43 1.37 1.12 0.74 0.48 0.31 0.20 0.15 0.09 0.07 0.10 0.16 0.18 0.22 0.32 0.43 0.50 0.51 0.49 0.48 0.45 0.49 0.56 0.56 0.61 0.73 0.79 0.85 0.90
0.68 0.39 0.32 0.46 0.74 0.52 0.34 0.31 0.34 0.36 0.28 0.31 0.45 0.62 0.65 0.62 0.58 0.50 0.37 0.26 0.18 0.15 0.12 0.09 0.09 0.10 0.15 0.11 0.14 0.19 0.18 0.17 0.19 0.21 0.24 0.30 0.32 0.35 0.41 0.51 0.60 0.61 0.85 0.86
0.89 0.93 0.57 0.74 1.39 1.12 0.64 0.39 0.44 0.56 0.60 0.46 0.39 0.50 0.53 0.37 0.41 0.35 0.36 0.32 0.30 0.26 0.21 0.16 0.13 0.11 0.15 0.17 0.23 0.27 0.28 0.28 0.31 0.35 0.35 0.36 0.36 0.40 0.45 0.50 0.61 0.73 0.80 0.79

GFSCGP_prec_precacc_117.txt.gz
Total_Precipitation_Accumulation
0.00 0.00 0.00 0.00 0.00 0.00 0.00 0.00 0.00 0.00 0.01 0.00 0.00 0.01 0.01 0.00 0.00 0.03 0.05 0.07 0.02 0.00 0.03 0.05 0.07 0.09 0.07 0.08 0.19 0.43 0.83 1.16 0.65 0.38 0.27 0.35 0.37 0.37 0.37 0.44 0.77 1.06 0.85 0.64
0.02 0.01 0.00 0.00 0.00 0.00 0.00 0.00 0.00 0.00 0.00 0.00 0.00 0.00 0.00 0.00 0.00 0.01 0.01 0.11 0.03 0.00 0.01 0.02 0.04 0.03 0.04 0.11 0.36 0.45 0.40 0.44 0.41 0.31 0.22 0.19 0.28 0.42 0.32 0.38 0.53 0.80 0.97 1.04
0.02 0.01 0.00 0.01 0.00 0.00 0.00 0.00 0.00 0.00 0.00 0.00 0.00 0.00 0.00 0.01 0.01 0.02 0.00 0.00 0.00 0.00 0.02 0.03 0.03 0.03 0.01 0.02 0.18 0.19 0.09 0.13 0.23 0.32 0.31 0.32 0.43 0.52 0.52 0.34 0.34 0.47 0.82 1.11
0.07 0.00 0.02 0.00 0.00 0.00 0.00 0.00 0.00 0.00 0.00 0.00 0.00 0.00 0.00 0.00 0.01 0.00 0.00 0.00 0.00 0.01 0.01 0.00 0.00 0.00 0.01 0.06 0.25 0.12 0.11 0.13 0.12 0.14 0.16 0.19 0.29 0.23 0.21 0.21 0.17 0.38 0.38 0.76
0.09 0.03 0.04 0.02 0.00 0.00 0.01 0.00 0.00 0.00 0.00 0.05 0.02 0.00 0.03 0.05 0.02 0.00 0.01 0.02 0.02 0.02 0.00 0.00 0.00 0.00 0.02 0.07 0.20 0.16 0.13 0.22 0.16 0.27 0.30 0.23 0.26 0.26 0.24 0.18 0.22 0.27 0.39 0.35
0.01 0.02 0.06 0.03 0.00 0.00 0.00 0.02 0.00 0.00 0.02 0.06 0.01 0.01 0.01 0.01 0.02 0.06 0.12 0.10 0.07 0.07 0.04 0.03 0.02 0.03 0.04 0.11 0.20 0.31 0.31 0.22 0.21 0.36 0.42 0.27 0.23 0.20 0.32 0.32 0.23 0.27 0.36 0.50
0.00 0.01 0.01 0.01 0.01 0.01 0.02 0.09 0.12 0.17 0.09 0.04 0.00 0.02 0.02 0.05 0.14 0.22 0.24 0.08 0.05 0.04 0.07 0.07 0.06 0.07 0.07 0.10 0.14 0.28 0.41 0.47 0.33 0.34 0.29 0.26 0.22 0.25 0.19 0.22 0.27 0.31 0.32 0.52
0.06 0.06 0.00 0.01 0.00 0.02 0.02 0.05 0.18 0.33 0.18 0.08 0.15 0.09 0.18 0.29 0.27 0.31 0.10 0.04 0.03 0.04 0.03 0.02 0.03 0.03 0.05 0.14 0.11 0.12 0.47 0.65 0.71 0.60 0.36 0.30 0.25 0.19 0.20 0.25 0.25 0.18 0.17 0.17
0.11 0.07 0.02 0.01 0.01 0.02 0.08 0.10 0.07 0.45 0.28 0.16 0.12 0.11 0.58 1.00 0.54 0.80 0.75 0.34 0.21 0.09 0.05 0.04 0.03 0.04 0.07 0.14 0.21 0.32 0.52 0.58 0.78 0.64 0.40 0.34 0.24 0.19 0.20 0.23 0.21 0.19 0.21 0.26
0.06 0.18 0.04 0.02 0.04 0.01 0.06 0.12 0.40 0.63 0.48 0.22 0.01 0.06 0.39 0.63 0.65 0.69 0.58 0.37 0.18 0.10 0.03 0.03 0.04 0.12 0.12 0.21 0.48 0.89 1.03 0.96 1.00 0.93 0.82 0.55 0.46 0.44 0.39 0.34 0.35 0.37 0.37 0.40
0.02 0.14 0.14 0.12 0.13 0.07 0.10 0.29 0.33 0.39 0.22 0.30 0.18 0.40 0.77 0.63 0.85 0.63 0.17 0.12 0.11 0.05 0.02 0.01 0.02 0.10 0.13 0.27 0.38 0.52 0.86 1.41 1.71 1.56 1.30 0.98 0.74 1.07 1.08 0.80 0.77 0.72 0.61 0.58
0.11 0.13 0.07 0.07 0.06 0.06 0.16 0.24 0.42 0.76 0.48 0.26 0.27 0.47 0.92 0.73 0.37 0.67 0.31 0.22 0.07 0.02 0.02 0.03 0.04 0.06 0.08 0.11 0.19 0.36 0.47 0.71 1.04 1.24 1.61 2.02 1.71 1.44 1.54 1.45 1.33 1.28 0.91 0.78
0.18 0.20 0.17 0.14 0.17 0.15 0.20 0.30 0.42 0.55 0.70 0.47 0.50 0.58 0.93 0.68 0.69 0.91 0.46 0.09 0.05 0.05 0.05 0.05 0.08 0.13 0.13 0.13 0.18 0.29 0.41 0.65 0.89 1.08 1.17 1.66 1.72 2.03 1.55 1.48 1.56 1.31 1.03 0.83
0.34 0.14 0.10 0.13 0.18 0.21 0.20 0.14 0.24 0.73 1.09 0.56 0.29 0.38 1.14 1.29 1.16 0.58 0.18 0.12 0.12 0.11 0.09 0.07 0.13 0.24 0.33 0.38 0.48 0.48 0.58 0.66 0.96 0.98 1.14 0.97 1.16 1.48 1.73 1.23 1.14 1.14 1.14 1.00
0.45 0.32 0.11 0.06 0.05 0.13 0.13 0.19 0.25 0.44 0.43 0.57 0.42 0.57 0.73 0.83 0.96 0.70 0.33 0.18 0.14 0.14 0.15 0.15 0.17 0.27 0.39 0.56 0.56 0.59 0.67 0.68 0.72 0.80 0.87 0.97 1.11 1.21 1.63 1.34 1.27 1.18 1.20 1.53
0.48 0.59 0.35 0.11 0.02 0.07 0.13 0.09 0.18 0.29 0.37 0.37 0.28 0.59 0.49 0.52 0.58 0.77 0.60 0.37 0.24 0.19 0.17 0.13 0.10 0.19 0.25 0.32 0.42 0.48 0.63 0.83 0.83 0.85 0.86 1.42 1.02 0.98 0.90 1.23 1.21 1.40 1.05 1.21
0.35 0.46 0.39 0.45 0.06 0.06 0.12 0.13 0.10 0.19 0.54 0.46 0.67 0.49 0.30 0.45 0.53 0.45 0.58 0.52 0.52 0.32 0.24 0.26 0.21 0.28 0.32 0.36 0.41 0.50 0.66 0.75 0.84 0.83 1.03 0.97 1.24 1.26 1.09 0.89 1.12 1.39 1.62 1.46
0.33 0.38 0.48 0.36 0.28 0.27 0.34 0.19 0.24 0.30 0.41 0.44 0.40 0.38 0.42 0.36 0.49 0.39 0.47 0.66 0.83 0.99 0.45 0.39 0.42 0.42 0.56 0.59 0.51 0.65 0.72 0.83 0.96 1.17 1.07 1.08 0.93 1.06 1.10 1.36 1.22 1.18 1.51 1.66
0.30 0.48 0.72 0.46 0.41 0.42 0.64 0.71 0.68 0.58 0.53 0.42 0.41 0.50 0.44 0.25 0.34 0.47 0.50 0.57 0.81 1.14 1.25 0.87 0.65 0.61 0.65 0.62 0.78 0.79 0.85 0.82 0.88 1.12 1.43 1.57 1.53 1.37 1.14 1.32 1.86 1.63 1.51 1.54
0.24 0.38 0.77 0.70 0.70 0.85 0.85 0.36 0.28 0.50 0.74 0.43 0.28 0.35 0.41 0.47 0.67 0.86 0.84 0.61 0.64 0.78 0.97 1.34 1.12 0.69 0.59 0.66 0.62 0.73 0.77 0.86 1.09 1.34 1.39 1.46 1.76 1.95 2.31 2.03 1.89 2.20 1.92 1.71
0.23 0.46 0.53 0.62 0.80 0.62 0.34 0.42 0.42 0.60 0.73 0.32 0.26 0.30 0.49 0.66 0.81 1.21 1.10 0.96 0.83 0.79 0.70 0.63 0.93 1.08 0.80 0.65 0.57 0.55 0.75 0.89 1.25 1.26 1.40 1.37 1.32 1.53 1.88 2.08 2.15 2.01 2.07 1.88
0.47 0.52 0.71 0.74 0.80 0.54 0.32 0.50 0.53 0.57 0.37 0.26 0.33 0.43 0.38 0.74 1.03 1.21 1.08 0.85 0.61 0.47 0.33 0.22 0.23 0.43 0.76 0.75 0.66 0.54 0.51 0.76 0.79 0.96 1.02 1.06 1.22 1.20 1.20 1.20 1.45 1.63 1.79 1.80
1.40 0.93 0.95 0.64 0.53 0.52 0.41 0.46 0.41 0.28 0.28 0.41 0.49 0.92 0.81 1.01 1.35 1.39 1.08 0.76 0.53 0.35 0.20 0.11 0.07 0.09 0.18 0.30 0.44 0.59 0.65 0.53 0.57 0.55 0.58 0.71 0.68 0.77 0.88 0.92 0.99 0.94 0.95 1.04
0.77 0.44 0.63 0.61 0.45 0.40 0.55 0.33 0.23 0.18 0.23 0.36 0.73 1.09 1.56 1.46 1.40 1.16 0.78 0.53 0.36 0.22 0.16 0.09 0.07 0.10 0.16 0.18 0.22 0.32 0.43 0.50 0.51 0.49 0.48 0.45 0.49 0.56 0.56 0.61 0.73 0.79 0.85 0.90
0.68 0.40 0.32 0.46 0.74 0.52 0.34 0.31 0.34 0.36 0.28 0.32 0.48 0.65 0.68 0.64 0.62 0.53 0.41 0.31 0.20 0.16 0.13 0.09 0.09 0.10 0.15 0.11 0.14 0.19 0.18 0.17 0.19 0.21 0.24 0.30 0.32 0.35 0.41 0.51 0.60 0.61 0.85 0.86
0.89 0.93 0.57 0.75 1.39 1.12 0.64 0.39 0.44 0.56 0.61 0.47 0.41 0.53 0.57 0.39 0.43 0.38 0.39 0.34 0.31 0.27 0.21 0.16 0.13 0.11 0.15 0.17 0.23 0.27 0.28 0.28 0.31 0.35 0.35 0.36 0.36 0.40 0.45 0.50 0.61 0.73 0.80 0.79

GFSCGP_prec_precacc_120.txt.gz
Total_Precipitation_Accumulation
0.00 0.00 0.00 0.00 0.00 0.00 0.00 0.00 0.00 0.00 0.01 0.00 0.00 0.01 0.01 0.00 0.00 0.03 0.05 0.07 0.02 0.00 0.03 0.05 0.07 0.09 0.07 0.08 0.19 0.43 0.83 1.16 0.65 0.38 0.27 0.35 0.37 0.37 0.38 0.44 0.78 1.09 1.01 0.94
0.02 0.01 0.00 0.00 0.00 0.00 0.00 0.00 0.00 0.00 0.00 0.00 0.00 0.00 0.00 0.00 0.00 0.01 0.01 0.11 0.03 0.00 0.01 0.02 0.04 0.03 0.04 0.11 0.36 0.45 0.40 0.44 0.41 0.31 0.22 0.19 0.28 0.42 0.32 0.38 0.53 0.80 0.98 1.07
0.02 0.01 0.00 0.01 0.00 0.00 0.00 0.00 0.00 0.00 0.00 0.00 0.00 0.00 0.00 0.01 0.01 0.02 0.00 0.00 0.00 0.00 0.02 0.03 0.03 0.03 0.01 0.02 0.18 0.19 0.09 0.13 0.23 0.32 0.31 0.32 0.43 0.52 0.52 0.34 0.34 0.47 0.82 1.11
0.07 0.00 0.02 0.00 0.00 0.00 0.00 0.00 0.00 0.00 0.00 0.00 0.00 0.00 0.00 0.00 0.01 0.00 0.00 0.00 0.00 0.02 0.01 0.00 0.00 0.00 0.01 0.06 0.25 0.12 0.11 0.13 0.12 0.14 0.16 0.19 0.29 0.23 0.21 0.21 0.17 0.38 0.38 0.76
0.09 0.03 0.04 0.02 0.00 0.00 0.01 0.00 0.00 0.00 0.00 0.05 0.02 0.00 0.03 0.05 0.02 0.00 0.01 0.02 0.02 0.03 0.01 0.01 0.01 0.00 0.02 0.07 0.20 0.16 0.13 0.22 0.16 0.27 0.30 0.23 0.26 0.26 0.24 0.18 0.22 0.27 0.39 0.35
0.01 0.02 0.06 0.03 0.00 0.00 0.00 0.02 0.00 0.00 0.02 0.06 0.01 0.01 0.01 0.01 0.03 0.07 0.14 0.11 0.08 0.07 0.05 0.03 0.03 0.03 0.04 0.11 0.20 0.31 0.31 0.22 0.21 0.36 0.42 0.27 0.23 0.20 0.32 0.32 0.23 0.27 0.36 0.50
0.00 0.01 0.01 0.01 0.01 0.01 0.02 0.11 0.15 0.18 0.09 0.04 0.00 0.02 0.02 0.06 0.16 0.28 0.32 0.13 0.07 0.04 0.07 0.08 0.06 0.07 0.07 0.10 0.14 0.28 0.41 0.47 0.33 0.34 0.29 0.26 0.22 0.25 0.19 0.22 0.27 0.31 0.32 0.52
0.06 0.06 0.00 0.01 0.00 0.02 0.02 0.07 0.21 0.34 0.18 0.08 0.15 0.09 0.18 0.36 0.38 0.44 0.28 0.17 0.11 0.08 0.04 0.04 0.05 0.04 0.05 0.14 0.11 0.12 0.47 0.65 0.71 0.60 0.36 0.30 0.25 0.19 0.20 0.25 0.25 0.18 0.17 0.17
0.11 0.07 0.02 0.01 0.01 0.02 0.08 0.11 0.08 0.45 0.28 0.16 0.12 0.11 0.58 1.05 0.79 1.20 1.25 0.67 0.51 0.33 0.14 0.07 0.04 0.04 0.07 0.14 0.21 0.32 0.52 0.58 0.78 0.64 0.40 0.34 0.24 0.19 0.20 0.23 0.21 0.19 0.21 0.26
0.06 0.18 0.04 0.02 0.04 0.01 0.07 0.12 0.40 0.63 0.48 0.22 0.01 0.06 0.41 0.66 0.72 0.79 0.66 0.47 0.32 0.23 0.16 0.13 0.10 0.16 0.13 0.21 0.48 0.89 1.03 0.96 1.00 0.93 0.82 0.55 0.46 0.44 0.39 0.34 0.35 0.37 0.37 0.40
0.02 0.14 0.14 0.12 0.13 0.07 0.10 0.29 0.33 0.39 0.23 0.30 0.18 0.40 0.77 0.64 0.86 0.63 0.17 0.12 0.11 0.05 0.02 0.01 0.02 0.10 0.13 0.27 0.38 0.52 0.86 1.41 1.71 1.56 1.30 0.98 0.74 1.07 1.08 0.80 0.77 0.72 0.62 0.58
0.11 0.13 0.07 0.07 0.06 0.06 0.16 0.24 0.42 0.77 0.49 0.26 0.27 0.47 0.93 0.75 0.39 0.67 0.31 0.22 0.07 0.02 0.02 0.03 0.04 0.06 0.08 0.11 0.19 0.36 0.47 0.71 1.04 1.24 1.61 2.02 1.71 1.44 1.54 1.45 1.33 1.28 0.91 0.78
0.18 0.20 0.17 0.14 0.17 0.15 0.20 0.30 0.42 0.55 0.70 0.47 0.51 0.58 0.93 0.70 0.69 0.91 0.46 0.09 0.05 0.05 0.05 0.05 0.08 0.13 0.13 0.13 0.18 0.29 0.41 0.65 0.89 1.08 1.17 1.66 1.72 2.03 1.56 1.48 1.56 1.31 1.03 0.83
0.34 0.14 0.10 0.13 0.18 0.21 0.20 0.14 0.24 0.74 1.10 0.57 0.29 0.38 1.14 1.30 1.16 0.58 0.18 0.12 0.12 0.11 0.09 0.07 0.13 0.24 0.33 0.38 0.48 0.48 0.58 0.66 0.96 0.99 1.14 0.97 1.17 1.49 1.74 1.24 1.15 1.14 1.14 1.00
0.45 0.32 0.11 0.06 0.05 0.13 0.14 0.20 0.25 0.44 0.43 0.57 0.42 0.57 0.73 0.83 0.96 0.70 0.33 0.18 0.14 0.14 0.15 0.15 0.17 0.27 0.39 0.56 0.56 0.60 0.67 0.68 0.72 0.81 0.88 1.00 1.15 1.26 1.68 1.39 1.30 1.19 1.21 1.54
0.48 0.59 0.35 0.11 0.02 0.07 0.13 0.09 0.18 0.29 0.37 0.37 0.28 0.59 0.49 0.52 0.58 0.77 0.60 0.37 0.24 0.19 0.17 0.13 0.11 0.20 0.25 0.32 0.43 0.48 0.64 0.84 0.84 0.87 0.91 1.50 1.11 1.12 1.06 1.34 1.28 1.43 1.08 1.25
0.35 0.46 0.39 0.45 0.06 0.06 0.12 0.13 0.10 0.19 0.54 0.46 0.67 0.49 0.30 0.45 0.53 0.45 0.58 0.52 0.52 0.33 0.24 0.26 0.21 0.28 0.32 0.37 0.42 0.51 0.68 0.77 0.87 0.88 1.10 1.13 1.41 1.42 1.24 1.00 1.20 1.46 1.71 1.52
0.33 0.38 0.48 0.36 0.28 0.27 0.34 0.19 0.24 0.30 0.41 0.44 0.40 0.38 0.42 0.36 0.49 0.39 0.47 0.66 0.84 0.99 0.46 0.39 0.43 0.42 0.56 0.60 0.53 0.66 0.73 0.86 1.00 1.23 1.15 1.20 1.06 1.21 1.24 1.45 1.31 1.29 1.66 1.77
0.30 0.48 0.72 0.46 0.41 0.42 0.64 0.71 0.68 0.58 0.53 0.42 0.41 0.50 0.44 0.25 0.34 0.47 0.50 0.58 0.82 1.14 1.25 0.88 0.66 0.62 0.66 0.64 0.79 0.80 0.86 0.84 0.91 1.17 1.49 1.65 1.61 1.47 1.23 1.41 1.95 1.75 1.63 1.65
0.24 0.38 0.77 0.70 0.70 0.85 0.85 0.36 0.28 0.50 0.74 0.43 0.28 0.35 0.41 0.47 0.67 0.86 0.84 0.61 0.65 0.78 0.97 1.36 1.14 0.70 0.59 0.66 0.62 0.74 0.78 0.86 1.10 1.34 1.40 1.46 1.76 1.96 2.33 2.07 1.94 2.26 1.99 1.78
0.23 0.46 0.53 0.62 0.80 0.62 0.34 0.42 0.42 0.61 0.73 0.32 0.26 0.30 0.50 0.67 0.81 1.21 1.10 0.97 0.84 0.80 0.72 0.66 0.94 1.09 0.80 0.65 0.57 0.55 0.75 0.89 1.25 1.26 1.40 1.37 1.32 1.53 1.88 2.08 2.15 2.01 2.08 1.88
0.47 0.52 0.71 0.74 0.80 0.54 0.32 0.50 0.53 0.57 0.37 0.26 0.33 0.43 0.39 0.76 1.03 1.21 1.09 0.86 0.63 0.50 0.37 0.24 0.23 0.43 0.76 0.75 0.66 0.54 0.51 0.76 0.79 0.96 1.02 1.06 1.22 1.20 1.20 1.20 1.45 1.63 1.79 1.80
1.40 0.93 0.95 0.64 0.53 0.52 0.41 0.46 0.42 0.28 0.28 0.41 0.49 0.92 0.84 1.05 1.38 1.40 1.10 0.78 0.55 0.37 0.22 0.11 0.07 0.10 0.18 0.30 0.44 0.59 0.65 0.53 0.57 0.55 0.58 0.71 0.68 0.77 0.88 0.92 0.99 0.94 0.95 1.04
0.77 0.44 0.63 0.61 0.45 0.40 0.55 0.33 0.23 0.18 0.23 0.36 0.74 1.10 1.57 1.48 1.42 1.19 0.81 0.56 0.39 0.25 0.18 0.10 0.08 0.11 0.17 0.18 0.22 0.32 0.43 0.50 0.51 0.49 0.48 0.45 0.49 0.56 0.56 0.61 0.73 0.79 0.85 0.90
0.68 0.40 0.32 0.47 0.75 0.52 0.34 0.31 0.34 0.36 0.28 0.32 0.49 0.66 0.69 0.65 0.64 0.55 0.45 0.34 0.24 0.18 0.14 0.10 0.10 0.10 0.15 0.11 0.14 0.19 0.18 0.17 0.19 0.21 0.24 0.30 0.32 0.35 0.41 0.51 0.60 0.61 0.85 0.86
0.89 0.93 0.57 0.75 1.39 1.12 0.65 0.39 0.44 0.56 0.61 0.48 0.42 0.55 0.59 0.41 0.46 0.41 0.43 0.37 0.32 0.27 0.21 0.16 0.13 0.11 0.15 0.17 0.23 0.27 0.28 0.28 0.31 0.35 0.35 0.36 0.36 0.40 0.45 0.50 0.62 0.73 0.80 0.79

GFSCGP_prec_precacc_123.txt.gz
Total_Precipitation_Accumulation
0.00 0.00 0.00 0.00 0.00 0.00 0.00 0.00 0.00 0.00 0.01 0.00 0.00 0.01 0.01 0.00 0.00 0.03 0.05 0.07 0.02 0.00 0.03 0.05 0.07 0.09 0.07 0.08 0.19 0.43 0.83 1.16 0.65 0.38 0.27 0.35 0.37 0.37 0.38 0.44 0.78 1.09 1.01 1.01
0.02 0.01 0.00 0.00 0.00 0.00 0.00 0.00 0.00 0.00 0.00 0.00 0.00 0.00 0.00 0.00 0.00 0.01 0.01 0.11 0.03 0.00 0.01 0.02 0.04 0.03 0.04 0.11 0.36 0.45 0.40 0.44 0.41 0.31 0.22 0.19 0.28 0.42 0.32 0.38 0.53 0.80 0.98 1.07
0.02 0.01 0.00 0.01 0.00 0.00 0.00 0.00 0.00 0.00 0.00 0.00 0.00 0.00 0.00 0.01 0.01 0.02 0.00 0.00 0.00 0.00 0.02 0.03 0.03 0.03 0.01 0.02 0.18 0.19 0.09 0.13 0.23 0.32 0.31 0.32 0.43 0.52 0.52 0.34 0.34 0.47 0.82 1.11
0.07 0.00 0.02 0.00 0.00 0.00 0.00 0.00 0.00 0.00 0.00 0.00 0.00 0.00 0.00 0.00 0.01 0.00 0.00 0.00 0.00 0.02 0.01 0.00 0.00 0.00 0.02 0.06 0.25 0.12 0.11 0.13 0.12 0.14 0.16 0.19 0.29 0.23 0.21 0.21 0.17 0.38 0.38 0.76
0.09 0.03 0.04 0.02 0.00 0.00 0.01 0.00 0.00 0.00 0.00 0.05 0.02 0.00 0.03 0.05 0.02 0.00 0.01 0.02 0.02 0.03 0.02 0.02 0.02 0.01 0.03 0.07 0.20 0.16 0.13 0.22 0.16 0.27 0.30 0.23 0.26 0.26 0.24 0.18 0.22 0.27 0.39 0.35
0.01 0.02 0.06 0.03 0.00 0.00 0.00 0.02 0.00 0.00 0.02 0.07 0.01 0.01 0.01 0.01 0.03 0.07 0.14 0.11 0.08 0.07 0.05 0.04 0.04 0.04 0.05 0.11 0.20 0.31 0.31 0.22 0.21 0.36 0.42 0.27 0.23 0.20 0.32 0.32 0.23 0.27 0.36 0.50
0.00 0.01 0.01 0.01 0.01 0.01 0.02 0.11 0.17 0.19 0.09 0.04 0.00 0.02 0.02 0.06 0.16 0.28 0.32 0.14 0.08 0.06 0.08 0.08 0.07 0.07 0.07 0.10 0.14 0.28 0.41 0.47 0.33 0.34 0.29 0.26 0.22 0.25 0.19 0.22 0.27 0.31 0.32 0.52
0.06 0.06 0.00 0.01 0.00 0.02 0.02 0.07 0.25 0.35 0.18 0.08 0.15 0.09 0.18 0.36 0.38 0.44 0.32 0.24 0.19 0.23 0.23 0.20 0.14 0.09 0.08 0.15 0.11 0.12 0.47 0.65 0.71 0.60 0.36 0.30 0.25 0.19 0.20 0.25 0.25 0.18 0.17 0.17
0.11 0.07 0.02 0.01 0.01 0.02 0.08 0.11 0.09 0.47 0.28 0.16 0.12 0.11 0.58 1.05 0.79 1.22 1.33 0.82 0.67 0.55 0.43 0.27 0.16 0.12 0.12 0.16 0.23 0.33 0.53 0.58 0.78 0.64 0.40 0.34 0.24 0.19 0.20 0.23 0.21 0.19 0.21 0.26
0.06 0.18 0.04 0.02 0.04 0.01 0.07 0.12 0.40 0.63 0.48 0.22 0.01 0.06 0.41 0.67 0.72 0.79 0.66 0.49 0.34 0.25 0.17 0.14 0.12 0.17 0.14 0.23 0.49 0.89 1.04 0.96 1.00 0.93 0.82 0.55 0.46 0.44 0.39 0.34 0.35 0.37 0.37 0.40
0.02 0.14 0.14 0.12 0.13 0.07 0.10 0.29 0.33 0.39 0.23 0.30 0.18 0.40 0.77 0.64 0.86 0.63 0.17 0.12 0.11 0.05 0.02 0.01 0.02 0.10 0.13 0.27 0.38 0.52 0.86 1.41 1.71 1.56 1.30 0.98 0.74 1.07 1.08 0.80 0.77 0.72 0.62 0.58
0.11 0.14 0.07 0.07 0.06 0.06 0.16 0.24 0.42 0.77 0.49 0.26 0.27 0.47 0.93 0.75 0.39 0.67 0.31 0.22 0.07 0.02 0.02 0.03 0.04 0.06 0.08 0.11 0.19 0.36 0.47 0.71 1.04 1.24 1.61 2.02 1.71 1.44 1.55 1.45 1.33 1.28 0.91 0.78
0.19 0.20 0.18 0.14 0.17 0.15 0.20 0.30 0.42 0.55 0.71 0.48 0.51 0.58 0.94 0.71 0.70 0.91 0.46 0.09 0.05 0.05 0.05 0.05 0.08 0.13 0.13 0.13 0.18 0.29 0.41 0.65 0.89 1.08 1.17 1.66 1.73 2.03 1.56 1.48 1.56 1.32 1.03 0.83
0.34 0.14 0.10 0.13 0.18 0.21 0.20 0.14 0.24 0.74 1.11 0.57 0.29 0.38 1.14 1.30 1.16 0.58 0.18 0.12 0.12 0.11 0.09 0.07 0.13 0.24 0.33 0.38 0.48 0.48 0.58 0.66 0.96 0.99 1.14 0.97 1.17 1.50 1.75 1.24 1.15 1.15 1.15 1.00
0.46 0.32 0.11 0.06 0.05 0.13 0.14 0.20 0.25 0.44 0.43 0.59 0.42 0.57 0.73 0.83 0.96 0.70 0.33 0.18 0.14 0.14 0.15 0.15 0.17 0.27 0.39 0.56 0.56 0.60 0.67 0.69 0.72 0.81 0.88 1.00 1.16 1.27 1.70 1.41 1.33 1.23 1.24 1.55
0.48 0.60 0.35 0.11 0.02 0.07 0.13 0.09 0.18 0.29 0.37 0.37 0.28 0.59 0.49 0.52 0.58 0.77 0.60 0.37 0.24 0.19 0.17 0.13 0.11 0.20 0.26 0.32 0.43 0.48 0.64 0.84 0.84 0.87 0.93 1.52 1.14 1.16 1.12 1.43 1.37 1.50 1.11 1.28
0.35 0.47 0.41 0.47 0.06 0.06 0.12 0.13 0.10 0.19 0.54 0.46 0.67 0.49 0.30 0.45 0.53 0.45 0.58 0.52 0.52 0.33 0.24 0.27 0.22 0.30 0.33 0.37 0.42 0.51 0.68 0.77 0.87 0.89 1.12 1.15 1.45 1.47 1.31 1.08 1.25 1.51 1.77 1.59
0.33 0.38 0.50 0.37 0.28 0.28 0.34 0.19 0.24 0.30 0.41 0.44 0.40 0.38 0.42 0.36 0.49 0.39 0.47 0.66 0.84 0.99 0.46 0.40 0.44 0.43 0.57 0.60 0.53 0.66 0.73 0.86 1.00 1.23 1.17 1.22 1.09 1.26 1.31 1.52 1.39 1.39 1.78 1.89
0.30 0.48 0.73 0.46 0.41 0.42 0.64 0.71 0.68 0.58 0.53 0.42 0.41 0.50 0.44 0.25 0.34 0.48 0.50 0.58 0.82 1.15 1.27 0.89 0.67 0.62 0.66 0.64 0.79 0.80 0.86 0.85 0.91 1.18 1.51 1.67 1.62 1.48 1.25 1.45 2.00 1.83 1.71 1.74
0.25 0.38 0.77 0.70 0.70 0.85 0.85 0.36 0.28 0.50 0.74 0.43 0.28 0.35 0.41 0.47 0.67 0.86 0.84 0.61 0.65 0.79 0.99 1.38 1.15 0.70 0.59 0.66 0.62 0.74 0.78 0.87 1.11 1.35 1.40 1.46 1.76 1.96 2.33 2.07 1.94 2.26 2.00 1.81
0.24 0.46 0.53 0.62 0.80 0.62 0.34 0.42 0.42 0.61 0.73 0.32 0.26 0.30 0.50 0.67 0.81 1.21 1.10 0.97 0.85 0.81 0.74 0.67 0.95 1.09 0.80 0.65 0.57 0.55 0.75 0.90 1.26 1.26 1.40 1.37 1.32 1.53 1.88 2.08 2.15 2.01 2.08 1.88
0.47 0.52 0.71 0.74 0.80 0.54 0.32 0.50 0.53 0.57 0.37 0.26 0.33 0.43 0.39 0.77 1.04 1.22 1.09 0.87 0.65 0.53 0.41 0.27 0.24 0.44 0.76 0.75 0.66 0.55 0.51 0.76 0.79 0.96 1.02 1.06 1.22 1.20 1.20 1.20 1.45 1.63 1.79 1.80
1.40 0.93 0.95 0.64 0.53 0.52 0.41 0.46 0.42 0.28 0.28 0.41 0.49 0.92 0.84 1.07 1.41 1.43 1.12 0.81 0.58 0.41 0.26 0.14 0.08 0.11 0.19 0.31 0.44 0.59 0.65 0.53 0.57 0.55 0.58 0.71 0.68 0.77 0.88 0.92 0.99 0.94 0.95 1.04
0.77 0.44 0.63 0.61 0.45 0.40 0.55 0.33 0.23 0.18 0.23 0.36 0.74 1.10 1.57 1.49 1.43 1.21 0.83 0.59 0.42 0.29 0.22 0.13 0.09 0.12 0.17 0.18 0.22 0.32 0.43 0.50 0.51 0.49 0.48 0.45 0.49 0.56 0.56 0.61 0.73 0.79 0.85 0.90
0.68 0.40 0.32 0.47 0.75 0.52 0.34 0.31 0.34 0.36 0.28 0.32 0.49 0.66 0.69 0.65 0.65 0.56 0.47 0.37 0.27 0.22 0.17 0.11 0.10 0.10 0.15 0.11 0.14 0.19 0.18 0.17 0.19 0.21 0.24 0.30 0.32 0.35 0.41 0.51 0.60 0.61 0.85 0.86
0.89 0.93 0.57 0.75 1.39 1.12 0.65 0.39 0.44 0.56 0.61 0.48 0.42 0.56 0.60 0.41 0.47 0.41 0.45 0.40 0.34 0.28 0.21 0.16 0.13 0.11 0.15 0.17 0.23 0.27 0.28 0.28 0.31 0.35 0.35 0.36 0.36 0.40 0.45 0.50 0.62 0.73 0.80 0.79

GFSCGP_prec_precacc_129.txt.gz
Total_Precipitation_Accumulation
0.00 0.00 0.00 0.00 0.00 0.00 0.00 0.00 0.00 0.00 0.01 0.00 0.00 0.01 0.01 0.00 0.00 0.03 0.05 0.07 0.02 0.00 0.03 0.05 0.07 0.09 0.07 0.08 0.19 0.43 0.83 1.16 0.65 0.38 0.27 0.35 0.37 0.37 0.38 0.44 0.78 1.09 1.01 1.01
0.02 0.01 0.00 0.00 0.00 0.00 0.00 0.00 0.00 0.00 0.00 0.00 0.00 0.00 0.00 0.00 0.00 0.01 0.01 0.11 0.03 0.00 0.01 0.02 0.04 0.03 0.04 0.11 0.36 0.45 0.40 0.44 0.41 0.31 0.22 0.19 0.28 0.42 0.32 0.38 0.53 0.80 0.98 1.07
0.02 0.01 0.00 0.01 0.00 0.00 0.00 0.00 0.00 0.00 0.00 0.00 0.00 0.00 0.00 0.01 0.01 0.02 0.00 0.00 0.00 0.00 0.02 0.03 0.03 0.03 0.01 0.02 0.18 0.19 0.09 0.13 0.23 0.32 0.31 0.32 0.43 0.52 0.52 0.34 0.34 0.47 0.82 1.11
0.07 0.00 0.02 0.00 0.00 0.00 0.00 0.00 0.00 0.00 0.00 0.00 0.00 0.00 0.00 0.00 0.01 0.00 0.00 0.00 0.00 0.02 0.01 0.00 0.00 0.00 0.02 0.06 0.25 0.12 0.11 0.13 0.12 0.14 0.16 0.19 0.29 0.23 0.21 0.21 0.17 0.38 0.38 0.76
0.09 0.03 0.04 0.02 0.00 0.00 0.01 0.00 0.00 0.00 0.00 0.05 0.02 0.00 0.03 0.05 0.02 0.00 0.01 0.02 0.02 0.03 0.02 0.02 0.02 0.01 0.03 0.07 0.20 0.16 0.13 0.22 0.16 0.27 0.30 0.23 0.26 0.26 0.24 0.18 0.22 0.27 0.39 0.35
0.01 0.02 0.06 0.03 0.00 0.00 0.00 0.02 0.00 0.00 0.02 0.07 0.01 0.01 0.01 0.01 0.03 0.07 0.14 0.11 0.08 0.07 0.05 0.04 0.04 0.05 0.05 0.12 0.20 0.31 0.31 0.22 0.21 0.36 0.42 0.27 0.23 0.20 0.32 0.32 0.23 0.27 0.36 0.50
0.00 0.01 0.01 0.01 0.01 0.01 0.02 0.11 0.18 0.19 0.09 0.04 0.00 0.02 0.02 0.06 0.16 0.28 0.32 0.14 0.08 0.06 0.11 0.14 0.15 0.13 0.10 0.11 0.15 0.28 0.42 0.47 0.33 0.34 0.29 0.26 0.22 0.25 0.19 0.22 0.27 0.31 0.32 0.52
0.06 0.06 0.00 0.01 0.00 0.02 0.02 0.08 0.26 0.36 0.18 0.08 0.15 0.09 0.18 0.36 0.38 0.44 0.32 0.24 0.20 0.24 0.27 0.28 0.21 0.14 0.13 0.19 0.13 0.13 0.48 0.66 0.71 0.60 0.36 0.30 0.25 0.19 0.20 0.25 0.25 0.18 0.17 0.17
0.11 0.07 0.02 0.01 0.01 0.02 0.08 0.11 0.10 0.49 0.29 0.16 0.12 0.11 0.58 1.05 0.79 1.22 1.33 0.82 0.67 0.55 0.44 0.28 0.16 0.12 0.13 0.17 0.23 0.34 0.53 0.59 0.79 0.64 0.40 0.34 0.24 0.19 0.20 0.23 0.21 0.19 0.21 0.26
0.06 0.18 0.04 0.02 0.04 0.01 0.07 0.12 0.41 0.64 0.50 0.22 0.01 0.06 0.41 0.67 0.73 0.79 0.66 0.49 0.34 0.25 0.17 0.14 0.12 0.17 0.14 0.23 0.49 0.89 1.04 0.97 1.01 0.93 0.82 0.55 0.46 0.44 0.39 0.34 0.35 0.37 0.37 0.40
0.02 0.14 0.14 0.12 0.13 0.07 0.10 0.29 0.34 0.42 0.24 0.31 0.18 0.40 0.77 0.64 0.86 0.63 0.17 0.12 0.11 0.05 0.02 0.01 0.02 0.10 0.13 0.27 0.38 0.52 0.86 1.41 1.71 1.56 1.30 0.98 0.74 1.07 1.09 0.81 0.78 0.73 0.62 0.59
0.12 0.14 0.08 0.07 0.06 0.06 0.16 0.24 0.43 0.79 0.51 0.27 0.28 0.47 0.93 0.75 0.39 0.67 0.31 0.22 0.07 0.02 0.02 0.03 0.04 0.06 0.08 0.11 0.19 0.36 0.47 0.71 1.04 1.24 1.62 2.02 1.71 1.44 1.55 1.46 1.34 1.29 0.91 0.79
0.23 0.25 0.21 0.15 0.18 0.15 0.22 0.30 0.42 0.56 0.72 0.49 0.54 0.59 0.95 0.72 0.71 0.92 0.47 0.09 0.05 0.05 0.05 0.05 0.08 0.13 0.13 0.13 0.18 0.29 0.41 0.65 0.89 1.08 1.17 1.66 1.73 2.04 1.56 1.49 1.57 1.32 1.04 0.83
0.39 0.16 0.13 0.15 0.19 0.21 0.20 0.14 0.25 0.75 1.12 0.58 0.29 0.38 1.14 1.31 1.16 0.58 0.18 0.12 0.12 0.11 0.09 0.07 0.13 0.24 0.33 0.38 0.48 0.48 0.58 0.67 0.96 0.99 1.14 0.98 1.18 1.51 1.76 1.25 1.16 1.16 1.15 1.01
0.49 0.34 0.12 0.07 0.06 0.13 0.14 0.20 0.25 0.44 0.43 0.60 0.43 0.57 0.73 0.83 0.96 0.70 0.33 0.18 0.14 0.14 0.15 0.15 0.17 0.27 0.39 0.56 0.56 0.60 0.67 0.69 0.72 0.81 0.88 1.01 1.18 1.29 1.71 1.43 1.35 1.25 1.25 1.56
0.49 0.61 0.35 0.11 0.03 0.08 0.13 0.09 0.18 0.29 0.37 0.37 0.28 0.59 0.49 0.52 0.58 0.77 0.60 0.37 0.24 0.19 0.17 0.13 0.11 0.20 0.26 0.33 0.43 0.48 0.64 0.84 0.84 0.88 0.93 1.52 1.15 1.19 1.15 1.48 1.44 1.55 1.14 1.33
0.39 0.51 0.47 0.54 0.08 0.11 0.17 0.13 0.10 0.19 0.54 0.46 0.67 0.49 0.30 0.45 0.53 0.45 0.58 0.52 0.52 0.33 0.25 0.27 0.22 0.30 0.34 0.38 0.42 0.51 0.68 0.77 0.87 0.89 1.12 1.15 1.45 1.47 1.32 1.10 1.27 1.53 1.80 1.64
0.35 0.42 0.61 0.48 0.33 0.34 0.35 0.19 0.24 0.30 0.41 0.44 0.40 0.38 0.42 0.36 0.49 0.39 0.47 0.66 0.84 1.00 0.47 0.40 0.44 0.43 0.57 0.60 0.53 0.66 0.73 0.86 1.00 1.23 1.17 1.22 1.09 1.26 1.31 1.52 1.39 1.39 1.80 1.91
0.31 0.53 0.82 0.55 0.46 0.43 0.64 0.71 0.68 0.58 0.53 0.42 0.41 0.50 0.44 0.25 0.34 0.48 0.50 0.58 0.82 1.15 1.27 0.90 0.68 0.63 0.66 0.64 0.79 0.80 0.86 0.85 0.91 1.18 1.52 1.67 1.62 1.48 1.25 1.45 2.00 1.83 1.71 1.74
0.30 0.45 0.90 0.81 0.74 0.85 0.85 0.36 0.28 0.50 0.74 0.43 0.28 0.35 0.41 0.48 0.67 0.86 0.84 0.61 0.65 0.79 0.99 1.39 1.17 0.71 0.60 0.66 0.62 0.74 0.78 0.87 1.11 1.36 1.40 1.46 1.76 1.96 2.33 2.07 1.94 2.26 2.00 1.81
0.33 0.62 0.67 0.67 0.83 0.62 0.34 0.42 0.42 0.61 0.73 0.32 0.26 0.30 0.50 0.67 0.81 1.21 1.10 0.97 0.85 0.82 0.75 0.70 0.98 1.12 0.82 0.66 0.58 0.56 0.76 0.91 1.27 1.26 1.40 1.37 1.32 1.53 1.88 2.08 2.15 2.01 2.08 1.88
0.51 0.61 0.83 0.86 0.88 0.57 0.32 0.50 0.53 0.57 0.37 0.26 0.33 0.43 0.39 0.77 1.04 1.22 1.09 0.88 0.66 0.55 0.44 0.31 0.29 0.50 0.82 0.78 0.67 0.57 0.54 0.78 0.79 0.96 1.02 1.06 1.22 1.20 1.20 1.20 1.45 1.63 1.79 1.80
1.40 0.94 0.96 0.66 0.54 0.52 0.41 0.46 0.42 0.28 0.28 0.41 0.49 0.92 0.84 1.07 1.43 1.46 1.16 0.84 0.62 0.43 0.30 0.19 0.16 0.21 0.29 0.33 0.46 0.61 0.66 0.53 0.57 0.55 0.58 0.71 0.68 0.77 0.88 0.92 0.99 0.94 0.95 1.04
0.77 0.44 0.64 0.61 0.45 0.40 0.55 0.33 0.23 0.18 0.23 0.36 0.74 1.10 1.57 1.50 1.45 1.24 0.87 0.63 0.45 0.32 0.27 0.18 0.16 0.18 0.20 0.19 0.23 0.32 0.43 0.50 0.51 0.49 0.48 0.45 0.49 0.56 0.56 0.61 0.73 0.79 0.85 0.90
0.69 0.40 0.32 0.47 0.75 0.52 0.34 0.31 0.34 0.36 0.28 0.32 0.49 0.66 0.69 0.66 0.65 0.57 0.48 0.39 0.29 0.25 0.21 0.14 0.12 0.12 0.15 0.11 0.14 0.19 0.18 0.17 0.19 0.21 0.24 0.30 0.32 0.35 0.41 0.51 0.60 0.61 0.85 0.86
0.90 0.93 0.57 0.75 1.39 1.12 0.65 0.39 0.44 0.56 0.62 0.48 0.42 0.57 0.61 0.41 0.47 0.42 0.46 0.42 0.36 0.30 0.22 0.16 0.13 0.11 0.15 0.17 0.23 0.27 0.28 0.28 0.31 0.35 0.35 0.36 0.36 0.40 0.45 0.50 0.62 0.73 0.80 0.79

GFSCGP_prec_precacc_132.txt.gz
Total_Precipitation_Accumulation
0.00 0.00 0.00 0.00 0.00 0.00 0.00 0.00 0.00 0.00 0.01 0.00 0.00 0.01 0.01 0.00 0.00 0.03 0.05 0.07 0.02 0.00 0.03 0.05 0.07 0.09 0.07 0.08 0.19 0.43 0.83 1.16 0.65 0.38 0.27 0.35 0.37 0.37 0.38 0.44 0.78 1.09 1.01 1.01
0.02 0.01 0.00 0.00 0.00 0.00 0.00 0.00 0.00 0.00 0.00 0.00 0.00 0.00 0.00 0.00 0.00 0.01 0.01 0.11 0.03 0.00 0.01 0.02 0.04 0.03 0.04 0.11 0.36 0.45 0.40 0.44 0.41 0.31 0.22 0.19 0.28 0.42 0.32 0.38 0.53 0.80 0.98 1.07
0.02 0.01 0.00 0.01 0.00 0.00 0.00 0.00 0.00 0.00 0.00 0.00 0.00 0.00 0.00 0.01 0.01 0.02 0.00 0.00 0.00 0.00 0.02 0.03 0.03 0.03 0.01 0.02 0.18 0.19 0.09 0.13 0.23 0.32 0.31 0.32 0.43 0.52 0.52 0.34 0.34 0.47 0.82 1.11
0.07 0.00 0.02 0.00 0.00 0.00 0.00 0.00 0.00 0.00 0.00 0.00 0.00 0.00 0.00 0.00 0.01 0.00 0.00 0.00 0.00 0.02 0.01 0.00 0.00 0.00 0.02 0.06 0.25 0.12 0.11 0.13 0.12 0.14 0.16 0.19 0.29 0.23 0.21 0.21 0.17 0.38 0.38 0.76
0.09 0.03 0.04 0.02 0.00 0.00 0.01 0.00 0.00 0.00 0.00 0.05 0.02 0.00 0.03 0.05 0.02 0.00 0.01 0.02 0.02 0.03 0.02 0.02 0.02 0.01 0.03 0.07 0.20 0.16 0.13 0.22 0.16 0.27 0.30 0.23 0.26 0.26 0.24 0.18 0.22 0.27 0.39 0.35
0.01 0.02 0.06 0.03 0.00 0.00 0.00 0.02 0.00 0.00 0.02 0.07 0.01 0.01 0.01 0.01 0.03 0.07 0.14 0.11 0.08 0.07 0.05 0.04 0.04 0.05 0.05 0.12 0.20 0.31 0.31 0.22 0.21 0.36 0.42 0.27 0.23 0.20 0.32 0.32 0.23 0.27 0.36 0.50
0.00 0.01 0.01 0.01 0.01 0.01 0.02 0.11 0.18 0.19 0.09 0.04 0.00 0.02 0.02 0.06 0.16 0.28 0.32 0.14 0.08 0.06 0.11 0.14 0.15 0.13 0.10 0.11 0.15 0.28 0.42 0.47 0.33 0.34 0.29 0.26 0.22 0.25 0.19 0.22 0.27 0.31 0.32 0.52
0.06 0.06 0.00 0.01 0.00 0.02 0.02 0.08 0.26 0.36 0.18 0.08 0.15 0.09 0.18 0.36 0.38 0.44 0.32 0.24 0.20 0.24 0.27 0.28 0.21 0.14 0.13 0.19 0.13 0.13 0.48 0.66 0.71 0.60 0.36 0.30 0.25 0.19 0.20 0.25 0.25 0.18 0.17 0.17
0.11 0.07 0.02 0.01 0.01 0.02 0.08 0.11 0.10 0.49 0.29 0.17 0.12 0.11 0.58 1.05 0.79 1.22 1.33 0.82 0.67 0.55 0.44 0.28 0.16 0.12 0.13 0.17 0.23 0.34 0.53 0.59 0.79 0.64 0.40 0.34 0.24 0.19 0.20 0.23 0.21 0.19 0.21 0.26
0.06 0.18 0.04 0.02 0.04 0.01 0.07 0.12 0.42 0.68 0.52 0.23 0.01 0.06 0.41 0.67 0.73 0.79 0.66 0.49 0.34 0.25 0.17 0.14 0.12 0.17 0.14 0.23 0.49 0.89 1.04 0.97 1.01 0.93 0.82 0.55 0.46 0.45 0.39 0.34 0.35 0.38 0.38 0.40
0.02 0.14 0.14 0.12 0.13 0.07 0.10 0.29 0.34 0.46 0.27 0.34 0.19 0.40 0.77 0.64 0.86 0.63 0.17 0.12 0.11 0.05 0.02 0.01 0.02 0.10 0.13 0.27 0.38 0.52 0.86 1.41 1.71 1.56 1.30 0.98 0.75 1.07 1.09 0.81 0.78 0.73 0.62 0.59
0.12 0.14 0.08 0.07 0.06 0.06 0.16 0.24 0.45 0.85 0.56 0.32 0.32 0.48 0.93 0.75 0.39 0.67 0.31 0.22 0.07 0.02 0.02 0.03 0.04 0.06 0.08 0.11 0.19 0.36 0.47 0.71 1.04 1.24 1.62 2.02 1.72 1.44 1.55 1.46 1.34 1.29 0.92 0.79
0.24 0.26 0.21 0.15 0.18 0.16 0.22 0.31 0.44 0.59 0.79 0.54 0.61 0.60 0.95 0.72 0.71 0.92 0.47 0.09 0.05 0.05 0.05 0.05 0.08 0.13 0.13 0.13 0.18 0.29 0.41 0.65 0.89 1.08 1.17 1.66 1.73 2.04 1.57 1.49 1.57 1.32 1.04 0.83
0.41 0.17 0.14 0.16 0.19 0.23 0.22 0.15 0.26 0.78 1.16 0.60 0.30 0.38 1.14 1.31 1.17 0.58 0.18 0.12 0.12 0.11 0.09 0.07 0.13 0.24 0.33 0.38 0.48 0.48 0.58 0.67 0.96 0.99 1.14 0.98 1.18 1.51 1.76 1.26 1.16 1.16 1.15 1.01
0.50 0.34 0.12 0.07 0.06 0.13 0.14 0.20 0.25 0.45 0.44 0.62 0.43 0.57 0.73 0.83 0.96 0.70 0.33 0.18 0.14 0.14 0.15 0.15 0.17 0.27 0.39 0.56 0.56 0.60 0.67 0.69 0.72 0.81 0.88 1.01 1.18 1.29 1.71 1.43 1.36 1.26 1.25 1.56
0.50 0.62 0.35 0.11 0.03 0.08 0.13 0.09 0.18 0.29 0.37 0.37 0.28 0.59 0.49 0.52 0.58 0.77 0.60 0.37 0.24 0.19 0.17 0.13 0.11 0.20 0.26 0.33 0.43 0.48 0.64 0.84 0.84 0.88 0.93 1.52 1.15 1.19 1.15 1.48 1.44 1.55 1.14 1.33
0.40 0.52 0.49 0.55 0.08 0.12 0.18 0.13 0.10 0.19 0.54 0.46 0.68 0.49 0.30 0.45 0.53 0.45 0.58 0.52 0.52 0.33 0.25 0.27 0.22 0.30 0.34 0.38 0.42 0.51 0.68 0.77 0.87 0.89 1.12 1.15 1.45 1.47 1.32 1.10 1.27 1.53 1.80 1.64
0.36 0.44 0.66 0.50 0.36 0.38 0.36 0.19 0.24 0.30 0.41 0.44 0.40 0.38 0.42 0.36 0.49 0.39 0.47 0.66 0.84 1.00 0.47 0.41 0.45 0.43 0.57 0.60 0.53 0.66 0.73 0.86 1.00 1.23 1.17 1.22 1.09 1.26 1.31 1.52 1.39 1.39 1.80 1.91
0.31 0.53 0.85 0.58 0.47 0.44 0.64 0.71 0.68 0.58 0.53 0.42 0.41 0.50 0.44 0.25 0.34 0.48 0.50 0.58 0.82 1.15 1.27 0.90 0.68 0.63 0.66 0.64 0.79 0.80 0.86 0.85 0.91 1.18 1.52 1.67 1.62 1.48 1.25 1.45 2.00 1.83 1.71 1.74
0.30 0.46 0.94 0.83 0.76 0.85 0.85 0.36 0.28 0.50 0.74 0.43 0.28 0.35 0.41 0.48 0.67 0.86 0.84 0.61 0.65 0.79 0.99 1.39 1.17 0.71 0.60 0.66 0.62 0.74 0.78 0.87 1.11 1.36 1.40 1.46 1.76 1.96 2.33 2.07 1.94 2.26 2.00 1.81
0.35 0.66 0.74 0.71 0.88 0.62 0.34 0.42 0.42 0.61 0.73 0.32 0.26 0.30 0.50 0.67 0.81 1.21 1.10 0.97 0.85 0.82 0.75 0.70 0.98 1.12 0.83 0.66 0.58 0.56 0.76 0.91 1.27 1.26 1.40 1.37 1.32 1.53 1.88 2.08 2.15 2.01 2.08 1.88
0.52 0.66 0.89 0.92 0.99 0.62 0.32 0.50 0.53 0.57 0.37 0.26 0.33 0.43 0.39 0.77 1.04 1.22 1.09 0.89 0.67 0.56 0.44 0.31 0.29 0.50 0.83 0.78 0.67 0.57 0.54 0.78 0.79 0.96 1.02 1.06 1.22 1.20 1.21 1.20 1.45 1.63 1.79 1.80
1.41 0.95 0.98 0.68 0.57 0.53 0.41 0.46 0.42 0.28 0.28 0.41 0.49 0.92 0.84 1.07 1.43 1.46 1.16 0.85 0.62 0.44 0.30 0.19 0.16 0.21 0.29 0.34 0.46 0.61 0.66 0.53 0.57 0.55 0.58 0.71 0.68 0.77 0.88 0.92 0.99 0.94 0.95 1.04
0.78 0.44 0.64 0.62 0.46 0.41 0.56 0.33 0.23 0.18 0.23 0.36 0.74 1.10 1.57 1.50 1.45 1.25 0.88 0.63 0.46 0.33 0.27 0.18 0.16 0.19 0.20 0.19 0.23 0.32 0.43 0.50 0.51 0.49 0.48 0.45 0.49 0.56 0.56 0.61 0.73 0.79 0.86 0.91
0.69 0.41 0.34 0.51 0.76 0.54 0.36 0.31 0.34 0.36 0.28 0.32 0.49 0.66 0.69 0.66 0.66 0.57 0.48 0.39 0.29 0.25 0.21 0.14 0.12 0.12 0.15 0.11 0.14 0.19 0.18 0.17 0.19 0.21 0.24 0.30 0.32 0.35 0.41 0.51 0.60 0.61 0.85 0.86
0.90 0.94 0.59 0.77 1.39 1.12 0.65 0.39 0.44 0.56 0.62 0.48 0.42 0.57 0.61 0.41 0.47 0.42 0.46 0.42 0.36 0.30 0.23 0.16 0.13 0.11 0.15 0.17 0.23 0.27 0.28 0.28 0.31 0.35 0.35 0.36 0.36 0.40 0.45 0.50 0.62 0.73 0.80 0.79

GFSCGP_prec_precacc_138.txt.gz
Total_Precipitation_Accumulation
0.00 0.00 0.00 0.00 0.00 0.00 0.00 0.00 0.00 0.00 0.01 0.00 0.00 0.01 0.01 0.00 0.00 0.03 0.05 0.07 0.02 0.00 0.03 0.05 0.07 0.09 0.07 0.08 0.19 0.43 0.83 1.16 0.65 0.38 0.27 0.35 0.37 0.37 0.38 0.44 0.78 1.09 1.01 1.01
0.02 0.01 0.00 0.00 0.00 0.00 0.00 0.00 0.00 0.00 0.00 0.00 0.00 0.00 0.00 0.00 0.00 0.01 0.01 0.11 0.03 0.00 0.01 0.02 0.04 0.03 0.04 0.11 0.36 0.45 0.40 0.44 0.41 0.31 0.22 0.19 0.28 0.42 0.32 0.38 0.53 0.80 0.98 1.07
0.02 0.01 0.00 0.01 0.00 0.00 0.00 0.00 0.00 0.00 0.00 0.00 0.00 0.00 0.00 0.01 0.01 0.02 0.00 0.00 0.00 0.00 0.02 0.03 0.03 0.03 0.01 0.02 0.18 0.19 0.09 0.13 0.23 0.32 0.31 0.32 0.43 0.52 0.52 0.34 0.34 0.47 0.82 1.11
0.07 0.00 0.02 0.00 0.00 0.00 0.00 0.00 0.00 0.00 0.00 0.00 0.00 0.00 0.00 0.00 0.01 0.00 0.00 0.00 0.00 0.02 0.01 0.00 0.00 0.00 0.02 0.06 0.25 0.12 0.11 0.13 0.12 0.14 0.16 0.19 0.29 0.23 0.21 0.21 0.17 0.38 0.38 0.76
0.09 0.03 0.04 0.02 0.00 0.00 0.01 0.00 0.00 0.00 0.00 0.05 0.02 0.00 0.03 0.05 0.02 0.00 0.01 0.02 0.02 0.03 0.02 0.02 0.02 0.01 0.03 0.07 0.20 0.16 0.13 0.22 0.16 0.27 0.30 0.23 0.26 0.26 0.24 0.18 0.22 0.27 0.39 0.35
0.01 0.02 0.06 0.03 0.00 0.00 0.00 0.02 0.00 0.00 0.02 0.07 0.01 0.01 0.01 0.01 0.03 0.07 0.14 0.11 0.08 0.07 0.05 0.04 0.04 0.05 0.05 0.12 0.20 0.31 0.31 0.22 0.21 0.36 0.42 0.27 0.23 0.20 0.32 0.32 0.23 0.27 0.36 0.50
0.00 0.01 0.01 0.01 0.01 0.01 0.02 0.11 0.18 0.19 0.09 0.04 0.00 0.02 0.02 0.06 0.16 0.28 0.32 0.14 0.08 0.06 0.11 0.14 0.15 0.13 0.10 0.11 0.15 0.28 0.42 0.47 0.33 0.34 0.29 0.26 0.22 0.25 0.19 0.22 0.27 0.31 0.32 0.52
0.06 0.06 0.00 0.01 0.00 0.02 0.02 0.08 0.26 0.36 0.18 0.08 0.15 0.09 0.18 0.36 0.38 0.44 0.32 0.24 0.20 0.24 0.27 0.28 0.21 0.14 0.13 0.19 0.13 0.13 0.48 0.66 0.71 0.60 0.36 0.30 0.25 0.19 0.20 0.25 0.25 0.18 0.17 0.17
0.11 0.07 0.02 0.01 0.01 0.02 0.08 0.11 0.10 0.50 0.29 0.17 0.12 0.11 0.58 1.05 0.79 1.22 1.33 0.82 0.67 0.55 0.44 0.28 0.16 0.12 0.13 0.17 0.23 0.34 0.53 0.59 0.79 0.64 0.40 0.34 0.24 0.19 0.20 0.23 0.21 0.19 0.21 0.26
0.06 0.18 0.04 0.02 0.04 0.01 0.07 0.12 0.42 0.70 0.57 0.25 0.01 0.06 0.41 0.67 0.73 0.79 0.66 0.49 0.34 0.25 0.17 0.14 0.12 0.17 0.14 0.23 0.49 0.89 1.04 0.97 1.01 0.93 0.82 0.55 0.46 0.45 0.39 0.34 0.35 0.38 0.38 0.40
0.02 0.14 0.14 0.12 0.13 0.07 0.10 0.30 0.35 0.48 0.29 0.36 0.20 0.40 0.77 0.65 0.86 0.64 0.19 0.16 0.14 0.06 0.03 0.01 0.02 0.10 0.13 0.27 0.38 0.52 0.86 1.41 1.71 1.56 1.30 0.98 0.75 1.07 1.09 0.81 0.78 0.73 0.62 0.59
0.12 0.14 0.08 0.07 0.06 0.06 0.16 0.24 0.46 0.95 0.63 0.38 0.44 0.57 0.93 0.76 0.40 0.68 0.32 0.24 0.10 0.08 0.06 0.03 0.04 0.06 0.08 0.11 0.19 0.36 0.47 0.71 1.04 1.24 1.62 2.02 1.72 1.44 1.55 1.46 1.34 1.29 0.92 0.79
0.24 0.26 0.21 0.15 0.18 0.16 0.23 0.31 0.44 0.62 0.85 0.60 0.71 0.65 0.95 0.72 0.71 0.92 0.48 0.10 0.06 0.10 0.11 0.07 0.08 0.13 0.13 0.13 0.18 0.29 0.41 0.65 0.89 1.08 1.17 1.66 1.73 2.04 1.57 1.49 1.58 1.33 1.04 0.84
0.41 0.17 0.14 0.16 0.19 0.24 0.24 0.17 0.28 0.85 1.30 0.68 0.34 0.40 1.14 1.31 1.19 0.59 0.20 0.15 0.15 0.22 0.22 0.09 0.13 0.24 0.33 0.38 0.48 0.48 0.58 0.67 0.96 0.99 1.14 0.98 1.18 1.51 1.76 1.26 1.16 1.16 1.16 1.01
0.50 0.34 0.13 0.07 0.06 0.13 0.14 0.20 0.25 0.45 0.45 0.67 0.44 0.59 0.73 0.83 0.96 0.72 0.37 0.23 0.24 0.28 0.23 0.17 0.17 0.27 0.39 0.56 0.56 0.60 0.67 0.69 0.72 0.81 0.88 1.01 1.18 1.29 1.71 1.43 1.36 1.26 1.25 1.56
0.51 0.62 0.36 0.11 0.03 0.08 0.13 0.09 0.18 0.29 0.37 0.37 0.28 0.59 0.49 0.53 0.58 0.77 0.60 0.41 0.30 0.27 0.19 0.13 0.11 0.20 0.26 0.33 0.43 0.48 0.64 0.84 0.84 0.88 0.93 1.52 1.15 1.19 1.15 1.48 1.44 1.55 1.14 1.33
0.42 0.56 0.54 0.57 0.09 0.15 0.19 0.13 0.10 0.19 0.54 0.46 0.68 0.49 0.30 0.45 0.56 0.47 0.59 0.53 0.56 0.37 0.27 0.27 0.22 0.30 0.34 0.38 0.42 0.51 0.68 0.77 0.87 0.89 1.12 1.15 1.45 1.47 1.32 1.10 1.27 1.53 1.81 1.64
0.36 0.46 0.70 0.53 0.39 0.47 0.36 0.19 0.24 0.30 0.41 0.44 0.40 0.38 0.42 0.37 0.51 0.41 0.49 0.67 0.87 1.00 0.47 0.41 0.45 0.43 0.57 0.60 0.53 0.66 0.73 0.86 1.00 1.23 1.17 1.22 1.09 1.26 1.31 1.52 1.39 1.40 1.80 1.91
0.31 0.54 0.88 0.61 0.49 0.45 0.64 0.71 0.68 0.59 0.53 0.42 0.41 0.50 0.44 0.26 0.35 0.49 0.51 0.58 0.82 1.15 1.27 0.90 0.68 0.63 0.66 0.64 0.79 0.80 0.86 0.85 0.91 1.18 1.52 1.67 1.62 1.48 1.25 1.45 2.01 1.83 1.72 1.75
0.31 0.46 0.97 0.85 0.78 0.86 0.85 0.36 0.28 0.51 0.75 0.43 0.28 0.35 0.41 0.49 0.69 0.88 0.84 0.61 0.66 0.79 1.00 1.39 1.17 0.71 0.60 0.66 0.62 0.74 0.78 0.87 1.11 1.36 1.40 1.47 1.76 1.96 2.33 2.07 1.94 2.27 2.00 1.82
0.43 0.75 0.82 0.76 0.96 0.64 0.34 0.42 0.42 0.62 0.74 0.32 0.26 0.30 0.50 0.68 0.81 1.21 1.10 0.98 0.85 0.82 0.75 0.70 0.99 1.13 0.83 0.67 0.58 0.56 0.76 0.91 1.27 1.26 1.40 1.38 1.32 1.53 1.88 2.09 2.16 2.01 2.08 1.88
0.53 0.72 0.96 1.05 1.14 0.69 0.34 0.51 0.54 0.59 0.38 0.27 0.33 0.43 0.39 0.77 1.05 1.23 1.10 0.89 0.67 0.56 0.45 0.31 0.30 0.51 0.83 0.78 0.67 0.57 0.54 0.78 0.79 0.96 1.02 1.06 1.23 1.20 1.21 1.21 1.45 1.63 1.79 1.80
1.43 0.97 1.01 0.75 0.64 0.58 0.44 0.48 0.42 0.28 0.28 0.41 0.49 0.92 0.84 1.07 1.43 1.46 1.17 0.85 0.63 0.45 0.31 0.20 0.16 0.22 0.30 0.34 0.46 0.61 0.67 0.53 0.57 0.55 0.58 0.71 0.68 0.77 0.88 0.92 0.99 0.94 0.95 1.04
0.84 0.48 0.71 0.69 0.48 0.42 0.58 0.36 0.25 0.19 0.24 0.36 0.74 1.10 1.57 1.50 1.45 1.25 0.88 0.64 0.47 0.34 0.28 0.19 0.16 0.19 0.20 0.19 0.23 0.32 0.43 0.50 0.51 0.49 0.48 0.45 0.49 0.56 0.56 0.61 0.73 0.79 0.86 0.91
0.79 0.51 0.42 0.58 0.83 0.59 0.43 0.35 0.37 0.38 0.30 0.33 0.49 0.66 0.69 0.66 0.66 0.58 0.49 0.40 0.30 0.26 0.22 0.14 0.13 0.12 0.15 0.11 0.14 0.19 0.18 0.17 0.19 0.21 0.24 0.30 0.32 0.35 0.41 0.51 0.60 0.61 0.85 0.86
0.92 0.99 0.64 0.81 1.44 1.16 0.69 0.41 0.44 0.56 0.62 0.48 0.42 0.57 0.61 0.41 0.47 0.43 0.47 0.42 0.37 0.31 0.23 0.16 0.13 0.11 0.15 0.17 0.23 0.27 0.28 0.28 0.31 0.35 0.35 0.36 0.36 0.40 0.45 0.50 0.62 0.73 0.80 0.79

GFSCGP_prec_precacc_141.txt.gz
Total_Precipitation_Accumulation
0.00 0.00 0.00 0.00 0.00 0.00 0.00 0.00 0.00 0.00 0.01 0.00 0.00 0.01 0.01 0.00 0.00 0.03 0.05 0.07 0.02 0.00 0.03 0.05 0.07 0.09 0.07 0.08 0.19 0.43 0.83 1.16 0.65 0.38 0.27 0.35 0.37 0.37 0.38 0.44 0.78 1.09 1.01 1.01
0.02 0.01 0.00 0.00 0.00 0.00 0.00 0.00 0.00 0.00 0.00 0.00 0.00 0.00 0.00 0.00 0.00 0.01 0.01 0.11 0.03 0.00 0.01 0.02 0.04 0.03 0.04 0.11 0.36 0.45 0.40 0.44 0.41 0.31 0.22 0.19 0.28 0.42 0.32 0.38 0.53 0.80 0.98 1.07
0.02 0.01 0.00 0.01 0.00 0.00 0.00 0.00 0.00 0.00 0.00 0.00 0.00 0.00 0.00 0.01 0.01 0.02 0.00 0.00 0.00 0.00 0.02 0.03 0.03 0.03 0.01 0.02 0.18 0.19 0.09 0.13 0.23 0.32 0.31 0.32 0.43 0.52 0.52 0.34 0.34 0.47 0.82 1.11
0.07 0.00 0.02 0.00 0.00 0.00 0.00 0.00 0.00 0.00 0.00 0.00 0.00 0.00 0.00 0.00 0.01 0.00 0.00 0.00 0.00 0.02 0.01 0.00 0.00 0.00 0.02 0.06 0.25 0.12 0.11 0.13 0.12 0.14 0.16 0.19 0.29 0.23 0.21 0.21 0.17 0.38 0.38 0.76
0.09 0.03 0.04 0.02 0.00 0.00 0.01 0.00 0.00 0.00 0.00 0.05 0.02 0.00 0.03 0.05 0.02 0.00 0.01 0.02 0.02 0.03 0.02 0.02 0.02 0.01 0.03 0.07 0.20 0.16 0.13 0.22 0.16 0.27 0.30 0.23 0.26 0.26 0.24 0.18 0.22 0.27 0.39 0.35
0.01 0.02 0.06 0.03 0.00 0.00 0.00 0.02 0.00 0.00 0.02 0.07 0.01 0.01 0.01 0.01 0.03 0.07 0.14 0.11 0.08 0.07 0.05 0.04 0.04 0.05 0.05 0.12 0.20 0.31 0.31 0.22 0.21 0.36 0.42 0.27 0.23 0.20 0.32 0.32 0.23 0.27 0.36 0.50
0.00 0.01 0.01 0.01 0.01 0.01 0.02 0.11 0.18 0.19 0.09 0.04 0.00 0.02 0.02 0.06 0.16 0.28 0.32 0.14 0.08 0.06 0.11 0.14 0.15 0.13 0.10 0.11 0.15 0.28 0.42 0.47 0.33 0.34 0.29 0.26 0.22 0.25 0.19 0.22 0.27 0.31 0.32 0.52
0.06 0.06 0.00 0.01 0.00 0.02 0.02 0.08 0.26 0.36 0.18 0.08 0.15 0.09 0.18 0.36 0.38 0.44 0.32 0.24 0.20 0.24 0.27 0.28 0.21 0.14 0.13 0.19 0.13 0.13 0.48 0.66 0.71 0.60 0.36 0.30 0.25 0.19 0.20 0.25 0.25 0.18 0.17 0.17
0.11 0.07 0.02 0.01 0.01 0.02 0.08 0.11 0.10 0.50 0.29 0.17 0.12 0.11 0.58 1.05 0.79 1.22 1.33 0.82 0.67 0.55 0.44 0.28 0.16 0.12 0.13 0.17 0.23 0.34 0.53 0.59 0.79 0.64 0.40 0.34 0.24 0.19 0.20 0.23 0.21 0.19 0.21 0.26
0.06 0.18 0.04 0.02 0.04 0.01 0.07 0.12 0.42 0.70 0.57 0.25 0.01 0.06 0.41 0.67 0.73 0.80 0.67 0.51 0.37 0.29 0.17 0.14 0.12 0.17 0.14 0.23 0.49 0.89 1.04 0.97 1.01 0.93 0.82 0.55 0.46 0.45 0.39 0.34 0.35 0.38 0.38 0.40
0.02 0.14 0.14 0.12 0.13 0.07 0.10 0.30 0.35 0.48 0.29 0.37 0.20 0.40 0.77 0.65 0.86 0.64 0.20 0.18 0.19 0.21 0.18 0.12 0.04 0.10 0.13 0.27 0.38 0.52 0.86 1.41 1.71 1.56 1.30 0.98 0.75 1.07 1.09 0.81 0.78 0.73 0.62 0.59
0.12 0.14 0.08 0.07 0.06 0.06 0.16 0.24 0.46 0.96 0.64 0.39 0.45 0.58 0.93 0.76 0.40 0.69 0.32 0.24 0.11 0.13 0.19 0.14 0.10 0.09 0.09 0.11 0.19 0.36 0.47 0.71 1.04 1.24 1.62 2.02 1.72 1.44 1.55 1.46 1.34 1.29 0.92 0.79
0.24 0.26 0.21 0.15 0.18 0.16 0.23 0.31 0.44 0.62 0.85 0.61 0.73 0.65 0.95 0.72 0.71 0.92 0.48 0.10 0.07 0.16 0.23 0.19 0.16 0.18 0.17 0.14 0.18 0.29 0.41 0.65 0.89 1.08 1.17 1.66 1.73 2.04 1.57 1.49 1.58 1.33 1.04 0.84
0.41 0.17 0.14 0.16 0.19 0.24 0.24 0.17 0.28 0.85 1.31 0.69 0.35 0.40 1.14 1.31 1.19 0.59 0.20 0.15 0.15 0.22 0.27 0.20 0.23 0.33 0.41 0.43 0.48 0.48 0.58 0.67 0.96 0.99 1.14 0.98 1.18 1.51 1.76 1.26 1.16 1.16 1.16 1.01
0.50 0.34 0.13 0.07 0.06 0.13 0.14 0.20 0.25 0.45 0.45 0.68 0.44 0.59 0.73 0.83 0.96 0.72 0.37 0.23 0.24 0.28 0.24 0.20 0.23 0.31 0.42 0.57 0.56 0.60 0.67 0.69 0.72 0.81 0.88 1.01 1.18 1.29 1.71 1.43 1.36 1.26 1.25 1.56
0.51 0.62 0.36 0.11 0.03 0.08 0.13 0.09 0.18 0.29 0.37 0.37 0.28 0.59 0.49 0.53 0.58 0.77 0.60 0.41 0.31 0.29 0.22 0.16 0.13 0.21 0.26 0.33 0.43 0.48 0.64 0.84 0.84 0.88 0.93 1.52 1.15 1.19 1.15 1.48 1.44 1.55 1.14 1.33
0.44 0.58 0.56 0.58 0.09 0.16 0.19 0.13 0.10 0.19 0.54 0.46 0.68 0.49 0.30 0.45 0.56 0.47 0.59 0.54 0.58 0.41 0.31 0.29 0.23 0.30 0.34 0.38 0.42 0.51 0.68 0.77 0.87 0.89 1.12 1.15 1.45 1.47 1.32 1.10 1.27 1.53 1.81 1.64
0.37 0.46 0.73 0.54 0.40 0.49 0.36 0.19 0.24 0.30 0.41 0.44 0.40 0.38 0.42 0.37 0.51 0.41 0.49 0.68 0.92 1.09 0.51 0.42 0.45 0.43 0.57 0.60 0.53 0.66 0.73 0.86 1.00 1.23 1.17 1.22 1.09 1.26 1.31 1.52 1.39 1.40 1.80 1.91
0.31 0.54 0.88 0.62 0.49 0.45 0.64 0.71 0.68 0.59 0.53 0.42 0.41 0.50 0.44 0.26 0.35 0.49 0.51 0.59 0.84 1.16 1.27 0.90 0.68 0.63 0.66 0.64 0.79 0.80 0.86 0.85 0.91 1.18 1.52 1.67 1.62 1.48 1.25 1.45 2.01 1.83 1.72 1.75
0.31 0.46 0.98 0.85 0.78 0.86 0.85 0.36 0.28 0.51 0.76 0.43 0.28 0.35 0.41 0.51 0.72 0.90 0.87 0.62 0.66 0.79 1.00 1.39 1.17 0.71 0.60 0.66 0.62 0.74 0.78 0.87 1.11 1.36 1.40 1.47 1.76 1.96 2.33 2.07 1.94 2.27 2.00 1.82
0.43 0.76 0.83 0.77 0.97 0.64 0.34 0.42 0.43 0.63 0.74 0.32 0.26 0.30 0.50 0.68 0.82 1.22 1.10 0.98 0.85 0.82 0.75 0.70 0.99 1.13 0.83 0.67 0.58 0.56 0.76 0.91 1.27 1.26 1.40 1.38 1.32 1.53 1.88 2.09 2.16 2.01 2.08 1.88
0.53 0.73 0.98 1.09 1.19 0.74 0.34 0.51 0.57 0.61 0.40 0.28 0.34 0.43 0.39 0.77 1.05 1.23 1.10 0.89 0.67 0.56 0.45 0.31 0.30 0.51 0.83 0.78 0.67 0.57 0.54 0.78 0.79 0.96 1.02 1.06 1.23 1.20 1.21 1.21 1.45 1.63 1.79 1.80
1.45 0.98 1.01 0.77 0.65 0.58 0.44 0.48 0.43 0.29 0.29 0.41 0.49 0.92 0.84 1.07 1.43 1.46 1.17 0.85 0.63 0.45 0.31 0.20 0.16 0.22 0.30 0.34 0.46 0.61 0.67 0.53 0.57 0.55 0.58 0.71 0.68 0.77 0.88 0.92 0.99 0.94 0.95 1.04
0.84 0.50 0.74 0.74 0.51 0.44 0.60 0.37 0.27 0.21 0.25 0.37 0.74 1.10 1.57 1.50 1.45 1.25 0.88 0.64 0.47 0.34 0.28 0.19 0.16 0.20 0.21 0.19 0.23 0.32 0.43 0.50 0.51 0.49 0.48 0.45 0.49 0.56 0.56 0.61 0.73 0.79 0.86 0.91
0.79 0.53 0.46 0.64 0.89 0.63 0.47 0.43 0.48 0.43 0.31 0.33 0.49 0.66 0.69 0.66 0.66 0.58 0.49 0.40 0.30 0.26 0.22 0.14 0.13 0.12 0.15 0.11 0.14 0.19 0.18 0.17 0.19 0.21 0.24 0.30 0.32 0.35 0.41 0.51 0.60 0.61 0.85 0.86
0.92 0.99 0.67 0.88 1.52 1.20 0.72 0.44 0.46 0.57 0.62 0.48 0.42 0.57 0.61 0.41 0.47 0.43 0.47 0.42 0.37 0.31 0.23 0.16 0.13 0.11 0.15 0.17 0.23 0.27 0.28 0.28 0.31 0.35 0.35 0.36 0.36 0.40 0.45 0.50 0.62 0.73 0.80 0.79

GFSCGP_prec_precacc_144.txt.gz
Total_Precipitation_Accumulation
0.00 0.00 0.00 0.00 0.00 0.00 0.00 0.00 0.00 0.00 0.01 0.00 0.00 0.01 0.01 0.00 0.00 0.03 0.05 0.07 0.02 0.00 0.03 0.05 0.07 0.09 0.07 0.08 0.19 0.43 0.83 1.16 0.65 0.38 0.27 0.35 0.37 0.37 0.38 0.44 0.78 1.09 1.01 1.01
0.02 0.01 0.00 0.00 0.00 0.00 0.00 0.00 0.00 0.00 0.00 0.00 0.00 0.00 0.00 0.00 0.00 0.01 0.01 0.11 0.03 0.00 0.01 0.02 0.04 0.03 0.04 0.11 0.36 0.45 0.40 0.44 0.41 0.31 0.22 0.19 0.28 0.42 0.32 0.38 0.53 0.80 0.98 1.07
0.02 0.01 0.00 0.01 0.00 0.00 0.00 0.00 0.00 0.00 0.00 0.00 0.00 0.00 0.00 0.01 0.01 0.02 0.00 0.00 0.00 0.00 0.02 0.03 0.03 0.03 0.01 0.02 0.18 0.19 0.09 0.13 0.23 0.32 0.31 0.32 0.43 0.52 0.52 0.34 0.34 0.47 0.82 1.11
0.07 0.00 0.02 0.00 0.00 0.00 0.00 0.00 0.00 0.00 0.00 0.00 0.00 0.00 0.00 0.00 0.01 0.00 0.00 0.00 0.00 0.02 0.01 0.00 0.00 0.00 0.02 0.06 0.25 0.12 0.11 0.13 0.12 0.14 0.16 0.19 0.29 0.23 0.21 0.21 0.17 0.38 0.38 0.76
0.09 0.03 0.04 0.02 0.00 0.00 0.01 0.00 0.00 0.00 0.00 0.05 0.02 0.00 0.03 0.05 0.02 0.00 0.01 0.02 0.02 0.03 0.02 0.02 0.02 0.01 0.03 0.07 0.20 0.16 0.13 0.22 0.16 0.27 0.30 0.23 0.26 0.26 0.24 0.18 0.22 0.27 0.39 0.35
0.01 0.02 0.06 0.03 0.00 0.00 0.00 0.02 0.00 0.00 0.02 0.07 0.01 0.01 0.01 0.01 0.03 0.07 0.14 0.11 0.08 0.07 0.05 0.04 0.04 0.05 0.05 0.12 0.20 0.31 0.31 0.22 0.21 0.36 0.42 0.27 0.23 0.20 0.32 0.32 0.23 0.27 0.36 0.50
0.00 0.01 0.01 0.01 0.01 0.01 0.02 0.11 0.18 0.19 0.09 0.04 0.00 0.02 0.02 0.06 0.16 0.28 0.32 0.14 0.08 0.06 0.11 0.14 0.15 0.13 0.10 0.11 0.15 0.28 0.42 0.47 0.33 0.34 0.29 0.26 0.22 0.25 0.19 0.22 0.27 0.31 0.32 0.52
0.06 0.06 0.00 0.01 0.00 0.02 0.02 0.08 0.26 0.36 0.18 0.08 0.15 0.09 0.18 0.36 0.38 0.44 0.32 0.24 0.20 0.24 0.27 0.28 0.21 0.14 0.13 0.19 0.13 0.13 0.48 0.66 0.71 0.60 0.36 0.30 0.25 0.19 0.20 0.25 0.25 0.18 0.17 0.17
0.11 0.07 0.02 0.01 0.01 0.02 0.08 0.11 0.10 0.50 0.29 0.17 0.12 0.11 0.58 1.05 0.79 1.22 1.33 0.82 0.67 0.55 0.44 0.28 0.16 0.12 0.13 0.17 0.23 0.34 0.53 0.59 0.79 0.64 0.40 0.34 0.24 0.19 0.20 0.23 0.21 0.19 0.21 0.26
0.06 0.18 0.04 0.02 0.04 0.01 0.07 0.12 0.42 0.70 0.57 0.25 0.01 0.06 0.41 0.67 0.73 0.80 0.68 0.52 0.40 0.31 0.21 0.17 0.12 0.17 0.14 0.23 0.49 0.89 1.04 0.97 1.01 0.93 0.82 0.55 0.46 0.45 0.39 0.34 0.35 0.38 0.38 0.40
0.02 0.14 0.14 0.12 0.13 0.07 0.10 0.30 0.35 0.48 0.29 0.37 0.20 0.40 0.77 0.65 0.86 0.64 0.20 0.18 0.20 0.22 0.20 0.16 0.09 0.15 0.16 0.28 0.39 0.52 0.86 1.41 1.71 1.56 1.30 0.98 0.75 1.07 1.09 0.81 0.78 0.73 0.62 0.59
0.12 0.14 0.08 0.07 0.06 0.06 0.16 0.24 0.46 0.96 0.64 0.39 0.45 0.59 0.93 0.76 0.40 0.69 0.32 0.24 0.11 0.13 0.19 0.14 0.11 0.10 0.11 0.13 0.20 0.36 0.48 0.71 1.04 1.24 1.62 2.02 1.72 1.44 1.55 1.46 1.34 1.29 0.92 0.79
0.24 0.26 0.22 0.15 0.18 0.16 0.23 0.33 0.46 0.62 0.85 0.61 0.74 0.66 0.95 0.72 0.71 0.92 0.48 0.10 0.07 0.16 0.23 0.19 0.16 0.18 0.18 0.17 0.22 0.33 0.42 0.65 0.89 1.08 1.17 1.66 1.73 2.04 1.57 1.49 1.58 1.33 1.04 0.84
0.41 0.17 0.14 0.16 0.20 0.25 0.26 0.18 0.28 0.85 1.31 0.69 0.35 0.40 1.14 1.31 1.19 0.59 0.20 0.15 0.15 0.22 0.27 0.20 0.24 0.33 0.41 0.45 0.53 0.52 0.59 0.67 0.96 0.99 1.14 0.98 1.18 1.51 1.76 1.26 1.16 1.16 1.16 1.01
0.50 0.34 0.13 0.07 0.06 0.13 0.16 0.22 0.26 0.45 0.46 0.68 0.44 0.59 0.73 0.83 0.96 0.72 0.37 0.23 0.24 0.28 0.25 0.21 0.24 0.33 0.43 0.59 0.57 0.60 0.67 0.69 0.72 0.81 0.88 1.01 1.18 1.29 1.71 1.43 1.36 1.26 1.25 1.56
0.51 0.62 0.36 0.11 0.03 0.08 0.13 0.09 0.18 0.29 0.37 0.37 0.28 0.59 0.49 0.53 0.58 0.77 0.60 0.41 0.31 0.29 0.25 0.17 0.15 0.23 0.27 0.33 0.43 0.48 0.64 0.84 0.84 0.88 0.93 1.52 1.15 1.19 1.15 1.48 1.44 1.55 1.14 1.33
0.44 0.58 0.57 0.58 0.09 0.16 0.19 0.13 0.10 0.19 0.54 0.46 0.68 0.49 0.30 0.45 0.56 0.47 0.59 0.54 0.58 0.42 0.32 0.31 0.25 0.31 0.34 0.38 0.42 0.51 0.68 0.77 0.87 0.89 1.12 1.15 1.45 1.47 1.32 1.10 1.27 1.53 1.81 1.64
0.37 0.46 0.74 0.56 0.41 0.53 0.37 0.19 0.24 0.30 0.41 0.44 0.40 0.38 0.42 0.37 0.51 0.41 0.49 0.68 0.93 1.11 0.52 0.43 0.45 0.44 0.57 0.60 0.53 0.66 0.73 0.86 1.00 1.23 1.17 1.22 1.09 1.26 1.31 1.52 1.39 1.40 1.80 1.91
0.31 0.55 0.89 0.62 0.49 0.46 0.64 0.71 0.68 0.59 0.53 0.42 0.41 0.50 0.44 0.26 0.35 0.49 0.51 0.60 0.86 1.18 1.29 0.91 0.69 0.63 0.66 0.64 0.79 0.80 0.86 0.85 0.91 1.18 1.52 1.67 1.62 1.48 1.25 1.45 2.01 1.83 1.72 1.75
0.31 0.47 0.99 0.85 0.78 0.86 0.85 0.36 0.28 0.51 0.76 0.43 0.28 0.35 0.42 0.51 0.72 0.90 0.87 0.62 0.66 0.80 1.00 1.39 1.17 0.71 0.60 0.66 0.62 0.74 0.78 0.87 1.11 1.36 1.40 1.47 1.76 1.96 2.33 2.07 1.94 2.27 2.00 1.82
0.43 0.76 0.83 0.77 0.97 0.64 0.34 0.42 0.43 0.63 0.74 0.32 0.26 0.30 0.50 0.69 0.82 1.22 1.10 0.98 0.85 0.82 0.75 0.70 0.99 1.13 0.83 0.67 0.58 0.56 0.76 0.91 1.27 1.26 1.40 1.38 1.32 1.53 1.88 2.09 2.16 2.01 2.08 1.89
0.53 0.73 0.98 1.09 1.20 0.75 0.34 0.52 0.58 0.62 0.41 0.28 0.34 0.44 0.39 0.77 1.05 1.23 1.10 0.89 0.67 0.56 0.45 0.31 0.30 0.51 0.83 0.78 0.67 0.57 0.54 0.78 0.79 0.96 1.02 1.06 1.23 1.20 1.21 1.21 1.45 1.63 1.79 1.80
1.45 0.99 1.02 0.78 0.65 0.58 0.45 0.49 0.43 0.29 0.29 0.41 0.49 0.92 0.84 1.07 1.43 1.46 1.17 0.85 0.63 0.45 0.31 0.20 0.16 0.22 0.30 0.34 0.46 0.61 0.67 0.53 0.57 0.55 0.58 0.71 0.68 0.77 0.88 0.92 0.99 0.94 0.95 1.04
0.84 0.50 0.74 0.74 0.51 0.44 0.60 0.37 0.27 0.21 0.26 0.37 0.74 1.10 1.57 1.50 1.45 1.25 0.88 0.64 0.47 0.34 0.28 0.19 0.16 0.20 0.21 0.19 0.23 0.32 0.43 0.50 0.51 0.49 0.48 0.45 0.49 0.56 0.56 0.61 0.73 0.79 0.86 0.91
0.79 0.53 0.46 0.64 0.89 0.67 0.50 0.47 0.50 0.43 0.31 0.33 0.49 0.66 0.69 0.66 0.66 0.58 0.49 0.40 0.30 0.26 0.22 0.14 0.13 0.12 0.16 0.11 0.14 0.19 0.18 0.17 0.19 0.21 0.24 0.30 0.32 0.35 0.41 0.51 0.60 0.61 0.85 0.86
0.92 0.99 0.67 0.88 1.52 1.25 0.80 0.51 0.48 0.57 0.62 0.48 0.42 0.57 0.61 0.41 0.47 0.43 0.47 0.42 0.37 0.32 0.23 0.16 0.13 0.11 0.15 0.17 0.23 0.27 0.28 0.28 0.31 0.35 0.35 0.36 0.36 0.40 0.45 0.50 0.62 0.73 0.80 0.79

GFSCGP_prec_precacc_147.txt.gz
Total_Precipitation_Accumulation
0.00 0.00 0.00 0.00 0.00 0.00 0.00 0.00 0.00 0.00 0.01 0.00 0.00 0.01 0.01 0.00 0.00 0.03 0.05 0.07 0.02 0.00 0.03 0.05 0.07 0.09 0.07 0.08 0.19 0.43 0.83 1.16 0.65 0.38 0.27 0.35 0.37 0.37 0.38 0.44 0.78 1.09 1.01 1.01
0.02 0.01 0.00 0.00 0.00 0.00 0.00 0.00 0.00 0.00 0.00 0.00 0.00 0.00 0.00 0.00 0.00 0.01 0.01 0.11 0.03 0.00 0.01 0.02 0.04 0.03 0.04 0.11 0.36 0.45 0.40 0.44 0.41 0.31 0.22 0.19 0.28 0.42 0.32 0.38 0.53 0.80 0.98 1.07
0.02 0.01 0.00 0.01 0.00 0.00 0.00 0.00 0.00 0.00 0.00 0.00 0.00 0.00 0.00 0.01 0.01 0.02 0.00 0.00 0.00 0.00 0.02 0.03 0.03 0.03 0.01 0.02 0.18 0.19 0.09 0.13 0.23 0.32 0.31 0.32 0.43 0.52 0.52 0.34 0.34 0.47 0.82 1.11
0.07 0.00 0.02 0.00 0.00 0.00 0.00 0.00 0.00 0.00 0.00 0.00 0.00 0.00 0.00 0.00 0.01 0.00 0.00 0.00 0.00 0.02 0.01 0.00 0.00 0.00 0.02 0.06 0.25 0.12 0.11 0.13 0.12 0.14 0.16 0.19 0.29 0.23 0.21 0.21 0.17 0.38 0.38 0.76
0.09 0.03 0.04 0.02 0.00 0.00 0.01 0.00 0.00 0.00 0.00 0.05 0.02 0.00 0.03 0.05 0.02 0.00 0.01 0.02 0.02 0.03 0.02 0.02 0.02 0.01 0.03 0.07 0.20 0.16 0.13 0.22 0.16 0.27 0.30 0.23 0.26 0.26 0.24 0.18 0.22 0.27 0.39 0.35
0.01 0.02 0.06 0.03 0.00 0.00 0.00 0.02 0.00 0.00 0.02 0.07 0.01 0.01 0.01 0.01 0.03 0.07 0.14 0.11 0.08 0.07 0.05 0.04 0.04 0.05 0.05 0.12 0.20 0.31 0.31 0.22 0.21 0.36 0.42 0.27 0.23 0.20 0.32 0.32 0.23 0.27 0.36 0.50
0.00 0.01 0.01 0.01 0.01 0.01 0.02 0.11 0.18 0.19 0.09 0.04 0.00 0.02 0.02 0.06 0.16 0.28 0.32 0.14 0.08 0.06 0.11 0.14 0.15 0.13 0.10 0.11 0.15 0.28 0.42 0.47 0.33 0.34 0.29 0.26 0.22 0.25 0.19 0.22 0.27 0.31 0.32 0.52
0.06 0.06 0.00 0.01 0.00 0.02 0.02 0.08 0.26 0.36 0.18 0.08 0.15 0.09 0.18 0.36 0.38 0.44 0.32 0.24 0.20 0.24 0.27 0.28 0.21 0.14 0.13 0.19 0.13 0.13 0.48 0.66 0.71 0.60 0.36 0.30 0.25 0.19 0.20 0.25 0.25 0.18 0.17 0.17
0.11 0.07 0.02 0.01 0.01 0.02 0.08 0.11 0.10 0.50 0.29 0.17 0.12 0.11 0.58 1.05 0.79 1.22 1.33 0.82 0.67 0.55 0.44 0.28 0.16 0.12 0.13 0.17 0.24 0.34 0.53 0.59 0.79 0.64 0.40 0.34 0.24 0.19 0.20 0.23 0.21 0.19 0.21 0.26
0.06 0.18 0.04 0.02 0.04 0.01 0.07 0.12 0.42 0.70 0.57 0.25 0.01 0.06 0.41 0.67 0.73 0.80 0.68 0.52 0.40 0.31 0.21 0.17 0.12 0.17 0.14 0.23 0.50 0.90 1.04 0.97 1.01 0.93 0.82 0.55 0.46 0.45 0.39 0.34 0.35 0.38 0.38 0.40
0.02 0.14 0.14 0.12 0.13 0.07 0.10 0.30 0.35 0.48 0.29 0.37 0.20 0.40 0.77 0.65 0.86 0.64 0.20 0.18 0.20 0.22 0.20 0.16 0.09 0.15 0.16 0.28 0.39 0.52 0.86 1.41 1.71 1.56 1.30 0.98 0.75 1.07 1.09 0.81 0.78 0.73 0.62 0.59
0.12 0.14 0.08 0.07 0.06 0.06 0.16 0.24 0.46 0.96 0.64 0.39 0.46 0.59 0.93 0.76 0.40 0.69 0.32 0.24 0.11 0.13 0.19 0.14 0.11 0.10 0.11 0.13 0.20 0.36 0.48 0.71 1.04 1.24 1.62 2.02 1.72 1.44 1.55 1.46 1.34 1.29 0.92 0.79
0.24 0.29 0.22 0.15 0.18 0.16 0.24 0.33 0.46 0.62 0.86 0.61 0.76 0.67 0.95 0.72 0.71 0.92 0.48 0.10 0.07 0.16 0.23 0.19 0.16 0.18 0.18 0.17 0.22 0.34 0.43 0.66 0.89 1.08 1.17 1.66 1.73 2.04 1.57 1.49 1.58 1.33 1.04 0.84
0.41 0.17 0.15 0.16 0.20 0.26 0.28 0.19 0.29 0.85 1.32 0.70 0.36 0.41 1.14 1.31 1.19 0.59 0.20 0.15 0.15 0.22 0.27 0.20 0.25 0.36 0.43 0.47 0.54 0.54 0.63 0.70 0.97 0.99 1.14 0.98 1.18 1.51 1.76 1.26 1.16 1.16 1.16 1.01
0.51 0.35 0.13 0.07 0.06 0.14 0.19 0.25 0.27 0.47 0.48 0.72 0.46 0.61 0.74 0.83 0.96 0.72 0.37 0.23 0.24 0.28 0.25 0.22 0.27 0.36 0.45 0.60 0.58 0.61 0.68 0.69 0.72 0.81 0.88 1.01 1.18 1.29 1.71 1.43 1.36 1.26 1.25 1.56
0.51 0.63 0.36 0.12 0.03 0.09 0.14 0.10 0.18 0.30 0.39 0.41 0.32 0.61 0.49 0.53 0.58 0.77 0.60 0.41 0.31 0.29 0.25 0.18 0.16 0.24 0.28 0.33 0.43 0.48 0.64 0.85 0.84 0.88 0.93 1.52 1.15 1.19 1.15 1.48 1.44 1.55 1.14 1.33
0.44 0.58 0.57 0.59 0.09 0.16 0.20 0.13 0.10 0.19 0.54 0.46 0.69 0.49 0.30 0.45 0.56 0.47 0.59 0.54 0.58 0.43 0.32 0.31 0.25 0.31 0.35 0.38 0.42 0.52 0.70 0.78 0.87 0.89 1.12 1.15 1.45 1.47 1.32 1.10 1.27 1.53 1.81 1.64
0.37 0.46 0.75 0.57 0.41 0.54 0.37 0.19 0.24 0.30 0.41 0.44 0.40 0.38 0.42 0.37 0.51 0.41 0.49 0.68 0.94 1.11 0.52 0.43 0.45 0.44 0.57 0.60 0.53 0.66 0.73 0.86 1.00 1.23 1.17 1.22 1.09 1.26 1.31 1.52 1.39 1.40 1.80 1.91
0.31 0.55 0.90 0.62 0.50 0.46 0.64 0.71 0.68 0.59 0.53 0.42 0.41 0.50 0.44 0.26 0.35 0.49 0.51 0.60 0.86 1.18 1.29 0.91 0.69 0.63 0.66 0.64 0.79 0.80 0.86 0.85 0.91 1.18 1.52 1.67 1.62 1.48 1.25 1.45 2.01 1.83 1.72 1.75
0.31 0.47 1.00 0.85 0.79 0.86 0.85 0.36 0.28 0.51 0.76 0.43 0.28 0.35 0.42 0.51 0.72 0.90 0.87 0.62 0.66 0.80 1.00 1.39 1.17 0.71 0.60 0.66 0.62 0.74 0.78 0.87 1.11 1.36 1.40 1.47 1.76 1.96 2.33 2.07 1.94 2.27 2.00 1.82
0.43 0.76 0.83 0.77 0.97 0.64 0.34 0.42 0.43 0.63 0.74 0.32 0.26 0.30 0.50 0.69 0.83 1.22 1.10 0.98 0.85 0.82 0.75 0.70 0.99 1.13 0.83 0.67 0.58 0.56 0.76 0.91 1.27 1.26 1.40 1.38 1.32 1.53 1.88 2.09 2.16 2.02 2.08 1.89
0.53 0.73 0.98 1.09 1.20 0.75 0.34 0.52 0.59 0.62 0.41 0.28 0.34 0.44 0.39 0.77 1.05 1.23 1.10 0.89 0.67 0.56 0.45 0.31 0.30 0.51 0.83 0.78 0.67 0.57 0.54 0.78 0.79 0.96 1.02 1.06 1.23 1.20 1.21 1.21 1.46 1.64 1.79 1.80
1.45 0.99 1.02 0.78 0.65 0.58 0.45 0.49 0.43 0.29 0.29 0.41 0.49 0.92 0.84 1.07 1.43 1.46 1.17 0.85 0.63 0.45 0.31 0.20 0.16 0.22 0.30 0.34 0.46 0.61 0.67 0.53 0.57 0.55 0.58 0.71 0.68 0.77 0.88 0.92 0.99 0.94 0.95 1.04
0.84 0.50 0.74 0.74 0.51 0.44 0.60 0.37 0.27 0.21 0.26 0.37 0.74 1.10 1.57 1.50 1.45 1.25 0.88 0.64 0.47 0.34 0.28 0.19 0.16 0.20 0.21 0.19 0.23 0.32 0.43 0.50 0.51 0.49 0.48 0.45 0.49 0.56 0.56 0.61 0.73 0.79 0.86 0.91
0.79 0.53 0.46 0.64 0.89 0.67 0.50 0.48 0.53 0.45 0.32 0.33 0.49 0.66 0.69 0.66 0.66 0.58 0.49 0.40 0.30 0.26 0.22 0.14 0.13 0.12 0.16 0.11 0.14 0.19 0.18 0.17 0.19 0.21 0.24 0.30 0.32 0.35 0.41 0.51 0.60 0.61 0.85 0.86
0.92 0.99 0.67 0.88 1.52 1.25 0.80 0.51 0.51 0.59 0.62 0.48 0.42 0.57 0.61 0.41 0.47 0.43 0.47 0.42 0.37 0.32 0.23 0.17 0.13 0.11 0.15 0.17 0.23 0.27 0.28 0.28 0.31 0.35 0.35 0.36 0.36 0.40 0.45 0.50 0.62 0.73 0.80 0.79

GFSCGP_prec_precacc_150.txt.gz
Total_Precipitation_Accumulation
0.00 0.00 0.00 0.00 0.00 0.00 0.00 0.00 0.00 0.00 0.01 0.00 0.00 0.01 0.01 0.00 0.00 0.03 0.05 0.07 0.02 0.00 0.03 0.05 0.07 0.09 0.07 0.08 0.19 0.43 0.83 1.16 0.65 0.38 0.27 0.35 0.37 0.37 0.38 0.44 0.78 1.09 1.01 1.01
0.02 0.01 0.00 0.00 0.00 0.00 0.00 0.00 0.00 0.00 0.00 0.00 0.00 0.00 0.00 0.00 0.00 0.01 0.01 0.11 0.03 0.00 0.01 0.02 0.04 0.03 0.04 0.11 0.36 0.45 0.40 0.44 0.41 0.31 0.22 0.19 0.28 0.42 0.32 0.38 0.53 0.80 0.98 1.07
0.02 0.01 0.00 0.01 0.00 0.00 0.00 0.00 0.00 0.00 0.00 0.00 0.00 0.00 0.00 0.01 0.01 0.02 0.00 0.00 0.00 0.00 0.02 0.03 0.03 0.03 0.01 0.02 0.18 0.19 0.09 0.13 0.23 0.32 0.31 0.32 0.43 0.52 0.52 0.34 0.34 0.47 0.82 1.11
0.07 0.00 0.02 0.00 0.00 0.00 0.00 0.00 0.00 0.00 0.00 0.00 0.00 0.00 0.00 0.00 0.01 0.00 0.00 0.00 0.00 0.02 0.01 0.00 0.00 0.00 0.02 0.06 0.25 0.12 0.11 0.13 0.12 0.14 0.16 0.19 0.29 0.23 0.21 0.21 0.17 0.38 0.38 0.76
0.09 0.03 0.04 0.02 0.00 0.00 0.01 0.00 0.00 0.00 0.00 0.05 0.02 0.00 0.03 0.05 0.02 0.00 0.01 0.02 0.02 0.03 0.02 0.02 0.02 0.01 0.03 0.07 0.20 0.16 0.13 0.22 0.16 0.27 0.30 0.23 0.26 0.26 0.24 0.18 0.22 0.27 0.39 0.35
0.01 0.02 0.06 0.03 0.00 0.00 0.00 0.02 0.00 0.00 0.02 0.07 0.01 0.01 0.01 0.01 0.03 0.07 0.14 0.11 0.08 0.07 0.05 0.04 0.04 0.05 0.05 0.12 0.20 0.31 0.31 0.22 0.21 0.36 0.42 0.27 0.23 0.20 0.32 0.32 0.23 0.27 0.36 0.50
0.00 0.01 0.01 0.01 0.01 0.01 0.02 0.11 0.18 0.19 0.09 0.04 0.00 0.02 0.02 0.06 0.16 0.28 0.32 0.14 0.08 0.06 0.11 0.14 0.15 0.13 0.10 0.11 0.15 0.28 0.42 0.47 0.33 0.34 0.29 0.26 0.22 0.25 0.19 0.22 0.27 0.31 0.32 0.52
0.06 0.06 0.00 0.01 0.00 0.02 0.02 0.08 0.26 0.36 0.18 0.08 0.15 0.09 0.18 0.36 0.38 0.44 0.32 0.24 0.20 0.24 0.27 0.28 0.21 0.14 0.13 0.19 0.13 0.13 0.48 0.66 0.71 0.60 0.36 0.30 0.25 0.19 0.20 0.25 0.25 0.18 0.17 0.17
0.11 0.07 0.02 0.01 0.01 0.02 0.08 0.11 0.10 0.50 0.29 0.17 0.12 0.11 0.58 1.05 0.79 1.22 1.33 0.82 0.67 0.55 0.44 0.28 0.16 0.12 0.13 0.17 0.24 0.34 0.54 0.59 0.79 0.64 0.40 0.34 0.24 0.19 0.20 0.23 0.21 0.19 0.21 0.26
0.06 0.18 0.04 0.02 0.04 0.01 0.07 0.12 0.42 0.70 0.57 0.25 0.01 0.06 0.41 0.67 0.73 0.80 0.68 0.52 0.40 0.31 0.21 0.17 0.12 0.17 0.14 0.23 0.50 0.90 1.04 0.97 1.01 0.93 0.82 0.55 0.46 0.45 0.39 0.34 0.35 0.38 0.38 0.40
0.02 0.14 0.14 0.12 0.13 0.07 0.10 0.30 0.35 0.48 0.29 0.37 0.20 0.40 0.77 0.65 0.86 0.64 0.20 0.18 0.20 0.22 0.20 0.16 0.09 0.15 0.16 0.28 0.39 0.52 0.86 1.41 1.71 1.56 1.30 0.98 0.75 1.07 1.09 0.81 0.78 0.73 0.62 0.59
0.12 0.14 0.08 0.07 0.06 0.06 0.16 0.24 0.46 0.96 0.64 0.39 0.46 0.59 0.93 0.76 0.40 0.69 0.32 0.24 0.11 0.13 0.19 0.14 0.11 0.10 0.11 0.13 0.20 0.36 0.49 0.71 1.04 1.24 1.62 2.02 1.72 1.44 1.55 1.46 1.34 1.29 0.92 0.79
0.24 0.31 0.22 0.15 0.18 0.16 0.24 0.33 0.46 0.62 0.86 0.61 0.76 0.67 0.95 0.72 0.71 0.92 0.48 0.10 0.07 0.16 0.23 0.19 0.16 0.18 0.18 0.17 0.23 0.35 0.44 0.66 0.89 1.08 1.17 1.66 1.73 2.04 1.57 1.49 1.58 1.33 1.04 0.84
0.41 0.18 0.16 0.16 0.21 0.27 0.29 0.19 0.29 0.86 1.32 0.71 0.36 0.41 1.14 1.31 1.19 0.59 0.20 0.15 0.15 0.22 0.27 0.20 0.26 0.37 0.45 0.48 0.56 0.55 0.63 0.70 0.97 0.99 1.14 0.98 1.18 1.51 1.76 1.26 1.16 1.16 1.16 1.01
0.51 0.35 0.13 0.07 0.06 0.16 0.20 0.25 0.28 0.53 0.58 0.87 0.50 0.66 0.76 0.83 0.97 0.74 0.37 0.23 0.24 0.28 0.25 0.22 0.28 0.39 0.47 0.62 0.59 0.61 0.68 0.69 0.73 0.81 0.88 1.01 1.18 1.29 1.71 1.43 1.36 1.26 1.25 1.56
0.51 0.66 0.36 0.12 0.03 0.10 0.19 0.11 0.18 0.30 0.41 0.43 0.33 0.61 0.50 0.53 0.58 0.77 0.60 0.41 0.31 0.29 0.25 0.18 0.16 0.24 0.29 0.34 0.43 0.48 0.64 0.86 0.86 0.88 0.93 1.52 1.15 1.19 1.15 1.48 1.44 1.55 1.14 1.33
0.44 0.58 0.57 0.59 0.09 0.16 0.23 0.13 0.10 0.19 0.54 0.47 0.69 0.50 0.30 0.45 0.56 0.47 0.59 0.54 0.58 0.43 0.33 0.31 0.25 0.31 0.35 0.39 0.43 0.52 0.70 0.78 0.88 0.89 1.12 1.15 1.45 1.47 1.32 1.10 1.27 1.53 1.81 1.64
0.37 0.47 0.76 0.57 0.42 0.58 0.38 0.19 0.24 0.30 0.41 0.44 0.40 0.38 0.42 0.37 0.51 0.41 0.49 0.69 0.94 1.12 0.53 0.43 0.46 0.44 0.58 0.61 0.53 0.67 0.74 0.88 1.01 1.23 1.17 1.22 1.09 1.26 1.31 1.52 1.39 1.40 1.80 1.91
0.31 0.55 0.91 0.63 0.50 0.46 0.64 0.71 0.68 0.59 0.53 0.42 0.41 0.50 0.44 0.26 0.35 0.49 0.51 0.60 0.86 1.18 1.29 0.91 0.69 0.63 0.67 0.64 0.79 0.81 0.90 0.89 0.92 1.18 1.52 1.67 1.62 1.48 1.25 1.45 2.01 1.83 1.72 1.75
0.31 0.47 1.01 0.85 0.79 0.87 0.85 0.36 0.28 0.51 0.76 0.43 0.28 0.35 0.42 0.51 0.72 0.90 0.87 0.62 0.66 0.80 1.00 1.39 1.17 0.71 0.60 0.66 0.63 0.79 0.87 0.93 1.11 1.36 1.40 1.47 1.76 1.96 2.33 2.07 1.94 2.27 2.00 1.82
0.43 0.76 0.83 0.77 0.98 0.64 0.34 0.42 0.43 0.63 0.74 0.32 0.26 0.31 0.50 0.69 0.83 1.22 1.10 0.98 0.85 0.82 0.75 0.70 0.99 1.13 0.83 0.67 0.58 0.58 0.79 0.92 1.27 1.26 1.40 1.38 1.32 1.53 1.88 2.09 2.16 2.02 2.08 1.89
0.53 0.73 0.98 1.09 1.20 0.75 0.34 0.52 0.59 0.62 0.41 0.28 0.34 0.44 0.40 0.77 1.05 1.23 1.10 0.89 0.67 0.56 0.45 0.31 0.30 0.51 0.83 0.78 0.68 0.57 0.54 0.78 0.79 0.96 1.02 1.06 1.23 1.20 1.21 1.21 1.46 1.64 1.79 1.80
1.45 0.99 1.02 0.78 0.65 0.58 0.45 0.49 0.43 0.29 0.29 0.41 0.49 0.92 0.84 1.07 1.43 1.46 1.17 0.85 0.63 0.45 0.31 0.20 0.16 0.22 0.30 0.34 0.47 0.62 0.67 0.53 0.57 0.55 0.58 0.72 0.68 0.77 0.88 0.93 1.00 0.95 0.95 1.04
0.84 0.50 0.74 0.74 0.51 0.44 0.60 0.37 0.27 0.21 0.26 0.37 0.74 1.10 1.57 1.50 1.45 1.25 0.88 0.64 0.47 0.34 0.28 0.19 0.16 0.20 0.21 0.19 0.24 0.32 0.43 0.50 0.51 0.49 0.48 0.46 0.49 0.57 0.56 0.62 0.74 0.79 0.86 0.91
0.79 0.53 0.46 0.64 0.89 0.67 0.50 0.48 0.53 0.45 0.32 0.33 0.49 0.66 0.69 0.66 0.66 0.58 0.49 0.40 0.30 0.26 0.22 0.14 0.13 0.12 0.16 0.11 0.14 0.19 0.18 0.17 0.19 0.21 0.24 0.30 0.33 0.35 0.41 0.52 0.60 0.61 0.85 0.86
0.92 0.99 0.67 0.88 1.52 1.25 0.80 0.51 0.51 0.59 0.62 0.48 0.42 0.57 0.61 0.41 0.47 0.43 0.47 0.42 0.37 0.32 0.23 0.17 0.14 0.11 0.16 0.17 0.23 0.27 0.28 0.29 0.32 0.35 0.35 0.36 0.36 0.40 0.45 0.50 0.62 0.73 0.80 0.79

GFSCGP_prec_precacc_153.txt.gz
Total_Precipitation_Accumulation
0.00 0.00 0.00 0.00 0.00 0.00 0.00 0.00 0.00 0.00 0.01 0.00 0.00 0.01 0.01 0.00 0.00 0.03 0.05 0.07 0.02 0.00 0.03 0.05 0.07 0.09 0.07 0.08 0.19 0.43 0.83 1.16 0.65 0.38 0.27 0.35 0.37 0.37 0.38 0.44 0.78 1.09 1.01 1.01
0.02 0.01 0.00 0.00 0.00 0.00 0.00 0.00 0.00 0.00 0.00 0.00 0.00 0.00 0.00 0.00 0.00 0.01 0.01 0.11 0.03 0.00 0.01 0.02 0.04 0.03 0.04 0.11 0.36 0.45 0.40 0.44 0.41 0.31 0.22 0.19 0.28 0.42 0.32 0.38 0.53 0.80 0.98 1.07
0.02 0.01 0.00 0.01 0.00 0.00 0.00 0.00 0.00 0.00 0.00 0.00 0.00 0.00 0.00 0.01 0.01 0.02 0.00 0.00 0.00 0.00 0.02 0.03 0.03 0.03 0.01 0.02 0.18 0.19 0.09 0.13 0.23 0.32 0.31 0.32 0.43 0.52 0.52 0.34 0.34 0.47 0.82 1.11
0.07 0.00 0.02 0.00 0.00 0.00 0.00 0.00 0.00 0.00 0.00 0.00 0.00 0.00 0.00 0.00 0.01 0.00 0.00 0.00 0.00 0.02 0.01 0.00 0.00 0.00 0.02 0.06 0.25 0.12 0.11 0.13 0.12 0.14 0.16 0.19 0.29 0.23 0.21 0.21 0.17 0.38 0.38 0.76
0.09 0.03 0.04 0.02 0.00 0.00 0.01 0.00 0.00 0.00 0.00 0.05 0.02 0.00 0.03 0.05 0.02 0.00 0.01 0.02 0.02 0.03 0.02 0.02 0.02 0.01 0.03 0.07 0.20 0.16 0.13 0.22 0.16 0.27 0.30 0.23 0.26 0.26 0.24 0.18 0.22 0.27 0.39 0.35
0.01 0.02 0.06 0.03 0.00 0.00 0.00 0.02 0.00 0.00 0.02 0.07 0.01 0.01 0.01 0.01 0.03 0.07 0.14 0.11 0.08 0.07 0.05 0.04 0.04 0.05 0.05 0.12 0.20 0.31 0.31 0.22 0.21 0.36 0.42 0.27 0.23 0.20 0.32 0.32 0.23 0.27 0.36 0.50
0.00 0.01 0.01 0.01 0.01 0.01 0.02 0.11 0.18 0.19 0.09 0.04 0.00 0.02 0.02 0.06 0.16 0.28 0.32 0.14 0.08 0.06 0.11 0.14 0.15 0.13 0.10 0.11 0.15 0.28 0.42 0.47 0.33 0.34 0.29 0.26 0.22 0.25 0.19 0.22 0.27 0.31 0.32 0.52
0.06 0.06 0.00 0.01 0.00 0.02 0.02 0.08 0.26 0.36 0.18 0.08 0.15 0.09 0.18 0.36 0.38 0.44 0.32 0.24 0.20 0.24 0.27 0.28 0.21 0.14 0.13 0.19 0.13 0.13 0.48 0.66 0.71 0.60 0.36 0.30 0.25 0.19 0.20 0.25 0.25 0.18 0.17 0.17
0.11 0.07 0.02 0.01 0.01 0.02 0.08 0.11 0.10 0.50 0.29 0.17 0.12 0.11 0.58 1.05 0.79 1.22 1.33 0.82 0.67 0.55 0.44 0.28 0.16 0.12 0.13 0.17 0.24 0.34 0.54 0.59 0.79 0.64 0.40 0.34 0.24 0.19 0.20 0.23 0.21 0.19 0.21 0.26
0.06 0.18 0.04 0.02 0.04 0.01 0.07 0.12 0.42 0.70 0.57 0.25 0.01 0.06 0.41 0.67 0.73 0.80 0.68 0.52 0.40 0.31 0.21 0.17 0.12 0.17 0.14 0.23 0.50 0.90 1.04 0.97 1.01 0.93 0.82 0.55 0.46 0.45 0.39 0.34 0.35 0.38 0.38 0.40
0.02 0.14 0.14 0.12 0.13 0.07 0.10 0.30 0.35 0.48 0.29 0.37 0.20 0.40 0.77 0.65 0.86 0.64 0.20 0.18 0.20 0.22 0.20 0.16 0.09 0.15 0.16 0.28 0.39 0.52 0.86 1.41 1.71 1.56 1.30 0.98 0.75 1.07 1.09 0.81 0.78 0.73 0.62 0.59
0.12 0.14 0.08 0.07 0.06 0.06 0.16 0.24 0.46 0.96 0.64 0.39 0.46 0.59 0.93 0.76 0.40 0.69 0.32 0.24 0.11 0.13 0.19 0.14 0.11 0.10 0.11 0.13 0.20 0.37 0.49 0.71 1.04 1.24 1.62 2.02 1.72 1.44 1.55 1.46 1.34 1.29 0.92 0.79
0.24 0.32 0.22 0.15 0.18 0.16 0.24 0.33 0.46 0.62 0.86 0.61 0.76 0.68 0.95 0.72 0.71 0.92 0.48 0.10 0.07 0.16 0.23 0.19 0.16 0.18 0.18 0.17 0.23 0.35 0.45 0.66 0.89 1.08 1.17 1.66 1.73 2.04 1.57 1.49 1.58 1.33 1.04 0.84
0.41 0.19 0.18 0.19 0.26 0.29 0.31 0.21 0.31 0.92 1.39 0.75 0.38 0.42 1.14 1.31 1.20 0.61 0.20 0.15 0.15 0.22 0.27 0.20 0.26 0.37 0.45 0.49 0.57 0.56 0.64 0.70 0.97 0.99 1.14 0.98 1.18 1.51 1.76 1.26 1.16 1.16 1.16 1.01
0.51 0.35 0.13 0.08 0.08 0.17 0.22 0.26 0.29 0.58 0.63 0.97 0.52 0.68 0.76 0.84 1.01 0.80 0.37 0.23 0.24 0.28 0.25 0.22 0.28 0.39 0.48 0.62 0.60 0.62 0.68 0.69 0.73 0.81 0.89 1.01 1.18 1.29 1.71 1.43 1.36 1.26 1.25 1.56
0.51 0.67 0.36 0.13 0.03 0.11 0.21 0.11 0.18 0.30 0.41 0.43 0.33 0.61 0.50 0.53 0.59 0.77 0.60 0.41 0.31 0.29 0.25 0.18 0.16 0.24 0.30 0.34 0.44 0.49 0.64 0.86 0.86 0.88 0.94 1.53 1.15 1.19 1.15 1.48 1.44 1.55 1.14 1.33
0.44 0.58 0.57 0.59 0.09 0.17 0.24 0.13 0.10 0.19 0.54 0.47 0.69 0.50 0.30 0.45 0.56 0.47 0.59 0.54 0.58 0.43 0.33 0.31 0.25 0.31 0.35 0.39 0.44 0.52 0.70 0.78 0.89 0.92 1.16 1.17 1.45 1.47 1.32 1.10 1.27 1.53 1.81 1.64
0.37 0.47 0.76 0.58 0.43 0.60 0.38 0.19 0.24 0.30 0.41 0.44 0.40 0.38 0.42 0.37 0.51 0.41 0.49 0.69 0.94 1.12 0.53 0.43 0.46 0.44 0.58 0.61 0.53 0.67 0.74 0.89 1.06 1.30 1.21 1.23 1.09 1.26 1.31 1.52 1.39 1.40 1.80 1.91
0.31 0.56 0.92 0.65 0.51 0.46 0.64 0.71 0.68 0.59 0.53 0.42 0.41 0.50 0.44 0.26 0.35 0.49 0.51 0.60 0.86 1.18 1.29 0.91 0.69 0.63 0.67 0.64 0.79 0.81 0.91 0.92 1.00 1.25 1.55 1.68 1.62 1.48 1.25 1.45 2.01 1.83 1.72 1.75
0.31 0.47 1.03 0.86 0.80 0.87 0.85 0.36 0.28 0.51 0.76 0.43 0.28 0.35 0.42 0.51 0.72 0.90 0.87 0.62 0.66 0.80 1.00 1.39 1.17 0.71 0.60 0.66 0.63 0.79 0.88 0.98 1.22 1.45 1.44 1.48 1.77 1.96 2.33 2.07 1.94 2.27 2.00 1.82
0.43 0.76 0.84 0.77 0.99 0.64 0.34 0.42 0.43 0.63 0.74 0.32 0.26 0.31 0.50 0.69 0.83 1.22 1.10 0.98 0.85 0.82 0.75 0.70 0.99 1.13 0.83 0.67 0.58 0.58 0.81 0.97 1.34 1.31 1.42 1.38 1.32 1.53 1.88 2.09 2.16 2.02 2.08 1.89
0.53 0.73 0.98 1.09 1.20 0.75 0.34 0.52 0.59 0.62 0.41 0.28 0.34 0.44 0.40 0.77 1.05 1.23 1.10 0.89 0.67 0.56 0.45 0.31 0.30 0.51 0.83 0.79 0.68 0.58 0.57 0.81 0.81 0.96 1.02 1.06 1.23 1.20 1.21 1.21 1.46 1.64 1.79 1.80
1.45 0.99 1.02 0.78 0.65 0.58 0.45 0.49 0.43 0.29 0.29 0.41 0.49 0.92 0.84 1.07 1.43 1.46 1.17 0.85 0.63 0.45 0.31 0.20 0.16 0.22 0.31 0.35 0.49 0.67 0.73 0.56 0.58 0.55 0.58 0.72 0.69 0.77 0.88 0.93 1.00 0.95 0.95 1.04
0.84 0.50 0.74 0.74 0.51 0.44 0.60 0.37 0.27 0.21 0.26 0.37 0.74 1.10 1.57 1.50 1.45 1.25 0.88 0.64 0.47 0.34 0.28 0.19 0.16 0.20 0.22 0.21 0.28 0.38 0.47 0.51 0.51 0.49 0.48 0.46 0.50 0.57 0.57 0.62 0.74 0.79 0.86 0.91
0.79 0.53 0.46 0.64 0.89 0.67 0.50 0.48 0.53 0.45 0.32 0.33 0.49 0.66 0.69 0.66 0.66 0.58 0.50 0.40 0.30 0.26 0.22 0.14 0.13 0.12 0.16 0.12 0.17 0.22 0.21 0.18 0.19 0.22 0.25 0.31 0.33 0.35 0.42 0.52 0.60 0.61 0.85 0.86
0.92 0.99 0.67 0.88 1.52 1.25 0.80 0.51 0.51 0.59 0.62 0.48 0.42 0.57 0.61 0.41 0.47 0.43 0.47 0.42 0.37 0.32 0.23 0.17 0.14 0.11 0.16 0.18 0.25 0.29 0.29 0.29 0.32 0.36 0.36 0.36 0.36 0.41 0.45 0.50 0.62 0.73 0.80 0.79